<?xml version='1.0' encoding='UTF-8'?><gpx version="1.1" creator="JPX - https://github.com/jenetics/jpx" xmlns="http://www.topografix.com/GPX/1/1"><trk><trkseg><trkpt lat="-36.7403112" lon="174.4227053"><ele>89.0</ele><time>2026-04-08T20:57:23.773Z</time></trkpt><trkpt lat="-36.7402343" lon="174.4226971"><ele>89.0</ele><time>2026-04-08T20:57:26.772Z</time></trkpt><trkpt lat="-36.7401633" lon="174.4227014"><ele>89.0</ele><time>2026-04-08T20:57:29.773Z</time></trkpt><trkpt lat="-36.7400813" lon="174.4226953"><ele>89.0</ele><time>2026-04-08T20:57:32.774Z</time></trkpt><trkpt lat="-36.740013" lon="174.4226702"><ele>89.0</ele><time>2026-04-08T20:57:35.774Z</time></trkpt><trkpt lat="-36.7399941" lon="174.4225749"><ele>89.0</ele><time>2026-04-08T20:59:32.773Z</time></trkpt><trkpt lat="-36.7400273" lon="174.4224926"><ele>88.42857142857142</ele><time>2026-04-08T20:59:37.773Z</time></trkpt><trkpt lat="-36.7400465" lon="174.4224096"><ele>87.85714285714286</ele><time>2026-04-08T20:59:53.774Z</time></trkpt><trkpt lat="-36.7400821" lon="174.4223169"><ele>87.28571428571428</ele><time>2026-04-08T20:59:57.772Z</time></trkpt><trkpt lat="-36.7401069" lon="174.4222445"><ele>86.71428571428571</ele><time>2026-04-08T21:00:00.772Z</time></trkpt><trkpt lat="-36.7401386" lon="174.4221737"><ele>86.14285714285714</ele><time>2026-04-08T21:00:03.772Z</time></trkpt><trkpt lat="-36.7401986" lon="174.4221132"><ele>85.57142857142857</ele><time>2026-04-08T21:00:05.774Z</time></trkpt><trkpt lat="-36.7402549" lon="174.422037"><ele>85.0</ele><time>2026-04-08T21:00:08.773Z</time></trkpt><trkpt lat="-36.7403197" lon="174.4220662"><ele>86.28571428571429</ele><time>2026-04-08T21:00:11.772Z</time></trkpt><trkpt lat="-36.7403857" lon="174.4220651"><ele>87.57142857142857</ele><time>2026-04-08T21:00:13.773Z</time></trkpt><trkpt lat="-36.7404433" lon="174.4220165"><ele>88.85714285714286</ele><time>2026-04-08T21:00:15.772Z</time></trkpt><trkpt lat="-36.7404904" lon="174.4219293"><ele>90.14285714285714</ele><time>2026-04-08T21:00:18.772Z</time></trkpt><trkpt lat="-36.7405585" lon="174.4219107"><ele>91.42857142857142</ele><time>2026-04-08T21:00:20.772Z</time></trkpt><trkpt lat="-36.7406308" lon="174.4218821"><ele>92.71428571428571</ele><time>2026-04-08T21:00:22.773Z</time></trkpt><trkpt lat="-36.7406914" lon="174.4219151"><ele>94.0</ele><time>2026-04-08T21:00:24.773Z</time></trkpt><trkpt lat="-36.7407558" lon="174.4219385"><ele>94.0</ele><time>2026-04-08T21:00:27.773Z</time></trkpt><trkpt lat="-36.740744" lon="174.4218372"><ele>94.0</ele><time>2026-04-08T21:00:30.773Z</time></trkpt><trkpt lat="-36.7407214" lon="174.4217404"><ele>94.0</ele><time>2026-04-08T21:00:32.773Z</time></trkpt><trkpt lat="-36.740708" lon="174.4216491"><ele>94.0</ele><time>2026-04-08T21:00:34.771Z</time></trkpt><trkpt lat="-36.7407385" lon="174.4215788"><ele>94.0</ele><time>2026-04-08T21:00:36.774Z</time></trkpt><trkpt lat="-36.7408175" lon="174.4215603"><ele>94.0</ele><time>2026-04-08T21:00:38.774Z</time></trkpt><trkpt lat="-36.7408885" lon="174.4215453"><ele>94.0</ele><time>2026-04-08T21:00:40.772Z</time></trkpt><trkpt lat="-36.7409316" lon="174.4214779"><ele>94.0</ele><time>2026-04-08T21:00:42.772Z</time></trkpt><trkpt lat="-36.7409377" lon="174.4213857"><ele>94.0</ele><time>2026-04-08T21:00:44.774Z</time></trkpt><trkpt lat="-36.740922" lon="174.4212832"><ele>94.0</ele><time>2026-04-08T21:00:46.772Z</time></trkpt><trkpt lat="-36.7409319" lon="174.4211944"><ele>94.0</ele><time>2026-04-08T21:00:48.772Z</time></trkpt><trkpt lat="-36.7409482" lon="174.4210926"><ele>94.0</ele><time>2026-04-08T21:00:50.773Z</time></trkpt><trkpt lat="-36.7409629" lon="174.4210028"><ele>94.66666666666666</ele><time>2026-04-08T21:00:52.772Z</time></trkpt><trkpt lat="-36.7410079" lon="174.4209307"><ele>95.33333333333333</ele><time>2026-04-08T21:00:54.773Z</time></trkpt><trkpt lat="-36.7410704" lon="174.420856"><ele>96.0</ele><time>2026-04-08T21:00:56.772Z</time></trkpt><trkpt lat="-36.7411013" lon="174.4207652"><ele>96.66666666666666</ele><time>2026-04-08T21:00:58.772Z</time></trkpt><trkpt lat="-36.7411378" lon="174.4206684"><ele>97.33333333333333</ele><time>2026-04-08T21:01:00.774Z</time></trkpt><trkpt lat="-36.7412039" lon="174.4206006"><ele>98.0</ele><time>2026-04-08T21:01:02.772Z</time></trkpt><trkpt lat="-36.7412604" lon="174.4205641"><ele>98.80000000000001</ele><time>2026-04-08T21:01:03.773Z</time></trkpt><trkpt lat="-36.7413387" lon="174.4204968"><ele>99.6</ele><time>2026-04-08T21:01:05.773Z</time></trkpt><trkpt lat="-36.7414134" lon="174.4204054"><ele>100.4</ele><time>2026-04-08T21:01:07.774Z</time></trkpt><trkpt lat="-36.7414932" lon="174.4203228"><ele>101.19999999999999</ele><time>2026-04-08T21:01:09.771Z</time></trkpt><trkpt lat="-36.741538" lon="174.4202307"><ele>102.0</ele><time>2026-04-08T21:01:11.772Z</time></trkpt><trkpt lat="-36.7415324" lon="174.4201183"><ele>102.0</ele><time>2026-04-08T21:01:13.772Z</time></trkpt><trkpt lat="-36.7415168" lon="174.4200004"><ele>102.0</ele><time>2026-04-08T21:01:15.773Z</time></trkpt><trkpt lat="-36.7415015" lon="174.4198623"><ele>102.0</ele><time>2026-04-08T21:01:17.772Z</time></trkpt><trkpt lat="-36.7415158" lon="174.4197297"><ele>102.0</ele><time>2026-04-08T21:01:19.772Z</time></trkpt><trkpt lat="-36.7415232" lon="174.4196169"><ele>102.0</ele><time>2026-04-08T21:01:21.772Z</time></trkpt><trkpt lat="-36.7414858" lon="174.4195244"><ele>103.16666666666667</ele><time>2026-04-08T21:01:23.773Z</time></trkpt><trkpt lat="-36.7414299" lon="174.4194339"><ele>104.33333333333334</ele><time>2026-04-08T21:01:25.773Z</time></trkpt><trkpt lat="-36.7413801" lon="174.4193487"><ele>105.5</ele><time>2026-04-08T21:01:27.772Z</time></trkpt><trkpt lat="-36.7413752" lon="174.4192692"><ele>106.66666666666667</ele><time>2026-04-08T21:01:29.773Z</time></trkpt><trkpt lat="-36.7414344" lon="174.41923"><ele>107.83333333333334</ele><time>2026-04-08T21:01:30.776Z</time></trkpt><trkpt lat="-36.7415074" lon="174.419156"><ele>109.0</ele><time>2026-04-08T21:01:32.773Z</time></trkpt><trkpt lat="-36.7415966" lon="174.419106"><ele>109.0</ele><time>2026-04-08T21:01:34.772Z</time></trkpt><trkpt lat="-36.7416944" lon="174.4190508"><ele>109.0</ele><time>2026-04-08T21:01:36.773Z</time></trkpt><trkpt lat="-36.7417891" lon="174.4190162"><ele>109.0</ele><time>2026-04-08T21:01:38.772Z</time></trkpt><trkpt lat="-36.74188" lon="174.4189924"><ele>109.0</ele><time>2026-04-08T21:01:40.772Z</time></trkpt><trkpt lat="-36.74196" lon="174.4189621"><ele>109.0</ele><time>2026-04-08T21:01:42.773Z</time></trkpt><trkpt lat="-36.7420556" lon="174.4189444"><ele>109.6</ele><time>2026-04-08T21:01:44.772Z</time></trkpt><trkpt lat="-36.7421503" lon="174.4188918"><ele>110.2</ele><time>2026-04-08T21:01:46.771Z</time></trkpt><trkpt lat="-36.7422452" lon="174.4188391"><ele>110.79999999999998</ele><time>2026-04-08T21:01:48.772Z</time></trkpt><trkpt lat="-36.7423312" lon="174.4187904"><ele>111.39999999999999</ele><time>2026-04-08T21:01:50.774Z</time></trkpt><trkpt lat="-36.7424168" lon="174.4187409"><ele>112.0</ele><time>2026-04-08T21:01:52.772Z</time></trkpt><trkpt lat="-36.7425041" lon="174.4186909"><ele>112.50000000000001</ele><time>2026-04-08T21:01:54.773Z</time></trkpt><trkpt lat="-36.7426014" lon="174.4186546"><ele>113.0</ele><time>2026-04-08T21:01:56.771Z</time></trkpt><trkpt lat="-36.7426931" lon="174.4186507"><ele>113.5</ele><time>2026-04-08T21:01:58.771Z</time></trkpt><trkpt lat="-36.7427795" lon="174.4186564"><ele>114.0</ele><time>2026-04-08T21:02:00.772Z</time></trkpt><trkpt lat="-36.7428484" lon="174.4187072"><ele>114.50000000000001</ele><time>2026-04-08T21:02:02.771Z</time></trkpt><trkpt lat="-36.742919" lon="174.4187333"><ele>115.0</ele><time>2026-04-08T21:02:04.771Z</time></trkpt><trkpt lat="-36.7429981" lon="174.4187172"><ele>115.00000000000001</ele><time>2026-04-08T21:02:06.772Z</time></trkpt><trkpt lat="-36.7430847" lon="174.4187111"><ele>115.0</ele><time>2026-04-08T21:02:08.773Z</time></trkpt><trkpt lat="-36.7431629" lon="174.41871"><ele>115.0</ele><time>2026-04-08T21:02:10.773Z</time></trkpt><trkpt lat="-36.7432518" lon="174.4187185"><ele>115.0</ele><time>2026-04-08T21:02:12.772Z</time></trkpt><trkpt lat="-36.7433268" lon="174.4187014"><ele>115.00000000000001</ele><time>2026-04-08T21:02:14.772Z</time></trkpt><trkpt lat="-36.7434067" lon="174.4186757"><ele>115.0</ele><time>2026-04-08T21:02:16.773Z</time></trkpt><trkpt lat="-36.7434849" lon="174.4186539"><ele>115.8</ele><time>2026-04-08T21:02:18.772Z</time></trkpt><trkpt lat="-36.7435869" lon="174.4186902"><ele>116.6</ele><time>2026-04-08T21:02:20.772Z</time></trkpt><trkpt lat="-36.7436703" lon="174.4187241"><ele>117.4</ele><time>2026-04-08T21:02:22.772Z</time></trkpt><trkpt lat="-36.7437643" lon="174.4187331"><ele>118.2</ele><time>2026-04-08T21:02:24.772Z</time></trkpt><trkpt lat="-36.7438517" lon="174.418768"><ele>119.0</ele><time>2026-04-08T21:02:26.772Z</time></trkpt><trkpt lat="-36.7439137" lon="174.4188256"><ele>119.83333333333333</ele><time>2026-04-08T21:02:28.773Z</time></trkpt><trkpt lat="-36.7439996" lon="174.4188355"><ele>120.66666666666666</ele><time>2026-04-08T21:02:30.773Z</time></trkpt><trkpt lat="-36.7441014" lon="174.4188526"><ele>121.5</ele><time>2026-04-08T21:02:32.773Z</time></trkpt><trkpt lat="-36.7442039" lon="174.4188458"><ele>122.33333333333334</ele><time>2026-04-08T21:02:34.771Z</time></trkpt><trkpt lat="-36.7442754" lon="174.4188272"><ele>123.16666666666667</ele><time>2026-04-08T21:02:37.774Z</time></trkpt><trkpt lat="-36.7443439" lon="174.4188686"><ele>124.0</ele><time>2026-04-08T21:02:40.773Z</time></trkpt><trkpt lat="-36.7443685" lon="174.4189464"><ele>124.00000000000001</ele><time>2026-04-08T21:02:43.771Z</time></trkpt><trkpt lat="-36.7443387" lon="174.419058"><ele>124.0</ele><time>2026-04-08T21:02:46.771Z</time></trkpt><trkpt lat="-36.744301" lon="174.4191465"><ele>124.0</ele><time>2026-04-08T21:02:48.773Z</time></trkpt><trkpt lat="-36.7443337" lon="174.4192151"><ele>124.0</ele><time>2026-04-08T21:02:51.774Z</time></trkpt><trkpt lat="-36.7444227" lon="174.4191903"><ele>124.00000000000001</ele><time>2026-04-08T21:02:54.773Z</time></trkpt><trkpt lat="-36.7444865" lon="174.4191731"><ele>124.0</ele><time>2026-04-08T21:02:56.773Z</time></trkpt><trkpt lat="-36.7445497" lon="174.4191025"><ele>124.85714285714286</ele><time>2026-04-08T21:02:59.772Z</time></trkpt><trkpt lat="-36.744578" lon="174.419025"><ele>125.71428571428572</ele><time>2026-04-08T21:03:01.773Z</time></trkpt><trkpt lat="-36.7446206" lon="174.4189641"><ele>126.57142857142858</ele><time>2026-04-08T21:03:03.771Z</time></trkpt><trkpt lat="-36.7446645" lon="174.4189026"><ele>127.42857142857144</ele><time>2026-04-08T21:03:05.773Z</time></trkpt><trkpt lat="-36.7446921" lon="174.4188306"><ele>128.28571428571428</ele><time>2026-04-08T21:03:07.772Z</time></trkpt><trkpt lat="-36.7447372" lon="174.4188915"><ele>129.14285714285717</ele><time>2026-04-08T21:03:13.773Z</time></trkpt><trkpt lat="-36.7447162" lon="174.4190053"><ele>130.0</ele><time>2026-04-08T21:03:16.771Z</time></trkpt><trkpt lat="-36.7447715" lon="174.4190645"><ele>130.0</ele><time>2026-04-08T21:03:20.772Z</time></trkpt><trkpt lat="-36.744829" lon="174.4189737"><ele>130.0</ele><time>2026-04-08T21:03:23.772Z</time></trkpt><trkpt lat="-36.7448614" lon="174.4188992"><ele>130.0</ele><time>2026-04-08T21:03:25.774Z</time></trkpt><trkpt lat="-36.7449133" lon="174.418809"><ele>130.0</ele><time>2026-04-08T21:03:28.772Z</time></trkpt><trkpt lat="-36.744982" lon="174.4188444"><ele>130.0</ele><time>2026-04-08T21:03:31.772Z</time></trkpt><trkpt lat="-36.7449583" lon="174.4189503"><ele>130.0</ele><time>2026-04-08T21:03:34.773Z</time></trkpt><trkpt lat="-36.7450073" lon="174.4190297"><ele>130.00000000000003</ele><time>2026-04-08T21:03:37.772Z</time></trkpt><trkpt lat="-36.745074" lon="174.4190679"><ele>130.0</ele><time>2026-04-08T21:03:41.772Z</time></trkpt><trkpt lat="-36.7450884" lon="174.4189913"><ele>130.0</ele><time>2026-04-08T21:03:45.771Z</time></trkpt><trkpt lat="-36.7451676" lon="174.4189897"><ele>130.0</ele><time>2026-04-08T21:03:48.773Z</time></trkpt><trkpt lat="-36.7451892" lon="174.4190684"><ele>130.0</ele><time>2026-04-08T21:03:51.772Z</time></trkpt><trkpt lat="-36.7452264" lon="174.4191468"><ele>130.00000000000003</ele><time>2026-04-08T21:03:54.772Z</time></trkpt><trkpt lat="-36.7452947" lon="174.4192006"><ele>130.0</ele><time>2026-04-08T21:03:57.771Z</time></trkpt><trkpt lat="-36.7453615" lon="174.4192025"><ele>130.66666666666669</ele><time>2026-04-08T21:04:00.771Z</time></trkpt><trkpt lat="-36.745439" lon="174.4191608"><ele>131.33333333333334</ele><time>2026-04-08T21:04:04.772Z</time></trkpt><trkpt lat="-36.7454845" lon="174.4190866"><ele>132.0</ele><time>2026-04-08T21:04:06.771Z</time></trkpt><trkpt lat="-36.7455261" lon="174.4190008"><ele>132.66666666666666</ele><time>2026-04-08T21:04:08.772Z</time></trkpt><trkpt lat="-36.7455693" lon="174.4189193"><ele>133.33333333333331</ele><time>2026-04-08T21:04:10.772Z</time></trkpt><trkpt lat="-36.7456403" lon="174.418835"><ele>134.0</ele><time>2026-04-08T21:04:12.772Z</time></trkpt><trkpt lat="-36.7457051" lon="174.4187555"><ele>134.33333333333331</ele><time>2026-04-08T21:04:14.772Z</time></trkpt><trkpt lat="-36.7457549" lon="174.4186666"><ele>134.66666666666666</ele><time>2026-04-08T21:04:16.773Z</time></trkpt><trkpt lat="-36.7457968" lon="174.4185814"><ele>135.0</ele><time>2026-04-08T21:04:18.772Z</time></trkpt><trkpt lat="-36.7458555" lon="174.4185039"><ele>135.33333333333334</ele><time>2026-04-08T21:04:20.773Z</time></trkpt><trkpt lat="-36.7459092" lon="174.4184414"><ele>135.66666666666669</ele><time>2026-04-08T21:04:22.773Z</time></trkpt><trkpt lat="-36.7459597" lon="174.4183492"><ele>136.0</ele><time>2026-04-08T21:04:24.772Z</time></trkpt><trkpt lat="-36.7460047" lon="174.4182708"><ele>136.0</ele><time>2026-04-08T21:04:26.774Z</time></trkpt><trkpt lat="-36.7460393" lon="174.4181852"><ele>136.0</ele><time>2026-04-08T21:04:28.771Z</time></trkpt><trkpt lat="-36.7460751" lon="174.4180958"><ele>136.0</ele><time>2026-04-08T21:04:30.772Z</time></trkpt><trkpt lat="-36.7461157" lon="174.418012"><ele>136.0</ele><time>2026-04-08T21:04:32.772Z</time></trkpt><trkpt lat="-36.7461461" lon="174.4179329"><ele>136.0</ele><time>2026-04-08T21:04:34.774Z</time></trkpt><trkpt lat="-36.7461812" lon="174.4178295"><ele>136.0</ele><time>2026-04-08T21:04:37.772Z</time></trkpt><trkpt lat="-36.7462496" lon="174.4177837"><ele>135.8</ele><time>2026-04-08T21:04:40.773Z</time></trkpt><trkpt lat="-36.7462654" lon="174.4178645"><ele>135.6</ele><time>2026-04-08T21:04:44.772Z</time></trkpt><trkpt lat="-36.7462446" lon="174.4179556"><ele>135.4</ele><time>2026-04-08T21:04:46.771Z</time></trkpt><trkpt lat="-36.7462075" lon="174.4180605"><ele>135.2</ele><time>2026-04-08T21:04:49.773Z</time></trkpt><trkpt lat="-36.7461532" lon="174.4181992"><ele>135.0</ele><time>2026-04-08T21:04:51.773Z</time></trkpt><trkpt lat="-36.7460748" lon="174.4182941"><ele>135.14285714285714</ele><time>2026-04-08T21:04:53.773Z</time></trkpt><trkpt lat="-36.7460266" lon="174.4183545"><ele>135.28571428571428</ele><time>2026-04-08T21:04:54.772Z</time></trkpt><trkpt lat="-36.745982" lon="174.4184553"><ele>135.42857142857142</ele><time>2026-04-08T21:04:55.772Z</time></trkpt><trkpt lat="-36.7459607" lon="174.4185308"><ele>135.57142857142856</ele><time>2026-04-08T21:04:56.772Z</time></trkpt><trkpt lat="-36.7459027" lon="174.4185964"><ele>135.71428571428572</ele><time>2026-04-08T21:04:57.774Z</time></trkpt><trkpt lat="-36.7458735" lon="174.4186683"><ele>135.85714285714283</ele><time>2026-04-08T21:04:58.773Z</time></trkpt><trkpt lat="-36.7458186" lon="174.41874"><ele>136.0</ele><time>2026-04-08T21:04:59.772Z</time></trkpt><trkpt lat="-36.7458183" lon="174.4188721"><ele>135.66666666666669</ele><time>2026-04-08T21:05:01.772Z</time></trkpt><trkpt lat="-36.7458094" lon="174.4189709"><ele>135.33333333333334</ele><time>2026-04-08T21:05:02.772Z</time></trkpt><trkpt lat="-36.7457379" lon="174.4190465"><ele>135.0</ele><time>2026-04-08T21:05:03.772Z</time></trkpt><trkpt lat="-36.7456853" lon="174.4191019"><ele>134.66666666666666</ele><time>2026-04-08T21:05:04.773Z</time></trkpt><trkpt lat="-36.7456811" lon="174.4192066"><ele>134.33333333333331</ele><time>2026-04-08T21:05:06.772Z</time></trkpt><trkpt lat="-36.7457387" lon="174.4192645"><ele>134.0</ele><time>2026-04-08T21:05:08.773Z</time></trkpt><trkpt lat="-36.7458067" lon="174.4192832"><ele>134.0</ele><time>2026-04-08T21:05:09.771Z</time></trkpt><trkpt lat="-36.7458185" lon="174.4193953"><ele>134.0</ele><time>2026-04-08T21:05:11.772Z</time></trkpt><trkpt lat="-36.7458233" lon="174.4194896"><ele>134.0</ele><time>2026-04-08T21:05:13.772Z</time></trkpt><trkpt lat="-36.7458733" lon="174.4195427"><ele>134.0</ele><time>2026-04-08T21:05:14.771Z</time></trkpt><trkpt lat="-36.7459623" lon="174.4195556"><ele>134.0</ele><time>2026-04-08T21:05:16.774Z</time></trkpt><trkpt lat="-36.7460404" lon="174.4196129"><ele>134.0</ele><time>2026-04-08T21:05:18.772Z</time></trkpt><trkpt lat="-36.7460808" lon="174.4197125"><ele>133.6</ele><time>2026-04-08T21:05:20.772Z</time></trkpt><trkpt lat="-36.7460673" lon="174.4199053"><ele>133.2</ele><time>2026-04-08T21:05:22.773Z</time></trkpt><trkpt lat="-36.746039" lon="174.419979"><ele>132.79999999999998</ele><time>2026-04-08T21:05:23.773Z</time></trkpt><trkpt lat="-36.746077" lon="174.4200816"><ele>132.4</ele><time>2026-04-08T21:05:25.771Z</time></trkpt><trkpt lat="-36.7461445" lon="174.4200919"><ele>132.0</ele><time>2026-04-08T21:05:26.771Z</time></trkpt><trkpt lat="-36.7462196" lon="174.4201019"><ele>130.83333333333334</ele><time>2026-04-08T21:05:27.772Z</time></trkpt><trkpt lat="-36.7463133" lon="174.4201155"><ele>129.66666666666666</ele><time>2026-04-08T21:05:28.772Z</time></trkpt><trkpt lat="-36.7463849" lon="174.4201068"><ele>128.5</ele><time>2026-04-08T21:05:29.772Z</time></trkpt><trkpt lat="-36.7464726" lon="174.4200705"><ele>127.33333333333333</ele><time>2026-04-08T21:05:30.772Z</time></trkpt><trkpt lat="-36.7465351" lon="174.420035"><ele>126.16666666666666</ele><time>2026-04-08T21:05:31.771Z</time></trkpt><trkpt lat="-36.7465943" lon="174.4199803"><ele>125.0</ele><time>2026-04-08T21:05:32.772Z</time></trkpt><trkpt lat="-36.7466124" lon="174.4198676"><ele>124.99999999999999</ele><time>2026-04-08T21:05:33.772Z</time></trkpt><trkpt lat="-36.7466346" lon="174.4197915"><ele>125.0</ele><time>2026-04-08T21:05:34.773Z</time></trkpt><trkpt lat="-36.7466167" lon="174.4197101"><ele>125.0</ele><time>2026-04-08T21:05:35.772Z</time></trkpt><trkpt lat="-36.7466234" lon="174.4196277"><ele>125.0</ele><time>2026-04-08T21:05:36.773Z</time></trkpt><trkpt lat="-36.7466877" lon="174.4195888"><ele>124.99999999999999</ele><time>2026-04-08T21:05:38.773Z</time></trkpt><trkpt lat="-36.7467756" lon="174.4196817"><ele>125.0</ele><time>2026-04-08T21:05:40.773Z</time></trkpt><trkpt lat="-36.7468282" lon="174.4197436"><ele>124.99999999999999</ele><time>2026-04-08T21:05:41.772Z</time></trkpt><trkpt lat="-36.7468479" lon="174.4198233"><ele>125.0</ele><time>2026-04-08T21:05:42.772Z</time></trkpt><trkpt lat="-36.7468562" lon="174.4199071"><ele>125.0</ele><time>2026-04-08T21:05:43.771Z</time></trkpt><trkpt lat="-36.7468472" lon="174.4200547"><ele>125.0</ele><time>2026-04-08T21:05:45.772Z</time></trkpt><trkpt lat="-36.7468845" lon="174.4201241"><ele>124.99999999999999</ele><time>2026-04-08T21:05:47.772Z</time></trkpt><trkpt lat="-36.7469581" lon="174.4201718"><ele>125.0</ele><time>2026-04-08T21:05:49.772Z</time></trkpt><trkpt lat="-36.7470555" lon="174.4201093"><ele>123.49999999999999</ele><time>2026-04-08T21:05:52.773Z</time></trkpt><trkpt lat="-36.7471535" lon="174.420069"><ele>122.0</ele><time>2026-04-08T21:05:54.771Z</time></trkpt><trkpt lat="-36.7472354" lon="174.4200897"><ele>120.5</ele><time>2026-04-08T21:05:56.772Z</time></trkpt><trkpt lat="-36.7472947" lon="174.4201292"><ele>119.0</ele><time>2026-04-08T21:05:57.773Z</time></trkpt><trkpt lat="-36.7473815" lon="174.4201631"><ele>117.49999999999999</ele><time>2026-04-08T21:05:59.772Z</time></trkpt><trkpt lat="-36.7474445" lon="174.420101"><ele>116.0</ele><time>2026-04-08T21:06:01.773Z</time></trkpt><trkpt lat="-36.7474891" lon="174.4200136"><ele>115.99999999999999</ele><time>2026-04-08T21:06:03.771Z</time></trkpt><trkpt lat="-36.7475209" lon="174.4199291"><ele>116.0</ele><time>2026-04-08T21:06:05.771Z</time></trkpt><trkpt lat="-36.7475139" lon="174.4198253"><ele>116.0</ele><time>2026-04-08T21:06:07.772Z</time></trkpt><trkpt lat="-36.7474657" lon="174.4197252"><ele>116.0</ele><time>2026-04-08T21:06:09.772Z</time></trkpt><trkpt lat="-36.7473974" lon="174.419668"><ele>115.99999999999999</ele><time>2026-04-08T21:06:11.772Z</time></trkpt><trkpt lat="-36.7473159" lon="174.4196288"><ele>116.0</ele><time>2026-04-08T21:06:14.771Z</time></trkpt><trkpt lat="-36.7472359" lon="174.4195257"><ele>116.83333333333333</ele><time>2026-04-08T21:06:16.773Z</time></trkpt><trkpt lat="-36.7472236" lon="174.4194228"><ele>117.66666666666666</ele><time>2026-04-08T21:06:18.772Z</time></trkpt><trkpt lat="-36.7472347" lon="174.419324"><ele>118.5</ele><time>2026-04-08T21:06:20.772Z</time></trkpt><trkpt lat="-36.7472176" lon="174.4192107"><ele>119.33333333333334</ele><time>2026-04-08T21:06:22.773Z</time></trkpt><trkpt lat="-36.747251" lon="174.4191199"><ele>120.16666666666667</ele><time>2026-04-08T21:06:24.772Z</time></trkpt><trkpt lat="-36.7472913" lon="174.4190415"><ele>121.0</ele><time>2026-04-08T21:06:26.771Z</time></trkpt><trkpt lat="-36.747343" lon="174.4189605"><ele>121.00000000000001</ele><time>2026-04-08T21:06:28.772Z</time></trkpt><trkpt lat="-36.7473916" lon="174.4188873"><ele>121.0</ele><time>2026-04-08T21:06:30.772Z</time></trkpt><trkpt lat="-36.7474276" lon="174.4188213"><ele>121.0</ele><time>2026-04-08T21:06:32.771Z</time></trkpt><trkpt lat="-36.7473936" lon="174.4187182"><ele>121.0</ele><time>2026-04-08T21:06:35.773Z</time></trkpt><trkpt lat="-36.7473981" lon="174.4186027"><ele>121.00000000000001</ele><time>2026-04-08T21:06:38.771Z</time></trkpt><trkpt lat="-36.7474197" lon="174.4185012"><ele>121.0</ele><time>2026-04-08T21:06:40.772Z</time></trkpt><trkpt lat="-36.7474182" lon="174.4183898"><ele>121.83333333333334</ele><time>2026-04-08T21:06:42.774Z</time></trkpt><trkpt lat="-36.7474529" lon="174.4182884"><ele>122.66666666666667</ele><time>2026-04-08T21:06:44.771Z</time></trkpt><trkpt lat="-36.7474908" lon="174.4182034"><ele>123.5</ele><time>2026-04-08T21:06:46.774Z</time></trkpt><trkpt lat="-36.7475249" lon="174.4180868"><ele>124.33333333333334</ele><time>2026-04-08T21:06:48.772Z</time></trkpt><trkpt lat="-36.7474686" lon="174.4180245"><ele>125.16666666666667</ele><time>2026-04-08T21:06:50.772Z</time></trkpt><trkpt lat="-36.7474164" lon="174.4179749"><ele>126.0</ele><time>2026-04-08T21:06:52.771Z</time></trkpt><trkpt lat="-36.7473586" lon="174.417913"><ele>126.83333333333333</ele><time>2026-04-08T21:06:54.771Z</time></trkpt><trkpt lat="-36.7472774" lon="174.4178677"><ele>127.66666666666666</ele><time>2026-04-08T21:06:56.772Z</time></trkpt><trkpt lat="-36.7471967" lon="174.4178222"><ele>128.5</ele><time>2026-04-08T21:06:58.772Z</time></trkpt><trkpt lat="-36.7471202" lon="174.4177725"><ele>129.33333333333331</ele><time>2026-04-08T21:07:00.772Z</time></trkpt><trkpt lat="-36.7470341" lon="174.4177229"><ele>130.16666666666666</ele><time>2026-04-08T21:07:02.771Z</time></trkpt><trkpt lat="-36.7469524" lon="174.4176752"><ele>131.0</ele><time>2026-04-08T21:07:04.774Z</time></trkpt><trkpt lat="-36.746876" lon="174.4176295"><ele>131.66666666666666</ele><time>2026-04-08T21:07:06.772Z</time></trkpt><trkpt lat="-36.7467971" lon="174.4175912"><ele>132.33333333333331</ele><time>2026-04-08T21:07:08.772Z</time></trkpt><trkpt lat="-36.7467254" lon="174.4175435"><ele>133.0</ele><time>2026-04-08T21:07:10.774Z</time></trkpt><trkpt lat="-36.7466566" lon="174.4174922"><ele>133.66666666666666</ele><time>2026-04-08T21:07:12.773Z</time></trkpt><trkpt lat="-36.7466004" lon="174.4174508"><ele>134.33333333333334</ele><time>2026-04-08T21:07:14.771Z</time></trkpt><trkpt lat="-36.7465242" lon="174.417441"><ele>135.0</ele><time>2026-04-08T21:07:17.771Z</time></trkpt><trkpt lat="-36.7464464" lon="174.41751"><ele>135.0</ele><time>2026-04-08T21:07:20.772Z</time></trkpt><trkpt lat="-36.7463742" lon="174.4175494"><ele>135.0</ele><time>2026-04-08T21:07:23.772Z</time></trkpt><trkpt lat="-36.7463214" lon="174.4176364"><ele>135.0</ele><time>2026-04-08T21:07:26.773Z</time></trkpt><trkpt lat="-36.7463031" lon="174.4177266"><ele>135.0</ele><time>2026-04-08T21:07:28.773Z</time></trkpt><trkpt lat="-36.7462788" lon="174.4178079"><ele>135.0</ele><time>2026-04-08T21:07:30.773Z</time></trkpt><trkpt lat="-36.7462455" lon="174.4178904"><ele>135.0</ele><time>2026-04-08T21:07:32.772Z</time></trkpt><trkpt lat="-36.7461947" lon="174.4179981"><ele>134.8</ele><time>2026-04-08T21:07:34.772Z</time></trkpt><trkpt lat="-36.7461416" lon="174.4180963"><ele>134.6</ele><time>2026-04-08T21:07:36.773Z</time></trkpt><trkpt lat="-36.7460865" lon="174.4181814"><ele>134.4</ele><time>2026-04-08T21:07:38.772Z</time></trkpt><trkpt lat="-36.7460294" lon="174.4183176"><ele>134.2</ele><time>2026-04-08T21:07:40.772Z</time></trkpt><trkpt lat="-36.7459582" lon="174.4184185"><ele>134.0</ele><time>2026-04-08T21:07:42.772Z</time></trkpt><trkpt lat="-36.7458892" lon="174.4185358"><ele>134.0</ele><time>2026-04-08T21:07:44.771Z</time></trkpt><trkpt lat="-36.7458343" lon="174.41858"><ele>134.0</ele><time>2026-04-08T21:07:45.771Z</time></trkpt><trkpt lat="-36.7457633" lon="174.4186793"><ele>134.0</ele><time>2026-04-08T21:07:47.772Z</time></trkpt><trkpt lat="-36.7457001" lon="174.4188017"><ele>134.0</ele><time>2026-04-08T21:07:49.772Z</time></trkpt><trkpt lat="-36.7456757" lon="174.4188754"><ele>134.0</ele><time>2026-04-08T21:07:50.772Z</time></trkpt><trkpt lat="-36.7456309" lon="174.4190092"><ele>134.0</ele><time>2026-04-08T21:07:52.774Z</time></trkpt><trkpt lat="-36.7455864" lon="174.4191186"><ele>134.0</ele><time>2026-04-08T21:07:54.771Z</time></trkpt><trkpt lat="-36.7455468" lon="174.41919"><ele>134.0</ele><time>2026-04-08T21:07:56.774Z</time></trkpt><trkpt lat="-36.7455081" lon="174.4192704"><ele>134.0</ele><time>2026-04-08T21:08:01.773Z</time></trkpt><trkpt lat="-36.7454802" lon="174.4193474"><ele>134.0</ele><time>2026-04-08T21:08:05.771Z</time></trkpt><trkpt lat="-36.7454532" lon="174.4194219"><ele>134.0</ele><time>2026-04-08T21:08:07.772Z</time></trkpt><trkpt lat="-36.7454319" lon="174.4195014"><ele>134.0</ele><time>2026-04-08T21:08:10.772Z</time></trkpt><trkpt lat="-36.7454611" lon="174.4193915"><ele>134.0</ele><time>2026-04-08T21:08:27.773Z</time></trkpt><trkpt lat="-36.7454882" lon="174.4193167"><ele>134.0</ele><time>2026-04-08T21:08:30.772Z</time></trkpt><trkpt lat="-36.7455255" lon="174.4192374"><ele>134.0</ele><time>2026-04-08T21:08:33.772Z</time></trkpt><trkpt lat="-36.7455496" lon="174.4191414"><ele>134.0</ele><time>2026-04-08T21:08:36.772Z</time></trkpt><trkpt lat="-36.7455757" lon="174.419047"><ele>134.0</ele><time>2026-04-08T21:08:39.771Z</time></trkpt><trkpt lat="-36.7456279" lon="174.4189368"><ele>134.0</ele><time>2026-04-08T21:08:42.772Z</time></trkpt><trkpt lat="-36.7456741" lon="174.4188536"><ele>134.28571428571428</ele><time>2026-04-08T21:08:44.772Z</time></trkpt><trkpt lat="-36.7457134" lon="174.4187809"><ele>134.57142857142856</ele><time>2026-04-08T21:08:46.772Z</time></trkpt><trkpt lat="-36.7457627" lon="174.4187033"><ele>134.85714285714283</ele><time>2026-04-08T21:08:48.771Z</time></trkpt><trkpt lat="-36.7458088" lon="174.4186315"><ele>135.14285714285714</ele><time>2026-04-08T21:08:50.772Z</time></trkpt><trkpt lat="-36.7458605" lon="174.4185656"><ele>135.42857142857142</ele><time>2026-04-08T21:08:52.772Z</time></trkpt><trkpt lat="-36.7459033" lon="174.4184962"><ele>135.7142857142857</ele><time>2026-04-08T21:08:54.772Z</time></trkpt><trkpt lat="-36.7459437" lon="174.4184166"><ele>136.0</ele><time>2026-04-08T21:08:56.774Z</time></trkpt><trkpt lat="-36.7459883" lon="174.4183467"><ele>136.0</ele><time>2026-04-08T21:08:58.772Z</time></trkpt><trkpt lat="-36.7460281" lon="174.4182475"><ele>136.0</ele><time>2026-04-08T21:09:01.771Z</time></trkpt><trkpt lat="-36.7460663" lon="174.4181566"><ele>136.0</ele><time>2026-04-08T21:09:03.773Z</time></trkpt><trkpt lat="-36.7461096" lon="174.4180683"><ele>136.0</ele><time>2026-04-08T21:09:05.771Z</time></trkpt><trkpt lat="-36.7461494" lon="174.4179981"><ele>136.0</ele><time>2026-04-08T21:09:07.773Z</time></trkpt><trkpt lat="-36.7461765" lon="174.4179137"><ele>136.0</ele><time>2026-04-08T21:09:09.773Z</time></trkpt><trkpt lat="-36.7461719" lon="174.4178188"><ele>135.99999999999997</ele><time>2026-04-08T21:09:12.773Z</time></trkpt><trkpt lat="-36.746144" lon="174.4177361"><ele>136.0</ele><time>2026-04-08T21:09:16.771Z</time></trkpt><trkpt lat="-36.7460815" lon="174.4176873"><ele>136.0</ele><time>2026-04-08T21:09:21.772Z</time></trkpt><trkpt lat="-36.7460331" lon="174.4176305"><ele>136.0</ele><time>2026-04-08T21:09:24.773Z</time></trkpt><trkpt lat="-36.7459713" lon="174.4175824"><ele>136.0</ele><time>2026-04-08T21:09:27.772Z</time></trkpt><trkpt lat="-36.7459461" lon="174.4174961"><ele>135.99999999999997</ele><time>2026-04-08T21:09:29.773Z</time></trkpt><trkpt lat="-36.7459495" lon="174.417394"><ele>136.0</ele><time>2026-04-08T21:09:31.773Z</time></trkpt><trkpt lat="-36.7459558" lon="174.4172928"><ele>136.0</ele><time>2026-04-08T21:09:33.771Z</time></trkpt><trkpt lat="-36.7459419" lon="174.4171889"><ele>136.0</ele><time>2026-04-08T21:09:35.771Z</time></trkpt><trkpt lat="-36.7458607" lon="174.4171766"><ele>136.0</ele><time>2026-04-08T21:09:36.772Z</time></trkpt><trkpt lat="-36.7457864" lon="174.4171106"><ele>136.0</ele><time>2026-04-08T21:09:38.772Z</time></trkpt><trkpt lat="-36.7456781" lon="174.4170198"><ele>136.0</ele><time>2026-04-08T21:09:40.772Z</time></trkpt><trkpt lat="-36.7456271" lon="174.4169576"><ele>136.2</ele><time>2026-04-08T21:09:41.771Z</time></trkpt><trkpt lat="-36.745561" lon="174.4169167"><ele>136.39999999999998</ele><time>2026-04-08T21:09:42.771Z</time></trkpt><trkpt lat="-36.7454958" lon="174.4169"><ele>136.6</ele><time>2026-04-08T21:09:43.771Z</time></trkpt><trkpt lat="-36.7453856" lon="174.4168349"><ele>136.79999999999998</ele><time>2026-04-08T21:09:45.773Z</time></trkpt><trkpt lat="-36.7453068" lon="174.4167956"><ele>137.0</ele><time>2026-04-08T21:09:46.771Z</time></trkpt><trkpt lat="-36.7451876" lon="174.4167528"><ele>136.0</ele><time>2026-04-08T21:09:48.771Z</time></trkpt><trkpt lat="-36.7451137" lon="174.4167226"><ele>135.0</ele><time>2026-04-08T21:09:49.773Z</time></trkpt><trkpt lat="-36.7450026" lon="174.4166427"><ele>134.0</ele><time>2026-04-08T21:09:51.773Z</time></trkpt><trkpt lat="-36.7449491" lon="174.4165714"><ele>133.0</ele><time>2026-04-08T21:09:52.771Z</time></trkpt><trkpt lat="-36.7448669" lon="174.4164291"><ele>132.0</ele><time>2026-04-08T21:09:54.773Z</time></trkpt><trkpt lat="-36.7447895" lon="174.4164108"><ele>131.4</ele><time>2026-04-08T21:09:55.771Z</time></trkpt><trkpt lat="-36.7446706" lon="174.4163148"><ele>130.79999999999998</ele><time>2026-04-08T21:09:57.771Z</time></trkpt><trkpt lat="-36.7446051" lon="174.4162593"><ele>130.2</ele><time>2026-04-08T21:09:58.772Z</time></trkpt><trkpt lat="-36.7445336" lon="174.4161996"><ele>129.6</ele><time>2026-04-08T21:09:59.771Z</time></trkpt><trkpt lat="-36.7444612" lon="174.4161404"><ele>129.0</ele><time>2026-04-08T21:10:00.771Z</time></trkpt><trkpt lat="-36.7443913" lon="174.4160975"><ele>127.0</ele><time>2026-04-08T21:10:01.772Z</time></trkpt><trkpt lat="-36.7443039" lon="174.4159868"><ele>125.0</ele><time>2026-04-08T21:10:03.771Z</time></trkpt><trkpt lat="-36.7442526" lon="174.4159062"><ele>123.0</ele><time>2026-04-08T21:10:04.772Z</time></trkpt><trkpt lat="-36.7441912" lon="174.4158592"><ele>121.0</ele><time>2026-04-08T21:10:05.772Z</time></trkpt><trkpt lat="-36.7440932" lon="174.4158271"><ele>119.0</ele><time>2026-04-08T21:10:06.771Z</time></trkpt><trkpt lat="-36.7440089" lon="174.4157664"><ele>118.99999999999999</ele><time>2026-04-08T21:10:07.772Z</time></trkpt><trkpt lat="-36.7439279" lon="174.4156998"><ele>119.0</ele><time>2026-04-08T21:10:08.771Z</time></trkpt><trkpt lat="-36.7438614" lon="174.4156347"><ele>119.0</ele><time>2026-04-08T21:10:09.773Z</time></trkpt><trkpt lat="-36.7437938" lon="174.4155694"><ele>119.0</ele><time>2026-04-08T21:10:10.771Z</time></trkpt><trkpt lat="-36.7437296" lon="174.4155249"><ele>118.99999999999999</ele><time>2026-04-08T21:10:11.772Z</time></trkpt><trkpt lat="-36.7436628" lon="174.4154267"><ele>119.0</ele><time>2026-04-08T21:10:13.773Z</time></trkpt><trkpt lat="-36.7436153" lon="174.4153532"><ele>119.66666666666666</ele><time>2026-04-08T21:10:15.772Z</time></trkpt><trkpt lat="-36.7435621" lon="174.4152935"><ele>120.33333333333333</ele><time>2026-04-08T21:10:18.773Z</time></trkpt><trkpt lat="-36.7434916" lon="174.4152221"><ele>121.0</ele><time>2026-04-08T21:10:22.771Z</time></trkpt><trkpt lat="-36.7434365" lon="174.4151709"><ele>121.66666666666666</ele><time>2026-04-08T21:10:24.773Z</time></trkpt><trkpt lat="-36.7433545" lon="174.4151208"><ele>122.33333333333333</ele><time>2026-04-08T21:10:26.772Z</time></trkpt><trkpt lat="-36.7432689" lon="174.4150591"><ele>123.0</ele><time>2026-04-08T21:10:28.771Z</time></trkpt><trkpt lat="-36.7431976" lon="174.4150043"><ele>123.60000000000001</ele><time>2026-04-08T21:10:30.772Z</time></trkpt><trkpt lat="-36.7431166" lon="174.4149319"><ele>124.20000000000002</ele><time>2026-04-08T21:10:32.772Z</time></trkpt><trkpt lat="-36.7430314" lon="174.4148888"><ele>124.8</ele><time>2026-04-08T21:10:34.771Z</time></trkpt><trkpt lat="-36.7429527" lon="174.4148246"><ele>125.4</ele><time>2026-04-08T21:10:36.771Z</time></trkpt><trkpt lat="-36.742884" lon="174.4147468"><ele>126.0</ele><time>2026-04-08T21:10:38.772Z</time></trkpt><trkpt lat="-36.7428123" lon="174.4146889"><ele>127.0</ele><time>2026-04-08T21:10:40.779Z</time></trkpt><trkpt lat="-36.7427483" lon="174.4146298"><ele>128.0</ele><time>2026-04-08T21:10:42.771Z</time></trkpt><trkpt lat="-36.7426703" lon="174.4145824"><ele>129.0</ele><time>2026-04-08T21:10:44.772Z</time></trkpt><trkpt lat="-36.7425948" lon="174.4145254"><ele>130.0</ele><time>2026-04-08T21:10:46.771Z</time></trkpt><trkpt lat="-36.742528" lon="174.4144677"><ele>131.0</ele><time>2026-04-08T21:10:48.773Z</time></trkpt><trkpt lat="-36.7424551" lon="174.4144179"><ele>132.0</ele><time>2026-04-08T21:10:50.773Z</time></trkpt><trkpt lat="-36.7423935" lon="174.4143698"><ele>132.66666666666666</ele><time>2026-04-08T21:10:52.771Z</time></trkpt><trkpt lat="-36.7423267" lon="174.4143302"><ele>133.33333333333334</ele><time>2026-04-08T21:10:55.771Z</time></trkpt><trkpt lat="-36.7423436" lon="174.4142476"><ele>134.0</ele><time>2026-04-08T21:10:59.772Z</time></trkpt><trkpt lat="-36.7424264" lon="174.4142247"><ele>134.66666666666669</ele><time>2026-04-08T21:11:01.772Z</time></trkpt><trkpt lat="-36.7424915" lon="174.4142292"><ele>135.33333333333334</ele><time>2026-04-08T21:11:02.772Z</time></trkpt><trkpt lat="-36.7426044" lon="174.4142147"><ele>136.0</ele><time>2026-04-08T21:11:04.771Z</time></trkpt><trkpt lat="-36.742669" lon="174.414225"><ele>135.2</ele><time>2026-04-08T21:11:05.772Z</time></trkpt><trkpt lat="-36.7427639" lon="174.414269"><ele>134.39999999999998</ele><time>2026-04-08T21:11:07.771Z</time></trkpt><trkpt lat="-36.7427934" lon="174.4143714"><ele>133.6</ele><time>2026-04-08T21:11:09.771Z</time></trkpt><trkpt lat="-36.742825" lon="174.4144468"><ele>132.79999999999998</ele><time>2026-04-08T21:11:11.773Z</time></trkpt><trkpt lat="-36.7429273" lon="174.4144728"><ele>132.0</ele><time>2026-04-08T21:11:14.771Z</time></trkpt><trkpt lat="-36.7430222" lon="174.4144599"><ele>132.0</ele><time>2026-04-08T21:11:16.772Z</time></trkpt><trkpt lat="-36.743116" lon="174.4144844"><ele>132.0</ele><time>2026-04-08T21:11:18.773Z</time></trkpt><trkpt lat="-36.7431323" lon="174.4145989"><ele>132.0</ele><time>2026-04-08T21:11:20.772Z</time></trkpt><trkpt lat="-36.7431892" lon="174.414685"><ele>132.0</ele><time>2026-04-08T21:11:22.772Z</time></trkpt><trkpt lat="-36.7432655" lon="174.4147269"><ele>132.0</ele><time>2026-04-08T21:11:24.771Z</time></trkpt><trkpt lat="-36.7433455" lon="174.4147695"><ele>132.0</ele><time>2026-04-08T21:11:26.773Z</time></trkpt><trkpt lat="-36.7434043" lon="174.4148333"><ele>131.0</ele><time>2026-04-08T21:11:28.771Z</time></trkpt><trkpt lat="-36.7434714" lon="174.414845"><ele>130.0</ele><time>2026-04-08T21:11:30.772Z</time></trkpt><trkpt lat="-36.7435473" lon="174.4148676"><ele>129.0</ele><time>2026-04-08T21:11:32.772Z</time></trkpt><trkpt lat="-36.7436356" lon="174.4148897"><ele>128.0</ele><time>2026-04-08T21:11:34.771Z</time></trkpt><trkpt lat="-36.7437215" lon="174.4148612"><ele>127.0</ele><time>2026-04-08T21:11:36.771Z</time></trkpt><trkpt lat="-36.7437915" lon="174.4147929"><ele>126.0</ele><time>2026-04-08T21:11:38.772Z</time></trkpt><trkpt lat="-36.7438644" lon="174.4147322"><ele>125.5</ele><time>2026-04-08T21:11:40.773Z</time></trkpt><trkpt lat="-36.7439468" lon="174.4147524"><ele>125.0</ele><time>2026-04-08T21:11:42.772Z</time></trkpt><trkpt lat="-36.7440092" lon="174.4148094"><ele>124.5</ele><time>2026-04-08T21:11:44.771Z</time></trkpt><trkpt lat="-36.7440719" lon="174.4148854"><ele>124.0</ele><time>2026-04-08T21:11:46.773Z</time></trkpt><trkpt lat="-36.7441314" lon="174.4149179"><ele>123.5</ele><time>2026-04-08T21:11:48.771Z</time></trkpt><trkpt lat="-36.7442209" lon="174.4149766"><ele>123.0</ele><time>2026-04-08T21:11:51.772Z</time></trkpt><trkpt lat="-36.7443022" lon="174.415029"><ele>123.0</ele><time>2026-04-08T21:11:52.771Z</time></trkpt><trkpt lat="-36.7443532" lon="174.4151041"><ele>123.0</ele><time>2026-04-08T21:11:54.772Z</time></trkpt><trkpt lat="-36.7444023" lon="174.4152358"><ele>123.0</ele><time>2026-04-08T21:11:56.772Z</time></trkpt><trkpt lat="-36.7444432" lon="174.4152961"><ele>123.0</ele><time>2026-04-08T21:11:57.772Z</time></trkpt><trkpt lat="-36.7445053" lon="174.4153312"><ele>123.0</ele><time>2026-04-08T21:11:59.771Z</time></trkpt><trkpt lat="-36.7445334" lon="174.4154115"><ele>123.0</ele><time>2026-04-08T21:12:01.772Z</time></trkpt><trkpt lat="-36.744499" lon="174.4155158"><ele>123.85714285714288</ele><time>2026-04-08T21:12:03.773Z</time></trkpt><trkpt lat="-36.7444667" lon="174.415595"><ele>124.71428571428572</ele><time>2026-04-08T21:12:05.771Z</time></trkpt><trkpt lat="-36.7444968" lon="174.4156821"><ele>125.57142857142857</ele><time>2026-04-08T21:12:08.772Z</time></trkpt><trkpt lat="-36.7445689" lon="174.4157225"><ele>126.42857142857143</ele><time>2026-04-08T21:12:11.772Z</time></trkpt><trkpt lat="-36.7446504" lon="174.4157315"><ele>127.28571428571428</ele><time>2026-04-08T21:12:14.772Z</time></trkpt><trkpt lat="-36.7447192" lon="174.4157133"><ele>128.14285714285714</ele><time>2026-04-08T21:12:16.773Z</time></trkpt><trkpt lat="-36.7447793" lon="174.4157589"><ele>129.0</ele><time>2026-04-08T21:12:19.771Z</time></trkpt><trkpt lat="-36.7447646" lon="174.4158388"><ele>128.99999999999997</ele><time>2026-04-08T21:12:22.772Z</time></trkpt><trkpt lat="-36.7447241" lon="174.4159053"><ele>129.0</ele><time>2026-04-08T21:12:25.772Z</time></trkpt><trkpt lat="-36.7448008" lon="174.4159548"><ele>129.0</ele><time>2026-04-08T21:12:33.771Z</time></trkpt><trkpt lat="-36.7448612" lon="174.4159959"><ele>129.0</ele><time>2026-04-08T21:12:36.772Z</time></trkpt><trkpt lat="-36.7449238" lon="174.4160085"><ele>129.0</ele><time>2026-04-08T21:12:39.771Z</time></trkpt><trkpt lat="-36.744989" lon="174.4159725"><ele>128.99999999999997</ele><time>2026-04-08T21:12:46.772Z</time></trkpt><trkpt lat="-36.7450326" lon="174.4159042"><ele>129.0</ele><time>2026-04-08T21:12:51.771Z</time></trkpt><trkpt lat="-36.7451187" lon="174.4159297"><ele>129.0</ele><time>2026-04-08T21:12:54.771Z</time></trkpt><trkpt lat="-36.7451994" lon="174.4159342"><ele>129.0</ele><time>2026-04-08T21:12:56.771Z</time></trkpt><trkpt lat="-36.7452502" lon="174.415991"><ele>129.0</ele><time>2026-04-08T21:13:00.771Z</time></trkpt><trkpt lat="-36.7451976" lon="174.416063"><ele>129.0</ele><time>2026-04-08T21:13:04.772Z</time></trkpt><trkpt lat="-36.7452024" lon="174.4161476"><ele>129.0</ele><time>2026-04-08T21:13:08.771Z</time></trkpt><trkpt lat="-36.745263" lon="174.4161882"><ele>129.0</ele><time>2026-04-08T21:13:11.772Z</time></trkpt><trkpt lat="-36.7453471" lon="174.4162269"><ele>130.33333333333334</ele><time>2026-04-08T21:13:14.771Z</time></trkpt><trkpt lat="-36.7453828" lon="174.4163077"><ele>131.66666666666666</ele><time>2026-04-08T21:13:17.771Z</time></trkpt><trkpt lat="-36.7454477" lon="174.4163808"><ele>133.0</ele><time>2026-04-08T21:13:20.772Z</time></trkpt><trkpt lat="-36.7455317" lon="174.4164136"><ele>134.33333333333331</ele><time>2026-04-08T21:13:23.771Z</time></trkpt><trkpt lat="-36.7455998" lon="174.4164785"><ele>135.66666666666666</ele><time>2026-04-08T21:13:26.773Z</time></trkpt><trkpt lat="-36.745653" lon="174.4165218"><ele>137.0</ele><time>2026-04-08T21:13:29.771Z</time></trkpt><trkpt lat="-36.7457081" lon="174.4164736"><ele>137.00000000000003</ele><time>2026-04-08T21:13:33.771Z</time></trkpt><trkpt lat="-36.7457647" lon="174.4164308"><ele>137.0</ele><time>2026-04-08T21:13:36.771Z</time></trkpt><trkpt lat="-36.7457599" lon="174.4163511"><ele>137.0</ele><time>2026-04-08T21:13:39.771Z</time></trkpt><trkpt lat="-36.7457442" lon="174.4162689"><ele>137.0</ele><time>2026-04-08T21:13:42.772Z</time></trkpt><trkpt lat="-36.745772" lon="174.4161898"><ele>137.0</ele><time>2026-04-08T21:13:44.771Z</time></trkpt><trkpt lat="-36.7458247" lon="174.4161225"><ele>137.00000000000003</ele><time>2026-04-08T21:13:47.772Z</time></trkpt><trkpt lat="-36.7458465" lon="174.4160134"><ele>137.0</ele><time>2026-04-08T21:13:50.771Z</time></trkpt><trkpt lat="-36.7458277" lon="174.4159152"><ele>137.2</ele><time>2026-04-08T21:13:53.772Z</time></trkpt><trkpt lat="-36.745731" lon="174.415929"><ele>137.39999999999998</ele><time>2026-04-08T21:13:56.772Z</time></trkpt><trkpt lat="-36.7456649" lon="174.4159054"><ele>137.60000000000002</ele><time>2026-04-08T21:13:58.772Z</time></trkpt><trkpt lat="-36.7456596" lon="174.415766"><ele>137.8</ele><time>2026-04-08T21:14:00.772Z</time></trkpt><trkpt lat="-36.7456113" lon="174.4156456"><ele>138.0</ele><time>2026-04-08T21:14:02.773Z</time></trkpt><trkpt lat="-36.7455218" lon="174.4155556"><ele>136.4</ele><time>2026-04-08T21:14:04.772Z</time></trkpt><trkpt lat="-36.74545" lon="174.415451"><ele>134.8</ele><time>2026-04-08T21:14:06.772Z</time></trkpt><trkpt lat="-36.7454141" lon="174.4153774"><ele>133.2</ele><time>2026-04-08T21:14:07.771Z</time></trkpt><trkpt lat="-36.7453771" lon="174.4152509"><ele>131.6</ele><time>2026-04-08T21:14:09.772Z</time></trkpt><trkpt lat="-36.7453418" lon="174.4151821"><ele>130.0</ele><time>2026-04-08T21:14:10.772Z</time></trkpt><trkpt lat="-36.7452882" lon="174.4150498"><ele>129.25</ele><time>2026-04-08T21:14:12.773Z</time></trkpt><trkpt lat="-36.7452082" lon="174.4149721"><ele>128.5</ele><time>2026-04-08T21:14:14.773Z</time></trkpt><trkpt lat="-36.7449852" lon="174.4150493"><ele>127.75</ele><time>2026-04-08T21:14:20.773Z</time></trkpt><trkpt lat="-36.7449089" lon="174.4150716"><ele>127.0</ele><time>2026-04-08T21:14:22.771Z</time></trkpt><trkpt lat="-36.7448358" lon="174.4150901"><ele>127.0</ele><time>2026-04-08T21:14:24.772Z</time></trkpt><trkpt lat="-36.7447759" lon="174.4151318"><ele>126.99999999999999</ele><time>2026-04-08T21:14:26.772Z</time></trkpt><trkpt lat="-36.7446828" lon="174.4151502"><ele>126.99999999999999</ele><time>2026-04-08T21:14:29.771Z</time></trkpt><trkpt lat="-36.7446144" lon="174.4151418"><ele>127.0</ele><time>2026-04-08T21:14:31.773Z</time></trkpt><trkpt lat="-36.7444909" lon="174.4150414"><ele>127.0</ele><time>2026-04-08T21:14:33.772Z</time></trkpt><trkpt lat="-36.7444381" lon="174.4149525"><ele>127.0</ele><time>2026-04-08T21:14:35.773Z</time></trkpt><trkpt lat="-36.744405" lon="174.4148608"><ele>127.0</ele><time>2026-04-08T21:14:37.772Z</time></trkpt><trkpt lat="-36.7443721" lon="174.4147919"><ele>127.0</ele><time>2026-04-08T21:14:39.773Z</time></trkpt><trkpt lat="-36.7442971" lon="174.4147473"><ele>127.0</ele><time>2026-04-08T21:14:42.772Z</time></trkpt><trkpt lat="-36.744232" lon="174.414722"><ele>127.0</ele><time>2026-04-08T21:14:45.772Z</time></trkpt><trkpt lat="-36.7441776" lon="174.4146721"><ele>127.0</ele><time>2026-04-08T21:14:48.772Z</time></trkpt><trkpt lat="-36.7441216" lon="174.4146096"><ele>127.0</ele><time>2026-04-08T21:14:51.772Z</time></trkpt><trkpt lat="-36.7440704" lon="174.4145051"><ele>127.33333333333334</ele><time>2026-04-08T21:14:54.771Z</time></trkpt><trkpt lat="-36.7440307" lon="174.4144096"><ele>127.66666666666667</ele><time>2026-04-08T21:14:56.772Z</time></trkpt><trkpt lat="-36.7439995" lon="174.4143133"><ele>128.0</ele><time>2026-04-08T21:14:58.772Z</time></trkpt><trkpt lat="-36.7439929" lon="174.4142008"><ele>128.33333333333334</ele><time>2026-04-08T21:15:00.773Z</time></trkpt><trkpt lat="-36.7439861" lon="174.4140971"><ele>128.66666666666666</ele><time>2026-04-08T21:15:02.772Z</time></trkpt><trkpt lat="-36.7439416" lon="174.4139963"><ele>129.0</ele><time>2026-04-08T21:15:05.772Z</time></trkpt><trkpt lat="-36.7438957" lon="174.4139064"><ele>129.0</ele><time>2026-04-08T21:15:07.771Z</time></trkpt><trkpt lat="-36.7438181" lon="174.4138422"><ele>129.0</ele><time>2026-04-08T21:15:09.772Z</time></trkpt><trkpt lat="-36.7437228" lon="174.4138004"><ele>129.0</ele><time>2026-04-08T21:15:11.772Z</time></trkpt><trkpt lat="-36.7436517" lon="174.4137091"><ele>129.0</ele><time>2026-04-08T21:15:13.771Z</time></trkpt><trkpt lat="-36.743599" lon="174.4136455"><ele>129.0</ele><time>2026-04-08T21:15:15.773Z</time></trkpt><trkpt lat="-36.743538" lon="174.4135936"><ele>129.0</ele><time>2026-04-08T21:15:17.771Z</time></trkpt><trkpt lat="-36.7434812" lon="174.4135173"><ele>129.33333333333334</ele><time>2026-04-08T21:15:19.771Z</time></trkpt><trkpt lat="-36.7434401" lon="174.4134531"><ele>129.66666666666666</ele><time>2026-04-08T21:15:21.771Z</time></trkpt><trkpt lat="-36.7434378" lon="174.4133479"><ele>130.0</ele><time>2026-04-08T21:15:24.773Z</time></trkpt><trkpt lat="-36.7434636" lon="174.4132373"><ele>130.33333333333331</ele><time>2026-04-08T21:15:27.773Z</time></trkpt><trkpt lat="-36.7434958" lon="174.4131431"><ele>130.66666666666666</ele><time>2026-04-08T21:15:29.772Z</time></trkpt><trkpt lat="-36.7435289" lon="174.4130467"><ele>131.0</ele><time>2026-04-08T21:15:31.772Z</time></trkpt><trkpt lat="-36.7435808" lon="174.4129669"><ele>130.83333333333331</ele><time>2026-04-08T21:15:33.772Z</time></trkpt><trkpt lat="-36.7436446" lon="174.412925"><ele>130.66666666666666</ele><time>2026-04-08T21:15:34.772Z</time></trkpt><trkpt lat="-36.7437125" lon="174.4129572"><ele>130.5</ele><time>2026-04-08T21:15:36.773Z</time></trkpt><trkpt lat="-36.7437452" lon="174.4130316"><ele>130.33333333333334</ele><time>2026-04-08T21:15:39.773Z</time></trkpt><trkpt lat="-36.7437058" lon="174.413096"><ele>130.16666666666669</ele><time>2026-04-08T21:15:42.772Z</time></trkpt><trkpt lat="-36.743668" lon="174.4132089"><ele>130.0</ele><time>2026-04-08T21:15:45.772Z</time></trkpt><trkpt lat="-36.7436498" lon="174.4133"><ele>130.0</ele><time>2026-04-08T21:15:47.772Z</time></trkpt><trkpt lat="-36.7436893" lon="174.4133909"><ele>130.0</ele><time>2026-04-08T21:15:51.772Z</time></trkpt><trkpt lat="-36.7437408" lon="174.4134488"><ele>130.0</ele><time>2026-04-08T21:15:53.772Z</time></trkpt><trkpt lat="-36.7437802" lon="174.4135418"><ele>130.0</ele><time>2026-04-08T21:15:55.771Z</time></trkpt><trkpt lat="-36.7438231" lon="174.4136217"><ele>130.0</ele><time>2026-04-08T21:15:57.772Z</time></trkpt><trkpt lat="-36.7438837" lon="174.4136678"><ele>130.0</ele><time>2026-04-08T21:15:59.772Z</time></trkpt><trkpt lat="-36.7439539" lon="174.4137022"><ele>130.0</ele><time>2026-04-08T21:16:01.771Z</time></trkpt><trkpt lat="-36.7440077" lon="174.4137688"><ele>130.0</ele><time>2026-04-08T21:16:03.771Z</time></trkpt><trkpt lat="-36.7440437" lon="174.4138574"><ele>130.0</ele><time>2026-04-08T21:16:06.771Z</time></trkpt><trkpt lat="-36.7441128" lon="174.4138689"><ele>130.0</ele><time>2026-04-08T21:16:08.771Z</time></trkpt><trkpt lat="-36.7441968" lon="174.4138903"><ele>130.0</ele><time>2026-04-08T21:16:10.773Z</time></trkpt><trkpt lat="-36.7442614" lon="174.4139399"><ele>130.0</ele><time>2026-04-08T21:16:12.771Z</time></trkpt><trkpt lat="-36.7442644" lon="174.4140507"><ele>129.83333333333334</ele><time>2026-04-08T21:16:15.772Z</time></trkpt><trkpt lat="-36.7442305" lon="174.4141357"><ele>129.66666666666669</ele><time>2026-04-08T21:16:17.772Z</time></trkpt><trkpt lat="-36.7442325" lon="174.4142312"><ele>129.5</ele><time>2026-04-08T21:16:21.772Z</time></trkpt><trkpt lat="-36.7443201" lon="174.4142334"><ele>129.33333333333334</ele><time>2026-04-08T21:16:25.772Z</time></trkpt><trkpt lat="-36.744397" lon="174.4142303"><ele>129.16666666666666</ele><time>2026-04-08T21:16:27.771Z</time></trkpt><trkpt lat="-36.7444617" lon="174.414288"><ele>129.0</ele><time>2026-04-08T21:16:30.771Z</time></trkpt><trkpt lat="-36.7445118" lon="174.4143696"><ele>128.5</ele><time>2026-04-08T21:16:32.772Z</time></trkpt><trkpt lat="-36.7445482" lon="174.4144922"><ele>128.0</ele><time>2026-04-08T21:16:34.773Z</time></trkpt><trkpt lat="-36.7446025" lon="174.4147019"><ele>127.5</ele><time>2026-04-08T21:16:36.772Z</time></trkpt><trkpt lat="-36.7446396" lon="174.4147797"><ele>127.0</ele><time>2026-04-08T21:16:37.772Z</time></trkpt><trkpt lat="-36.7446926" lon="174.4148844"><ele>127.0</ele><time>2026-04-08T21:16:39.771Z</time></trkpt><trkpt lat="-36.7447535" lon="174.4149472"><ele>127.0</ele><time>2026-04-08T21:16:41.772Z</time></trkpt><trkpt lat="-36.7448194" lon="174.4149572"><ele>127.0</ele><time>2026-04-08T21:16:43.773Z</time></trkpt><trkpt lat="-36.7448833" lon="174.4148934"><ele>127.0</ele><time>2026-04-08T21:16:46.772Z</time></trkpt><trkpt lat="-36.7449292" lon="174.4148301"><ele>127.0</ele><time>2026-04-08T21:16:48.772Z</time></trkpt><trkpt lat="-36.7449855" lon="174.4147766"><ele>127.0</ele><time>2026-04-08T21:16:50.773Z</time></trkpt><trkpt lat="-36.7450605" lon="174.4147644"><ele>127.0</ele><time>2026-04-08T21:16:52.771Z</time></trkpt><trkpt lat="-36.7451297" lon="174.4147865"><ele>127.50000000000001</ele><time>2026-04-08T21:16:54.771Z</time></trkpt><trkpt lat="-36.7452146" lon="174.4147637"><ele>128.0</ele><time>2026-04-08T21:16:57.771Z</time></trkpt><trkpt lat="-36.7452884" lon="174.4147581"><ele>128.5</ele><time>2026-04-08T21:16:59.772Z</time></trkpt><trkpt lat="-36.7453676" lon="174.4147936"><ele>129.0</ele><time>2026-04-08T21:17:01.772Z</time></trkpt><trkpt lat="-36.7454316" lon="174.4148035"><ele>129.5</ele><time>2026-04-08T21:17:03.772Z</time></trkpt><trkpt lat="-36.7455118" lon="174.4147443"><ele>130.0</ele><time>2026-04-08T21:17:06.771Z</time></trkpt><trkpt lat="-36.7455783" lon="174.4147588"><ele>130.00000000000003</ele><time>2026-04-08T21:17:09.772Z</time></trkpt><trkpt lat="-36.745626" lon="174.414836"><ele>130.0</ele><time>2026-04-08T21:17:12.771Z</time></trkpt><trkpt lat="-36.7456423" lon="174.4149435"><ele>130.0</ele><time>2026-04-08T21:17:15.772Z</time></trkpt><trkpt lat="-36.7456593" lon="174.4150403"><ele>130.0</ele><time>2026-04-08T21:17:18.772Z</time></trkpt><trkpt lat="-36.7457257" lon="174.4150592"><ele>130.0</ele><time>2026-04-08T21:17:20.773Z</time></trkpt><trkpt lat="-36.7457921" lon="174.4150729"><ele>130.00000000000003</ele><time>2026-04-08T21:17:23.772Z</time></trkpt><trkpt lat="-36.745815" lon="174.4151526"><ele>130.0</ele><time>2026-04-08T21:17:26.772Z</time></trkpt><trkpt lat="-36.7457884" lon="174.4152511"><ele>130.00000000000003</ele><time>2026-04-08T21:17:29.771Z</time></trkpt><trkpt lat="-36.7458361" lon="174.415323"><ele>130.0</ele><time>2026-04-08T21:17:33.772Z</time></trkpt><trkpt lat="-36.7458502" lon="174.415423"><ele>130.0</ele><time>2026-04-08T21:17:37.772Z</time></trkpt><trkpt lat="-36.7458187" lon="174.4155038"><ele>130.0</ele><time>2026-04-08T21:17:40.772Z</time></trkpt><trkpt lat="-36.7457827" lon="174.4155872"><ele>130.0</ele><time>2026-04-08T21:17:43.771Z</time></trkpt><trkpt lat="-36.7457644" lon="174.4156827"><ele>130.00000000000003</ele><time>2026-04-08T21:17:46.771Z</time></trkpt><trkpt lat="-36.74582" lon="174.4156401"><ele>130.0</ele><time>2026-04-08T21:17:51.773Z</time></trkpt><trkpt lat="-36.7458549" lon="174.4157177"><ele>131.33333333333334</ele><time>2026-04-08T21:17:56.772Z</time></trkpt><trkpt lat="-36.7459324" lon="174.4157145"><ele>132.66666666666669</ele><time>2026-04-08T21:18:00.771Z</time></trkpt><trkpt lat="-36.7460032" lon="174.4157126"><ele>134.0</ele><time>2026-04-08T21:18:05.772Z</time></trkpt><trkpt lat="-36.7460365" lon="174.4156456"><ele>135.33333333333334</ele><time>2026-04-08T21:18:09.771Z</time></trkpt><trkpt lat="-36.7460539" lon="174.4155066"><ele>136.66666666666666</ele><time>2026-04-08T21:18:11.771Z</time></trkpt><trkpt lat="-36.7460816" lon="174.4153662"><ele>138.0</ele><time>2026-04-08T21:18:13.771Z</time></trkpt><trkpt lat="-36.7461035" lon="174.4152881"><ele>138.5</ele><time>2026-04-08T21:18:14.772Z</time></trkpt><trkpt lat="-36.7461622" lon="174.4151666"><ele>139.0</ele><time>2026-04-08T21:18:16.771Z</time></trkpt><trkpt lat="-36.7462127" lon="174.4150991"><ele>139.5</ele><time>2026-04-08T21:18:18.772Z</time></trkpt><trkpt lat="-36.7462929" lon="174.4150604"><ele>140.0</ele><time>2026-04-08T21:18:20.772Z</time></trkpt><trkpt lat="-36.7463007" lon="174.4149557"><ele>140.5</ele><time>2026-04-08T21:18:23.773Z</time></trkpt><trkpt lat="-36.7462866" lon="174.4148597"><ele>141.0</ele><time>2026-04-08T21:18:24.771Z</time></trkpt><trkpt lat="-36.7462862" lon="174.4147232"><ele>140.6</ele><time>2026-04-08T21:18:26.772Z</time></trkpt><trkpt lat="-36.7463243" lon="174.4145685"><ele>140.2</ele><time>2026-04-08T21:18:28.773Z</time></trkpt><trkpt lat="-36.7463884" lon="174.4145025"><ele>139.8</ele><time>2026-04-08T21:18:29.771Z</time></trkpt><trkpt lat="-36.7464216" lon="174.4143986"><ele>139.4</ele><time>2026-04-08T21:18:31.771Z</time></trkpt><trkpt lat="-36.7464338" lon="174.4143202"><ele>139.0</ele><time>2026-04-08T21:18:33.772Z</time></trkpt><trkpt lat="-36.7463455" lon="174.4142432"><ele>139.0</ele><time>2026-04-08T21:18:35.772Z</time></trkpt><trkpt lat="-36.7462856" lon="174.4141973"><ele>139.0</ele><time>2026-04-08T21:18:36.772Z</time></trkpt><trkpt lat="-36.7462384" lon="174.4141051"><ele>139.0</ele><time>2026-04-08T21:18:37.772Z</time></trkpt><trkpt lat="-36.7461902" lon="174.4140367"><ele>139.0</ele><time>2026-04-08T21:18:38.773Z</time></trkpt><trkpt lat="-36.7461452" lon="174.4139628"><ele>139.0</ele><time>2026-04-08T21:18:39.772Z</time></trkpt><trkpt lat="-36.7461053" lon="174.4138874"><ele>139.0</ele><time>2026-04-08T21:18:42.772Z</time></trkpt><trkpt lat="-36.7460376" lon="174.413887"><ele>139.0</ele><time>2026-04-08T21:18:46.772Z</time></trkpt><trkpt lat="-36.7460146" lon="174.4139907"><ele>136.8</ele><time>2026-04-08T21:18:49.773Z</time></trkpt><trkpt lat="-36.7459621" lon="174.4140736"><ele>134.60000000000002</ele><time>2026-04-08T21:18:52.772Z</time></trkpt><trkpt lat="-36.7458741" lon="174.4141084"><ele>132.4</ele><time>2026-04-08T21:18:55.772Z</time></trkpt><trkpt lat="-36.7458034" lon="174.4140988"><ele>130.20000000000002</ele><time>2026-04-08T21:18:57.771Z</time></trkpt><trkpt lat="-36.7456729" lon="174.414092"><ele>128.0</ele><time>2026-04-08T21:18:59.772Z</time></trkpt><trkpt lat="-36.7456331" lon="174.4141655"><ele>127.99999999999999</ele><time>2026-04-08T21:19:00.771Z</time></trkpt><trkpt lat="-36.7455873" lon="174.4142248"><ele>128.0</ele><time>2026-04-08T21:19:01.772Z</time></trkpt><trkpt lat="-36.7455231" lon="174.4142644"><ele>128.0</ele><time>2026-04-08T21:19:03.772Z</time></trkpt><trkpt lat="-36.745449" lon="174.4143008"><ele>128.0</ele><time>2026-04-08T21:19:05.772Z</time></trkpt><trkpt lat="-36.7453431" lon="174.4142905"><ele>127.99999999999999</ele><time>2026-04-08T21:19:07.771Z</time></trkpt><trkpt lat="-36.7452257" lon="174.4142923"><ele>128.0</ele><time>2026-04-08T21:19:09.772Z</time></trkpt><trkpt lat="-36.7451567" lon="174.4143348"><ele>127.57142857142857</ele><time>2026-04-08T21:19:11.772Z</time></trkpt><trkpt lat="-36.7450791" lon="174.4143386"><ele>127.14285714285714</ele><time>2026-04-08T21:19:12.771Z</time></trkpt><trkpt lat="-36.7450112" lon="174.4142994"><ele>126.71428571428571</ele><time>2026-04-08T21:19:15.772Z</time></trkpt><trkpt lat="-36.7449838" lon="174.4142077"><ele>126.28571428571428</ele><time>2026-04-08T21:19:17.772Z</time></trkpt><trkpt lat="-36.7449459" lon="174.41413"><ele>125.85714285714286</ele><time>2026-04-08T21:19:19.772Z</time></trkpt><trkpt lat="-36.7449312" lon="174.4140496"><ele>125.42857142857142</ele><time>2026-04-08T21:19:21.772Z</time></trkpt><trkpt lat="-36.7448839" lon="174.4139769"><ele>125.0</ele><time>2026-04-08T21:19:24.772Z</time></trkpt><trkpt lat="-36.74482" lon="174.4139398"><ele>124.99999999999999</ele><time>2026-04-08T21:19:26.772Z</time></trkpt><trkpt lat="-36.7447449" lon="174.4139117"><ele>125.0</ele><time>2026-04-08T21:19:28.772Z</time></trkpt><trkpt lat="-36.7446755" lon="174.4138634"><ele>125.0</ele><time>2026-04-08T21:19:30.773Z</time></trkpt><trkpt lat="-36.7446076" lon="174.4138058"><ele>125.0</ele><time>2026-04-08T21:19:32.772Z</time></trkpt><trkpt lat="-36.7445249" lon="174.4137902"><ele>124.99999999999999</ele><time>2026-04-08T21:19:34.772Z</time></trkpt><trkpt lat="-36.7444577" lon="174.41378"><ele>125.0</ele><time>2026-04-08T21:19:36.771Z</time></trkpt><trkpt lat="-36.7443992" lon="174.4137033"><ele>125.33333333333333</ele><time>2026-04-08T21:19:39.772Z</time></trkpt><trkpt lat="-36.744422" lon="174.4136077"><ele>125.66666666666666</ele><time>2026-04-08T21:19:41.771Z</time></trkpt><trkpt lat="-36.7444019" lon="174.4135191"><ele>126.0</ele><time>2026-04-08T21:19:44.771Z</time></trkpt><trkpt lat="-36.7443496" lon="174.4134674"><ele>126.33333333333334</ele><time>2026-04-08T21:19:46.771Z</time></trkpt><trkpt lat="-36.7442835" lon="174.41342"><ele>126.66666666666667</ele><time>2026-04-08T21:19:48.772Z</time></trkpt><trkpt lat="-36.7441746" lon="174.4133911"><ele>127.0</ele><time>2026-04-08T21:19:49.771Z</time></trkpt><trkpt lat="-36.7441174" lon="174.4132802"><ele>127.00000000000001</ele><time>2026-04-08T21:19:51.773Z</time></trkpt><trkpt lat="-36.7440249" lon="174.4132496"><ele>127.0</ele><time>2026-04-08T21:19:54.771Z</time></trkpt><trkpt lat="-36.7439283" lon="174.4132242"><ele>127.0</ele><time>2026-04-08T21:19:56.771Z</time></trkpt><trkpt lat="-36.7438879" lon="174.4131544"><ele>127.0</ele><time>2026-04-08T21:19:58.772Z</time></trkpt><trkpt lat="-36.7438509" lon="174.4130772"><ele>127.00000000000001</ele><time>2026-04-08T21:20:00.772Z</time></trkpt><trkpt lat="-36.7438727" lon="174.4129912"><ele>127.0</ele><time>2026-04-08T21:20:02.771Z</time></trkpt><trkpt lat="-36.7439201" lon="174.412871"><ele>127.00000000000001</ele><time>2026-04-08T21:20:04.773Z</time></trkpt><trkpt lat="-36.7439692" lon="174.412768"><ele>127.0</ele><time>2026-04-08T21:20:06.772Z</time></trkpt><trkpt lat="-36.7439967" lon="174.4126804"><ele>127.0</ele><time>2026-04-08T21:20:08.772Z</time></trkpt><trkpt lat="-36.7439939" lon="174.4125979"><ele>127.0</ele><time>2026-04-08T21:20:10.773Z</time></trkpt><trkpt lat="-36.7439691" lon="174.4125226"><ele>127.00000000000001</ele><time>2026-04-08T21:20:12.771Z</time></trkpt><trkpt lat="-36.7439334" lon="174.4124441"><ele>127.0</ele><time>2026-04-08T21:20:14.771Z</time></trkpt><trkpt lat="-36.7438751" lon="174.4123535"><ele>127.00000000000001</ele><time>2026-04-08T21:20:17.771Z</time></trkpt><trkpt lat="-36.7438904" lon="174.4122499"><ele>127.0</ele><time>2026-04-08T21:20:21.772Z</time></trkpt><trkpt lat="-36.7439571" lon="174.4122124"><ele>127.0</ele><time>2026-04-08T21:20:23.772Z</time></trkpt><trkpt lat="-36.7440379" lon="174.4122228"><ele>127.0</ele><time>2026-04-08T21:20:25.773Z</time></trkpt><trkpt lat="-36.744124" lon="174.4122489"><ele>127.00000000000001</ele><time>2026-04-08T21:20:27.771Z</time></trkpt><trkpt lat="-36.7441874" lon="174.4122523"><ele>127.0</ele><time>2026-04-08T21:20:29.771Z</time></trkpt><trkpt lat="-36.7442603" lon="174.4123126"><ele>127.00000000000001</ele><time>2026-04-08T21:20:31.772Z</time></trkpt><trkpt lat="-36.7443364" lon="174.4123411"><ele>127.0</ele><time>2026-04-08T21:20:33.771Z</time></trkpt><trkpt lat="-36.7443772" lon="174.4124087"><ele>127.0</ele><time>2026-04-08T21:20:35.771Z</time></trkpt><trkpt lat="-36.7443995" lon="174.4125009"><ele>127.0</ele><time>2026-04-08T21:20:37.773Z</time></trkpt><trkpt lat="-36.7443607" lon="174.4126054"><ele>127.00000000000001</ele><time>2026-04-08T21:20:39.771Z</time></trkpt><trkpt lat="-36.7443276" lon="174.4126827"><ele>127.0</ele><time>2026-04-08T21:20:41.772Z</time></trkpt><trkpt lat="-36.7442987" lon="174.4127675"><ele>127.00000000000001</ele><time>2026-04-08T21:20:42.773Z</time></trkpt><trkpt lat="-36.7442851" lon="174.4128455"><ele>127.0</ele><time>2026-04-08T21:20:43.771Z</time></trkpt><trkpt lat="-36.7442617" lon="174.412969"><ele>127.0</ele><time>2026-04-08T21:20:45.771Z</time></trkpt><trkpt lat="-36.7442339" lon="174.4130761"><ele>127.0</ele><time>2026-04-08T21:20:47.772Z</time></trkpt><trkpt lat="-36.7442372" lon="174.4131675"><ele>127.00000000000001</ele><time>2026-04-08T21:20:49.772Z</time></trkpt><trkpt lat="-36.7442847" lon="174.4132691"><ele>127.0</ele><time>2026-04-08T21:20:52.771Z</time></trkpt><trkpt lat="-36.7443375" lon="174.4133149"><ele>127.00000000000001</ele><time>2026-04-08T21:20:54.772Z</time></trkpt><trkpt lat="-36.7444077" lon="174.4133071"><ele>127.0</ele><time>2026-04-08T21:20:57.771Z</time></trkpt><trkpt lat="-36.7444875" lon="174.4133295"><ele>127.0</ele><time>2026-04-08T21:20:59.772Z</time></trkpt><trkpt lat="-36.7445624" lon="174.4133533"><ele>127.0</ele><time>2026-04-08T21:21:01.773Z</time></trkpt><trkpt lat="-36.7446395" lon="174.413348"><ele>127.00000000000001</ele><time>2026-04-08T21:21:03.772Z</time></trkpt><trkpt lat="-36.7447041" lon="174.4132973"><ele>127.0</ele><time>2026-04-08T21:21:05.771Z</time></trkpt><trkpt lat="-36.7447612" lon="174.4132436"><ele>127.00000000000001</ele><time>2026-04-08T21:21:07.772Z</time></trkpt><trkpt lat="-36.7448019" lon="174.4131693"><ele>127.0</ele><time>2026-04-08T21:21:09.772Z</time></trkpt><trkpt lat="-36.7448404" lon="174.4130955"><ele>127.0</ele><time>2026-04-08T21:21:11.773Z</time></trkpt><trkpt lat="-36.7449212" lon="174.4130521"><ele>127.0</ele><time>2026-04-08T21:21:14.771Z</time></trkpt><trkpt lat="-36.7449775" lon="174.4129731"><ele>127.00000000000001</ele><time>2026-04-08T21:21:17.772Z</time></trkpt><trkpt lat="-36.7450359" lon="174.4129248"><ele>127.0</ele><time>2026-04-08T21:21:19.772Z</time></trkpt><trkpt lat="-36.7451059" lon="174.4129018"><ele>126.8</ele><time>2026-04-08T21:21:21.772Z</time></trkpt><trkpt lat="-36.7451777" lon="174.4128635"><ele>126.6</ele><time>2026-04-08T21:21:23.771Z</time></trkpt><trkpt lat="-36.7452579" lon="174.4128454"><ele>126.39999999999999</ele><time>2026-04-08T21:21:25.773Z</time></trkpt><trkpt lat="-36.7454084" lon="174.4128318"><ele>126.19999999999999</ele><time>2026-04-08T21:21:27.773Z</time></trkpt><trkpt lat="-36.7454995" lon="174.4128803"><ele>126.0</ele><time>2026-04-08T21:21:29.773Z</time></trkpt><trkpt lat="-36.7455572" lon="174.4129178"><ele>126.5</ele><time>2026-04-08T21:21:30.772Z</time></trkpt><trkpt lat="-36.7456215" lon="174.4130062"><ele>127.0</ele><time>2026-04-08T21:21:32.771Z</time></trkpt><trkpt lat="-36.7456373" lon="174.4130913"><ele>127.5</ele><time>2026-04-08T21:21:35.771Z</time></trkpt><trkpt lat="-36.7456213" lon="174.4131833"><ele>128.0</ele><time>2026-04-08T21:21:38.772Z</time></trkpt><trkpt lat="-36.7457068" lon="174.4132131"><ele>128.5</ele><time>2026-04-08T21:21:42.771Z</time></trkpt><trkpt lat="-36.7457798" lon="174.4131975"><ele>129.0</ele><time>2026-04-08T21:21:44.773Z</time></trkpt><trkpt lat="-36.7458461" lon="174.4132069"><ele>129.0</ele><time>2026-04-08T21:21:46.772Z</time></trkpt><trkpt lat="-36.7459165" lon="174.4132555"><ele>129.0</ele><time>2026-04-08T21:21:48.772Z</time></trkpt><trkpt lat="-36.7459749" lon="174.4133427"><ele>129.0</ele><time>2026-04-08T21:21:51.771Z</time></trkpt><trkpt lat="-36.7460454" lon="174.4133802"><ele>129.0</ele><time>2026-04-08T21:21:54.773Z</time></trkpt><trkpt lat="-36.7461198" lon="174.4133723"><ele>129.0</ele><time>2026-04-08T21:21:57.772Z</time></trkpt><trkpt lat="-36.7461561" lon="174.4132981"><ele>129.0</ele><time>2026-04-08T21:21:59.772Z</time></trkpt><trkpt lat="-36.7461948" lon="174.4131985"><ele>128.99999999999997</ele><time>2026-04-08T21:22:01.771Z</time></trkpt><trkpt lat="-36.7462309" lon="174.4131093"><ele>129.0</ele><time>2026-04-08T21:22:03.772Z</time></trkpt><trkpt lat="-36.7462715" lon="174.4130346"><ele>129.0</ele><time>2026-04-08T21:22:05.771Z</time></trkpt><trkpt lat="-36.7462952" lon="174.4129531"><ele>129.0</ele><time>2026-04-08T21:22:07.772Z</time></trkpt><trkpt lat="-36.7463305" lon="174.4128666"><ele>129.0</ele><time>2026-04-08T21:22:10.772Z</time></trkpt><trkpt lat="-36.7463819" lon="174.4128208"><ele>128.99999999999997</ele><time>2026-04-08T21:22:12.771Z</time></trkpt><trkpt lat="-36.7464641" lon="174.4128489"><ele>129.0</ele><time>2026-04-08T21:22:14.772Z</time></trkpt><trkpt lat="-36.7465183" lon="174.4129252"><ele>129.5</ele><time>2026-04-08T21:22:17.773Z</time></trkpt><trkpt lat="-36.7465361" lon="174.4130105"><ele>130.0</ele><time>2026-04-08T21:22:19.771Z</time></trkpt><trkpt lat="-36.7465586" lon="174.4131301"><ele>130.5</ele><time>2026-04-08T21:22:22.772Z</time></trkpt><trkpt lat="-36.7465843" lon="174.4132346"><ele>131.0</ele><time>2026-04-08T21:22:24.772Z</time></trkpt><trkpt lat="-36.7465861" lon="174.4133248"><ele>131.5</ele><time>2026-04-08T21:22:26.771Z</time></trkpt><trkpt lat="-36.7465702" lon="174.4134108"><ele>132.0</ele><time>2026-04-08T21:22:28.771Z</time></trkpt><trkpt lat="-36.7465428" lon="174.4134984"><ele>132.0</ele><time>2026-04-08T21:22:31.772Z</time></trkpt><trkpt lat="-36.7465367" lon="174.4135772"><ele>132.0</ele><time>2026-04-08T21:22:33.771Z</time></trkpt><trkpt lat="-36.7466037" lon="174.4136033"><ele>132.0</ele><time>2026-04-08T21:22:37.773Z</time></trkpt><trkpt lat="-36.7466554" lon="174.4135399"><ele>132.0</ele><time>2026-04-08T21:22:39.773Z</time></trkpt><trkpt lat="-36.7466817" lon="174.4134651"><ele>132.0</ele><time>2026-04-08T21:22:41.772Z</time></trkpt><trkpt lat="-36.7467121" lon="174.4133898"><ele>132.0</ele><time>2026-04-08T21:22:43.772Z</time></trkpt><trkpt lat="-36.7467501" lon="174.4133118"><ele>132.0</ele><time>2026-04-08T21:22:45.772Z</time></trkpt><trkpt lat="-36.7468205" lon="174.4132398"><ele>132.0</ele><time>2026-04-08T21:22:48.772Z</time></trkpt><trkpt lat="-36.7468712" lon="174.4131775"><ele>132.0</ele><time>2026-04-08T21:22:51.773Z</time></trkpt><trkpt lat="-36.7469264" lon="174.4132339"><ele>132.0</ele><time>2026-04-08T21:22:55.771Z</time></trkpt><trkpt lat="-36.746936" lon="174.4133362"><ele>132.0</ele><time>2026-04-08T21:22:58.772Z</time></trkpt><trkpt lat="-36.7469391" lon="174.4134458"><ele>132.0</ele><time>2026-04-08T21:23:01.771Z</time></trkpt><trkpt lat="-36.7469509" lon="174.4135601"><ele>132.0</ele><time>2026-04-08T21:23:04.771Z</time></trkpt><trkpt lat="-36.7470125" lon="174.4136147"><ele>134.33333333333334</ele><time>2026-04-08T21:23:08.773Z</time></trkpt><trkpt lat="-36.7470635" lon="174.4135405"><ele>136.66666666666666</ele><time>2026-04-08T21:23:10.771Z</time></trkpt><trkpt lat="-36.7470485" lon="174.4134412"><ele>139.0</ele><time>2026-04-08T21:23:14.772Z</time></trkpt><trkpt lat="-36.7470086" lon="174.4133501"><ele>141.33333333333331</ele><time>2026-04-08T21:23:16.771Z</time></trkpt><trkpt lat="-36.7469832" lon="174.413266"><ele>143.66666666666666</ele><time>2026-04-08T21:23:17.771Z</time></trkpt><trkpt lat="-36.7469643" lon="174.4131783"><ele>146.0</ele><time>2026-04-08T21:23:18.774Z</time></trkpt><trkpt lat="-36.7469322" lon="174.4130875"><ele>146.0</ele><time>2026-04-08T21:23:19.771Z</time></trkpt><trkpt lat="-36.7468996" lon="174.4129954"><ele>146.0</ele><time>2026-04-08T21:23:20.772Z</time></trkpt><trkpt lat="-36.7468564" lon="174.4128929"><ele>146.0</ele><time>2026-04-08T21:23:21.771Z</time></trkpt><trkpt lat="-36.7467887" lon="174.4127656"><ele>146.0</ele><time>2026-04-08T21:23:23.771Z</time></trkpt><trkpt lat="-36.7467143" lon="174.4126284"><ele>146.0</ele><time>2026-04-08T21:23:25.772Z</time></trkpt><trkpt lat="-36.7466684" lon="174.4125619"><ele>143.16666666666666</ele><time>2026-04-08T21:23:26.772Z</time></trkpt><trkpt lat="-36.746623" lon="174.412503"><ele>140.33333333333331</ele><time>2026-04-08T21:23:27.771Z</time></trkpt><trkpt lat="-36.7465693" lon="174.4124607"><ele>137.5</ele><time>2026-04-08T21:23:28.772Z</time></trkpt><trkpt lat="-36.7464702" lon="174.4123809"><ele>134.66666666666666</ele><time>2026-04-08T21:23:30.772Z</time></trkpt><trkpt lat="-36.746393" lon="174.4123385"><ele>131.83333333333334</ele><time>2026-04-08T21:23:31.773Z</time></trkpt><trkpt lat="-36.7463211" lon="174.4123379"><ele>129.0</ele><time>2026-04-08T21:23:32.773Z</time></trkpt><trkpt lat="-36.7462615" lon="174.4122875"><ele>129.0</ele><time>2026-04-08T21:23:33.771Z</time></trkpt><trkpt lat="-36.7461582" lon="174.4122027"><ele>129.0</ele><time>2026-04-08T21:23:35.771Z</time></trkpt><trkpt lat="-36.7461027" lon="174.4121389"><ele>129.0</ele><time>2026-04-08T21:23:37.771Z</time></trkpt><trkpt lat="-36.7460545" lon="174.412044"><ele>129.0</ele><time>2026-04-08T21:23:40.772Z</time></trkpt><trkpt lat="-36.7459724" lon="174.4120042"><ele>129.0</ele><time>2026-04-08T21:23:44.771Z</time></trkpt><trkpt lat="-36.7459056" lon="174.4120083"><ele>129.0</ele><time>2026-04-08T21:23:46.773Z</time></trkpt><trkpt lat="-36.7458282" lon="174.4120629"><ele>128.7142857142857</ele><time>2026-04-08T21:23:49.771Z</time></trkpt><trkpt lat="-36.7457631" lon="174.4120379"><ele>128.42857142857142</ele><time>2026-04-08T21:23:52.774Z</time></trkpt><trkpt lat="-36.7457488" lon="174.4119541"><ele>128.14285714285714</ele><time>2026-04-08T21:23:55.772Z</time></trkpt><trkpt lat="-36.7457451" lon="174.4118726"><ele>127.85714285714285</ele><time>2026-04-08T21:23:58.772Z</time></trkpt><trkpt lat="-36.7456783" lon="174.4118517"><ele>127.57142857142856</ele><time>2026-04-08T21:24:01.771Z</time></trkpt><trkpt lat="-36.7456149" lon="174.411919"><ele>127.28571428571429</ele><time>2026-04-08T21:24:04.771Z</time></trkpt><trkpt lat="-36.7455726" lon="174.4120232"><ele>127.0</ele><time>2026-04-08T21:24:06.772Z</time></trkpt><trkpt lat="-36.7455301" lon="174.4120899"><ele>126.8</ele><time>2026-04-08T21:24:07.773Z</time></trkpt><trkpt lat="-36.7455058" lon="174.4121636"><ele>126.6</ele><time>2026-04-08T21:24:08.772Z</time></trkpt><trkpt lat="-36.7454534" lon="174.412237"><ele>126.39999999999999</ele><time>2026-04-08T21:24:09.772Z</time></trkpt><trkpt lat="-36.7453146" lon="174.4122629"><ele>126.19999999999999</ele><time>2026-04-08T21:24:11.774Z</time></trkpt><trkpt lat="-36.7452031" lon="174.4121877"><ele>126.0</ele><time>2026-04-08T21:24:13.773Z</time></trkpt><trkpt lat="-36.7451264" lon="174.4121366"><ele>125.6</ele><time>2026-04-08T21:24:14.772Z</time></trkpt><trkpt lat="-36.7450564" lon="174.4121223"><ele>125.19999999999999</ele><time>2026-04-08T21:24:15.772Z</time></trkpt><trkpt lat="-36.7449217" lon="174.4121105"><ele>124.80000000000001</ele><time>2026-04-08T21:24:17.772Z</time></trkpt><trkpt lat="-36.7448396" lon="174.4120706"><ele>124.4</ele><time>2026-04-08T21:24:18.771Z</time></trkpt><trkpt lat="-36.7447786" lon="174.4119694"><ele>124.0</ele><time>2026-04-08T21:24:20.771Z</time></trkpt><trkpt lat="-36.7447494" lon="174.4118825"><ele>124.00000000000001</ele><time>2026-04-08T21:24:22.771Z</time></trkpt><trkpt lat="-36.7447424" lon="174.4118019"><ele>124.0</ele><time>2026-04-08T21:24:24.772Z</time></trkpt><trkpt lat="-36.7447731" lon="174.4116986"><ele>124.0</ele><time>2026-04-08T21:24:26.771Z</time></trkpt><trkpt lat="-36.7448662" lon="174.4116183"><ele>124.0</ele><time>2026-04-08T21:24:28.772Z</time></trkpt><trkpt lat="-36.7449361" lon="174.4115458"><ele>124.00000000000001</ele><time>2026-04-08T21:24:30.771Z</time></trkpt><trkpt lat="-36.7449616" lon="174.4114717"><ele>124.0</ele><time>2026-04-08T21:24:32.772Z</time></trkpt><trkpt lat="-36.7449512" lon="174.4113507"><ele>123.16666666666667</ele><time>2026-04-08T21:24:35.771Z</time></trkpt><trkpt lat="-36.7449423" lon="174.4112467"><ele>122.33333333333334</ele><time>2026-04-08T21:24:37.773Z</time></trkpt><trkpt lat="-36.744935" lon="174.4111635"><ele>121.5</ele><time>2026-04-08T21:24:39.771Z</time></trkpt><trkpt lat="-36.7449152" lon="174.4110675"><ele>120.66666666666666</ele><time>2026-04-08T21:24:41.772Z</time></trkpt><trkpt lat="-36.7448728" lon="174.4109939"><ele>119.83333333333333</ele><time>2026-04-08T21:24:43.772Z</time></trkpt><trkpt lat="-36.7448123" lon="174.4109621"><ele>119.0</ele><time>2026-04-08T21:24:45.772Z</time></trkpt><trkpt lat="-36.7447197" lon="174.4109769"><ele>119.0</ele><time>2026-04-08T21:24:48.772Z</time></trkpt><trkpt lat="-36.7446531" lon="174.4109906"><ele>119.0</ele><time>2026-04-08T21:24:50.771Z</time></trkpt><trkpt lat="-36.744595" lon="174.4110283"><ele>119.0</ele><time>2026-04-08T21:24:52.771Z</time></trkpt><trkpt lat="-36.7445423" lon="174.4110891"><ele>119.0</ele><time>2026-04-08T21:24:54.772Z</time></trkpt><trkpt lat="-36.7445059" lon="174.4111591"><ele>119.0</ele><time>2026-04-08T21:24:57.771Z</time></trkpt><trkpt lat="-36.7445757" lon="174.4111665"><ele>119.0</ele><time>2026-04-08T21:25:01.771Z</time></trkpt><trkpt lat="-36.7445831" lon="174.4112613"><ele>119.0</ele><time>2026-04-08T21:25:05.771Z</time></trkpt><trkpt lat="-36.7445354" lon="174.4113223"><ele>119.71428571428572</ele><time>2026-04-08T21:25:07.772Z</time></trkpt><trkpt lat="-36.7445087" lon="174.4114008"><ele>120.42857142857143</ele><time>2026-04-08T21:25:09.772Z</time></trkpt><trkpt lat="-36.7444495" lon="174.4114771"><ele>121.14285714285714</ele><time>2026-04-08T21:25:12.772Z</time></trkpt><trkpt lat="-36.7444125" lon="174.4115484"><ele>121.85714285714286</ele><time>2026-04-08T21:25:14.772Z</time></trkpt><trkpt lat="-36.7443686" lon="174.4116208"><ele>122.57142857142858</ele><time>2026-04-08T21:25:16.772Z</time></trkpt><trkpt lat="-36.7443101" lon="174.4116774"><ele>123.28571428571429</ele><time>2026-04-08T21:25:18.771Z</time></trkpt><trkpt lat="-36.744256" lon="174.4117325"><ele>124.0</ele><time>2026-04-08T21:25:20.771Z</time></trkpt><trkpt lat="-36.7442118" lon="174.4118084"><ele>124.33333333333334</ele><time>2026-04-08T21:25:22.772Z</time></trkpt><trkpt lat="-36.744141" lon="174.4118809"><ele>124.66666666666667</ele><time>2026-04-08T21:25:25.772Z</time></trkpt><trkpt lat="-36.7440652" lon="174.4119292"><ele>125.0</ele><time>2026-04-08T21:25:28.772Z</time></trkpt><trkpt lat="-36.7439793" lon="174.4119298"><ele>125.33333333333334</ele><time>2026-04-08T21:25:30.773Z</time></trkpt><trkpt lat="-36.7439031" lon="174.4119553"><ele>125.66666666666667</ele><time>2026-04-08T21:25:32.772Z</time></trkpt><trkpt lat="-36.7438323" lon="174.4119892"><ele>126.0</ele><time>2026-04-08T21:25:34.772Z</time></trkpt><trkpt lat="-36.7437663" lon="174.4120685"><ele>126.16666666666667</ele><time>2026-04-08T21:25:36.772Z</time></trkpt><trkpt lat="-36.7437464" lon="174.4121623"><ele>126.33333333333334</ele><time>2026-04-08T21:25:38.772Z</time></trkpt><trkpt lat="-36.743753" lon="174.4122443"><ele>126.5</ele><time>2026-04-08T21:25:40.773Z</time></trkpt><trkpt lat="-36.7437025" lon="174.4123067"><ele>126.66666666666667</ele><time>2026-04-08T21:25:43.773Z</time></trkpt><trkpt lat="-36.7436502" lon="174.4123597"><ele>126.83333333333334</ele><time>2026-04-08T21:25:45.772Z</time></trkpt><trkpt lat="-36.7435609" lon="174.4124363"><ele>127.0</ele><time>2026-04-08T21:25:47.772Z</time></trkpt><trkpt lat="-36.7434855" lon="174.4124742"><ele>126.66666666666667</ele><time>2026-04-08T21:25:48.771Z</time></trkpt><trkpt lat="-36.7434359" lon="174.4125399"><ele>126.33333333333334</ele><time>2026-04-08T21:25:49.771Z</time></trkpt><trkpt lat="-36.7433776" lon="174.4125944"><ele>126.0</ele><time>2026-04-08T21:25:50.772Z</time></trkpt><trkpt lat="-36.743298" lon="174.4126654"><ele>125.66666666666666</ele><time>2026-04-08T21:25:52.772Z</time></trkpt><trkpt lat="-36.7432611" lon="174.4127412"><ele>125.33333333333333</ele><time>2026-04-08T21:25:55.773Z</time></trkpt><trkpt lat="-36.7432035" lon="174.4128566"><ele>125.0</ele><time>2026-04-08T21:25:57.772Z</time></trkpt><trkpt lat="-36.7431329" lon="174.4129436"><ele>125.99999999999999</ele><time>2026-04-08T21:25:59.772Z</time></trkpt><trkpt lat="-36.7430646" lon="174.4130483"><ele>127.0</ele><time>2026-04-08T21:26:01.772Z</time></trkpt><trkpt lat="-36.743012" lon="174.4131348"><ele>128.0</ele><time>2026-04-08T21:26:03.771Z</time></trkpt><trkpt lat="-36.7429702" lon="174.4132222"><ele>129.0</ele><time>2026-04-08T21:26:05.773Z</time></trkpt><trkpt lat="-36.7429279" lon="174.4133"><ele>130.0</ele><time>2026-04-08T21:26:07.772Z</time></trkpt><trkpt lat="-36.7428854" lon="174.4133606"><ele>131.0</ele><time>2026-04-08T21:26:08.773Z</time></trkpt><trkpt lat="-36.7428249" lon="174.413452"><ele>131.0</ele><time>2026-04-08T21:26:10.772Z</time></trkpt><trkpt lat="-36.7427794" lon="174.4135328"><ele>131.0</ele><time>2026-04-08T21:26:12.773Z</time></trkpt><trkpt lat="-36.7427091" lon="174.4136447"><ele>131.0</ele><time>2026-04-08T21:26:14.772Z</time></trkpt><trkpt lat="-36.7426609" lon="174.4137413"><ele>131.0</ele><time>2026-04-08T21:26:16.772Z</time></trkpt><trkpt lat="-36.7426181" lon="174.4138185"><ele>131.0</ele><time>2026-04-08T21:26:18.772Z</time></trkpt><trkpt lat="-36.7425712" lon="174.4138902"><ele>131.0</ele><time>2026-04-08T21:26:20.772Z</time></trkpt><trkpt lat="-36.7425374" lon="174.4139595"><ele>131.71428571428572</ele><time>2026-04-08T21:26:22.771Z</time></trkpt><trkpt lat="-36.742461" lon="174.413981"><ele>132.42857142857144</ele><time>2026-04-08T21:26:25.772Z</time></trkpt><trkpt lat="-36.7424245" lon="174.4139139"><ele>133.14285714285714</ele><time>2026-04-08T21:26:27.773Z</time></trkpt><trkpt lat="-36.7423877" lon="174.4138359"><ele>133.85714285714286</ele><time>2026-04-08T21:26:30.772Z</time></trkpt><trkpt lat="-36.7423518" lon="174.4139142"><ele>134.57142857142856</ele><time>2026-04-08T21:26:33.772Z</time></trkpt><trkpt lat="-36.7423494" lon="174.4139975"><ele>135.28571428571428</ele><time>2026-04-08T21:26:36.772Z</time></trkpt><trkpt lat="-36.7423165" lon="174.4140668"><ele>136.0</ele><time>2026-04-08T21:26:38.771Z</time></trkpt><trkpt lat="-36.742315" lon="174.4141574"><ele>136.0</ele><time>2026-04-08T21:26:40.772Z</time></trkpt><trkpt lat="-36.7423244" lon="174.4142429"><ele>136.0</ele><time>2026-04-08T21:26:43.772Z</time></trkpt><trkpt lat="-36.7422492" lon="174.4142725"><ele>136.0</ele><time>2026-04-08T21:26:46.771Z</time></trkpt><trkpt lat="-36.7421911" lon="174.4142263"><ele>136.0</ele><time>2026-04-08T21:26:48.772Z</time></trkpt><trkpt lat="-36.7421301" lon="174.4141791"><ele>136.0</ele><time>2026-04-08T21:26:50.773Z</time></trkpt><trkpt lat="-36.7420605" lon="174.4141334"><ele>136.0</ele><time>2026-04-08T21:26:52.772Z</time></trkpt><trkpt lat="-36.7419794" lon="174.4140886"><ele>136.0</ele><time>2026-04-08T21:26:54.771Z</time></trkpt><trkpt lat="-36.7418889" lon="174.4140415"><ele>136.0</ele><time>2026-04-08T21:26:56.772Z</time></trkpt><trkpt lat="-36.7417984" lon="174.4139843"><ele>136.0</ele><time>2026-04-08T21:26:58.772Z</time></trkpt><trkpt lat="-36.7417005" lon="174.4139407"><ele>136.0</ele><time>2026-04-08T21:27:00.772Z</time></trkpt><trkpt lat="-36.7416039" lon="174.4138915"><ele>136.0</ele><time>2026-04-08T21:27:02.771Z</time></trkpt><trkpt lat="-36.741497" lon="174.413839"><ele>134.5</ele><time>2026-04-08T21:27:04.772Z</time></trkpt><trkpt lat="-36.741387" lon="174.4137918"><ele>133.0</ele><time>2026-04-08T21:27:06.772Z</time></trkpt><trkpt lat="-36.7412692" lon="174.413747"><ele>131.5</ele><time>2026-04-08T21:27:08.772Z</time></trkpt><trkpt lat="-36.7412088" lon="174.4137191"><ele>130.0</ele><time>2026-04-08T21:27:09.771Z</time></trkpt><trkpt lat="-36.7411491" lon="174.4136902"><ele>128.5</ele><time>2026-04-08T21:27:10.771Z</time></trkpt><trkpt lat="-36.7410825" lon="174.4136587"><ele>127.0</ele><time>2026-04-08T21:27:11.772Z</time></trkpt><trkpt lat="-36.7410197" lon="174.413628"><ele>126.85714285714286</ele><time>2026-04-08T21:27:12.772Z</time></trkpt><trkpt lat="-36.7409533" lon="174.4135954"><ele>126.71428571428571</ele><time>2026-04-08T21:27:13.771Z</time></trkpt><trkpt lat="-36.7408878" lon="174.4135629"><ele>126.57142857142857</ele><time>2026-04-08T21:27:14.773Z</time></trkpt><trkpt lat="-36.7408221" lon="174.41353"><ele>126.42857142857143</ele><time>2026-04-08T21:27:15.773Z</time></trkpt><trkpt lat="-36.7407558" lon="174.4134983"><ele>126.28571428571428</ele><time>2026-04-08T21:27:16.772Z</time></trkpt><trkpt lat="-36.7406875" lon="174.413468"><ele>126.14285714285714</ele><time>2026-04-08T21:27:17.772Z</time></trkpt><trkpt lat="-36.7406181" lon="174.4134379"><ele>126.0</ele><time>2026-04-08T21:27:18.771Z</time></trkpt><trkpt lat="-36.7405516" lon="174.4133991"><ele>126.0</ele><time>2026-04-08T21:27:19.772Z</time></trkpt><trkpt lat="-36.7404821" lon="174.4133662"><ele>126.0</ele><time>2026-04-08T21:27:20.772Z</time></trkpt><trkpt lat="-36.7404142" lon="174.4133333"><ele>126.0</ele><time>2026-04-08T21:27:21.773Z</time></trkpt><trkpt lat="-36.7403474" lon="174.413299"><ele>126.0</ele><time>2026-04-08T21:27:22.771Z</time></trkpt><trkpt lat="-36.7402768" lon="174.4132625"><ele>126.0</ele><time>2026-04-08T21:27:23.773Z</time></trkpt><trkpt lat="-36.7402075" lon="174.4132268"><ele>126.0</ele><time>2026-04-08T21:27:24.771Z</time></trkpt><trkpt lat="-36.7401333" lon="174.4131938"><ele>126.28571428571428</ele><time>2026-04-08T21:27:25.773Z</time></trkpt><trkpt lat="-36.7400619" lon="174.4131589"><ele>126.57142857142857</ele><time>2026-04-08T21:27:26.772Z</time></trkpt><trkpt lat="-36.7399913" lon="174.41312"><ele>126.85714285714286</ele><time>2026-04-08T21:27:27.772Z</time></trkpt><trkpt lat="-36.7399215" lon="174.4130821"><ele>127.14285714285714</ele><time>2026-04-08T21:27:28.772Z</time></trkpt><trkpt lat="-36.7398543" lon="174.4130434"><ele>127.42857142857142</ele><time>2026-04-08T21:27:29.772Z</time></trkpt><trkpt lat="-36.7397867" lon="174.413014"><ele>127.71428571428571</ele><time>2026-04-08T21:27:30.772Z</time></trkpt><trkpt lat="-36.7397193" lon="174.4129787"><ele>128.0</ele><time>2026-04-08T21:27:31.771Z</time></trkpt><trkpt lat="-36.7396532" lon="174.4129455"><ele>127.42857142857142</ele><time>2026-04-08T21:27:32.772Z</time></trkpt><trkpt lat="-36.7395876" lon="174.4129129"><ele>126.85714285714285</ele><time>2026-04-08T21:27:33.772Z</time></trkpt><trkpt lat="-36.7395237" lon="174.4128779"><ele>126.28571428571428</ele><time>2026-04-08T21:27:34.772Z</time></trkpt><trkpt lat="-36.7394621" lon="174.4128449"><ele>125.71428571428572</ele><time>2026-04-08T21:27:35.772Z</time></trkpt><trkpt lat="-36.7393983" lon="174.4128145"><ele>125.14285714285715</ele><time>2026-04-08T21:27:36.772Z</time></trkpt><trkpt lat="-36.7393357" lon="174.4127798"><ele>124.57142857142858</ele><time>2026-04-08T21:27:37.771Z</time></trkpt><trkpt lat="-36.7392729" lon="174.4127406"><ele>124.0</ele><time>2026-04-08T21:27:38.771Z</time></trkpt><trkpt lat="-36.7392097" lon="174.412704"><ele>124.0</ele><time>2026-04-08T21:27:39.773Z</time></trkpt><trkpt lat="-36.7391464" lon="174.4126656"><ele>124.00000000000001</ele><time>2026-04-08T21:27:40.771Z</time></trkpt><trkpt lat="-36.7390801" lon="174.4126295"><ele>124.0</ele><time>2026-04-08T21:27:41.772Z</time></trkpt><trkpt lat="-36.7390164" lon="174.4125981"><ele>124.0</ele><time>2026-04-08T21:27:42.773Z</time></trkpt><trkpt lat="-36.7389472" lon="174.4125705"><ele>124.00000000000001</ele><time>2026-04-08T21:27:43.772Z</time></trkpt><trkpt lat="-36.7388775" lon="174.4125357"><ele>124.0</ele><time>2026-04-08T21:27:44.772Z</time></trkpt><trkpt lat="-36.7388096" lon="174.4124994"><ele>124.0</ele><time>2026-04-08T21:27:45.773Z</time></trkpt><trkpt lat="-36.7387383" lon="174.4124684"><ele>124.00000000000001</ele><time>2026-04-08T21:27:46.772Z</time></trkpt><trkpt lat="-36.7386693" lon="174.4124422"><ele>124.0</ele><time>2026-04-08T21:27:47.773Z</time></trkpt><trkpt lat="-36.7385966" lon="174.4124083"><ele>124.0</ele><time>2026-04-08T21:27:48.771Z</time></trkpt><trkpt lat="-36.7385245" lon="174.412373"><ele>124.0</ele><time>2026-04-08T21:27:49.773Z</time></trkpt><trkpt lat="-36.7384513" lon="174.4123343"><ele>124.00000000000001</ele><time>2026-04-08T21:27:50.772Z</time></trkpt><trkpt lat="-36.7383804" lon="174.4123008"><ele>124.0</ele><time>2026-04-08T21:27:51.771Z</time></trkpt><trkpt lat="-36.7383099" lon="174.4122652"><ele>124.00000000000001</ele><time>2026-04-08T21:27:52.772Z</time></trkpt><trkpt lat="-36.7382366" lon="174.4122297"><ele>124.0</ele><time>2026-04-08T21:27:53.772Z</time></trkpt><trkpt lat="-36.7381644" lon="174.4121946"><ele>124.0</ele><time>2026-04-08T21:27:54.772Z</time></trkpt><trkpt lat="-36.738089" lon="174.4121559"><ele>124.0</ele><time>2026-04-08T21:27:55.772Z</time></trkpt><trkpt lat="-36.7380194" lon="174.4121173"><ele>124.00000000000001</ele><time>2026-04-08T21:27:56.772Z</time></trkpt><trkpt lat="-36.7379488" lon="174.412082"><ele>124.0</ele><time>2026-04-08T21:27:57.771Z</time></trkpt><trkpt lat="-36.7378782" lon="174.4120517"><ele>124.0</ele><time>2026-04-08T21:27:58.773Z</time></trkpt><trkpt lat="-36.7378102" lon="174.412013"><ele>124.00000000000001</ele><time>2026-04-08T21:27:59.773Z</time></trkpt><trkpt lat="-36.737745" lon="174.4119722"><ele>124.0</ele><time>2026-04-08T21:28:00.771Z</time></trkpt><trkpt lat="-36.7376784" lon="174.4119323"><ele>124.0</ele><time>2026-04-08T21:28:01.771Z</time></trkpt><trkpt lat="-36.7376132" lon="174.4118909"><ele>124.00000000000001</ele><time>2026-04-08T21:28:02.772Z</time></trkpt><trkpt lat="-36.7375441" lon="174.4118523"><ele>124.0</ele><time>2026-04-08T21:28:03.771Z</time></trkpt><trkpt lat="-36.7374792" lon="174.4118199"><ele>124.0</ele><time>2026-04-08T21:28:04.772Z</time></trkpt><trkpt lat="-36.7374079" lon="174.4117894"><ele>124.50000000000001</ele><time>2026-04-08T21:28:05.772Z</time></trkpt><trkpt lat="-36.7373441" lon="174.4117698"><ele>125.0</ele><time>2026-04-08T21:28:06.773Z</time></trkpt><trkpt lat="-36.7372706" lon="174.4117332"><ele>125.5</ele><time>2026-04-08T21:28:07.771Z</time></trkpt><trkpt lat="-36.737157" lon="174.4116781"><ele>126.0</ele><time>2026-04-08T21:28:09.772Z</time></trkpt><trkpt lat="-36.7370978" lon="174.4116485"><ele>126.50000000000001</ele><time>2026-04-08T21:28:10.771Z</time></trkpt><trkpt lat="-36.736988" lon="174.4115914"><ele>127.0</ele><time>2026-04-08T21:28:12.771Z</time></trkpt><trkpt lat="-36.7368927" lon="174.4115535"><ele>127.39999999999999</ele><time>2026-04-08T21:28:14.772Z</time></trkpt><trkpt lat="-36.7367887" lon="174.4114988"><ele>127.79999999999998</ele><time>2026-04-08T21:28:16.773Z</time></trkpt><trkpt lat="-36.7366843" lon="174.4114554"><ele>128.2</ele><time>2026-04-08T21:28:18.772Z</time></trkpt><trkpt lat="-36.7365868" lon="174.4114155"><ele>128.6</ele><time>2026-04-08T21:28:20.772Z</time></trkpt><trkpt lat="-36.7364976" lon="174.4113617"><ele>129.0</ele><time>2026-04-08T21:28:22.772Z</time></trkpt><trkpt lat="-36.7364101" lon="174.4113126"><ele>129.66666666666666</ele><time>2026-04-08T21:28:24.771Z</time></trkpt><trkpt lat="-36.7363313" lon="174.4113008"><ele>130.33333333333334</ele><time>2026-04-08T21:28:26.771Z</time></trkpt><trkpt lat="-36.7362636" lon="174.4112612"><ele>131.0</ele><time>2026-04-08T21:28:28.772Z</time></trkpt><trkpt lat="-36.7361803" lon="174.4112293"><ele>131.66666666666669</ele><time>2026-04-08T21:28:31.772Z</time></trkpt><trkpt lat="-36.7360988" lon="174.4112163"><ele>132.33333333333334</ele><time>2026-04-08T21:28:34.773Z</time></trkpt><trkpt lat="-36.736112" lon="174.4111367"><ele>133.0</ele><time>2026-04-08T21:28:38.772Z</time></trkpt><trkpt lat="-36.7361757" lon="174.4111567"><ele>133.0</ele><time>2026-04-08T21:28:40.771Z</time></trkpt><trkpt lat="-36.7362578" lon="174.4111705"><ele>133.0</ele><time>2026-04-08T21:28:42.771Z</time></trkpt><trkpt lat="-36.7363293" lon="174.4111613"><ele>133.0</ele><time>2026-04-08T21:28:44.772Z</time></trkpt><trkpt lat="-36.7363992" lon="174.4111504"><ele>133.0</ele><time>2026-04-08T21:28:46.772Z</time></trkpt><trkpt lat="-36.7364762" lon="174.4111494"><ele>133.0</ele><time>2026-04-08T21:28:48.771Z</time></trkpt><trkpt lat="-36.7365369" lon="174.411113"><ele>133.0</ele><time>2026-04-08T21:28:50.772Z</time></trkpt><trkpt lat="-36.7364947" lon="174.4110034"><ele>133.0</ele><time>2026-04-08T21:28:53.772Z</time></trkpt><trkpt lat="-36.7364409" lon="174.4109393"><ele>133.0</ele><time>2026-04-08T21:28:55.773Z</time></trkpt><trkpt lat="-36.736387" lon="174.4108869"><ele>133.0</ele><time>2026-04-08T21:28:57.772Z</time></trkpt><trkpt lat="-36.736335" lon="174.41084"><ele>133.0</ele><time>2026-04-08T21:28:59.771Z</time></trkpt><trkpt lat="-36.7363468" lon="174.4107582"><ele>133.0</ele><time>2026-04-08T21:29:01.772Z</time></trkpt><trkpt lat="-36.7363631" lon="174.4106286"><ele>133.0</ele><time>2026-04-08T21:29:04.773Z</time></trkpt><trkpt lat="-36.7364091" lon="174.4105205"><ele>133.83333333333334</ele><time>2026-04-08T21:29:06.772Z</time></trkpt><trkpt lat="-36.7364205" lon="174.4104292"><ele>134.66666666666669</ele><time>2026-04-08T21:29:08.772Z</time></trkpt><trkpt lat="-36.7364394" lon="174.4103445"><ele>135.5</ele><time>2026-04-08T21:29:10.771Z</time></trkpt><trkpt lat="-36.7364646" lon="174.410264"><ele>136.33333333333334</ele><time>2026-04-08T21:29:12.771Z</time></trkpt><trkpt lat="-36.7364857" lon="174.4101607"><ele>137.16666666666666</ele><time>2026-04-08T21:29:14.772Z</time></trkpt><trkpt lat="-36.7365009" lon="174.4100554"><ele>138.0</ele><time>2026-04-08T21:29:16.771Z</time></trkpt><trkpt lat="-36.7365141" lon="174.4099725"><ele>138.0</ele><time>2026-04-08T21:29:18.772Z</time></trkpt><trkpt lat="-36.7365321" lon="174.4098935"><ele>138.0</ele><time>2026-04-08T21:29:20.772Z</time></trkpt><trkpt lat="-36.7365555" lon="174.4098091"><ele>138.0</ele><time>2026-04-08T21:29:22.771Z</time></trkpt><trkpt lat="-36.7365828" lon="174.4097121"><ele>138.0</ele><time>2026-04-08T21:29:24.772Z</time></trkpt><trkpt lat="-36.7366044" lon="174.4096019"><ele>138.0</ele><time>2026-04-08T21:29:26.772Z</time></trkpt><trkpt lat="-36.7366289" lon="174.4094959"><ele>138.0</ele><time>2026-04-08T21:29:28.771Z</time></trkpt><trkpt lat="-36.7366706" lon="174.4093763"><ele>138.0</ele><time>2026-04-08T21:29:30.772Z</time></trkpt><trkpt lat="-36.7367098" lon="174.4093007"><ele>138.0</ele><time>2026-04-08T21:29:31.773Z</time></trkpt><trkpt lat="-36.7367548" lon="174.4091886"><ele>138.0</ele><time>2026-04-08T21:29:33.773Z</time></trkpt><trkpt lat="-36.7367733" lon="174.4090645"><ele>138.0</ele><time>2026-04-08T21:29:35.771Z</time></trkpt><trkpt lat="-36.7368096" lon="174.4089461"><ele>138.0</ele><time>2026-04-08T21:29:37.773Z</time></trkpt><trkpt lat="-36.7368379" lon="174.4088347"><ele>138.0</ele><time>2026-04-08T21:29:39.772Z</time></trkpt><trkpt lat="-36.7368524" lon="174.4087124"><ele>138.0</ele><time>2026-04-08T21:29:41.772Z</time></trkpt><trkpt lat="-36.7368981" lon="174.4085789"><ele>138.0</ele><time>2026-04-08T21:29:43.772Z</time></trkpt><trkpt lat="-36.7369343" lon="174.4084592"><ele>138.0</ele><time>2026-04-08T21:29:45.771Z</time></trkpt><trkpt lat="-36.7369857" lon="174.4083507"><ele>138.0</ele><time>2026-04-08T21:29:47.773Z</time></trkpt><trkpt lat="-36.7370164" lon="174.4082569"><ele>137.66666666666666</ele><time>2026-04-08T21:29:49.772Z</time></trkpt><trkpt lat="-36.7370558" lon="174.4081432"><ele>137.33333333333334</ele><time>2026-04-08T21:29:51.772Z</time></trkpt><trkpt lat="-36.7370769" lon="174.4080379"><ele>137.0</ele><time>2026-04-08T21:29:53.771Z</time></trkpt><trkpt lat="-36.7370857" lon="174.4079427"><ele>136.66666666666669</ele><time>2026-04-08T21:29:55.771Z</time></trkpt><trkpt lat="-36.7371018" lon="174.4078571"><ele>136.33333333333334</ele><time>2026-04-08T21:29:57.772Z</time></trkpt><trkpt lat="-36.7371216" lon="174.4077703"><ele>136.0</ele><time>2026-04-08T21:29:59.772Z</time></trkpt><trkpt lat="-36.7371408" lon="174.4076939"><ele>137.33333333333334</ele><time>2026-04-08T21:30:01.772Z</time></trkpt><trkpt lat="-36.7371797" lon="174.4076026"><ele>138.66666666666669</ele><time>2026-04-08T21:30:03.771Z</time></trkpt><trkpt lat="-36.7372156" lon="174.407513"><ele>140.0</ele><time>2026-04-08T21:30:05.772Z</time></trkpt><trkpt lat="-36.7372428" lon="174.4074323"><ele>141.33333333333334</ele><time>2026-04-08T21:30:07.771Z</time></trkpt><trkpt lat="-36.7372648" lon="174.4073416"><ele>142.66666666666666</ele><time>2026-04-08T21:30:09.772Z</time></trkpt><trkpt lat="-36.7372833" lon="174.4072501"><ele>144.0</ele><time>2026-04-08T21:30:11.771Z</time></trkpt><trkpt lat="-36.7373067" lon="174.4071623"><ele>143.66666666666666</ele><time>2026-04-08T21:30:13.772Z</time></trkpt><trkpt lat="-36.7373456" lon="174.4070791"><ele>143.33333333333334</ele><time>2026-04-08T21:30:15.771Z</time></trkpt><trkpt lat="-36.7373863" lon="174.4070159"><ele>143.0</ele><time>2026-04-08T21:30:17.772Z</time></trkpt><trkpt lat="-36.7374359" lon="174.4069242"><ele>142.66666666666669</ele><time>2026-04-08T21:30:20.771Z</time></trkpt><trkpt lat="-36.7374907" lon="174.4068459"><ele>142.33333333333334</ele><time>2026-04-08T21:30:23.772Z</time></trkpt><trkpt lat="-36.737443" lon="174.4067521"><ele>142.0</ele><time>2026-04-08T21:31:35.773Z</time></trkpt><trkpt lat="-36.7373671" lon="174.4066814"><ele>142.0</ele><time>2026-04-08T21:31:37.771Z</time></trkpt><trkpt lat="-36.7372906" lon="174.4066248"><ele>142.0</ele><time>2026-04-08T21:31:39.772Z</time></trkpt><trkpt lat="-36.7371889" lon="174.4066232"><ele>142.0</ele><time>2026-04-08T21:31:41.772Z</time></trkpt><trkpt lat="-36.7370853" lon="174.4065719"><ele>142.0</ele><time>2026-04-08T21:31:43.771Z</time></trkpt><trkpt lat="-36.7371273" lon="174.4064527"><ele>142.0</ele><time>2026-04-08T21:31:45.771Z</time></trkpt><trkpt lat="-36.7370974" lon="174.4063601"><ele>142.0</ele><time>2026-04-08T21:31:47.772Z</time></trkpt><trkpt lat="-36.7370356" lon="174.406335"><ele>142.0</ele><time>2026-04-08T21:31:48.773Z</time></trkpt><trkpt lat="-36.7369736" lon="174.4063155"><ele>142.0</ele><time>2026-04-08T21:31:49.771Z</time></trkpt><trkpt lat="-36.7368582" lon="174.4062691"><ele>142.0</ele><time>2026-04-08T21:31:51.773Z</time></trkpt><trkpt lat="-36.7367879" lon="174.4062413"><ele>142.0</ele><time>2026-04-08T21:31:52.772Z</time></trkpt><trkpt lat="-36.7367192" lon="174.4062062"><ele>142.0</ele><time>2026-04-08T21:31:53.771Z</time></trkpt><trkpt lat="-36.7366442" lon="174.4061732"><ele>139.83333333333334</ele><time>2026-04-08T21:31:54.772Z</time></trkpt><trkpt lat="-36.7365558" lon="174.4061371"><ele>137.66666666666669</ele><time>2026-04-08T21:31:55.772Z</time></trkpt><trkpt lat="-36.7364836" lon="174.4061157"><ele>135.5</ele><time>2026-04-08T21:31:56.773Z</time></trkpt><trkpt lat="-36.736418" lon="174.4060888"><ele>133.33333333333334</ele><time>2026-04-08T21:31:57.773Z</time></trkpt><trkpt lat="-36.7363398" lon="174.4060935"><ele>131.16666666666666</ele><time>2026-04-08T21:31:58.771Z</time></trkpt><trkpt lat="-36.7362461" lon="174.4060918"><ele>129.0</ele><time>2026-04-08T21:31:59.772Z</time></trkpt><trkpt lat="-36.7361078" lon="174.4060667"><ele>127.2</ele><time>2026-04-08T21:32:01.772Z</time></trkpt><trkpt lat="-36.7360321" lon="174.4061099"><ele>125.4</ele><time>2026-04-08T21:32:02.772Z</time></trkpt><trkpt lat="-36.7359434" lon="174.4061218"><ele>123.6</ele><time>2026-04-08T21:32:03.772Z</time></trkpt><trkpt lat="-36.7358711" lon="174.4061812"><ele>121.8</ele><time>2026-04-08T21:32:04.771Z</time></trkpt><trkpt lat="-36.7357833" lon="174.4062018"><ele>120.0</ele><time>2026-04-08T21:32:05.771Z</time></trkpt><trkpt lat="-36.7356805" lon="174.406186"><ele>120.0</ele><time>2026-04-08T21:32:06.772Z</time></trkpt><trkpt lat="-36.735602" lon="174.4061822"><ele>120.0</ele><time>2026-04-08T21:32:07.772Z</time></trkpt><trkpt lat="-36.7355163" lon="174.4061956"><ele>120.0</ele><time>2026-04-08T21:32:08.773Z</time></trkpt><trkpt lat="-36.7354336" lon="174.4062023"><ele>120.0</ele><time>2026-04-08T21:32:09.772Z</time></trkpt><trkpt lat="-36.7353505" lon="174.4062162"><ele>120.0</ele><time>2026-04-08T21:32:10.773Z</time></trkpt><trkpt lat="-36.7352703" lon="174.4062107"><ele>120.0</ele><time>2026-04-08T21:32:11.773Z</time></trkpt><trkpt lat="-36.7351946" lon="174.4062153"><ele>120.0</ele><time>2026-04-08T21:32:12.772Z</time></trkpt><trkpt lat="-36.7350865" lon="174.4061766"><ele>120.0</ele><time>2026-04-08T21:32:14.773Z</time></trkpt><trkpt lat="-36.7349878" lon="174.4061478"><ele>120.0</ele><time>2026-04-08T21:32:16.772Z</time></trkpt><trkpt lat="-36.7349164" lon="174.4060946"><ele>120.0</ele><time>2026-04-08T21:32:18.772Z</time></trkpt><trkpt lat="-36.7348496" lon="174.4060059"><ele>120.0</ele><time>2026-04-08T21:32:20.773Z</time></trkpt><trkpt lat="-36.7347951" lon="174.4059184"><ele>120.0</ele><time>2026-04-08T21:32:22.771Z</time></trkpt><trkpt lat="-36.7347636" lon="174.4058354"><ele>120.0</ele><time>2026-04-08T21:32:24.772Z</time></trkpt><trkpt lat="-36.7347256" lon="174.405735"><ele>120.0</ele><time>2026-04-08T21:32:26.772Z</time></trkpt><trkpt lat="-36.7347026" lon="174.405645"><ele>120.0</ele><time>2026-04-08T21:32:28.771Z</time></trkpt><trkpt lat="-36.7347069" lon="174.4055523"><ele>120.0</ele><time>2026-04-08T21:32:30.772Z</time></trkpt><trkpt lat="-36.7346913" lon="174.4054583"><ele>120.0</ele><time>2026-04-08T21:32:32.773Z</time></trkpt><trkpt lat="-36.7346365" lon="174.4053887"><ele>120.14285714285714</ele><time>2026-04-08T21:32:35.772Z</time></trkpt><trkpt lat="-36.7346872" lon="174.4053279"><ele>120.28571428571428</ele><time>2026-04-08T21:32:41.773Z</time></trkpt><trkpt lat="-36.7346681" lon="174.4052432"><ele>120.42857142857142</ele><time>2026-04-08T21:32:45.772Z</time></trkpt><trkpt lat="-36.7346364" lon="174.4051496"><ele>120.57142857142857</ele><time>2026-04-08T21:32:48.772Z</time></trkpt><trkpt lat="-36.7346457" lon="174.4050399"><ele>120.7142857142857</ele><time>2026-04-08T21:32:50.772Z</time></trkpt><trkpt lat="-36.7346327" lon="174.4049535"><ele>120.85714285714285</ele><time>2026-04-08T21:32:52.773Z</time></trkpt><trkpt lat="-36.7346122" lon="174.4048728"><ele>121.0</ele><time>2026-04-08T21:32:54.771Z</time></trkpt><trkpt lat="-36.7346208" lon="174.4047804"><ele>121.00000000000001</ele><time>2026-04-08T21:32:56.772Z</time></trkpt><trkpt lat="-36.7346474" lon="174.4046852"><ele>121.0</ele><time>2026-04-08T21:32:58.773Z</time></trkpt><trkpt lat="-36.7347099" lon="174.4046031"><ele>121.0</ele><time>2026-04-08T21:33:00.772Z</time></trkpt><trkpt lat="-36.7347792" lon="174.4045686"><ele>121.0</ele><time>2026-04-08T21:33:01.772Z</time></trkpt><trkpt lat="-36.7348382" lon="174.4044646"><ele>121.00000000000001</ele><time>2026-04-08T21:33:03.771Z</time></trkpt><trkpt lat="-36.7348331" lon="174.4043788"><ele>121.0</ele><time>2026-04-08T21:33:04.771Z</time></trkpt><trkpt lat="-36.7348619" lon="174.4042685"><ele>122.14285714285714</ele><time>2026-04-08T21:33:07.771Z</time></trkpt><trkpt lat="-36.7348714" lon="174.4041529"><ele>123.28571428571428</ele><time>2026-04-08T21:33:10.772Z</time></trkpt><trkpt lat="-36.7348793" lon="174.4040571"><ele>124.42857142857142</ele><time>2026-04-08T21:33:12.771Z</time></trkpt><trkpt lat="-36.7348727" lon="174.403978"><ele>125.57142857142856</ele><time>2026-04-08T21:33:14.772Z</time></trkpt><trkpt lat="-36.7348707" lon="174.4038948"><ele>126.71428571428571</ele><time>2026-04-08T21:33:16.772Z</time></trkpt><trkpt lat="-36.7348893" lon="174.4038037"><ele>127.85714285714283</ele><time>2026-04-08T21:33:18.773Z</time></trkpt><trkpt lat="-36.7348958" lon="174.4037144"><ele>129.0</ele><time>2026-04-08T21:33:20.772Z</time></trkpt><trkpt lat="-36.7349368" lon="174.4036483"><ele>128.8</ele><time>2026-04-08T21:33:22.771Z</time></trkpt><trkpt lat="-36.7350263" lon="174.4035814"><ele>128.60000000000002</ele><time>2026-04-08T21:33:24.771Z</time></trkpt><trkpt lat="-36.7351134" lon="174.4035473"><ele>128.4</ele><time>2026-04-08T21:33:26.771Z</time></trkpt><trkpt lat="-36.7351836" lon="174.4035435"><ele>128.20000000000002</ele><time>2026-04-08T21:33:27.771Z</time></trkpt><trkpt lat="-36.7352924" lon="174.4034778"><ele>128.0</ele><time>2026-04-08T21:33:29.773Z</time></trkpt><trkpt lat="-36.7353771" lon="174.4034068"><ele>127.99999999999999</ele><time>2026-04-08T21:33:31.772Z</time></trkpt><trkpt lat="-36.735444" lon="174.4033839"><ele>128.0</ele><time>2026-04-08T21:33:33.771Z</time></trkpt><trkpt lat="-36.7355114" lon="174.4034047"><ele>128.0</ele><time>2026-04-08T21:33:35.772Z</time></trkpt><trkpt lat="-36.7355945" lon="174.4034393"><ele>128.0</ele><time>2026-04-08T21:33:37.771Z</time></trkpt><trkpt lat="-36.7356781" lon="174.403456"><ele>127.99999999999999</ele><time>2026-04-08T21:33:39.772Z</time></trkpt><trkpt lat="-36.7357633" lon="174.4034209"><ele>128.0</ele><time>2026-04-08T21:33:41.773Z</time></trkpt><trkpt lat="-36.7358055" lon="174.4032999"><ele>128.0</ele><time>2026-04-08T21:33:43.771Z</time></trkpt><trkpt lat="-36.7358477" lon="174.4031704"><ele>128.0</ele><time>2026-04-08T21:33:45.772Z</time></trkpt><trkpt lat="-36.7358828" lon="174.4031049"><ele>128.0</ele><time>2026-04-08T21:33:46.771Z</time></trkpt><trkpt lat="-36.7359116" lon="174.4029596"><ele>128.0</ele><time>2026-04-08T21:33:48.772Z</time></trkpt><trkpt lat="-36.735942" lon="174.4028473"><ele>128.0</ele><time>2026-04-08T21:33:50.773Z</time></trkpt><trkpt lat="-36.7360075" lon="174.4027187"><ele>127.0</ele><time>2026-04-08T21:33:52.773Z</time></trkpt><trkpt lat="-36.7360694" lon="174.4025758"><ele>126.00000000000001</ele><time>2026-04-08T21:33:54.772Z</time></trkpt><trkpt lat="-36.7360916" lon="174.4024148"><ele>125.00000000000001</ele><time>2026-04-08T21:33:56.772Z</time></trkpt><trkpt lat="-36.7361296" lon="174.4022866"><ele>124.0</ele><time>2026-04-08T21:33:58.772Z</time></trkpt><trkpt lat="-36.7361708" lon="174.4022265"><ele>123.0</ele><time>2026-04-08T21:33:59.772Z</time></trkpt><trkpt lat="-36.7362301" lon="174.4021334"><ele>122.66666666666667</ele><time>2026-04-08T21:34:01.772Z</time></trkpt><trkpt lat="-36.7362407" lon="174.4020548"><ele>122.33333333333334</ele><time>2026-04-08T21:34:03.771Z</time></trkpt><trkpt lat="-36.7362561" lon="174.4019785"><ele>122.0</ele><time>2026-04-08T21:34:05.771Z</time></trkpt><trkpt lat="-36.7362625" lon="174.4018805"><ele>121.66666666666667</ele><time>2026-04-08T21:34:07.772Z</time></trkpt><trkpt lat="-36.736313" lon="174.4017483"><ele>121.33333333333334</ele><time>2026-04-08T21:34:10.772Z</time></trkpt><trkpt lat="-36.7363351" lon="174.4016636"><ele>121.0</ele><time>2026-04-08T21:34:12.771Z</time></trkpt><trkpt lat="-36.7363659" lon="174.4015513"><ele>121.00000000000001</ele><time>2026-04-08T21:34:14.771Z</time></trkpt><trkpt lat="-36.7363926" lon="174.4014718"><ele>121.0</ele><time>2026-04-08T21:34:16.771Z</time></trkpt><trkpt lat="-36.7364351" lon="174.4013653"><ele>121.0</ele><time>2026-04-08T21:34:19.771Z</time></trkpt><trkpt lat="-36.7364524" lon="174.4012757"><ele>121.0</ele><time>2026-04-08T21:34:21.771Z</time></trkpt><trkpt lat="-36.7364748" lon="174.4011721"><ele>121.00000000000001</ele><time>2026-04-08T21:34:24.772Z</time></trkpt><trkpt lat="-36.7364989" lon="174.4010614"><ele>121.0</ele><time>2026-04-08T21:34:27.772Z</time></trkpt><trkpt lat="-36.7365653" lon="174.4009794"><ele>121.50000000000001</ele><time>2026-04-08T21:34:30.772Z</time></trkpt><trkpt lat="-36.7366293" lon="174.4009268"><ele>122.0</ele><time>2026-04-08T21:34:32.772Z</time></trkpt><trkpt lat="-36.736687" lon="174.400884"><ele>122.5</ele><time>2026-04-08T21:34:34.771Z</time></trkpt><trkpt lat="-36.7367155" lon="174.4007991"><ele>123.0</ele><time>2026-04-08T21:34:36.771Z</time></trkpt><trkpt lat="-36.7367697" lon="174.4007181"><ele>123.50000000000001</ele><time>2026-04-08T21:34:38.772Z</time></trkpt><trkpt lat="-36.7368326" lon="174.400649"><ele>124.0</ele><time>2026-04-08T21:34:40.772Z</time></trkpt><trkpt lat="-36.7368619" lon="174.4005754"><ele>125.50000000000001</ele><time>2026-04-08T21:34:42.771Z</time></trkpt><trkpt lat="-36.7369055" lon="174.4005029"><ele>127.0</ele><time>2026-04-08T21:34:44.773Z</time></trkpt><trkpt lat="-36.7369663" lon="174.4004434"><ele>128.5</ele><time>2026-04-08T21:34:46.772Z</time></trkpt><trkpt lat="-36.7370587" lon="174.4004248"><ele>130.0</ele><time>2026-04-08T21:34:48.771Z</time></trkpt><trkpt lat="-36.7371327" lon="174.4003553"><ele>131.5</ele><time>2026-04-08T21:34:50.771Z</time></trkpt><trkpt lat="-36.7371576" lon="174.4002798"><ele>133.0</ele><time>2026-04-08T21:34:51.772Z</time></trkpt><trkpt lat="-36.7372091" lon="174.4001775"><ele>133.0</ele><time>2026-04-08T21:34:53.772Z</time></trkpt><trkpt lat="-36.7372535" lon="174.4000427"><ele>133.0</ele><time>2026-04-08T21:34:55.772Z</time></trkpt><trkpt lat="-36.7373151" lon="174.3999185"><ele>133.0</ele><time>2026-04-08T21:34:57.772Z</time></trkpt><trkpt lat="-36.737345" lon="174.3997879"><ele>133.0</ele><time>2026-04-08T21:34:59.772Z</time></trkpt><trkpt lat="-36.7373311" lon="174.3997031"><ele>133.0</ele><time>2026-04-08T21:35:01.771Z</time></trkpt><trkpt lat="-36.7372636" lon="174.3997376"><ele>133.0</ele><time>2026-04-08T21:35:06.772Z</time></trkpt><trkpt lat="-36.7372695" lon="174.3998496"><ele>133.0</ele><time>2026-04-08T21:35:09.772Z</time></trkpt><trkpt lat="-36.7372646" lon="174.3999313"><ele>133.0</ele><time>2026-04-08T21:35:11.773Z</time></trkpt><trkpt lat="-36.7372101" lon="174.4000046"><ele>133.0</ele><time>2026-04-08T21:35:13.771Z</time></trkpt><trkpt lat="-36.7371514" lon="174.4000652"><ele>133.0</ele><time>2026-04-08T21:35:15.771Z</time></trkpt><trkpt lat="-36.7370868" lon="174.4001139"><ele>133.0</ele><time>2026-04-08T21:35:17.771Z</time></trkpt><trkpt lat="-36.7370129" lon="174.400126"><ele>133.0</ele><time>2026-04-08T21:35:18.772Z</time></trkpt><trkpt lat="-36.7368909" lon="174.4001602"><ele>133.0</ele><time>2026-04-08T21:35:20.772Z</time></trkpt><trkpt lat="-36.7368317" lon="174.4002524"><ele>133.0</ele><time>2026-04-08T21:35:22.771Z</time></trkpt><trkpt lat="-36.7367777" lon="174.4003374"><ele>133.0</ele><time>2026-04-08T21:35:24.771Z</time></trkpt><trkpt lat="-36.736715" lon="174.4003997"><ele>133.0</ele><time>2026-04-08T21:35:26.771Z</time></trkpt><trkpt lat="-36.7366491" lon="174.4005045"><ele>131.20000000000002</ele><time>2026-04-08T21:35:28.771Z</time></trkpt><trkpt lat="-36.7366526" lon="174.4006198"><ele>129.4</ele><time>2026-04-08T21:35:30.773Z</time></trkpt><trkpt lat="-36.7365506" lon="174.400652"><ele>127.60000000000001</ele><time>2026-04-08T21:35:33.771Z</time></trkpt><trkpt lat="-36.736449" lon="174.4007148"><ele>125.80000000000001</ele><time>2026-04-08T21:35:35.772Z</time></trkpt><trkpt lat="-36.7363738" lon="174.4007522"><ele>124.0</ele><time>2026-04-08T21:35:37.772Z</time></trkpt><trkpt lat="-36.7363342" lon="174.4008265"><ele>124.00000000000001</ele><time>2026-04-08T21:35:39.772Z</time></trkpt><trkpt lat="-36.7363109" lon="174.4009082"><ele>124.0</ele><time>2026-04-08T21:35:41.772Z</time></trkpt><trkpt lat="-36.7363116" lon="174.4010155"><ele>124.0</ele><time>2026-04-08T21:35:43.771Z</time></trkpt><trkpt lat="-36.7363204" lon="174.4011161"><ele>124.0</ele><time>2026-04-08T21:35:45.771Z</time></trkpt><trkpt lat="-36.7363438" lon="174.4012053"><ele>124.00000000000001</ele><time>2026-04-08T21:35:47.772Z</time></trkpt><trkpt lat="-36.7362927" lon="174.4012882"><ele>124.0</ele><time>2026-04-08T21:35:48.772Z</time></trkpt><trkpt lat="-36.7362464" lon="174.4013522"><ele>123.4</ele><time>2026-04-08T21:35:49.772Z</time></trkpt><trkpt lat="-36.7361728" lon="174.4014647"><ele>122.80000000000001</ele><time>2026-04-08T21:35:51.772Z</time></trkpt><trkpt lat="-36.7361684" lon="174.4016318"><ele>122.19999999999999</ele><time>2026-04-08T21:35:53.772Z</time></trkpt><trkpt lat="-36.7361497" lon="174.4017801"><ele>121.6</ele><time>2026-04-08T21:35:55.772Z</time></trkpt><trkpt lat="-36.7361502" lon="174.4018641"><ele>121.0</ele><time>2026-04-08T21:35:56.771Z</time></trkpt><trkpt lat="-36.7361148" lon="174.4019757"><ele>121.0</ele><time>2026-04-08T21:35:58.771Z</time></trkpt><trkpt lat="-36.7360314" lon="174.4018776"><ele>121.0</ele><time>2026-04-08T21:36:00.771Z</time></trkpt><trkpt lat="-36.736046" lon="174.4017423"><ele>121.0</ele><time>2026-04-08T21:36:02.772Z</time></trkpt><trkpt lat="-36.7360663" lon="174.4016557"><ele>121.0</ele><time>2026-04-08T21:36:03.771Z</time></trkpt><trkpt lat="-36.7360147" lon="174.401583"><ele>121.0</ele><time>2026-04-08T21:36:05.773Z</time></trkpt><trkpt lat="-36.7359368" lon="174.4016384"><ele>119.8</ele><time>2026-04-08T21:36:07.772Z</time></trkpt><trkpt lat="-36.7357911" lon="174.40171"><ele>118.6</ele><time>2026-04-08T21:36:09.771Z</time></trkpt><trkpt lat="-36.7357142" lon="174.4017404"><ele>117.4</ele><time>2026-04-08T21:36:10.771Z</time></trkpt><trkpt lat="-36.7355908" lon="174.4016694"><ele>116.2</ele><time>2026-04-08T21:36:12.771Z</time></trkpt><trkpt lat="-36.7355327" lon="174.4016117"><ele>115.0</ele><time>2026-04-08T21:36:13.771Z</time></trkpt><trkpt lat="-36.7354758" lon="174.4015607"><ele>115.00000000000001</ele><time>2026-04-08T21:36:14.772Z</time></trkpt><trkpt lat="-36.7354124" lon="174.4015361"><ele>115.0</ele><time>2026-04-08T21:36:15.772Z</time></trkpt><trkpt lat="-36.7353432" lon="174.4015142"><ele>115.0</ele><time>2026-04-08T21:36:16.771Z</time></trkpt><trkpt lat="-36.7352763" lon="174.4015124"><ele>115.0</ele><time>2026-04-08T21:36:17.772Z</time></trkpt><trkpt lat="-36.7352132" lon="174.4014923"><ele>115.00000000000001</ele><time>2026-04-08T21:36:18.772Z</time></trkpt><trkpt lat="-36.7351216" lon="174.4015124"><ele>115.0</ele><time>2026-04-08T21:36:20.772Z</time></trkpt><trkpt lat="-36.7350445" lon="174.4015774"><ele>114.4</ele><time>2026-04-08T21:36:22.772Z</time></trkpt><trkpt lat="-36.7349731" lon="174.4015923"><ele>113.8</ele><time>2026-04-08T21:36:23.771Z</time></trkpt><trkpt lat="-36.7348956" lon="174.4015811"><ele>113.19999999999999</ele><time>2026-04-08T21:36:24.772Z</time></trkpt><trkpt lat="-36.7348167" lon="174.4015718"><ele>112.6</ele><time>2026-04-08T21:36:25.771Z</time></trkpt><trkpt lat="-36.7348325" lon="174.4013956"><ele>112.0</ele><time>2026-04-08T21:36:27.771Z</time></trkpt><trkpt lat="-36.734866" lon="174.4012552"><ele>110.0</ele><time>2026-04-08T21:36:29.772Z</time></trkpt><trkpt lat="-36.735023" lon="174.4012135"><ele>107.99999999999999</ele><time>2026-04-08T21:36:31.772Z</time></trkpt><trkpt lat="-36.7351303" lon="174.4011714"><ele>106.0</ele><time>2026-04-08T21:36:33.772Z</time></trkpt><trkpt lat="-36.7351974" lon="174.4011043"><ele>104.0</ele><time>2026-04-08T21:36:35.772Z</time></trkpt><trkpt lat="-36.735219" lon="174.4010152"><ele>102.0</ele><time>2026-04-08T21:36:37.771Z</time></trkpt><trkpt lat="-36.7351573" lon="174.4009506"><ele>102.0</ele><time>2026-04-08T21:36:39.773Z</time></trkpt><trkpt lat="-36.7350741" lon="174.4010295"><ele>102.0</ele><time>2026-04-08T21:36:41.773Z</time></trkpt><trkpt lat="-36.7349804" lon="174.4009689"><ele>102.0</ele><time>2026-04-08T21:36:43.771Z</time></trkpt><trkpt lat="-36.7349639" lon="174.4008885"><ele>102.0</ele><time>2026-04-08T21:36:44.772Z</time></trkpt><trkpt lat="-36.7350602" lon="174.4008148"><ele>102.0</ele><time>2026-04-08T21:36:46.771Z</time></trkpt><trkpt lat="-36.735139" lon="174.400712"><ele>102.0</ele><time>2026-04-08T21:36:48.772Z</time></trkpt><trkpt lat="-36.7350923" lon="174.4006068"><ele>102.0</ele><time>2026-04-08T21:36:50.771Z</time></trkpt><trkpt lat="-36.735107" lon="174.4005118"><ele>102.0</ele><time>2026-04-08T21:36:52.773Z</time></trkpt><trkpt lat="-36.7351757" lon="174.4004835"><ele>102.0</ele><time>2026-04-08T21:36:54.772Z</time></trkpt><trkpt lat="-36.7352602" lon="174.4005352"><ele>102.0</ele><time>2026-04-08T21:36:58.771Z</time></trkpt><trkpt lat="-36.7353248" lon="174.4005643"><ele>102.0</ele><time>2026-04-08T21:37:00.773Z</time></trkpt><trkpt lat="-36.7353958" lon="174.4006058"><ele>101.66666666666667</ele><time>2026-04-08T21:37:02.772Z</time></trkpt><trkpt lat="-36.7354662" lon="174.4006451"><ele>101.33333333333334</ele><time>2026-04-08T21:37:04.771Z</time></trkpt><trkpt lat="-36.735544" lon="174.4006207"><ele>101.0</ele><time>2026-04-08T21:37:07.772Z</time></trkpt><trkpt lat="-36.7355842" lon="174.4005254"><ele>100.66666666666667</ele><time>2026-04-08T21:37:10.772Z</time></trkpt><trkpt lat="-36.735615" lon="174.4004535"><ele>100.33333333333334</ele><time>2026-04-08T21:37:12.772Z</time></trkpt><trkpt lat="-36.7356607" lon="174.4003788"><ele>100.0</ele><time>2026-04-08T21:37:14.772Z</time></trkpt><trkpt lat="-36.735734" lon="174.4003252"><ele>100.00000000000001</ele><time>2026-04-08T21:37:17.772Z</time></trkpt><trkpt lat="-36.7356992" lon="174.4002329"><ele>100.0</ele><time>2026-04-08T21:37:20.772Z</time></trkpt><trkpt lat="-36.7356717" lon="174.4001534"><ele>100.0</ele><time>2026-04-08T21:37:22.772Z</time></trkpt><trkpt lat="-36.7357109" lon="174.4000686"><ele>100.0</ele><time>2026-04-08T21:37:25.773Z</time></trkpt><trkpt lat="-36.7358027" lon="174.4000169"><ele>100.00000000000001</ele><time>2026-04-08T21:37:27.772Z</time></trkpt><trkpt lat="-36.7358897" lon="174.3999574"><ele>100.0</ele><time>2026-04-08T21:37:29.772Z</time></trkpt><trkpt lat="-36.7359556" lon="174.3998672"><ele>100.0</ele><time>2026-04-08T21:37:31.773Z</time></trkpt><trkpt lat="-36.7360157" lon="174.3997747"><ele>100.0</ele><time>2026-04-08T21:37:33.772Z</time></trkpt><trkpt lat="-36.7360726" lon="174.3996934"><ele>100.0</ele><time>2026-04-08T21:37:35.771Z</time></trkpt><trkpt lat="-36.7361054" lon="174.3995528"><ele>100.0</ele><time>2026-04-08T21:37:37.773Z</time></trkpt><trkpt lat="-36.7361448" lon="174.3994319"><ele>100.0</ele><time>2026-04-08T21:37:39.772Z</time></trkpt><trkpt lat="-36.7362383" lon="174.3993799"><ele>99.6</ele><time>2026-04-08T21:37:41.772Z</time></trkpt><trkpt lat="-36.7363126" lon="174.3993532"><ele>99.2</ele><time>2026-04-08T21:37:43.772Z</time></trkpt><trkpt lat="-36.7363591" lon="174.3992582"><ele>98.80000000000001</ele><time>2026-04-08T21:37:45.772Z</time></trkpt><trkpt lat="-36.7364125" lon="174.3991682"><ele>98.4</ele><time>2026-04-08T21:37:46.772Z</time></trkpt><trkpt lat="-36.7363412" lon="174.3990916"><ele>98.0</ele><time>2026-04-08T21:37:48.771Z</time></trkpt><trkpt lat="-36.7362614" lon="174.3989798"><ele>97.99999999999999</ele><time>2026-04-08T21:37:50.771Z</time></trkpt><trkpt lat="-36.7361871" lon="174.3990209"><ele>98.0</ele><time>2026-04-08T21:37:52.771Z</time></trkpt><trkpt lat="-36.7361107" lon="174.399087"><ele>98.0</ele><time>2026-04-08T21:37:55.771Z</time></trkpt><trkpt lat="-36.7360483" lon="174.3991376"><ele>98.0</ele><time>2026-04-08T21:37:57.772Z</time></trkpt><trkpt lat="-36.7359837" lon="174.3991605"><ele>97.99999999999999</ele><time>2026-04-08T21:37:59.771Z</time></trkpt><trkpt lat="-36.7359125" lon="174.3991857"><ele>98.0</ele><time>2026-04-08T21:38:01.772Z</time></trkpt><trkpt lat="-36.7358399" lon="174.3992561"><ele>98.14285714285714</ele><time>2026-04-08T21:38:04.772Z</time></trkpt><trkpt lat="-36.7358018" lon="174.3993391"><ele>98.28571428571428</ele><time>2026-04-08T21:38:06.772Z</time></trkpt><trkpt lat="-36.7357848" lon="174.3994317"><ele>98.42857142857143</ele><time>2026-04-08T21:38:08.773Z</time></trkpt><trkpt lat="-36.735792" lon="174.399514"><ele>98.57142857142857</ele><time>2026-04-08T21:38:10.771Z</time></trkpt><trkpt lat="-36.7357528" lon="174.3995821"><ele>98.71428571428571</ele><time>2026-04-08T21:38:12.772Z</time></trkpt><trkpt lat="-36.7356962" lon="174.3996354"><ele>98.85714285714286</ele><time>2026-04-08T21:38:14.772Z</time></trkpt><trkpt lat="-36.7356471" lon="174.3996998"><ele>99.0</ele><time>2026-04-08T21:38:16.772Z</time></trkpt><trkpt lat="-36.7355857" lon="174.3997639"><ele>99.16666666666667</ele><time>2026-04-08T21:38:18.771Z</time></trkpt><trkpt lat="-36.7355183" lon="174.3998303"><ele>99.33333333333334</ele><time>2026-04-08T21:38:20.771Z</time></trkpt><trkpt lat="-36.7354401" lon="174.3998849"><ele>99.5</ele><time>2026-04-08T21:38:22.772Z</time></trkpt><trkpt lat="-36.7353687" lon="174.3999328"><ele>99.66666666666667</ele><time>2026-04-08T21:38:24.772Z</time></trkpt><trkpt lat="-36.7352965" lon="174.3999776"><ele>99.83333333333334</ele><time>2026-04-08T21:38:26.772Z</time></trkpt><trkpt lat="-36.7352192" lon="174.4000205"><ele>100.0</ele><time>2026-04-08T21:38:28.773Z</time></trkpt><trkpt lat="-36.7351363" lon="174.4000679"><ele>100.2</ele><time>2026-04-08T21:38:30.773Z</time></trkpt><trkpt lat="-36.7350543" lon="174.4001011"><ele>100.4</ele><time>2026-04-08T21:38:32.771Z</time></trkpt><trkpt lat="-36.7348865" lon="174.4001025"><ele>100.6</ele><time>2026-04-08T21:38:36.773Z</time></trkpt><trkpt lat="-36.734805" lon="174.4001189"><ele>100.8</ele><time>2026-04-08T21:38:38.771Z</time></trkpt><trkpt lat="-36.7347311" lon="174.4001286"><ele>101.0</ele><time>2026-04-08T21:38:40.772Z</time></trkpt><trkpt lat="-36.7346467" lon="174.4001173"><ele>100.99999999999999</ele><time>2026-04-08T21:38:42.771Z</time></trkpt><trkpt lat="-36.7345688" lon="174.4001059"><ele>101.0</ele><time>2026-04-08T21:38:44.772Z</time></trkpt><trkpt lat="-36.7344896" lon="174.4000948"><ele>101.0</ele><time>2026-04-08T21:38:46.771Z</time></trkpt><trkpt lat="-36.734407" lon="174.4000969"><ele>101.0</ele><time>2026-04-08T21:38:48.772Z</time></trkpt><trkpt lat="-36.7343315" lon="174.4001012"><ele>100.99999999999999</ele><time>2026-04-08T21:38:50.771Z</time></trkpt><trkpt lat="-36.7342511" lon="174.4001154"><ele>101.0</ele><time>2026-04-08T21:38:52.772Z</time></trkpt><trkpt lat="-36.7341605" lon="174.4001184"><ele>102.49999999999999</ele><time>2026-04-08T21:38:54.773Z</time></trkpt><trkpt lat="-36.7340721" lon="174.4001297"><ele>104.0</ele><time>2026-04-08T21:38:56.771Z</time></trkpt><trkpt lat="-36.7339866" lon="174.4001484"><ele>105.5</ele><time>2026-04-08T21:38:58.771Z</time></trkpt><trkpt lat="-36.7339058" lon="174.4001657"><ele>107.0</ele><time>2026-04-08T21:39:00.772Z</time></trkpt><trkpt lat="-36.7338269" lon="174.4001707"><ele>108.49999999999999</ele><time>2026-04-08T21:39:02.772Z</time></trkpt><trkpt lat="-36.7337601" lon="174.4001255"><ele>110.0</ele><time>2026-04-08T21:39:04.772Z</time></trkpt><trkpt lat="-36.7337166" lon="174.400068"><ele>109.99999999999999</ele><time>2026-04-08T21:39:06.771Z</time></trkpt><trkpt lat="-36.7336609" lon="174.4000223"><ele>110.0</ele><time>2026-04-08T21:39:08.773Z</time></trkpt><trkpt lat="-36.733591" lon="174.3999615"><ele>110.0</ele><time>2026-04-08T21:39:10.772Z</time></trkpt><trkpt lat="-36.7335442" lon="174.3998788"><ele>110.0</ele><time>2026-04-08T21:39:12.772Z</time></trkpt><trkpt lat="-36.7335122" lon="174.3997966"><ele>109.99999999999999</ele><time>2026-04-08T21:39:14.772Z</time></trkpt><trkpt lat="-36.7335344" lon="174.3996862"><ele>110.0</ele><time>2026-04-08T21:39:17.772Z</time></trkpt><trkpt lat="-36.7334835" lon="174.3996022"><ele>110.99999999999999</ele><time>2026-04-08T21:39:20.771Z</time></trkpt><trkpt lat="-36.733417" lon="174.3996025"><ele>112.0</ele><time>2026-04-08T21:39:22.773Z</time></trkpt><trkpt lat="-36.7333384" lon="174.3995532"><ele>113.0</ele><time>2026-04-08T21:39:25.772Z</time></trkpt><trkpt lat="-36.733338" lon="174.3994386"><ele>114.0</ele><time>2026-04-08T21:39:28.772Z</time></trkpt><trkpt lat="-36.7333507" lon="174.3993378"><ele>114.99999999999999</ele><time>2026-04-08T21:39:31.772Z</time></trkpt><trkpt lat="-36.7333899" lon="174.3992375"><ele>116.0</ele><time>2026-04-08T21:39:33.771Z</time></trkpt><trkpt lat="-36.7333979" lon="174.3991535"><ele>115.99999999999999</ele><time>2026-04-08T21:39:35.771Z</time></trkpt><trkpt lat="-36.7333943" lon="174.3990651"><ele>116.0</ele><time>2026-04-08T21:39:37.772Z</time></trkpt><trkpt lat="-36.733388" lon="174.3989571"><ele>116.0</ele><time>2026-04-08T21:39:39.771Z</time></trkpt><trkpt lat="-36.7333756" lon="174.3988689"><ele>116.0</ele><time>2026-04-08T21:39:41.772Z</time></trkpt><trkpt lat="-36.7333628" lon="174.3987887"><ele>115.99999999999999</ele><time>2026-04-08T21:39:43.77Z</time></trkpt><trkpt lat="-36.7333701" lon="174.3986958"><ele>116.0</ele><time>2026-04-08T21:39:46.772Z</time></trkpt><trkpt lat="-36.7333742" lon="174.3985896"><ele>116.00000000000001</ele><time>2026-04-08T21:39:49.772Z</time></trkpt><trkpt lat="-36.7333612" lon="174.3984797"><ele>116.0</ele><time>2026-04-08T21:39:52.773Z</time></trkpt><trkpt lat="-36.7333625" lon="174.398391"><ele>116.00000000000001</ele><time>2026-04-08T21:39:54.771Z</time></trkpt><trkpt lat="-36.7333794" lon="174.3983106"><ele>116.00000000000001</ele><time>2026-04-08T21:39:56.772Z</time></trkpt><trkpt lat="-36.7334001" lon="174.3982334"><ele>116.0</ele><time>2026-04-08T21:39:58.771Z</time></trkpt><trkpt lat="-36.733425" lon="174.3981424"><ele>116.00000000000001</ele><time>2026-04-08T21:40:01.772Z</time></trkpt><trkpt lat="-36.7334201" lon="174.3980516"><ele>116.00000000000001</ele><time>2026-04-08T21:41:04.772Z</time></trkpt><trkpt lat="-36.7334941" lon="174.3979913"><ele>115.49999999999999</ele><time>2026-04-08T21:41:08.771Z</time></trkpt><trkpt lat="-36.7335693" lon="174.3979458"><ele>115.0</ele><time>2026-04-08T21:41:11.773Z</time></trkpt><trkpt lat="-36.733658" lon="174.3979139"><ele>114.5</ele><time>2026-04-08T21:41:14.773Z</time></trkpt><trkpt lat="-36.7337302" lon="174.3978673"><ele>114.0</ele><time>2026-04-08T21:41:17.772Z</time></trkpt><trkpt lat="-36.7338132" lon="174.3978223"><ele>113.49999999999999</ele><time>2026-04-08T21:41:20.772Z</time></trkpt><trkpt lat="-36.733898" lon="174.3978546"><ele>113.0</ele><time>2026-04-08T21:41:23.773Z</time></trkpt><trkpt lat="-36.7339649" lon="174.3978278"><ele>112.99999999999999</ele><time>2026-04-08T21:41:25.772Z</time></trkpt><trkpt lat="-36.7339796" lon="174.3977311"><ele>113.0</ele><time>2026-04-08T21:41:28.771Z</time></trkpt><trkpt lat="-36.7339681" lon="174.3976512"><ele>113.0</ele><time>2026-04-08T21:41:29.772Z</time></trkpt><trkpt lat="-36.7339532" lon="174.3975359"><ele>113.0</ele><time>2026-04-08T21:41:31.771Z</time></trkpt><trkpt lat="-36.7339544" lon="174.3974297"><ele>112.99999999999999</ele><time>2026-04-08T21:41:33.772Z</time></trkpt><trkpt lat="-36.7340357" lon="174.3973643"><ele>113.0</ele><time>2026-04-08T21:41:35.771Z</time></trkpt><trkpt lat="-36.7341543" lon="174.3972913"><ele>112.99999999999999</ele><time>2026-04-08T21:41:37.771Z</time></trkpt><trkpt lat="-36.7342473" lon="174.3972638"><ele>113.0</ele><time>2026-04-08T21:41:39.771Z</time></trkpt><trkpt lat="-36.7343281" lon="174.3972701"><ele>113.0</ele><time>2026-04-08T21:41:40.771Z</time></trkpt><trkpt lat="-36.734397" lon="174.3972021"><ele>113.0</ele><time>2026-04-08T21:41:42.771Z</time></trkpt><trkpt lat="-36.7344859" lon="174.3971349"><ele>112.99999999999999</ele><time>2026-04-08T21:41:44.771Z</time></trkpt><trkpt lat="-36.7345242" lon="174.3970618"><ele>113.0</ele><time>2026-04-08T21:41:45.771Z</time></trkpt><trkpt lat="-36.7345953" lon="174.3969935"><ele>108.60000000000001</ele><time>2026-04-08T21:41:47.772Z</time></trkpt><trkpt lat="-36.7347088" lon="174.396953"><ele>104.20000000000002</ele><time>2026-04-08T21:41:49.773Z</time></trkpt><trkpt lat="-36.7348096" lon="174.3969904"><ele>99.8</ele><time>2026-04-08T21:41:51.771Z</time></trkpt><trkpt lat="-36.7349186" lon="174.3970039"><ele>95.4</ele><time>2026-04-08T21:41:53.771Z</time></trkpt><trkpt lat="-36.7349847" lon="174.3970359"><ele>91.0</ele><time>2026-04-08T21:41:55.773Z</time></trkpt><trkpt lat="-36.7349949" lon="174.3971234"><ele>91.71428571428571</ele><time>2026-04-08T21:41:58.771Z</time></trkpt><trkpt lat="-36.7350415" lon="174.3971923"><ele>92.42857142857143</ele><time>2026-04-08T21:42:01.773Z</time></trkpt><trkpt lat="-36.7350937" lon="174.3972743"><ele>93.14285714285714</ele><time>2026-04-08T21:42:04.772Z</time></trkpt><trkpt lat="-36.7351398" lon="174.3973479"><ele>93.85714285714286</ele><time>2026-04-08T21:42:07.772Z</time></trkpt><trkpt lat="-36.7352073" lon="174.3973787"><ele>94.57142857142857</ele><time>2026-04-08T21:42:11.772Z</time></trkpt><trkpt lat="-36.7352701" lon="174.3973642"><ele>95.28571428571428</ele><time>2026-04-08T21:42:13.772Z</time></trkpt><trkpt lat="-36.7353356" lon="174.3973873"><ele>96.0</ele><time>2026-04-08T21:42:15.772Z</time></trkpt><trkpt lat="-36.7354078" lon="174.3974122"><ele>96.0</ele><time>2026-04-08T21:42:17.772Z</time></trkpt><trkpt lat="-36.7354892" lon="174.3974225"><ele>96.0</ele><time>2026-04-08T21:42:20.771Z</time></trkpt><trkpt lat="-36.7355173" lon="174.397534"><ele>96.0</ele><time>2026-04-08T21:42:23.77Z</time></trkpt><trkpt lat="-36.735585" lon="174.3975879"><ele>96.0</ele><time>2026-04-08T21:42:25.771Z</time></trkpt><trkpt lat="-36.7356532" lon="174.3976336"><ele>96.0</ele><time>2026-04-08T21:42:27.772Z</time></trkpt><trkpt lat="-36.7357286" lon="174.3976396"><ele>96.0</ele><time>2026-04-08T21:42:29.773Z</time></trkpt><trkpt lat="-36.7357945" lon="174.3976671"><ele>95.99999999999999</ele><time>2026-04-08T21:42:31.773Z</time></trkpt><trkpt lat="-36.7358442" lon="174.3977403"><ele>96.0</ele><time>2026-04-08T21:42:33.771Z</time></trkpt><trkpt lat="-36.7358608" lon="174.3978163"><ele>96.0</ele><time>2026-04-08T21:42:35.771Z</time></trkpt><trkpt lat="-36.7358679" lon="174.3978966"><ele>96.0</ele><time>2026-04-08T21:42:37.772Z</time></trkpt><trkpt lat="-36.7358371" lon="174.3979775"><ele>96.0</ele><time>2026-04-08T21:42:39.772Z</time></trkpt><trkpt lat="-36.7358137" lon="174.3980519"><ele>95.99999999999999</ele><time>2026-04-08T21:42:41.771Z</time></trkpt><trkpt lat="-36.7358133" lon="174.3981653"><ele>96.0</ele><time>2026-04-08T21:42:44.773Z</time></trkpt><trkpt lat="-36.7358534" lon="174.3982395"><ele>95.5</ele><time>2026-04-08T21:42:46.77Z</time></trkpt><trkpt lat="-36.7358849" lon="174.3983207"><ele>95.0</ele><time>2026-04-08T21:42:48.772Z</time></trkpt><trkpt lat="-36.7359743" lon="174.398372"><ele>94.5</ele><time>2026-04-08T21:42:50.771Z</time></trkpt><trkpt lat="-36.7360475" lon="174.3983789"><ele>94.0</ele><time>2026-04-08T21:42:52.773Z</time></trkpt><trkpt lat="-36.7361132" lon="174.3982908"><ele>93.5</ele><time>2026-04-08T21:42:54.771Z</time></trkpt><trkpt lat="-36.7361356" lon="174.3981837"><ele>93.0</ele><time>2026-04-08T21:42:56.772Z</time></trkpt><trkpt lat="-36.7361779" lon="174.3980944"><ele>90.4</ele><time>2026-04-08T21:42:58.771Z</time></trkpt><trkpt lat="-36.7362468" lon="174.3979952"><ele>87.80000000000001</ele><time>2026-04-08T21:43:01.772Z</time></trkpt><trkpt lat="-36.736354" lon="174.3979314"><ele>85.2</ele><time>2026-04-08T21:43:03.772Z</time></trkpt><trkpt lat="-36.7364256" lon="174.3979242"><ele>82.6</ele><time>2026-04-08T21:43:04.771Z</time></trkpt><trkpt lat="-36.7365134" lon="174.3979029"><ele>80.0</ele><time>2026-04-08T21:43:05.771Z</time></trkpt><trkpt lat="-36.7366289" lon="174.3978873"><ele>80.0</ele><time>2026-04-08T21:43:07.771Z</time></trkpt><trkpt lat="-36.736713" lon="174.3980087"><ele>80.0</ele><time>2026-04-08T21:43:09.772Z</time></trkpt><trkpt lat="-36.7367871" lon="174.3979947"><ele>80.0</ele><time>2026-04-08T21:43:13.771Z</time></trkpt><trkpt lat="-36.7367644" lon="174.3979022"><ele>80.0</ele><time>2026-04-08T21:43:15.771Z</time></trkpt><trkpt lat="-36.736649" lon="174.3978356"><ele>80.0</ele><time>2026-04-08T21:43:17.772Z</time></trkpt><trkpt lat="-36.7365353" lon="174.3977899"><ele>80.0</ele><time>2026-04-08T21:43:19.772Z</time></trkpt><trkpt lat="-36.7364813" lon="174.3977039"><ele>80.0</ele><time>2026-04-08T21:43:22.772Z</time></trkpt><trkpt lat="-36.7364991" lon="174.3975892"><ele>80.0</ele><time>2026-04-08T21:43:24.771Z</time></trkpt><trkpt lat="-36.7365092" lon="174.3974834"><ele>80.0</ele><time>2026-04-08T21:43:26.772Z</time></trkpt><trkpt lat="-36.7365462" lon="174.3973657"><ele>80.0</ele><time>2026-04-08T21:43:29.771Z</time></trkpt><trkpt lat="-36.7365122" lon="174.3972765"><ele>80.0</ele><time>2026-04-08T21:43:31.772Z</time></trkpt><trkpt lat="-36.7364663" lon="174.3972199"><ele>76.83333333333334</ele><time>2026-04-08T21:43:33.771Z</time></trkpt><trkpt lat="-36.736444" lon="174.3971112"><ele>73.66666666666667</ele><time>2026-04-08T21:43:35.772Z</time></trkpt><trkpt lat="-36.7364371" lon="174.3970246"><ele>70.5</ele><time>2026-04-08T21:43:37.772Z</time></trkpt><trkpt lat="-36.7363645" lon="174.3969702"><ele>67.33333333333333</ele><time>2026-04-08T21:43:38.772Z</time></trkpt><trkpt lat="-36.7363226" lon="174.3968703"><ele>64.16666666666666</ele><time>2026-04-08T21:43:39.771Z</time></trkpt><trkpt lat="-36.7363068" lon="174.3967715"><ele>61.0</ele><time>2026-04-08T21:43:41.772Z</time></trkpt><trkpt lat="-36.7362368" lon="174.3967201"><ele>61.0</ele><time>2026-04-08T21:43:43.771Z</time></trkpt><trkpt lat="-36.7361188" lon="174.3966689"><ele>60.99999999999999</ele><time>2026-04-08T21:43:45.772Z</time></trkpt><trkpt lat="-36.7360721" lon="174.3965811"><ele>60.99999999999999</ele><time>2026-04-08T21:43:47.773Z</time></trkpt><trkpt lat="-36.7360086" lon="174.3964979"><ele>61.0</ele><time>2026-04-08T21:43:50.772Z</time></trkpt><trkpt lat="-36.7359297" lon="174.3964212"><ele>61.0</ele><time>2026-04-08T21:43:52.773Z</time></trkpt><trkpt lat="-36.7358729" lon="174.3962979"><ele>60.83333333333333</ele><time>2026-04-08T21:43:54.771Z</time></trkpt><trkpt lat="-36.7358356" lon="174.3961787"><ele>60.666666666666664</ele><time>2026-04-08T21:43:56.771Z</time></trkpt><trkpt lat="-36.7357922" lon="174.3961212"><ele>60.5</ele><time>2026-04-08T21:43:57.772Z</time></trkpt><trkpt lat="-36.7356968" lon="174.3960402"><ele>60.33333333333333</ele><time>2026-04-08T21:43:59.771Z</time></trkpt><trkpt lat="-36.7356528" lon="174.3959753"><ele>60.166666666666664</ele><time>2026-04-08T21:44:00.771Z</time></trkpt><trkpt lat="-36.7355877" lon="174.3959112"><ele>60.0</ele><time>2026-04-08T21:44:01.772Z</time></trkpt><trkpt lat="-36.7355181" lon="174.3958608"><ele>60.0</ele><time>2026-04-08T21:44:02.773Z</time></trkpt><trkpt lat="-36.7354459" lon="174.3957885"><ele>60.0</ele><time>2026-04-08T21:44:04.772Z</time></trkpt><trkpt lat="-36.735365" lon="174.395739"><ele>60.0</ele><time>2026-04-08T21:44:06.771Z</time></trkpt><trkpt lat="-36.7351488" lon="174.3956742"><ele>60.0</ele><time>2026-04-08T21:44:10.771Z</time></trkpt><trkpt lat="-36.7350665" lon="174.395565"><ele>59.333333333333336</ele><time>2026-04-08T21:44:12.771Z</time></trkpt><trkpt lat="-36.7350405" lon="174.3954929"><ele>58.66666666666667</ele><time>2026-04-08T21:44:13.771Z</time></trkpt><trkpt lat="-36.7350241" lon="174.3953819"><ele>58.0</ele><time>2026-04-08T21:44:15.773Z</time></trkpt><trkpt lat="-36.7351001" lon="174.3953125"><ele>57.333333333333336</ele><time>2026-04-08T21:44:17.771Z</time></trkpt><trkpt lat="-36.7352127" lon="174.3953271"><ele>56.66666666666667</ele><time>2026-04-08T21:44:19.773Z</time></trkpt><trkpt lat="-36.7352945" lon="174.3953525"><ele>56.0</ele><time>2026-04-08T21:44:20.772Z</time></trkpt><trkpt lat="-36.735357" lon="174.3953783"><ele>54.50000000000001</ele><time>2026-04-08T21:44:21.772Z</time></trkpt><trkpt lat="-36.7354111" lon="174.3954288"><ele>53.0</ele><time>2026-04-08T21:44:23.772Z</time></trkpt><trkpt lat="-36.7354896" lon="174.3954577"><ele>51.5</ele><time>2026-04-08T21:44:25.771Z</time></trkpt><trkpt lat="-36.7355192" lon="174.395364"><ele>50.0</ele><time>2026-04-08T21:44:27.772Z</time></trkpt><trkpt lat="-36.7354782" lon="174.3952832"><ele>48.5</ele><time>2026-04-08T21:44:28.772Z</time></trkpt><trkpt lat="-36.7354146" lon="174.3951663"><ele>47.0</ele><time>2026-04-08T21:44:30.771Z</time></trkpt><trkpt lat="-36.7353464" lon="174.395056"><ele>47.0</ele><time>2026-04-08T21:44:32.771Z</time></trkpt><trkpt lat="-36.7353135" lon="174.3949866"><ele>47.0</ele><time>2026-04-08T21:44:33.772Z</time></trkpt><trkpt lat="-36.7352711" lon="174.3949129"><ele>47.0</ele><time>2026-04-08T21:44:34.771Z</time></trkpt><trkpt lat="-36.735146" lon="174.3948922"><ele>47.0</ele><time>2026-04-08T21:44:36.772Z</time></trkpt><trkpt lat="-36.7350806" lon="174.3948494"><ele>47.0</ele><time>2026-04-08T21:44:37.773Z</time></trkpt><trkpt lat="-36.7349915" lon="174.3947941"><ele>47.0</ele><time>2026-04-08T21:44:39.772Z</time></trkpt><trkpt lat="-36.7350059" lon="174.3946683"><ele>47.0</ele><time>2026-04-08T21:44:41.772Z</time></trkpt><trkpt lat="-36.7350216" lon="174.3945538"><ele>47.0</ele><time>2026-04-08T21:44:43.772Z</time></trkpt><trkpt lat="-36.7349718" lon="174.3944208"><ele>47.0</ele><time>2026-04-08T21:44:45.772Z</time></trkpt><trkpt lat="-36.7349416" lon="174.3943176"><ele>47.0</ele><time>2026-04-08T21:44:47.771Z</time></trkpt><trkpt lat="-36.7349476" lon="174.3941824"><ele>47.0</ele><time>2026-04-08T21:44:49.77Z</time></trkpt><trkpt lat="-36.7349642" lon="174.3941039"><ele>47.0</ele><time>2026-04-08T21:44:50.772Z</time></trkpt><trkpt lat="-36.734995" lon="174.3940225"><ele>47.0</ele><time>2026-04-08T21:44:51.771Z</time></trkpt><trkpt lat="-36.7350462" lon="174.3938933"><ele>47.0</ele><time>2026-04-08T21:44:53.771Z</time></trkpt><trkpt lat="-36.7350709" lon="174.3937794"><ele>47.0</ele><time>2026-04-08T21:44:55.77Z</time></trkpt><trkpt lat="-36.735043" lon="174.3936506"><ele>47.0</ele><time>2026-04-08T21:44:57.772Z</time></trkpt><trkpt lat="-36.7349464" lon="174.3935645"><ele>45.2</ele><time>2026-04-08T21:44:59.771Z</time></trkpt><trkpt lat="-36.7348348" lon="174.3934735"><ele>43.400000000000006</ele><time>2026-04-08T21:45:01.773Z</time></trkpt><trkpt lat="-36.7347937" lon="174.3934082"><ele>41.599999999999994</ele><time>2026-04-08T21:45:02.771Z</time></trkpt><trkpt lat="-36.7347425" lon="174.3933596"><ele>39.8</ele><time>2026-04-08T21:45:03.773Z</time></trkpt><trkpt lat="-36.7346812" lon="174.3932569"><ele>38.0</ele><time>2026-04-08T21:45:05.772Z</time></trkpt><trkpt lat="-36.7345975" lon="174.3932151"><ele>38.0</ele><time>2026-04-08T21:45:08.772Z</time></trkpt><trkpt lat="-36.7345621" lon="174.3931434"><ele>38.0</ele><time>2026-04-08T21:45:10.771Z</time></trkpt><trkpt lat="-36.7345027" lon="174.3930608"><ele>38.0</ele><time>2026-04-08T21:45:12.771Z</time></trkpt><trkpt lat="-36.7344185" lon="174.3930496"><ele>38.0</ele><time>2026-04-08T21:45:14.772Z</time></trkpt><trkpt lat="-36.7341734" lon="174.392999"><ele>36.4</ele><time>2026-04-08T21:45:20.773Z</time></trkpt><trkpt lat="-36.7341376" lon="174.3929025"><ele>34.8</ele><time>2026-04-08T21:45:22.772Z</time></trkpt><trkpt lat="-36.7341729" lon="174.3927602"><ele>33.2</ele><time>2026-04-08T21:45:24.773Z</time></trkpt><trkpt lat="-36.7342736" lon="174.3926712"><ele>31.6</ele><time>2026-04-08T21:45:26.771Z</time></trkpt><trkpt lat="-36.7343564" lon="174.392566"><ele>30.0</ele><time>2026-04-08T21:45:28.772Z</time></trkpt><trkpt lat="-36.734317" lon="174.3924472"><ele>30.0</ele><time>2026-04-08T21:45:30.771Z</time></trkpt><trkpt lat="-36.7342574" lon="174.3923867"><ele>30.0</ele><time>2026-04-08T21:45:32.771Z</time></trkpt><trkpt lat="-36.734197" lon="174.3923013"><ele>30.0</ele><time>2026-04-08T21:45:33.772Z</time></trkpt><trkpt lat="-36.7341387" lon="174.3922282"><ele>30.0</ele><time>2026-04-08T21:45:34.772Z</time></trkpt><trkpt lat="-36.7340845" lon="174.3921608"><ele>30.0</ele><time>2026-04-08T21:45:35.77Z</time></trkpt><trkpt lat="-36.7339943" lon="174.3921658"><ele>30.0</ele><time>2026-04-08T21:45:37.772Z</time></trkpt><trkpt lat="-36.7339245" lon="174.3921417"><ele>29.0</ele><time>2026-04-08T21:45:39.772Z</time></trkpt><trkpt lat="-36.733813" lon="174.3921236"><ele>28.0</ele><time>2026-04-08T21:45:41.771Z</time></trkpt><trkpt lat="-36.7336837" lon="174.3921137"><ele>27.0</ele><time>2026-04-08T21:45:43.771Z</time></trkpt><trkpt lat="-36.7336094" lon="174.3920669"><ele>26.0</ele><time>2026-04-08T21:45:44.771Z</time></trkpt><trkpt lat="-36.7335236" lon="174.3919627"><ele>25.0</ele><time>2026-04-08T21:45:46.772Z</time></trkpt><trkpt lat="-36.7334771" lon="174.3918919"><ele>24.6</ele><time>2026-04-08T21:45:47.771Z</time></trkpt><trkpt lat="-36.7334023" lon="174.3917954"><ele>24.2</ele><time>2026-04-08T21:45:49.772Z</time></trkpt><trkpt lat="-36.7333728" lon="174.3916772"><ele>23.799999999999997</ele><time>2026-04-08T21:45:51.772Z</time></trkpt><trkpt lat="-36.7333792" lon="174.3915454"><ele>23.4</ele><time>2026-04-08T21:45:53.772Z</time></trkpt><trkpt lat="-36.733358" lon="174.391445"><ele>23.0</ele><time>2026-04-08T21:45:55.771Z</time></trkpt><trkpt lat="-36.7333009" lon="174.39136"><ele>23.666666666666668</ele><time>2026-04-08T21:45:57.771Z</time></trkpt><trkpt lat="-36.7332664" lon="174.3912696"><ele>24.333333333333336</ele><time>2026-04-08T21:45:59.772Z</time></trkpt><trkpt lat="-36.7332157" lon="174.3911911"><ele>25.0</ele><time>2026-04-08T21:46:01.771Z</time></trkpt><trkpt lat="-36.7331496" lon="174.3911314"><ele>25.666666666666668</ele><time>2026-04-08T21:46:03.771Z</time></trkpt><trkpt lat="-36.7330805" lon="174.3910833"><ele>26.333333333333332</ele><time>2026-04-08T21:46:05.772Z</time></trkpt><trkpt lat="-36.733028" lon="174.3910198"><ele>27.0</ele><time>2026-04-08T21:46:07.773Z</time></trkpt><trkpt lat="-36.7329712" lon="174.3909633"><ele>27.0</ele><time>2026-04-08T21:46:09.772Z</time></trkpt><trkpt lat="-36.7328848" lon="174.3909162"><ele>27.0</ele><time>2026-04-08T21:46:11.772Z</time></trkpt><trkpt lat="-36.7328137" lon="174.3908717"><ele>27.0</ele><time>2026-04-08T21:46:13.772Z</time></trkpt><trkpt lat="-36.7327558" lon="174.3908274"><ele>27.0</ele><time>2026-04-08T21:46:15.771Z</time></trkpt><trkpt lat="-36.7326823" lon="174.3908098"><ele>27.0</ele><time>2026-04-08T21:46:17.771Z</time></trkpt><trkpt lat="-36.7326246" lon="174.3908722"><ele>27.0</ele><time>2026-04-08T21:46:19.772Z</time></trkpt><trkpt lat="-36.7325756" lon="174.3909563"><ele>27.0</ele><time>2026-04-08T21:46:21.771Z</time></trkpt><trkpt lat="-36.7325308" lon="174.3910388"><ele>27.0</ele><time>2026-04-08T21:46:23.77Z</time></trkpt><trkpt lat="-36.7324844" lon="174.391121"><ele>27.0</ele><time>2026-04-08T21:46:25.772Z</time></trkpt><trkpt lat="-36.7324303" lon="174.3911965"><ele>27.0</ele><time>2026-04-08T21:46:27.772Z</time></trkpt><trkpt lat="-36.7323843" lon="174.391274"><ele>27.0</ele><time>2026-04-08T21:46:30.771Z</time></trkpt><trkpt lat="-36.7323242" lon="174.391335"><ele>27.0</ele><time>2026-04-08T21:48:24.771Z</time></trkpt><trkpt lat="-36.7322655" lon="174.3913781"><ele>27.0</ele><time>2026-04-08T21:48:26.771Z</time></trkpt><trkpt lat="-36.7321993" lon="174.39143"><ele>27.0</ele><time>2026-04-08T21:48:28.771Z</time></trkpt><trkpt lat="-36.7321242" lon="174.3914527"><ele>27.0</ele><time>2026-04-08T21:48:30.772Z</time></trkpt><trkpt lat="-36.7320518" lon="174.3914736"><ele>27.0</ele><time>2026-04-08T21:48:32.772Z</time></trkpt><trkpt lat="-36.7319765" lon="174.3914871"><ele>27.0</ele><time>2026-04-08T21:48:34.772Z</time></trkpt><trkpt lat="-36.7319011" lon="174.3915086"><ele>27.0</ele><time>2026-04-08T21:48:36.772Z</time></trkpt><trkpt lat="-36.7318223" lon="174.3914988"><ele>27.666666666666668</ele><time>2026-04-08T21:48:38.772Z</time></trkpt><trkpt lat="-36.7317473" lon="174.391481"><ele>28.333333333333336</ele><time>2026-04-08T21:48:40.772Z</time></trkpt><trkpt lat="-36.7316728" lon="174.391481"><ele>29.0</ele><time>2026-04-08T21:48:43.771Z</time></trkpt><trkpt lat="-36.731598" lon="174.3915163"><ele>29.666666666666668</ele><time>2026-04-08T21:48:45.772Z</time></trkpt><trkpt lat="-36.7315477" lon="174.3915742"><ele>30.333333333333336</ele><time>2026-04-08T21:48:47.771Z</time></trkpt><trkpt lat="-36.7315811" lon="174.3916662"><ele>31.0</ele><time>2026-04-08T21:48:51.772Z</time></trkpt><trkpt lat="-36.7315561" lon="174.3917583"><ele>31.000000000000004</ele><time>2026-04-08T21:48:55.771Z</time></trkpt><trkpt lat="-36.7314967" lon="174.3918275"><ele>31.0</ele><time>2026-04-08T21:48:58.771Z</time></trkpt><trkpt lat="-36.7314472" lon="174.3918919"><ele>31.0</ele><time>2026-04-08T21:49:01.772Z</time></trkpt><trkpt lat="-36.7313616" lon="174.3919013"><ele>31.0</ele><time>2026-04-08T21:49:04.77Z</time></trkpt><trkpt lat="-36.7312883" lon="174.3918831"><ele>31.000000000000004</ele><time>2026-04-08T21:49:06.772Z</time></trkpt><trkpt lat="-36.7312257" lon="174.3918523"><ele>31.0</ele><time>2026-04-08T21:49:07.771Z</time></trkpt><trkpt lat="-36.7311502" lon="174.3917949"><ele>31.0</ele><time>2026-04-08T21:49:09.771Z</time></trkpt><trkpt lat="-36.7310923" lon="174.3917612"><ele>31.000000000000004</ele><time>2026-04-08T21:49:11.772Z</time></trkpt><trkpt lat="-36.7310245" lon="174.391787"><ele>31.0</ele><time>2026-04-08T21:49:13.771Z</time></trkpt><trkpt lat="-36.7309789" lon="174.3918467"><ele>31.0</ele><time>2026-04-08T21:49:15.772Z</time></trkpt><trkpt lat="-36.7309606" lon="174.3919418"><ele>31.000000000000004</ele><time>2026-04-08T21:49:18.772Z</time></trkpt><trkpt lat="-36.7309506" lon="174.3920353"><ele>31.0</ele><time>2026-04-08T21:49:21.771Z</time></trkpt><trkpt lat="-36.7309245" lon="174.3921329"><ele>31.0</ele><time>2026-04-08T21:49:24.772Z</time></trkpt><trkpt lat="-36.7309323" lon="174.3922369"><ele>31.42857142857143</ele><time>2026-04-08T21:49:27.772Z</time></trkpt><trkpt lat="-36.7309291" lon="174.3923365"><ele>31.85714285714286</ele><time>2026-04-08T21:49:30.772Z</time></trkpt><trkpt lat="-36.7308682" lon="174.3923045"><ele>32.285714285714285</ele><time>2026-04-08T21:49:35.771Z</time></trkpt><trkpt lat="-36.7308538" lon="174.3922094"><ele>32.714285714285715</ele><time>2026-04-08T21:49:38.771Z</time></trkpt><trkpt lat="-36.730827" lon="174.3921378"><ele>33.14285714285714</ele><time>2026-04-08T21:49:40.772Z</time></trkpt><trkpt lat="-36.7308015" lon="174.3920529"><ele>33.57142857142857</ele><time>2026-04-08T21:49:43.772Z</time></trkpt><trkpt lat="-36.7307272" lon="174.3920095"><ele>34.0</ele><time>2026-04-08T21:49:46.772Z</time></trkpt><trkpt lat="-36.7306616" lon="174.3919884"><ele>34.0</ele><time>2026-04-08T21:49:48.77Z</time></trkpt><trkpt lat="-36.7305737" lon="174.3919935"><ele>34.0</ele><time>2026-04-08T21:49:51.771Z</time></trkpt><trkpt lat="-36.7304926" lon="174.3920018"><ele>34.0</ele><time>2026-04-08T21:49:54.772Z</time></trkpt><trkpt lat="-36.730418" lon="174.3920061"><ele>34.0</ele><time>2026-04-08T21:49:56.772Z</time></trkpt><trkpt lat="-36.7305001" lon="174.3920506"><ele>34.0</ele><time>2026-04-08T21:50:04.772Z</time></trkpt><trkpt lat="-36.7305656" lon="174.3920531"><ele>34.0</ele><time>2026-04-08T21:50:06.772Z</time></trkpt><trkpt lat="-36.7306382" lon="174.3921212"><ele>35.71428571428571</ele><time>2026-04-08T21:50:09.772Z</time></trkpt><trkpt lat="-36.7306729" lon="174.3921924"><ele>37.42857142857143</ele><time>2026-04-08T21:50:11.771Z</time></trkpt><trkpt lat="-36.7306802" lon="174.3922708"><ele>39.14285714285714</ele><time>2026-04-08T21:50:13.772Z</time></trkpt><trkpt lat="-36.7306026" lon="174.3922871"><ele>40.857142857142854</ele><time>2026-04-08T21:50:16.772Z</time></trkpt><trkpt lat="-36.7305366" lon="174.392292"><ele>42.57142857142857</ele><time>2026-04-08T21:50:19.773Z</time></trkpt><trkpt lat="-36.7304571" lon="174.3922371"><ele>44.285714285714285</ele><time>2026-04-08T21:50:22.772Z</time></trkpt><trkpt lat="-36.7303793" lon="174.3922391"><ele>46.0</ele><time>2026-04-08T21:50:25.772Z</time></trkpt><trkpt lat="-36.7302928" lon="174.3921958"><ele>46.0</ele><time>2026-04-08T21:50:28.773Z</time></trkpt><trkpt lat="-36.730252" lon="174.3921292"><ele>46.0</ele><time>2026-04-08T21:50:30.772Z</time></trkpt><trkpt lat="-36.7301983" lon="174.3920797"><ele>46.0</ele><time>2026-04-08T21:50:32.772Z</time></trkpt><trkpt lat="-36.7301421" lon="174.3920209"><ele>46.0</ele><time>2026-04-08T21:50:35.772Z</time></trkpt><trkpt lat="-36.7300788" lon="174.3919598"><ele>46.0</ele><time>2026-04-08T21:50:37.772Z</time></trkpt><trkpt lat="-36.7300227" lon="174.3918588"><ele>46.0</ele><time>2026-04-08T21:50:39.772Z</time></trkpt><trkpt lat="-36.7299508" lon="174.3917555"><ele>46.0</ele><time>2026-04-08T21:50:41.771Z</time></trkpt><trkpt lat="-36.7299039" lon="174.3917018"><ele>46.0</ele><time>2026-04-08T21:50:42.77Z</time></trkpt><trkpt lat="-36.7298059" lon="174.3916373"><ele>46.0</ele><time>2026-04-08T21:50:44.77Z</time></trkpt><trkpt lat="-36.7297451" lon="174.3915928"><ele>46.0</ele><time>2026-04-08T21:50:45.772Z</time></trkpt><trkpt lat="-36.7296625" lon="174.3915501"><ele>46.0</ele><time>2026-04-08T21:50:47.771Z</time></trkpt><trkpt lat="-36.7295711" lon="174.3915104"><ele>46.0</ele><time>2026-04-08T21:50:49.772Z</time></trkpt><trkpt lat="-36.7294791" lon="174.3914655"><ele>46.0</ele><time>2026-04-08T21:50:51.771Z</time></trkpt><trkpt lat="-36.7294001" lon="174.3913956"><ele>46.0</ele><time>2026-04-08T21:50:53.771Z</time></trkpt><trkpt lat="-36.7293332" lon="174.3913064"><ele>46.0</ele><time>2026-04-08T21:50:55.77Z</time></trkpt><trkpt lat="-36.7292675" lon="174.3912243"><ele>46.0</ele><time>2026-04-08T21:50:57.772Z</time></trkpt><trkpt lat="-36.7292059" lon="174.3911146"><ele>46.0</ele><time>2026-04-08T21:50:59.772Z</time></trkpt><trkpt lat="-36.7291485" lon="174.3910564"><ele>44.8</ele><time>2026-04-08T21:51:01.772Z</time></trkpt><trkpt lat="-36.7290716" lon="174.3909609"><ele>43.599999999999994</ele><time>2026-04-08T21:51:03.771Z</time></trkpt><trkpt lat="-36.7290077" lon="174.3908448"><ele>42.4</ele><time>2026-04-08T21:51:05.771Z</time></trkpt><trkpt lat="-36.7289403" lon="174.3907733"><ele>41.2</ele><time>2026-04-08T21:51:07.772Z</time></trkpt><trkpt lat="-36.7288631" lon="174.3906994"><ele>40.0</ele><time>2026-04-08T21:51:09.773Z</time></trkpt><trkpt lat="-36.7287863" lon="174.3906488"><ele>40.0</ele><time>2026-04-08T21:51:11.772Z</time></trkpt><trkpt lat="-36.7287077" lon="174.390646"><ele>40.0</ele><time>2026-04-08T21:51:13.772Z</time></trkpt><trkpt lat="-36.7286375" lon="174.3906629"><ele>40.0</ele><time>2026-04-08T21:51:15.771Z</time></trkpt><trkpt lat="-36.7285528" lon="174.3907813"><ele>40.0</ele><time>2026-04-08T21:51:18.772Z</time></trkpt><trkpt lat="-36.7285409" lon="174.3908777"><ele>40.0</ele><time>2026-04-08T21:51:21.771Z</time></trkpt><trkpt lat="-36.728476" lon="174.3908703"><ele>40.0</ele><time>2026-04-08T21:51:27.771Z</time></trkpt><trkpt lat="-36.7284034" lon="174.3908029"><ele>42.16666666666667</ele><time>2026-04-08T21:51:30.771Z</time></trkpt><trkpt lat="-36.7283259" lon="174.3907625"><ele>44.333333333333336</ele><time>2026-04-08T21:51:33.772Z</time></trkpt><trkpt lat="-36.7282615" lon="174.3907321"><ele>46.5</ele><time>2026-04-08T21:51:35.771Z</time></trkpt><trkpt lat="-36.7281754" lon="174.3906989"><ele>48.66666666666667</ele><time>2026-04-08T21:51:38.773Z</time></trkpt><trkpt lat="-36.7281097" lon="174.3906937"><ele>50.833333333333336</ele><time>2026-04-08T21:51:40.772Z</time></trkpt><trkpt lat="-36.7280397" lon="174.3906845"><ele>53.0</ele><time>2026-04-08T21:51:43.771Z</time></trkpt><trkpt lat="-36.7279594" lon="174.3906987"><ele>53.00000000000001</ele><time>2026-04-08T21:51:46.773Z</time></trkpt><trkpt lat="-36.7278897" lon="174.3906636"><ele>53.0</ele><time>2026-04-08T21:51:49.772Z</time></trkpt><trkpt lat="-36.7279146" lon="174.39076"><ele>53.0</ele><time>2026-04-08T21:51:59.771Z</time></trkpt><trkpt lat="-36.7278725" lon="174.3908439"><ele>53.0</ele><time>2026-04-08T21:52:03.772Z</time></trkpt><trkpt lat="-36.7277996" lon="174.3908164"><ele>53.00000000000001</ele><time>2026-04-08T21:52:07.773Z</time></trkpt><trkpt lat="-36.7277413" lon="174.390897"><ele>53.0</ele><time>2026-04-08T21:52:19.771Z</time></trkpt><trkpt lat="-36.7277024" lon="174.3909613"><ele>53.85714285714286</ele><time>2026-04-08T21:52:22.771Z</time></trkpt><trkpt lat="-36.7276503" lon="174.391006"><ele>54.71428571428571</ele><time>2026-04-08T21:52:25.773Z</time></trkpt><trkpt lat="-36.7275884" lon="174.3910679"><ele>55.57142857142857</ele><time>2026-04-08T21:52:29.772Z</time></trkpt><trkpt lat="-36.7275118" lon="174.3910875"><ele>56.42857142857143</ele><time>2026-04-08T21:52:32.772Z</time></trkpt><trkpt lat="-36.7275499" lon="174.3911567"><ele>57.28571428571429</ele><time>2026-04-08T21:52:37.771Z</time></trkpt><trkpt lat="-36.7275992" lon="174.3912168"><ele>58.14285714285714</ele><time>2026-04-08T21:52:41.772Z</time></trkpt><trkpt lat="-36.7276433" lon="174.3912902"><ele>59.0</ele><time>2026-04-08T21:52:44.773Z</time></trkpt><trkpt lat="-36.7276692" lon="174.3913756"><ele>60.66666666666667</ele><time>2026-04-08T21:52:46.772Z</time></trkpt><trkpt lat="-36.7276738" lon="174.3914715"><ele>62.333333333333336</ele><time>2026-04-08T21:52:48.772Z</time></trkpt><trkpt lat="-36.7277032" lon="174.3915777"><ele>64.0</ele><time>2026-04-08T21:52:50.771Z</time></trkpt><trkpt lat="-36.7277276" lon="174.3916856"><ele>65.66666666666667</ele><time>2026-04-08T21:52:52.772Z</time></trkpt><trkpt lat="-36.7277556" lon="174.3917887"><ele>67.33333333333333</ele><time>2026-04-08T21:52:54.772Z</time></trkpt><trkpt lat="-36.7277605" lon="174.3918884"><ele>69.0</ele><time>2026-04-08T21:52:56.773Z</time></trkpt><trkpt lat="-36.7277802" lon="174.3919971"><ele>69.66666666666667</ele><time>2026-04-08T21:52:58.771Z</time></trkpt><trkpt lat="-36.7277759" lon="174.3920978"><ele>70.33333333333333</ele><time>2026-04-08T21:53:00.772Z</time></trkpt><trkpt lat="-36.7277695" lon="174.3922101"><ele>71.0</ele><time>2026-04-08T21:53:02.773Z</time></trkpt><trkpt lat="-36.7277564" lon="174.3922926"><ele>71.66666666666666</ele><time>2026-04-08T21:53:04.771Z</time></trkpt><trkpt lat="-36.7277164" lon="174.3923588"><ele>72.33333333333333</ele><time>2026-04-08T21:53:06.771Z</time></trkpt><trkpt lat="-36.7276989" lon="174.3924581"><ele>73.0</ele><time>2026-04-08T21:53:09.771Z</time></trkpt><trkpt lat="-36.7276696" lon="174.3925311"><ele>73.14285714285714</ele><time>2026-04-08T21:53:11.772Z</time></trkpt><trkpt lat="-36.7276177" lon="174.3925759"><ele>73.28571428571429</ele><time>2026-04-08T21:53:13.771Z</time></trkpt><trkpt lat="-36.7275535" lon="174.3925578"><ele>73.42857142857143</ele><time>2026-04-08T21:53:15.772Z</time></trkpt><trkpt lat="-36.7275047" lon="174.3926138"><ele>73.57142857142857</ele><time>2026-04-08T21:53:18.773Z</time></trkpt><trkpt lat="-36.7274548" lon="174.3926932"><ele>73.71428571428571</ele><time>2026-04-08T21:53:21.771Z</time></trkpt><trkpt lat="-36.7274039" lon="174.3927664"><ele>73.85714285714286</ele><time>2026-04-08T21:53:24.772Z</time></trkpt><trkpt lat="-36.7274423" lon="174.3928536"><ele>74.0</ele><time>2026-04-08T21:53:27.772Z</time></trkpt><trkpt lat="-36.7274726" lon="174.3929457"><ele>74.66666666666667</ele><time>2026-04-08T21:53:30.772Z</time></trkpt><trkpt lat="-36.7274016" lon="174.3930069"><ele>75.33333333333334</ele><time>2026-04-08T21:53:34.771Z</time></trkpt><trkpt lat="-36.7273595" lon="174.3930997"><ele>76.0</ele><time>2026-04-08T21:53:37.772Z</time></trkpt><trkpt lat="-36.7273702" lon="174.3932033"><ele>76.66666666666667</ele><time>2026-04-08T21:53:40.771Z</time></trkpt><trkpt lat="-36.7273419" lon="174.3932762"><ele>77.33333333333333</ele><time>2026-04-08T21:53:43.772Z</time></trkpt><trkpt lat="-36.7272726" lon="174.3933187"><ele>78.0</ele><time>2026-04-08T21:53:45.77Z</time></trkpt><trkpt lat="-36.7271964" lon="174.3933367"><ele>78.0</ele><time>2026-04-08T21:53:48.771Z</time></trkpt><trkpt lat="-36.7271766" lon="174.3934254"><ele>78.0</ele><time>2026-04-08T21:53:52.77Z</time></trkpt><trkpt lat="-36.7271616" lon="174.3935276"><ele>78.0</ele><time>2026-04-08T21:53:56.772Z</time></trkpt><trkpt lat="-36.7271756" lon="174.3936153"><ele>78.0</ele><time>2026-04-08T21:53:58.771Z</time></trkpt><trkpt lat="-36.7271567" lon="174.3937033"><ele>78.0</ele><time>2026-04-08T21:54:00.772Z</time></trkpt><trkpt lat="-36.727088" lon="174.3937999"><ele>78.0</ele><time>2026-04-08T21:54:02.77Z</time></trkpt><trkpt lat="-36.7270551" lon="174.3938812"><ele>78.0</ele><time>2026-04-08T21:54:04.772Z</time></trkpt><trkpt lat="-36.727058" lon="174.3939921"><ele>78.0</ele><time>2026-04-08T21:54:06.772Z</time></trkpt><trkpt lat="-36.7270413" lon="174.3940883"><ele>78.0</ele><time>2026-04-08T21:54:08.772Z</time></trkpt><trkpt lat="-36.7269965" lon="174.3941485"><ele>78.0</ele><time>2026-04-08T21:54:11.771Z</time></trkpt><trkpt lat="-36.7269803" lon="174.3942303"><ele>78.0</ele><time>2026-04-08T21:54:13.771Z</time></trkpt><trkpt lat="-36.7269917" lon="174.3943202"><ele>78.0</ele><time>2026-04-08T21:54:15.772Z</time></trkpt><trkpt lat="-36.7270122" lon="174.3944014"><ele>78.0</ele><time>2026-04-08T21:54:17.77Z</time></trkpt><trkpt lat="-36.726991" lon="174.3944794"><ele>78.0</ele><time>2026-04-08T21:54:19.771Z</time></trkpt><trkpt lat="-36.7269245" lon="174.3945353"><ele>78.0</ele><time>2026-04-08T21:54:22.772Z</time></trkpt><trkpt lat="-36.7268779" lon="174.3946125"><ele>78.0</ele><time>2026-04-08T21:54:26.771Z</time></trkpt><trkpt lat="-36.7268336" lon="174.3946854"><ele>78.0</ele><time>2026-04-08T21:54:29.771Z</time></trkpt><trkpt lat="-36.7267963" lon="174.394772"><ele>78.0</ele><time>2026-04-08T21:54:32.773Z</time></trkpt><trkpt lat="-36.7267337" lon="174.3948309"><ele>78.0</ele><time>2026-04-08T21:54:34.77Z</time></trkpt><trkpt lat="-36.7266783" lon="174.3948894"><ele>80.4</ele><time>2026-04-08T21:54:35.771Z</time></trkpt><trkpt lat="-36.7265835" lon="174.3949605"><ele>82.8</ele><time>2026-04-08T21:54:37.771Z</time></trkpt><trkpt lat="-36.7264828" lon="174.3950043"><ele>85.2</ele><time>2026-04-08T21:54:39.771Z</time></trkpt><trkpt lat="-36.7263867" lon="174.3950371"><ele>87.6</ele><time>2026-04-08T21:54:41.77Z</time></trkpt><trkpt lat="-36.7263112" lon="174.3950854"><ele>90.0</ele><time>2026-04-08T21:54:43.771Z</time></trkpt><trkpt lat="-36.7262565" lon="174.3951545"><ele>90.0</ele><time>2026-04-08T21:54:45.771Z</time></trkpt><trkpt lat="-36.7262436" lon="174.395255"><ele>90.0</ele><time>2026-04-08T21:54:47.77Z</time></trkpt><trkpt lat="-36.7262285" lon="174.3953659"><ele>90.0</ele><time>2026-04-08T21:54:50.77Z</time></trkpt><trkpt lat="-36.7261867" lon="174.3954662"><ele>90.0</ele><time>2026-04-08T21:54:53.77Z</time></trkpt><trkpt lat="-36.7261167" lon="174.395542"><ele>90.0</ele><time>2026-04-08T21:54:56.771Z</time></trkpt><trkpt lat="-36.7260521" lon="174.3955851"><ele>90.0</ele><time>2026-04-08T21:54:58.771Z</time></trkpt><trkpt lat="-36.7259833" lon="174.3956143"><ele>92.33333333333333</ele><time>2026-04-08T21:55:00.771Z</time></trkpt><trkpt lat="-36.7259155" lon="174.3956813"><ele>94.66666666666666</ele><time>2026-04-08T21:55:03.771Z</time></trkpt><trkpt lat="-36.7258545" lon="174.3957497"><ele>97.0</ele><time>2026-04-08T21:55:06.77Z</time></trkpt><trkpt lat="-36.725817" lon="174.3958481"><ele>99.33333333333333</ele><time>2026-04-08T21:55:09.771Z</time></trkpt><trkpt lat="-36.7258077" lon="174.3959499"><ele>101.66666666666666</ele><time>2026-04-08T21:55:11.771Z</time></trkpt><trkpt lat="-36.725787" lon="174.3960392"><ele>104.0</ele><time>2026-04-08T21:55:13.77Z</time></trkpt><trkpt lat="-36.725776" lon="174.3961185"><ele>104.0</ele><time>2026-04-08T21:55:15.772Z</time></trkpt><trkpt lat="-36.7257466" lon="174.3962077"><ele>104.0</ele><time>2026-04-08T21:55:18.77Z</time></trkpt><trkpt lat="-36.7256898" lon="174.3961612"><ele>104.0</ele><time>2026-04-08T21:55:21.77Z</time></trkpt><trkpt lat="-36.7256908" lon="174.396081"><ele>104.0</ele><time>2026-04-08T21:55:23.77Z</time></trkpt><trkpt lat="-36.7256797" lon="174.3959823"><ele>104.0</ele><time>2026-04-08T21:55:26.771Z</time></trkpt><trkpt lat="-36.7256352" lon="174.3959183"><ele>104.0</ele><time>2026-04-08T21:55:29.771Z</time></trkpt><trkpt lat="-36.7256386" lon="174.3958295"><ele>104.0</ele><time>2026-04-08T21:55:32.771Z</time></trkpt><trkpt lat="-36.7256595" lon="174.395739"><ele>104.0</ele><time>2026-04-08T21:55:35.771Z</time></trkpt><trkpt lat="-36.7256601" lon="174.395658"><ele>104.0</ele><time>2026-04-08T21:55:38.771Z</time></trkpt><trkpt lat="-36.7256484" lon="174.3955673"><ele>104.0</ele><time>2026-04-08T21:55:41.77Z</time></trkpt><trkpt lat="-36.7256491" lon="174.395486"><ele>104.0</ele><time>2026-04-08T21:55:44.77Z</time></trkpt><trkpt lat="-36.7256888" lon="174.3954178"><ele>104.0</ele><time>2026-04-08T21:55:46.771Z</time></trkpt><trkpt lat="-36.7257315" lon="174.395324"><ele>104.0</ele><time>2026-04-08T21:55:49.771Z</time></trkpt><trkpt lat="-36.7257923" lon="174.3952424"><ele>104.0</ele><time>2026-04-08T21:55:52.77Z</time></trkpt><trkpt lat="-36.7258309" lon="174.3951326"><ele>104.16666666666666</ele><time>2026-04-08T21:55:55.771Z</time></trkpt><trkpt lat="-36.7258712" lon="174.3950129"><ele>104.33333333333333</ele><time>2026-04-08T21:55:58.77Z</time></trkpt><trkpt lat="-36.7258891" lon="174.3949311"><ele>104.5</ele><time>2026-04-08T21:56:00.772Z</time></trkpt><trkpt lat="-36.7258925" lon="174.3948447"><ele>104.66666666666666</ele><time>2026-04-08T21:56:02.771Z</time></trkpt><trkpt lat="-36.7258913" lon="174.3947381"><ele>104.83333333333333</ele><time>2026-04-08T21:56:05.771Z</time></trkpt><trkpt lat="-36.7258966" lon="174.394615"><ele>105.0</ele><time>2026-04-08T21:56:08.771Z</time></trkpt><trkpt lat="-36.72588" lon="174.3945121"><ele>105.16666666666667</ele><time>2026-04-08T21:56:10.772Z</time></trkpt><trkpt lat="-36.7258487" lon="174.394423"><ele>105.33333333333334</ele><time>2026-04-08T21:56:12.773Z</time></trkpt><trkpt lat="-36.7258119" lon="174.3943311"><ele>105.5</ele><time>2026-04-08T21:56:14.77Z</time></trkpt><trkpt lat="-36.7257812" lon="174.3942452"><ele>105.66666666666667</ele><time>2026-04-08T21:56:16.771Z</time></trkpt><trkpt lat="-36.725731" lon="174.3941839"><ele>105.83333333333334</ele><time>2026-04-08T21:56:18.771Z</time></trkpt><trkpt lat="-36.7256874" lon="174.3941118"><ele>106.0</ele><time>2026-04-08T21:56:20.771Z</time></trkpt><trkpt lat="-36.7256893" lon="174.3939979"><ele>106.0</ele><time>2026-04-08T21:56:23.771Z</time></trkpt><trkpt lat="-36.7256692" lon="174.3939179"><ele>106.0</ele><time>2026-04-08T21:56:25.773Z</time></trkpt><trkpt lat="-36.7256173" lon="174.3938661"><ele>106.0</ele><time>2026-04-08T21:56:27.772Z</time></trkpt><trkpt lat="-36.7255756" lon="174.3938041"><ele>106.0</ele><time>2026-04-08T21:56:29.771Z</time></trkpt><trkpt lat="-36.7255836" lon="174.3937172"><ele>106.0</ele><time>2026-04-08T21:56:31.772Z</time></trkpt><trkpt lat="-36.7255967" lon="174.3936236"><ele>106.0</ele><time>2026-04-08T21:56:33.772Z</time></trkpt><trkpt lat="-36.7255926" lon="174.3935133"><ele>106.0</ele><time>2026-04-08T21:56:35.771Z</time></trkpt><trkpt lat="-36.7256026" lon="174.3934197"><ele>105.50000000000001</ele><time>2026-04-08T21:56:37.772Z</time></trkpt><trkpt lat="-36.7255966" lon="174.3933293"><ele>105.0</ele><time>2026-04-08T21:56:39.773Z</time></trkpt><trkpt lat="-36.7255804" lon="174.3932435"><ele>104.5</ele><time>2026-04-08T21:56:41.771Z</time></trkpt><trkpt lat="-36.7255777" lon="174.3931598"><ele>104.0</ele><time>2026-04-08T21:56:44.771Z</time></trkpt><trkpt lat="-36.7255293" lon="174.3930869"><ele>103.50000000000001</ele><time>2026-04-08T22:07:29.772Z</time></trkpt><trkpt lat="-36.7255055" lon="174.3929927"><ele>103.0</ele><time>2026-04-08T22:07:32.772Z</time></trkpt><trkpt lat="-36.7254518" lon="174.3929032"><ele>103.16666666666667</ele><time>2026-04-08T22:07:35.771Z</time></trkpt><trkpt lat="-36.7253774" lon="174.3928626"><ele>103.33333333333334</ele><time>2026-04-08T22:07:37.771Z</time></trkpt><trkpt lat="-36.7252945" lon="174.3928789"><ele>103.5</ele><time>2026-04-08T22:07:40.771Z</time></trkpt><trkpt lat="-36.7252268" lon="174.3928912"><ele>103.66666666666666</ele><time>2026-04-08T22:07:42.77Z</time></trkpt><trkpt lat="-36.7251326" lon="174.3929334"><ele>103.83333333333333</ele><time>2026-04-08T22:07:45.772Z</time></trkpt><trkpt lat="-36.725068" lon="174.3930083"><ele>104.0</ele><time>2026-04-08T22:07:47.772Z</time></trkpt><trkpt lat="-36.7250298" lon="174.3930959"><ele>104.33333333333333</ele><time>2026-04-08T22:07:50.77Z</time></trkpt><trkpt lat="-36.725013" lon="174.3931987"><ele>104.66666666666666</ele><time>2026-04-08T22:07:52.771Z</time></trkpt><trkpt lat="-36.7249962" lon="174.3932765"><ele>105.0</ele><time>2026-04-08T22:07:54.771Z</time></trkpt><trkpt lat="-36.7249452" lon="174.3933428"><ele>105.33333333333334</ele><time>2026-04-08T22:07:56.773Z</time></trkpt><trkpt lat="-36.7248841" lon="174.3934014"><ele>105.66666666666667</ele><time>2026-04-08T22:07:58.772Z</time></trkpt><trkpt lat="-36.7248427" lon="174.3934741"><ele>106.0</ele><time>2026-04-08T22:08:00.77Z</time></trkpt><trkpt lat="-36.7247876" lon="174.3935483"><ele>106.0</ele><time>2026-04-08T22:08:02.772Z</time></trkpt><trkpt lat="-36.7247131" lon="174.3936284"><ele>106.0</ele><time>2026-04-08T22:08:04.773Z</time></trkpt><trkpt lat="-36.7246279" lon="174.3937249"><ele>106.0</ele><time>2026-04-08T22:08:06.772Z</time></trkpt><trkpt lat="-36.7245575" lon="174.3937883"><ele>106.0</ele><time>2026-04-08T22:08:08.772Z</time></trkpt><trkpt lat="-36.7244374" lon="174.3937302"><ele>106.0</ele><time>2026-04-08T22:08:11.772Z</time></trkpt><trkpt lat="-36.7243502" lon="174.3936429"><ele>104.8</ele><time>2026-04-08T22:08:13.771Z</time></trkpt><trkpt lat="-36.7243025" lon="174.3935574"><ele>103.6</ele><time>2026-04-08T22:08:14.773Z</time></trkpt><trkpt lat="-36.7242566" lon="174.3934906"><ele>102.4</ele><time>2026-04-08T22:08:15.772Z</time></trkpt><trkpt lat="-36.7241423" lon="174.3934469"><ele>101.2</ele><time>2026-04-08T22:08:17.772Z</time></trkpt><trkpt lat="-36.7240299" lon="174.3934683"><ele>100.0</ele><time>2026-04-08T22:08:19.772Z</time></trkpt><trkpt lat="-36.7239332" lon="174.3935065"><ele>100.00000000000001</ele><time>2026-04-08T22:08:21.772Z</time></trkpt><trkpt lat="-36.7238353" lon="174.3935347"><ele>100.0</ele><time>2026-04-08T22:08:23.77Z</time></trkpt><trkpt lat="-36.7237599" lon="174.3935026"><ele>100.0</ele><time>2026-04-08T22:08:25.772Z</time></trkpt><trkpt lat="-36.7236907" lon="174.3934793"><ele>100.0</ele><time>2026-04-08T22:08:27.772Z</time></trkpt><trkpt lat="-36.7236095" lon="174.3935135"><ele>100.00000000000001</ele><time>2026-04-08T22:08:29.77Z</time></trkpt><trkpt lat="-36.7235596" lon="174.3935846"><ele>100.0</ele><time>2026-04-08T22:08:31.772Z</time></trkpt><trkpt lat="-36.7235008" lon="174.3936441"><ele>100.00000000000001</ele><time>2026-04-08T22:08:33.771Z</time></trkpt><trkpt lat="-36.7234406" lon="174.3937116"><ele>100.0</ele><time>2026-04-08T22:08:35.771Z</time></trkpt><trkpt lat="-36.7233895" lon="174.3936547"><ele>100.0</ele><time>2026-04-08T22:08:38.772Z</time></trkpt><trkpt lat="-36.7234173" lon="174.3935644"><ele>100.0</ele><time>2026-04-08T22:08:41.772Z</time></trkpt><trkpt lat="-36.7234695" lon="174.3934951"><ele>100.00000000000001</ele><time>2026-04-08T22:08:44.771Z</time></trkpt><trkpt lat="-36.7235228" lon="174.3933976"><ele>100.0</ele><time>2026-04-08T22:08:47.772Z</time></trkpt><trkpt lat="-36.723564" lon="174.3933354"><ele>100.00000000000001</ele><time>2026-04-08T22:08:49.771Z</time></trkpt><trkpt lat="-36.7235618" lon="174.393232"><ele>100.0</ele><time>2026-04-08T22:08:52.771Z</time></trkpt><trkpt lat="-36.7235696" lon="174.3931414"><ele>100.0</ele><time>2026-04-08T22:08:55.772Z</time></trkpt><trkpt lat="-36.7236176" lon="174.3930525"><ele>100.0</ele><time>2026-04-08T22:08:58.772Z</time></trkpt><trkpt lat="-36.723686" lon="174.3929793"><ele>100.00000000000001</ele><time>2026-04-08T22:09:01.772Z</time></trkpt><trkpt lat="-36.7237291" lon="174.3928888"><ele>100.0</ele><time>2026-04-08T22:09:04.77Z</time></trkpt><trkpt lat="-36.7237732" lon="174.3928186"><ele>101.14285714285715</ele><time>2026-04-08T22:09:06.77Z</time></trkpt><trkpt lat="-36.7238167" lon="174.3927442"><ele>102.28571428571429</ele><time>2026-04-08T22:09:09.772Z</time></trkpt><trkpt lat="-36.7238307" lon="174.3926525"><ele>103.42857142857143</ele><time>2026-04-08T22:09:13.771Z</time></trkpt><trkpt lat="-36.7237575" lon="174.3926725"><ele>104.57142857142858</ele><time>2026-04-08T22:09:17.771Z</time></trkpt><trkpt lat="-36.7237816" lon="174.3925908"><ele>105.71428571428571</ele><time>2026-04-08T22:09:22.771Z</time></trkpt><trkpt lat="-36.723805" lon="174.3925114"><ele>106.85714285714286</ele><time>2026-04-08T22:09:25.773Z</time></trkpt><trkpt lat="-36.7237419" lon="174.3925348"><ele>108.0</ele><time>2026-04-08T22:09:28.772Z</time></trkpt><trkpt lat="-36.7237484" lon="174.3924436"><ele>108.0</ele><time>2026-04-08T22:09:34.771Z</time></trkpt><trkpt lat="-36.7237945" lon="174.3923858"><ele>108.0</ele><time>2026-04-08T22:09:37.773Z</time></trkpt><trkpt lat="-36.7238378" lon="174.3923075"><ele>108.0</ele><time>2026-04-08T22:09:39.772Z</time></trkpt><trkpt lat="-36.723876" lon="174.3922161"><ele>108.0</ele><time>2026-04-08T22:09:42.771Z</time></trkpt><trkpt lat="-36.7239198" lon="174.3921376"><ele>108.0</ele><time>2026-04-08T22:09:45.771Z</time></trkpt><trkpt lat="-36.7239705" lon="174.3920452"><ele>108.0</ele><time>2026-04-08T22:09:48.773Z</time></trkpt><trkpt lat="-36.7239694" lon="174.3919576"><ele>109.42857142857143</ele><time>2026-04-08T22:09:52.772Z</time></trkpt><trkpt lat="-36.7238921" lon="174.3919578"><ele>110.85714285714286</ele><time>2026-04-08T22:09:56.771Z</time></trkpt><trkpt lat="-36.7238275" lon="174.3919126"><ele>112.28571428571428</ele><time>2026-04-08T22:09:59.771Z</time></trkpt><trkpt lat="-36.7237782" lon="174.3918392"><ele>113.71428571428572</ele><time>2026-04-08T22:10:02.772Z</time></trkpt><trkpt lat="-36.7237311" lon="174.3917726"><ele>115.14285714285715</ele><time>2026-04-08T22:10:05.772Z</time></trkpt><trkpt lat="-36.7237701" lon="174.3916944"><ele>116.57142857142857</ele><time>2026-04-08T22:10:09.772Z</time></trkpt><trkpt lat="-36.7237732" lon="174.3916068"><ele>118.0</ele><time>2026-04-08T22:10:13.773Z</time></trkpt><trkpt lat="-36.7237656" lon="174.3915256"><ele>118.0</ele><time>2026-04-08T22:10:16.772Z</time></trkpt><trkpt lat="-36.7237871" lon="174.3914413"><ele>118.0</ele><time>2026-04-08T22:10:19.77Z</time></trkpt><trkpt lat="-36.7238062" lon="174.3913561"><ele>118.0</ele><time>2026-04-08T22:10:23.773Z</time></trkpt><trkpt lat="-36.7238187" lon="174.3912717"><ele>118.0</ele><time>2026-04-08T22:10:36.771Z</time></trkpt><trkpt lat="-36.7238891" lon="174.3912301"><ele>118.0</ele><time>2026-04-08T22:10:41.771Z</time></trkpt><trkpt lat="-36.7239575" lon="174.3912058"><ele>118.0</ele><time>2026-04-08T22:10:45.77Z</time></trkpt><trkpt lat="-36.7240305" lon="174.3912185"><ele>118.0</ele><time>2026-04-08T22:10:49.772Z</time></trkpt><trkpt lat="-36.7241163" lon="174.3912066"><ele>117.66666666666667</ele><time>2026-04-08T22:10:52.771Z</time></trkpt><trkpt lat="-36.7241906" lon="174.3911878"><ele>117.33333333333334</ele><time>2026-04-08T22:10:54.771Z</time></trkpt><trkpt lat="-36.7242445" lon="174.3911409"><ele>117.0</ele><time>2026-04-08T22:10:56.772Z</time></trkpt><trkpt lat="-36.7242966" lon="174.3910657"><ele>116.66666666666666</ele><time>2026-04-08T22:10:59.772Z</time></trkpt><trkpt lat="-36.7243353" lon="174.3909855"><ele>116.33333333333333</ele><time>2026-04-08T22:11:03.771Z</time></trkpt><trkpt lat="-36.7243927" lon="174.3909199"><ele>116.0</ele><time>2026-04-08T22:11:06.771Z</time></trkpt><trkpt lat="-36.724446" lon="174.3908478"><ele>115.99999999999999</ele><time>2026-04-08T22:11:08.771Z</time></trkpt><trkpt lat="-36.72451" lon="174.3907762"><ele>116.0</ele><time>2026-04-08T22:11:10.772Z</time></trkpt><trkpt lat="-36.7245852" lon="174.3907066"><ele>116.0</ele><time>2026-04-08T22:11:12.772Z</time></trkpt><trkpt lat="-36.7246505" lon="174.390692"><ele>116.0</ele><time>2026-04-08T22:11:14.771Z</time></trkpt><trkpt lat="-36.7247342" lon="174.3906643"><ele>115.99999999999999</ele><time>2026-04-08T22:11:17.772Z</time></trkpt><trkpt lat="-36.7248096" lon="174.3906806"><ele>116.0</ele><time>2026-04-08T22:11:20.772Z</time></trkpt><trkpt lat="-36.7248312" lon="174.3907657"><ele>115.99999999999999</ele><time>2026-04-08T22:11:23.772Z</time></trkpt><trkpt lat="-36.7248187" lon="174.3908598"><ele>116.0</ele><time>2026-04-08T22:11:26.772Z</time></trkpt><trkpt lat="-36.7247916" lon="174.3909785"><ele>116.0</ele><time>2026-04-08T22:11:29.772Z</time></trkpt><trkpt lat="-36.7247233" lon="174.3910279"><ele>116.0</ele><time>2026-04-08T22:11:31.771Z</time></trkpt><trkpt lat="-36.7246607" lon="174.3910398"><ele>115.99999999999999</ele><time>2026-04-08T22:11:33.772Z</time></trkpt><trkpt lat="-36.7245786" lon="174.3910489"><ele>116.0</ele><time>2026-04-08T22:11:35.771Z</time></trkpt><trkpt lat="-36.7244986" lon="174.3910713"><ele>115.99999999999999</ele><time>2026-04-08T22:11:37.772Z</time></trkpt><trkpt lat="-36.7244188" lon="174.3911182"><ele>116.0</ele><time>2026-04-08T22:11:40.771Z</time></trkpt><trkpt lat="-36.7243717" lon="174.3911901"><ele>116.0</ele><time>2026-04-08T22:11:44.772Z</time></trkpt><trkpt lat="-36.7242907" lon="174.3912281"><ele>116.0</ele><time>2026-04-08T22:11:47.773Z</time></trkpt><trkpt lat="-36.7242486" lon="174.3913157"><ele>115.99999999999999</ele><time>2026-04-08T22:11:50.772Z</time></trkpt><trkpt lat="-36.7242627" lon="174.3914111"><ele>116.0</ele><time>2026-04-08T22:11:52.772Z</time></trkpt><trkpt lat="-36.7242976" lon="174.3914943"><ele>116.33333333333333</ele><time>2026-04-08T22:11:53.771Z</time></trkpt><trkpt lat="-36.7243197" lon="174.3915838"><ele>116.66666666666666</ele><time>2026-04-08T22:11:55.773Z</time></trkpt><trkpt lat="-36.7243476" lon="174.3916898"><ele>117.0</ele><time>2026-04-08T22:11:57.77Z</time></trkpt><trkpt lat="-36.7243324" lon="174.3918031"><ele>117.33333333333334</ele><time>2026-04-08T22:11:59.77Z</time></trkpt><trkpt lat="-36.7243033" lon="174.3918748"><ele>117.66666666666667</ele><time>2026-04-08T22:12:01.772Z</time></trkpt><trkpt lat="-36.7242247" lon="174.3919346"><ele>118.0</ele><time>2026-04-08T22:12:03.771Z</time></trkpt><trkpt lat="-36.724141" lon="174.3919923"><ele>118.00000000000001</ele><time>2026-04-08T22:12:05.772Z</time></trkpt><trkpt lat="-36.7241" lon="174.3920909"><ele>118.0</ele><time>2026-04-08T22:12:08.772Z</time></trkpt><trkpt lat="-36.7241742" lon="174.3921145"><ele>118.0</ele><time>2026-04-08T22:12:11.772Z</time></trkpt><trkpt lat="-36.724248" lon="174.3920717"><ele>118.0</ele><time>2026-04-08T22:12:12.773Z</time></trkpt><trkpt lat="-36.7243009" lon="174.3920071"><ele>118.00000000000001</ele><time>2026-04-08T22:12:15.771Z</time></trkpt><trkpt lat="-36.724349" lon="174.3919218"><ele>118.0</ele><time>2026-04-08T22:12:19.772Z</time></trkpt><trkpt lat="-36.7243913" lon="174.3918117"><ele>117.66666666666667</ele><time>2026-04-08T22:12:22.772Z</time></trkpt><trkpt lat="-36.724457" lon="174.391723"><ele>117.33333333333334</ele><time>2026-04-08T22:12:24.771Z</time></trkpt><trkpt lat="-36.7245227" lon="174.3916536"><ele>117.0</ele><time>2026-04-08T22:12:26.771Z</time></trkpt><trkpt lat="-36.7245756" lon="174.3915797"><ele>116.66666666666666</ele><time>2026-04-08T22:12:28.771Z</time></trkpt><trkpt lat="-36.7246091" lon="174.391495"><ele>116.33333333333333</ele><time>2026-04-08T22:12:30.771Z</time></trkpt><trkpt lat="-36.7246303" lon="174.3913969"><ele>116.0</ele><time>2026-04-08T22:12:33.77Z</time></trkpt><trkpt lat="-36.7247138" lon="174.3913257"><ele>115.99999999999999</ele><time>2026-04-08T22:12:36.77Z</time></trkpt><trkpt lat="-36.7247885" lon="174.3912687"><ele>116.0</ele><time>2026-04-08T22:12:39.771Z</time></trkpt><trkpt lat="-36.7248468" lon="174.391216"><ele>116.0</ele><time>2026-04-08T22:12:42.771Z</time></trkpt><trkpt lat="-36.7249232" lon="174.3911461"><ele>116.0</ele><time>2026-04-08T22:12:45.772Z</time></trkpt><trkpt lat="-36.7250079" lon="174.3911737"><ele>115.99999999999999</ele><time>2026-04-08T22:12:48.771Z</time></trkpt><trkpt lat="-36.7250749" lon="174.3911805"><ele>116.0</ele><time>2026-04-08T22:12:50.771Z</time></trkpt><trkpt lat="-36.7251412" lon="174.3910639"><ele>112.4</ele><time>2026-04-08T22:12:52.771Z</time></trkpt><trkpt lat="-36.7252326" lon="174.3909691"><ele>108.8</ele><time>2026-04-08T22:12:54.772Z</time></trkpt><trkpt lat="-36.725313" lon="174.3909614"><ele>105.2</ele><time>2026-04-08T22:12:56.772Z</time></trkpt><trkpt lat="-36.7254127" lon="174.3910173"><ele>101.60000000000001</ele><time>2026-04-08T22:12:58.771Z</time></trkpt><trkpt lat="-36.7254708" lon="174.3910713"><ele>98.0</ele><time>2026-04-08T22:13:00.771Z</time></trkpt><trkpt lat="-36.7255426" lon="174.3911095"><ele>97.99999999999999</ele><time>2026-04-08T22:13:02.77Z</time></trkpt><trkpt lat="-36.7255618" lon="174.3911902"><ele>98.0</ele><time>2026-04-08T22:13:05.772Z</time></trkpt><trkpt lat="-36.7255227" lon="174.3912626"><ele>98.0</ele><time>2026-04-08T22:13:08.771Z</time></trkpt><trkpt lat="-36.7254678" lon="174.3913321"><ele>98.0</ele><time>2026-04-08T22:13:11.773Z</time></trkpt><trkpt lat="-36.7254417" lon="174.3914226"><ele>97.99999999999999</ele><time>2026-04-08T22:13:14.771Z</time></trkpt><trkpt lat="-36.725376" lon="174.3915"><ele>98.0</ele><time>2026-04-08T22:13:17.771Z</time></trkpt><trkpt lat="-36.7252948" lon="174.3915332"><ele>100.2</ele><time>2026-04-08T22:13:18.77Z</time></trkpt><trkpt lat="-36.7252239" lon="174.3916015"><ele>102.4</ele><time>2026-04-08T22:13:19.772Z</time></trkpt><trkpt lat="-36.7251427" lon="174.3916917"><ele>104.60000000000001</ele><time>2026-04-08T22:13:21.772Z</time></trkpt><trkpt lat="-36.7251223" lon="174.3917963"><ele>106.80000000000001</ele><time>2026-04-08T22:13:23.771Z</time></trkpt><trkpt lat="-36.725126" lon="174.3919327"><ele>109.0</ele><time>2026-04-08T22:13:25.771Z</time></trkpt><trkpt lat="-36.7251299" lon="174.3920395"><ele>109.00000000000001</ele><time>2026-04-08T22:13:26.772Z</time></trkpt><trkpt lat="-36.7251347" lon="174.3921247"><ele>109.0</ele><time>2026-04-08T22:13:27.771Z</time></trkpt><trkpt lat="-36.7251723" lon="174.3922452"><ele>109.0</ele><time>2026-04-08T22:13:29.772Z</time></trkpt><trkpt lat="-36.7251315" lon="174.3923415"><ele>109.0</ele><time>2026-04-08T22:13:32.772Z</time></trkpt><trkpt lat="-36.725104" lon="174.3924386"><ele>109.00000000000001</ele><time>2026-04-08T22:13:35.771Z</time></trkpt><trkpt lat="-36.7250888" lon="174.3925322"><ele>109.0</ele><time>2026-04-08T22:13:38.772Z</time></trkpt><trkpt lat="-36.725003" lon="174.3925957"><ele>108.16666666666667</ele><time>2026-04-08T22:13:41.773Z</time></trkpt><trkpt lat="-36.7249301" lon="174.3926429"><ele>107.33333333333334</ele><time>2026-04-08T22:13:43.773Z</time></trkpt><trkpt lat="-36.724836" lon="174.3927092"><ele>106.5</ele><time>2026-04-08T22:13:45.77Z</time></trkpt><trkpt lat="-36.7247267" lon="174.3927335"><ele>105.66666666666666</ele><time>2026-04-08T22:13:46.772Z</time></trkpt><trkpt lat="-36.7246679" lon="174.3927824"><ele>104.83333333333333</ele><time>2026-04-08T22:13:48.773Z</time></trkpt><trkpt lat="-36.7246948" lon="174.3928655"><ele>104.0</ele><time>2026-04-08T22:13:52.771Z</time></trkpt><trkpt lat="-36.7247746" lon="174.3928843"><ele>103.99999999999999</ele><time>2026-04-08T22:13:55.771Z</time></trkpt><trkpt lat="-36.7248388" lon="174.3928534"><ele>104.0</ele><time>2026-04-08T22:13:57.771Z</time></trkpt><trkpt lat="-36.724919" lon="174.3928063"><ele>104.0</ele><time>2026-04-08T22:13:59.773Z</time></trkpt><trkpt lat="-36.7249816" lon="174.3927696"><ele>104.0</ele><time>2026-04-08T22:14:01.773Z</time></trkpt><trkpt lat="-36.7250513" lon="174.3927235"><ele>103.99999999999999</ele><time>2026-04-08T22:14:03.772Z</time></trkpt><trkpt lat="-36.725115" lon="174.3926893"><ele>104.0</ele><time>2026-04-08T22:14:05.772Z</time></trkpt><trkpt lat="-36.7251982" lon="174.3926717"><ele>103.83333333333333</ele><time>2026-04-08T22:14:08.772Z</time></trkpt><trkpt lat="-36.7252827" lon="174.3927056"><ele>103.66666666666666</ele><time>2026-04-08T22:14:10.772Z</time></trkpt><trkpt lat="-36.7253637" lon="174.3927297"><ele>103.5</ele><time>2026-04-08T22:14:12.772Z</time></trkpt><trkpt lat="-36.725416" lon="174.3927797"><ele>103.33333333333334</ele><time>2026-04-08T22:14:14.771Z</time></trkpt><trkpt lat="-36.7254634" lon="174.3928625"><ele>103.16666666666667</ele><time>2026-04-08T22:14:16.772Z</time></trkpt><trkpt lat="-36.7255077" lon="174.3929306"><ele>103.0</ele><time>2026-04-08T22:14:18.772Z</time></trkpt><trkpt lat="-36.7255465" lon="174.3930248"><ele>103.00000000000001</ele><time>2026-04-08T22:14:21.771Z</time></trkpt><trkpt lat="-36.725617" lon="174.3930109"><ele>103.0</ele><time>2026-04-08T22:14:27.772Z</time></trkpt><trkpt lat="-36.725653" lon="174.3928903"><ele>103.0</ele><time>2026-04-08T22:14:29.772Z</time></trkpt><trkpt lat="-36.7256699" lon="174.3927825"><ele>103.0</ele><time>2026-04-08T22:14:31.772Z</time></trkpt><trkpt lat="-36.725697" lon="174.3926917"><ele>103.00000000000001</ele><time>2026-04-08T22:14:34.772Z</time></trkpt><trkpt lat="-36.7257384" lon="174.3925985"><ele>103.0</ele><time>2026-04-08T22:14:36.771Z</time></trkpt><trkpt lat="-36.7257514" lon="174.3925152"><ele>102.50000000000001</ele><time>2026-04-08T22:14:38.771Z</time></trkpt><trkpt lat="-36.7257458" lon="174.3924308"><ele>102.0</ele><time>2026-04-08T22:14:41.771Z</time></trkpt><trkpt lat="-36.7257514" lon="174.3923247"><ele>101.5</ele><time>2026-04-08T22:14:44.771Z</time></trkpt><trkpt lat="-36.725802" lon="174.3922467"><ele>101.0</ele><time>2026-04-08T22:14:46.771Z</time></trkpt><trkpt lat="-36.7258618" lon="174.3922081"><ele>100.50000000000001</ele><time>2026-04-08T22:14:47.773Z</time></trkpt><trkpt lat="-36.7259426" lon="174.3921371"><ele>100.0</ele><time>2026-04-08T22:14:49.772Z</time></trkpt><trkpt lat="-36.7260054" lon="174.3920503"><ele>97.16666666666667</ele><time>2026-04-08T22:14:51.772Z</time></trkpt><trkpt lat="-36.7260796" lon="174.3919752"><ele>94.33333333333334</ele><time>2026-04-08T22:14:54.772Z</time></trkpt><trkpt lat="-36.7261291" lon="174.3919107"><ele>91.5</ele><time>2026-04-08T22:14:56.772Z</time></trkpt><trkpt lat="-36.7261754" lon="174.3918572"><ele>88.66666666666667</ele><time>2026-04-08T22:14:58.773Z</time></trkpt><trkpt lat="-36.7262298" lon="174.3917543"><ele>85.83333333333334</ele><time>2026-04-08T22:15:01.772Z</time></trkpt><trkpt lat="-36.7262596" lon="174.3916476"><ele>83.0</ele><time>2026-04-08T22:15:03.771Z</time></trkpt><trkpt lat="-36.7262938" lon="174.3915769"><ele>83.0</ele><time>2026-04-08T22:15:06.77Z</time></trkpt><trkpt lat="-36.7263284" lon="174.3914779"><ele>83.0</ele><time>2026-04-08T22:15:09.771Z</time></trkpt><trkpt lat="-36.7263485" lon="174.3913997"><ele>83.0</ele><time>2026-04-08T22:15:11.771Z</time></trkpt><trkpt lat="-36.7263598" lon="174.3912896"><ele>83.0</ele><time>2026-04-08T22:15:13.772Z</time></trkpt><trkpt lat="-36.7263592" lon="174.3912069"><ele>83.0</ele><time>2026-04-08T22:15:15.772Z</time></trkpt><trkpt lat="-36.7263484" lon="174.3910939"><ele>83.0</ele><time>2026-04-08T22:15:18.773Z</time></trkpt><trkpt lat="-36.7263034" lon="174.3910133"><ele>81.60000000000001</ele><time>2026-04-08T22:15:20.772Z</time></trkpt><trkpt lat="-36.7262345" lon="174.3909116"><ele>80.2</ele><time>2026-04-08T22:15:23.772Z</time></trkpt><trkpt lat="-36.726252" lon="174.3908051"><ele>78.8</ele><time>2026-04-08T22:15:25.77Z</time></trkpt><trkpt lat="-36.7262478" lon="174.3906997"><ele>77.4</ele><time>2026-04-08T22:15:27.771Z</time></trkpt><trkpt lat="-36.726263" lon="174.390594"><ele>76.0</ele><time>2026-04-08T22:15:30.771Z</time></trkpt><trkpt lat="-36.726344" lon="174.3905265"><ele>73.2</ele><time>2026-04-08T22:15:33.772Z</time></trkpt><trkpt lat="-36.7264409" lon="174.3904896"><ele>70.39999999999999</ele><time>2026-04-08T22:15:35.771Z</time></trkpt><trkpt lat="-36.7265411" lon="174.3905017"><ele>67.6</ele><time>2026-04-08T22:15:37.771Z</time></trkpt><trkpt lat="-36.7266496" lon="174.3905021"><ele>64.8</ele><time>2026-04-08T22:15:39.772Z</time></trkpt><trkpt lat="-36.726702" lon="174.3904294"><ele>62.0</ele><time>2026-04-08T22:15:41.77Z</time></trkpt><trkpt lat="-36.7267665" lon="174.3903975"><ele>62.0</ele><time>2026-04-08T22:15:43.77Z</time></trkpt><trkpt lat="-36.7268825" lon="174.3903609"><ele>62.0</ele><time>2026-04-08T22:15:46.771Z</time></trkpt><trkpt lat="-36.7269529" lon="174.3903365"><ele>62.0</ele><time>2026-04-08T22:15:48.771Z</time></trkpt><trkpt lat="-36.7270462" lon="174.3903765"><ele>62.0</ele><time>2026-04-08T22:15:50.772Z</time></trkpt><trkpt lat="-36.7271117" lon="174.3903829"><ele>62.0</ele><time>2026-04-08T22:15:51.771Z</time></trkpt><trkpt lat="-36.7272138" lon="174.3904291"><ele>59.50000000000001</ele><time>2026-04-08T22:15:53.772Z</time></trkpt><trkpt lat="-36.7272931" lon="174.3904681"><ele>57.0</ele><time>2026-04-08T22:15:55.77Z</time></trkpt><trkpt lat="-36.7273647" lon="174.3904515"><ele>54.5</ele><time>2026-04-08T22:15:57.771Z</time></trkpt><trkpt lat="-36.7274401" lon="174.3904085"><ele>52.0</ele><time>2026-04-08T22:16:00.77Z</time></trkpt><trkpt lat="-36.7275262" lon="174.3903505"><ele>49.5</ele><time>2026-04-08T22:16:03.772Z</time></trkpt><trkpt lat="-36.7275982" lon="174.3903135"><ele>47.0</ele><time>2026-04-08T22:16:05.772Z</time></trkpt><trkpt lat="-36.7276836" lon="174.390288"><ele>45.83333333333333</ele><time>2026-04-08T22:16:07.772Z</time></trkpt><trkpt lat="-36.7277598" lon="174.390253"><ele>44.666666666666664</ele><time>2026-04-08T22:16:09.771Z</time></trkpt><trkpt lat="-36.7278304" lon="174.3902022"><ele>43.5</ele><time>2026-04-08T22:16:11.772Z</time></trkpt><trkpt lat="-36.7278912" lon="174.3901328"><ele>42.333333333333336</ele><time>2026-04-08T22:16:13.771Z</time></trkpt><trkpt lat="-36.7279528" lon="174.390067"><ele>41.16666666666667</ele><time>2026-04-08T22:16:15.772Z</time></trkpt><trkpt lat="-36.7280259" lon="174.3900403"><ele>40.0</ele><time>2026-04-08T22:16:17.77Z</time></trkpt><trkpt lat="-36.7280938" lon="174.3899898"><ele>40.0</ele><time>2026-04-08T22:16:19.771Z</time></trkpt><trkpt lat="-36.7281222" lon="174.3898907"><ele>40.0</ele><time>2026-04-08T22:16:21.772Z</time></trkpt><trkpt lat="-36.7281204" lon="174.3897828"><ele>40.0</ele><time>2026-04-08T22:16:23.771Z</time></trkpt><trkpt lat="-36.7280806" lon="174.3896917"><ele>40.0</ele><time>2026-04-08T22:16:25.771Z</time></trkpt><trkpt lat="-36.7280489" lon="174.3896237"><ele>40.0</ele><time>2026-04-08T22:16:26.772Z</time></trkpt><trkpt lat="-36.7279989" lon="174.3895269"><ele>40.0</ele><time>2026-04-08T22:16:28.771Z</time></trkpt><trkpt lat="-36.7279335" lon="174.3893827"><ele>38.0</ele><time>2026-04-08T22:16:30.771Z</time></trkpt><trkpt lat="-36.7278904" lon="174.3893102"><ele>36.0</ele><time>2026-04-08T22:16:31.771Z</time></trkpt><trkpt lat="-36.7278613" lon="174.3892354"><ele>34.0</ele><time>2026-04-08T22:16:32.771Z</time></trkpt><trkpt lat="-36.7278555" lon="174.3891544"><ele>32.0</ele><time>2026-04-08T22:16:34.77Z</time></trkpt><trkpt lat="-36.7279264" lon="174.3891239"><ele>30.000000000000004</ele><time>2026-04-08T22:16:36.772Z</time></trkpt><trkpt lat="-36.7280222" lon="174.3890535"><ele>28.0</ele><time>2026-04-08T22:16:38.772Z</time></trkpt><trkpt lat="-36.7281068" lon="174.3890301"><ele>28.0</ele><time>2026-04-08T22:16:40.772Z</time></trkpt><trkpt lat="-36.728174" lon="174.3889931"><ele>27.999999999999996</ele><time>2026-04-08T22:16:43.772Z</time></trkpt><trkpt lat="-36.7282834" lon="174.3889514"><ele>27.999999999999996</ele><time>2026-04-08T22:16:45.772Z</time></trkpt><trkpt lat="-36.7283857" lon="174.3888923"><ele>28.0</ele><time>2026-04-08T22:16:47.771Z</time></trkpt><trkpt lat="-36.7284622" lon="174.388799"><ele>28.0</ele><time>2026-04-08T22:16:49.77Z</time></trkpt><trkpt lat="-36.7284957" lon="174.3887297"><ele>26.833333333333336</ele><time>2026-04-08T22:16:50.771Z</time></trkpt><trkpt lat="-36.728581" lon="174.3886537"><ele>25.666666666666668</ele><time>2026-04-08T22:16:52.771Z</time></trkpt><trkpt lat="-36.7286646" lon="174.3886345"><ele>24.5</ele><time>2026-04-08T22:16:54.773Z</time></trkpt><trkpt lat="-36.728747" lon="174.3887148"><ele>23.333333333333336</ele><time>2026-04-08T22:16:56.772Z</time></trkpt><trkpt lat="-36.7288174" lon="174.3887686"><ele>22.166666666666668</ele><time>2026-04-08T22:16:59.772Z</time></trkpt><trkpt lat="-36.7288843" lon="174.3887638"><ele>21.0</ele><time>2026-04-08T22:17:02.773Z</time></trkpt><trkpt lat="-36.7289571" lon="174.3887571"><ele>21.0</ele><time>2026-04-08T22:17:05.771Z</time></trkpt><trkpt lat="-36.7290172" lon="174.3887971"><ele>21.0</ele><time>2026-04-08T22:17:08.77Z</time></trkpt><trkpt lat="-36.729089" lon="174.3888148"><ele>21.0</ele><time>2026-04-08T22:17:12.773Z</time></trkpt><trkpt lat="-36.7291515" lon="174.3887708"><ele>21.0</ele><time>2026-04-08T22:17:15.77Z</time></trkpt><trkpt lat="-36.7292152" lon="174.3887511"><ele>21.0</ele><time>2026-04-08T22:17:18.771Z</time></trkpt><trkpt lat="-36.7293073" lon="174.3887078"><ele>21.0</ele><time>2026-04-08T22:17:20.772Z</time></trkpt><trkpt lat="-36.7293756" lon="174.3886905"><ele>21.0</ele><time>2026-04-08T22:17:22.771Z</time></trkpt><trkpt lat="-36.7294401" lon="174.388674"><ele>21.428571428571427</ele><time>2026-04-08T22:17:24.771Z</time></trkpt><trkpt lat="-36.7295106" lon="174.3886764"><ele>21.857142857142858</ele><time>2026-04-08T22:17:26.772Z</time></trkpt><trkpt lat="-36.7295788" lon="174.3887114"><ele>22.285714285714285</ele><time>2026-04-08T22:17:28.772Z</time></trkpt><trkpt lat="-36.7296415" lon="174.3886966"><ele>22.714285714285715</ele><time>2026-04-08T22:17:30.771Z</time></trkpt><trkpt lat="-36.7297157" lon="174.3886672"><ele>23.142857142857142</ele><time>2026-04-08T22:17:33.772Z</time></trkpt><trkpt lat="-36.7297922" lon="174.388711"><ele>23.57142857142857</ele><time>2026-04-08T22:17:36.771Z</time></trkpt><trkpt lat="-36.729853" lon="174.3887464"><ele>24.0</ele><time>2026-04-08T22:17:38.77Z</time></trkpt><trkpt lat="-36.7299211" lon="174.3887928"><ele>23.799999999999997</ele><time>2026-04-08T22:17:40.771Z</time></trkpt><trkpt lat="-36.7299939" lon="174.3888467"><ele>23.599999999999998</ele><time>2026-04-08T22:17:42.772Z</time></trkpt><trkpt lat="-36.7300754" lon="174.388901"><ele>23.4</ele><time>2026-04-08T22:17:44.772Z</time></trkpt><trkpt lat="-36.7301466" lon="174.3889475"><ele>23.2</ele><time>2026-04-08T22:17:46.772Z</time></trkpt><trkpt lat="-36.7302551" lon="174.3890079"><ele>23.0</ele><time>2026-04-08T22:17:48.773Z</time></trkpt><trkpt lat="-36.7303664" lon="174.3890506"><ele>23.333333333333336</ele><time>2026-04-08T22:17:50.771Z</time></trkpt><trkpt lat="-36.7304712" lon="174.3891084"><ele>23.666666666666668</ele><time>2026-04-08T22:17:52.773Z</time></trkpt><trkpt lat="-36.7305144" lon="174.3891992"><ele>24.0</ele><time>2026-04-08T22:17:54.772Z</time></trkpt><trkpt lat="-36.7305724" lon="174.3892381"><ele>24.333333333333336</ele><time>2026-04-08T22:17:56.772Z</time></trkpt><trkpt lat="-36.7306716" lon="174.3892488"><ele>24.666666666666668</ele><time>2026-04-08T22:17:59.771Z</time></trkpt><trkpt lat="-36.7307407" lon="174.389284"><ele>25.0</ele><time>2026-04-08T22:18:01.772Z</time></trkpt><trkpt lat="-36.7308302" lon="174.3893278"><ele>25.000000000000004</ele><time>2026-04-08T22:18:03.77Z</time></trkpt><trkpt lat="-36.7309182" lon="174.3893827"><ele>25.0</ele><time>2026-04-08T22:18:05.772Z</time></trkpt><trkpt lat="-36.7310084" lon="174.3894198"><ele>25.0</ele><time>2026-04-08T22:18:07.771Z</time></trkpt><trkpt lat="-36.7310764" lon="174.3894541"><ele>25.0</ele><time>2026-04-08T22:18:09.77Z</time></trkpt><trkpt lat="-36.731144" lon="174.3894904"><ele>25.000000000000004</ele><time>2026-04-08T22:18:11.771Z</time></trkpt><trkpt lat="-36.7312178" lon="174.3895271"><ele>25.0</ele><time>2026-04-08T22:18:13.771Z</time></trkpt><trkpt lat="-36.7312916" lon="174.3895754"><ele>25.166666666666668</ele><time>2026-04-08T22:18:15.771Z</time></trkpt><trkpt lat="-36.7313673" lon="174.3896155"><ele>25.333333333333336</ele><time>2026-04-08T22:18:17.771Z</time></trkpt><trkpt lat="-36.7314589" lon="174.3896626"><ele>25.5</ele><time>2026-04-08T22:18:19.771Z</time></trkpt><trkpt lat="-36.7315274" lon="174.3897054"><ele>25.666666666666664</ele><time>2026-04-08T22:18:21.771Z</time></trkpt><trkpt lat="-36.7315806" lon="174.3897638"><ele>25.833333333333332</ele><time>2026-04-08T22:18:23.771Z</time></trkpt><trkpt lat="-36.7316505" lon="174.389812"><ele>26.0</ele><time>2026-04-08T22:18:25.771Z</time></trkpt><trkpt lat="-36.7317226" lon="174.3898563"><ele>25.833333333333332</ele><time>2026-04-08T22:18:27.771Z</time></trkpt><trkpt lat="-36.731813" lon="174.3898994"><ele>25.666666666666664</ele><time>2026-04-08T22:18:29.77Z</time></trkpt><trkpt lat="-36.73188" lon="174.389942"><ele>25.5</ele><time>2026-04-08T22:18:31.771Z</time></trkpt><trkpt lat="-36.7319354" lon="174.390034"><ele>25.333333333333336</ele><time>2026-04-08T22:18:33.77Z</time></trkpt><trkpt lat="-36.7319894" lon="174.3901093"><ele>25.166666666666668</ele><time>2026-04-08T22:18:35.772Z</time></trkpt><trkpt lat="-36.7320701" lon="174.3901715"><ele>25.0</ele><time>2026-04-08T22:18:37.771Z</time></trkpt><trkpt lat="-36.7321337" lon="174.3902256"><ele>25.000000000000004</ele><time>2026-04-08T22:18:39.77Z</time></trkpt><trkpt lat="-36.7322067" lon="174.3902681"><ele>25.0</ele><time>2026-04-08T22:18:41.771Z</time></trkpt><trkpt lat="-36.732273" lon="174.3903233"><ele>25.0</ele><time>2026-04-08T22:18:43.77Z</time></trkpt><trkpt lat="-36.7323286" lon="174.3903811"><ele>25.0</ele><time>2026-04-08T22:18:45.771Z</time></trkpt><trkpt lat="-36.7323951" lon="174.3904684"><ele>25.000000000000004</ele><time>2026-04-08T22:18:48.772Z</time></trkpt><trkpt lat="-36.7324505" lon="174.3905122"><ele>25.0</ele><time>2026-04-08T22:18:50.773Z</time></trkpt><trkpt lat="-36.7325212" lon="174.3905591"><ele>24.833333333333336</ele><time>2026-04-08T22:18:52.772Z</time></trkpt><trkpt lat="-36.732558" lon="174.3906352"><ele>24.666666666666668</ele><time>2026-04-08T22:18:54.772Z</time></trkpt><trkpt lat="-36.7325797" lon="174.3907512"><ele>24.5</ele><time>2026-04-08T22:18:56.771Z</time></trkpt><trkpt lat="-36.7326111" lon="174.3908247"><ele>24.333333333333336</ele><time>2026-04-08T22:18:58.771Z</time></trkpt><trkpt lat="-36.7326896" lon="174.3908222"><ele>24.166666666666668</ele><time>2026-04-08T22:19:01.77Z</time></trkpt><trkpt lat="-36.7327777" lon="174.3908449"><ele>24.0</ele><time>2026-04-08T22:19:04.771Z</time></trkpt><trkpt lat="-36.7328373" lon="174.3909"><ele>24.6</ele><time>2026-04-08T22:19:06.771Z</time></trkpt><trkpt lat="-36.7329241" lon="174.390949"><ele>25.2</ele><time>2026-04-08T22:19:08.771Z</time></trkpt><trkpt lat="-36.7330121" lon="174.3910192"><ele>25.800000000000004</ele><time>2026-04-08T22:19:10.772Z</time></trkpt><trkpt lat="-36.7330845" lon="174.3910998"><ele>26.400000000000002</ele><time>2026-04-08T22:19:12.772Z</time></trkpt><trkpt lat="-36.7331608" lon="174.3911828"><ele>27.0</ele><time>2026-04-08T22:19:14.772Z</time></trkpt><trkpt lat="-36.7332413" lon="174.3912636"><ele>26.333333333333332</ele><time>2026-04-08T22:19:16.771Z</time></trkpt><trkpt lat="-36.7332869" lon="174.391377"><ele>25.666666666666668</ele><time>2026-04-08T22:19:18.771Z</time></trkpt><trkpt lat="-36.7333434" lon="174.3914495"><ele>25.0</ele><time>2026-04-08T22:19:20.772Z</time></trkpt><trkpt lat="-36.7333665" lon="174.3915434"><ele>24.333333333333336</ele><time>2026-04-08T22:19:22.772Z</time></trkpt><trkpt lat="-36.7333757" lon="174.3916334"><ele>23.666666666666668</ele><time>2026-04-08T22:19:24.771Z</time></trkpt><trkpt lat="-36.73339" lon="174.3917441"><ele>23.0</ele><time>2026-04-08T22:19:27.77Z</time></trkpt><trkpt lat="-36.7334563" lon="174.3918124"><ele>23.0</ele><time>2026-04-08T22:19:30.772Z</time></trkpt><trkpt lat="-36.7335107" lon="174.3918675"><ele>23.0</ele><time>2026-04-08T22:19:32.771Z</time></trkpt><trkpt lat="-36.7336019" lon="174.3919021"><ele>23.0</ele><time>2026-04-08T22:19:34.771Z</time></trkpt><trkpt lat="-36.7336889" lon="174.3919196"><ele>23.0</ele><time>2026-04-08T22:19:36.773Z</time></trkpt><trkpt lat="-36.7337812" lon="174.3919756"><ele>23.0</ele><time>2026-04-08T22:19:38.771Z</time></trkpt><trkpt lat="-36.7338692" lon="174.392005"><ele>23.0</ele><time>2026-04-08T22:19:40.772Z</time></trkpt><trkpt lat="-36.7339326" lon="174.3920124"><ele>23.333333333333336</ele><time>2026-04-08T22:19:42.771Z</time></trkpt><trkpt lat="-36.7340106" lon="174.3920331"><ele>23.666666666666668</ele><time>2026-04-08T22:19:45.77Z</time></trkpt><trkpt lat="-36.7340719" lon="174.3920628"><ele>24.0</ele><time>2026-04-08T22:19:47.772Z</time></trkpt><trkpt lat="-36.7341517" lon="174.3921203"><ele>24.333333333333336</ele><time>2026-04-08T22:19:49.772Z</time></trkpt><trkpt lat="-36.7342438" lon="174.3921997"><ele>24.666666666666668</ele><time>2026-04-08T22:19:51.771Z</time></trkpt><trkpt lat="-36.7343125" lon="174.3922612"><ele>25.0</ele><time>2026-04-08T22:19:53.77Z</time></trkpt><trkpt lat="-36.7343655" lon="174.3923107"><ele>25.833333333333336</ele><time>2026-04-08T22:19:55.77Z</time></trkpt><trkpt lat="-36.7344079" lon="174.3923733"><ele>26.666666666666668</ele><time>2026-04-08T22:19:57.773Z</time></trkpt><trkpt lat="-36.7344717" lon="174.3924465"><ele>27.5</ele><time>2026-04-08T22:19:59.772Z</time></trkpt><trkpt lat="-36.73452" lon="174.3925136"><ele>28.333333333333336</ele><time>2026-04-08T22:20:02.773Z</time></trkpt><trkpt lat="-36.7345584" lon="174.3926057"><ele>29.166666666666668</ele><time>2026-04-08T22:20:05.771Z</time></trkpt><trkpt lat="-36.7346338" lon="174.392659"><ele>30.0</ele><time>2026-04-08T22:20:08.77Z</time></trkpt><trkpt lat="-36.7346911" lon="174.3926989"><ele>30.0</ele><time>2026-04-08T22:20:10.772Z</time></trkpt><trkpt lat="-36.7347566" lon="174.3927604"><ele>30.0</ele><time>2026-04-08T22:20:13.772Z</time></trkpt><trkpt lat="-36.7348174" lon="174.3928548"><ele>30.0</ele><time>2026-04-08T22:20:16.771Z</time></trkpt><trkpt lat="-36.7348581" lon="174.3929392"><ele>30.0</ele><time>2026-04-08T22:20:18.772Z</time></trkpt><trkpt lat="-36.734889" lon="174.393043"><ele>30.0</ele><time>2026-04-08T22:20:21.77Z</time></trkpt><trkpt lat="-36.7349399" lon="174.3931187"><ele>30.0</ele><time>2026-04-08T22:20:24.771Z</time></trkpt><trkpt lat="-36.7350459" lon="174.3931462"><ele>30.333333333333332</ele><time>2026-04-08T22:20:26.772Z</time></trkpt><trkpt lat="-36.7351191" lon="174.3931452"><ele>30.666666666666664</ele><time>2026-04-08T22:20:29.772Z</time></trkpt><trkpt lat="-36.7351979" lon="174.3931401"><ele>31.0</ele><time>2026-04-08T22:20:31.773Z</time></trkpt><trkpt lat="-36.7352749" lon="174.3931561"><ele>31.333333333333332</ele><time>2026-04-08T22:20:33.773Z</time></trkpt><trkpt lat="-36.7353588" lon="174.3931524"><ele>31.666666666666664</ele><time>2026-04-08T22:20:35.773Z</time></trkpt><trkpt lat="-36.7354435" lon="174.3931362"><ele>32.0</ele><time>2026-04-08T22:20:37.772Z</time></trkpt><trkpt lat="-36.7355128" lon="174.3931101"><ele>31.999999999999996</ele><time>2026-04-08T22:20:39.771Z</time></trkpt><trkpt lat="-36.7355759" lon="174.3930574"><ele>32.0</ele><time>2026-04-08T22:20:41.772Z</time></trkpt><trkpt lat="-36.735687" lon="174.3930202"><ele>32.0</ele><time>2026-04-08T22:20:44.771Z</time></trkpt><trkpt lat="-36.7357757" lon="174.3930246"><ele>32.0</ele><time>2026-04-08T22:20:46.77Z</time></trkpt><trkpt lat="-36.7358559" lon="174.3930805"><ele>31.999999999999996</ele><time>2026-04-08T22:20:48.772Z</time></trkpt><trkpt lat="-36.7358551" lon="174.3931739"><ele>32.0</ele><time>2026-04-08T22:20:51.771Z</time></trkpt><trkpt lat="-36.7358329" lon="174.3932714"><ele>32.0</ele><time>2026-04-08T22:20:54.77Z</time></trkpt><trkpt lat="-36.7358233" lon="174.3933779"><ele>31.999999999999996</ele><time>2026-04-08T22:20:57.771Z</time></trkpt><trkpt lat="-36.7357994" lon="174.3934546"><ele>32.0</ele><time>2026-04-08T22:21:00.772Z</time></trkpt><trkpt lat="-36.735794" lon="174.3935451"><ele>32.0</ele><time>2026-04-08T22:21:03.773Z</time></trkpt><trkpt lat="-36.735808" lon="174.3936223"><ele>31.999999999999996</ele><time>2026-04-08T22:21:06.773Z</time></trkpt><trkpt lat="-36.7357514" lon="174.393685"><ele>32.0</ele><time>2026-04-08T22:21:11.772Z</time></trkpt><trkpt lat="-36.7356803" lon="174.3936273"><ele>32.0</ele><time>2026-04-08T22:21:14.77Z</time></trkpt><trkpt lat="-36.7356261" lon="174.3935798"><ele>31.999999999999996</ele><time>2026-04-08T22:21:16.77Z</time></trkpt><trkpt lat="-36.7356035" lon="174.3934742"><ele>32.0</ele><time>2026-04-08T22:21:20.77Z</time></trkpt><trkpt lat="-36.735541" lon="174.393436"><ele>32.0</ele><time>2026-04-08T22:21:23.771Z</time></trkpt><trkpt lat="-36.7354863" lon="174.3935114"><ele>32.0</ele><time>2026-04-08T22:21:26.771Z</time></trkpt><trkpt lat="-36.735485" lon="174.3936117"><ele>31.999999999999996</ele><time>2026-04-08T22:21:30.77Z</time></trkpt><trkpt lat="-36.7355214" lon="174.3936992"><ele>32.0</ele><time>2026-04-08T22:21:33.771Z</time></trkpt><trkpt lat="-36.7355291" lon="174.3937825"><ele>33.0</ele><time>2026-04-08T22:21:35.772Z</time></trkpt><trkpt lat="-36.7355236" lon="174.393893"><ele>34.0</ele><time>2026-04-08T22:21:38.772Z</time></trkpt><trkpt lat="-36.7354857" lon="174.3939652"><ele>35.0</ele><time>2026-04-08T22:21:40.771Z</time></trkpt><trkpt lat="-36.7354704" lon="174.3940471"><ele>36.0</ele><time>2026-04-08T22:21:43.771Z</time></trkpt><trkpt lat="-36.7354857" lon="174.3941357"><ele>37.0</ele><time>2026-04-08T22:21:46.771Z</time></trkpt><trkpt lat="-36.7355633" lon="174.3941493"><ele>38.0</ele><time>2026-04-08T22:21:49.772Z</time></trkpt><trkpt lat="-36.7356122" lon="174.3940589"><ele>38.0</ele><time>2026-04-08T22:21:52.77Z</time></trkpt><trkpt lat="-36.7356597" lon="174.3939722"><ele>38.0</ele><time>2026-04-08T22:21:54.771Z</time></trkpt><trkpt lat="-36.7357274" lon="174.3939265"><ele>38.0</ele><time>2026-04-08T22:21:56.771Z</time></trkpt><trkpt lat="-36.7357916" lon="174.3938996"><ele>38.0</ele><time>2026-04-08T22:21:58.771Z</time></trkpt><trkpt lat="-36.7358421" lon="174.3938009"><ele>38.0</ele><time>2026-04-08T22:22:01.77Z</time></trkpt><trkpt lat="-36.7358573" lon="174.393722"><ele>38.0</ele><time>2026-04-08T22:22:03.771Z</time></trkpt><trkpt lat="-36.7359086" lon="174.3936357"><ele>37.0</ele><time>2026-04-08T22:22:05.771Z</time></trkpt><trkpt lat="-36.7359633" lon="174.3935631"><ele>36.0</ele><time>2026-04-08T22:22:06.771Z</time></trkpt><trkpt lat="-36.7360211" lon="174.3935285"><ele>35.0</ele><time>2026-04-08T22:22:07.772Z</time></trkpt><trkpt lat="-36.7360916" lon="174.3934957"><ele>34.0</ele><time>2026-04-08T22:22:08.771Z</time></trkpt><trkpt lat="-36.7361655" lon="174.3934144"><ele>33.0</ele><time>2026-04-08T22:22:10.772Z</time></trkpt><trkpt lat="-36.7362004" lon="174.3933361"><ele>32.0</ele><time>2026-04-08T22:22:12.772Z</time></trkpt><trkpt lat="-36.7362351" lon="174.3932554"><ele>30.999999999999996</ele><time>2026-04-08T22:22:13.771Z</time></trkpt><trkpt lat="-36.7362708" lon="174.3931213"><ele>30.0</ele><time>2026-04-08T22:22:15.771Z</time></trkpt><trkpt lat="-36.7362797" lon="174.3930336"><ele>29.0</ele><time>2026-04-08T22:22:16.772Z</time></trkpt><trkpt lat="-36.7362713" lon="174.3929261"><ele>28.0</ele><time>2026-04-08T22:22:18.772Z</time></trkpt><trkpt lat="-36.7362561" lon="174.3928254"><ele>26.999999999999996</ele><time>2026-04-08T22:22:20.77Z</time></trkpt><trkpt lat="-36.7363027" lon="174.3927293"><ele>26.0</ele><time>2026-04-08T22:22:21.772Z</time></trkpt><trkpt lat="-36.7363354" lon="174.392638"><ele>25.999999999999996</ele><time>2026-04-08T22:22:22.772Z</time></trkpt><trkpt lat="-36.7363952" lon="174.3924939"><ele>26.0</ele><time>2026-04-08T22:22:24.771Z</time></trkpt><trkpt lat="-36.7364829" lon="174.3924606"><ele>26.0</ele><time>2026-04-08T22:22:27.773Z</time></trkpt><trkpt lat="-36.7365521" lon="174.3924419"><ele>26.0</ele><time>2026-04-08T22:22:31.772Z</time></trkpt><trkpt lat="-36.7366116" lon="174.3925037"><ele>25.999999999999996</ele><time>2026-04-08T22:22:33.772Z</time></trkpt><trkpt lat="-36.7366428" lon="174.3925823"><ele>26.0</ele><time>2026-04-08T22:22:35.772Z</time></trkpt><trkpt lat="-36.7366687" lon="174.3926774"><ele>25.999999999999996</ele><time>2026-04-08T22:22:38.772Z</time></trkpt><trkpt lat="-36.7367108" lon="174.3925928"><ele>26.0</ele><time>2026-04-08T22:22:45.771Z</time></trkpt><trkpt lat="-36.7367584" lon="174.3924967"><ele>26.0</ele><time>2026-04-08T22:22:47.771Z</time></trkpt><trkpt lat="-36.7368035" lon="174.3924334"><ele>26.0</ele><time>2026-04-08T22:22:49.772Z</time></trkpt><trkpt lat="-36.7368624" lon="174.3923436"><ele>25.999999999999996</ele><time>2026-04-08T22:22:52.773Z</time></trkpt><trkpt lat="-36.7369095" lon="174.3922672"><ele>26.0</ele><time>2026-04-08T22:22:55.773Z</time></trkpt><trkpt lat="-36.7369587" lon="174.392174"><ele>25.999999999999996</ele><time>2026-04-08T22:22:58.77Z</time></trkpt><trkpt lat="-36.7370302" lon="174.3921325"><ele>26.0</ele><time>2026-04-08T22:23:01.771Z</time></trkpt><trkpt lat="-36.73712" lon="174.3921823"><ele>26.0</ele><time>2026-04-08T22:23:04.77Z</time></trkpt><trkpt lat="-36.7371747" lon="174.3922517"><ele>26.0</ele><time>2026-04-08T22:23:06.771Z</time></trkpt><trkpt lat="-36.7372384" lon="174.3923426"><ele>25.999999999999996</ele><time>2026-04-08T22:23:08.772Z</time></trkpt><trkpt lat="-36.7373168" lon="174.3923821"><ele>26.0</ele><time>2026-04-08T22:23:10.771Z</time></trkpt><trkpt lat="-36.7373814" lon="174.3923443"><ele>25.333333333333332</ele><time>2026-04-08T22:23:11.771Z</time></trkpt><trkpt lat="-36.7374755" lon="174.3923598"><ele>24.666666666666664</ele><time>2026-04-08T22:23:13.77Z</time></trkpt><trkpt lat="-36.7375473" lon="174.3924133"><ele>24.0</ele><time>2026-04-08T22:23:15.772Z</time></trkpt><trkpt lat="-36.7375729" lon="174.3925249"><ele>23.333333333333332</ele><time>2026-04-08T22:23:18.773Z</time></trkpt><trkpt lat="-36.7375921" lon="174.3926067"><ele>22.666666666666664</ele><time>2026-04-08T22:23:20.771Z</time></trkpt><trkpt lat="-36.7376547" lon="174.3926505"><ele>22.0</ele><time>2026-04-08T22:23:22.771Z</time></trkpt><trkpt lat="-36.7377126" lon="174.3927124"><ele>22.166666666666664</ele><time>2026-04-08T22:23:25.771Z</time></trkpt><trkpt lat="-36.7377425" lon="174.3927906"><ele>22.333333333333332</ele><time>2026-04-08T22:23:27.772Z</time></trkpt><trkpt lat="-36.7377917" lon="174.3928404"><ele>22.5</ele><time>2026-04-08T22:23:29.772Z</time></trkpt><trkpt lat="-36.7378592" lon="174.3929208"><ele>22.666666666666668</ele><time>2026-04-08T22:23:32.77Z</time></trkpt><trkpt lat="-36.7379109" lon="174.3929732"><ele>22.833333333333336</ele><time>2026-04-08T22:23:34.771Z</time></trkpt><trkpt lat="-36.7379538" lon="174.3930485"><ele>23.0</ele><time>2026-04-08T22:23:36.771Z</time></trkpt><trkpt lat="-36.7380201" lon="174.3931334"><ele>23.0</ele><time>2026-04-08T22:23:39.771Z</time></trkpt><trkpt lat="-36.7380609" lon="174.3932025"><ele>23.0</ele><time>2026-04-08T22:23:41.771Z</time></trkpt><trkpt lat="-36.7380509" lon="174.3932874"><ele>23.0</ele><time>2026-04-08T22:23:44.77Z</time></trkpt><trkpt lat="-36.7379826" lon="174.3933353"><ele>23.0</ele><time>2026-04-08T22:23:47.771Z</time></trkpt><trkpt lat="-36.7379173" lon="174.3933567"><ele>23.0</ele><time>2026-04-08T22:23:50.772Z</time></trkpt><trkpt lat="-36.7378634" lon="174.3934377"><ele>23.0</ele><time>2026-04-08T22:23:53.772Z</time></trkpt><trkpt lat="-36.7378249" lon="174.393547"><ele>23.0</ele><time>2026-04-08T22:23:56.771Z</time></trkpt><trkpt lat="-36.7378272" lon="174.3936306"><ele>23.0</ele><time>2026-04-08T22:23:58.771Z</time></trkpt><trkpt lat="-36.7378189" lon="174.3937598"><ele>23.0</ele><time>2026-04-08T22:24:01.772Z</time></trkpt><trkpt lat="-36.737825" lon="174.3938567"><ele>23.0</ele><time>2026-04-08T22:24:03.77Z</time></trkpt><trkpt lat="-36.7378532" lon="174.3939303"><ele>23.0</ele><time>2026-04-08T22:24:05.772Z</time></trkpt><trkpt lat="-36.7378697" lon="174.3940118"><ele>23.0</ele><time>2026-04-08T22:24:07.77Z</time></trkpt><trkpt lat="-36.7379346" lon="174.394101"><ele>23.166666666666668</ele><time>2026-04-08T22:24:10.771Z</time></trkpt><trkpt lat="-36.7379872" lon="174.394185"><ele>23.333333333333336</ele><time>2026-04-08T22:24:12.771Z</time></trkpt><trkpt lat="-36.7380253" lon="174.3942751"><ele>23.5</ele><time>2026-04-08T22:24:13.772Z</time></trkpt><trkpt lat="-36.7380819" lon="174.3943461"><ele>23.666666666666668</ele><time>2026-04-08T22:24:15.77Z</time></trkpt><trkpt lat="-36.7381136" lon="174.3944176"><ele>23.833333333333332</ele><time>2026-04-08T22:24:17.771Z</time></trkpt><trkpt lat="-36.7381833" lon="174.3944786"><ele>24.0</ele><time>2026-04-08T22:24:20.772Z</time></trkpt><trkpt lat="-36.7382526" lon="174.3944677"><ele>24.0</ele><time>2026-04-08T22:24:24.77Z</time></trkpt><trkpt lat="-36.7383195" lon="174.3945181"><ele>24.0</ele><time>2026-04-08T22:24:27.77Z</time></trkpt><trkpt lat="-36.738328" lon="174.3946178"><ele>24.0</ele><time>2026-04-08T22:24:30.771Z</time></trkpt><trkpt lat="-36.7382981" lon="174.3946889"><ele>24.0</ele><time>2026-04-08T22:24:33.772Z</time></trkpt><trkpt lat="-36.7382316" lon="174.3947263"><ele>24.0</ele><time>2026-04-08T22:24:37.77Z</time></trkpt><trkpt lat="-36.7381743" lon="174.3947888"><ele>24.0</ele><time>2026-04-08T22:24:40.771Z</time></trkpt><trkpt lat="-36.7381752" lon="174.3948888"><ele>25.428571428571427</ele><time>2026-04-08T22:24:43.772Z</time></trkpt><trkpt lat="-36.738152" lon="174.3949824"><ele>26.857142857142854</ele><time>2026-04-08T22:24:48.772Z</time></trkpt><trkpt lat="-36.7380854" lon="174.3950103"><ele>28.285714285714285</ele><time>2026-04-08T22:24:51.771Z</time></trkpt><trkpt lat="-36.7380202" lon="174.3950572"><ele>29.71428571428571</ele><time>2026-04-08T22:24:54.773Z</time></trkpt><trkpt lat="-36.7379524" lon="174.3950641"><ele>31.142857142857142</ele><time>2026-04-08T22:24:58.773Z</time></trkpt><trkpt lat="-36.7378851" lon="174.395027"><ele>32.57142857142857</ele><time>2026-04-08T22:25:05.771Z</time></trkpt><trkpt lat="-36.7378454" lon="174.3949508"><ele>34.0</ele><time>2026-04-08T22:25:08.77Z</time></trkpt><trkpt lat="-36.7377811" lon="174.3949129"><ele>34.0</ele><time>2026-04-08T22:25:11.771Z</time></trkpt><trkpt lat="-36.73772" lon="174.3949575"><ele>34.0</ele><time>2026-04-08T22:25:14.772Z</time></trkpt><trkpt lat="-36.7377313" lon="174.3950605"><ele>34.0</ele><time>2026-04-08T22:25:18.773Z</time></trkpt><trkpt lat="-36.7376958" lon="174.3951631"><ele>34.0</ele><time>2026-04-08T22:25:21.771Z</time></trkpt><trkpt lat="-36.7376611" lon="174.3952379"><ele>34.0</ele><time>2026-04-08T22:25:24.773Z</time></trkpt><trkpt lat="-36.7375861" lon="174.395184"><ele>34.0</ele><time>2026-04-08T22:25:29.772Z</time></trkpt><trkpt lat="-36.7375232" lon="174.395105"><ele>33.5</ele><time>2026-04-08T22:25:31.771Z</time></trkpt><trkpt lat="-36.7374652" lon="174.3950487"><ele>33.0</ele><time>2026-04-08T22:25:33.77Z</time></trkpt><trkpt lat="-36.7373864" lon="174.3950571"><ele>32.5</ele><time>2026-04-08T22:25:36.772Z</time></trkpt><trkpt lat="-36.7373648" lon="174.3951478"><ele>32.0</ele><time>2026-04-08T22:25:39.77Z</time></trkpt><trkpt lat="-36.7374288" lon="174.3952092"><ele>31.500000000000004</ele><time>2026-04-08T22:25:42.773Z</time></trkpt><trkpt lat="-36.7374861" lon="174.3952711"><ele>31.0</ele><time>2026-04-08T22:25:45.772Z</time></trkpt><trkpt lat="-36.7374599" lon="174.395376"><ele>31.0</ele><time>2026-04-08T22:25:49.772Z</time></trkpt><trkpt lat="-36.7374729" lon="174.395453"><ele>31.000000000000004</ele><time>2026-04-08T22:25:52.77Z</time></trkpt><trkpt lat="-36.7374661" lon="174.3955359"><ele>31.0</ele><time>2026-04-08T22:25:56.771Z</time></trkpt><trkpt lat="-36.7373906" lon="174.3955536"><ele>31.0</ele><time>2026-04-08T22:26:00.773Z</time></trkpt><trkpt lat="-36.7373397" lon="174.3956039"><ele>31.000000000000004</ele><time>2026-04-08T22:26:05.772Z</time></trkpt><trkpt lat="-36.7373826" lon="174.3956888"><ele>31.0</ele><time>2026-04-08T22:26:08.771Z</time></trkpt><trkpt lat="-36.737364" lon="174.3957823"><ele>31.0</ele><time>2026-04-08T22:26:11.77Z</time></trkpt><trkpt lat="-36.7373276" lon="174.3958625"><ele>32.833333333333336</ele><time>2026-04-08T22:26:14.77Z</time></trkpt><trkpt lat="-36.7372629" lon="174.3958442"><ele>34.66666666666667</ele><time>2026-04-08T22:26:18.773Z</time></trkpt><trkpt lat="-36.7372191" lon="174.3957601"><ele>36.5</ele><time>2026-04-08T22:26:21.772Z</time></trkpt><trkpt lat="-36.7371482" lon="174.3957143"><ele>38.333333333333336</ele><time>2026-04-08T22:26:24.771Z</time></trkpt><trkpt lat="-36.7371013" lon="174.3957752"><ele>40.166666666666664</ele><time>2026-04-08T22:26:28.772Z</time></trkpt><trkpt lat="-36.7371351" lon="174.3958561"><ele>42.0</ele><time>2026-04-08T22:26:31.77Z</time></trkpt><trkpt lat="-36.7371355" lon="174.395968"><ele>42.0</ele><time>2026-04-08T22:26:34.77Z</time></trkpt><trkpt lat="-36.7371396" lon="174.3960489"><ele>42.0</ele><time>2026-04-08T22:26:36.771Z</time></trkpt><trkpt lat="-36.7371685" lon="174.396159"><ele>42.0</ele><time>2026-04-08T22:26:39.771Z</time></trkpt><trkpt lat="-36.7372075" lon="174.3962413"><ele>42.0</ele><time>2026-04-08T22:26:42.771Z</time></trkpt><trkpt lat="-36.7372719" lon="174.3962564"><ele>42.0</ele><time>2026-04-08T22:26:45.77Z</time></trkpt><trkpt lat="-36.7373402" lon="174.3962669"><ele>42.0</ele><time>2026-04-08T22:26:48.771Z</time></trkpt><trkpt lat="-36.7374089" lon="174.3963163"><ele>42.0</ele><time>2026-04-08T22:26:51.771Z</time></trkpt><trkpt lat="-36.737494" lon="174.3963118"><ele>44.0</ele><time>2026-04-08T22:26:54.773Z</time></trkpt><trkpt lat="-36.7375653" lon="174.3963523"><ele>46.0</ele><time>2026-04-08T22:26:57.771Z</time></trkpt><trkpt lat="-36.7376257" lon="174.396427"><ele>48.0</ele><time>2026-04-08T22:27:00.77Z</time></trkpt><trkpt lat="-36.7376316" lon="174.3965066"><ele>50.0</ele><time>2026-04-08T22:27:02.771Z</time></trkpt><trkpt lat="-36.7376399" lon="174.3965899"><ele>52.0</ele><time>2026-04-08T22:27:04.771Z</time></trkpt><trkpt lat="-36.7376333" lon="174.3966863"><ele>54.0</ele><time>2026-04-08T22:27:07.771Z</time></trkpt><trkpt lat="-36.7376191" lon="174.3967688"><ele>56.0</ele><time>2026-04-08T22:27:10.771Z</time></trkpt><trkpt lat="-36.7375822" lon="174.3968627"><ele>56.00000000000001</ele><time>2026-04-08T22:27:14.77Z</time></trkpt><trkpt lat="-36.7375427" lon="174.3969525"><ele>56.0</ele><time>2026-04-08T22:27:18.771Z</time></trkpt><trkpt lat="-36.7375179" lon="174.3968655"><ele>56.0</ele><time>2026-04-08T22:27:26.771Z</time></trkpt><trkpt lat="-36.7374586" lon="174.3968197"><ele>56.0</ele><time>2026-04-08T22:27:30.772Z</time></trkpt><trkpt lat="-36.7374437" lon="174.3969055"><ele>56.00000000000001</ele><time>2026-04-08T22:27:34.771Z</time></trkpt><trkpt lat="-36.7374386" lon="174.3970078"><ele>56.0</ele><time>2026-04-08T22:27:37.77Z</time></trkpt><trkpt lat="-36.7374721" lon="174.3971163"><ele>58.66666666666667</ele><time>2026-04-08T22:27:40.771Z</time></trkpt><trkpt lat="-36.7375179" lon="174.3972176"><ele>61.333333333333336</ele><time>2026-04-08T22:27:43.77Z</time></trkpt><trkpt lat="-36.7375341" lon="174.3973139"><ele>64.0</ele><time>2026-04-08T22:27:46.771Z</time></trkpt><trkpt lat="-36.7375116" lon="174.3973932"><ele>66.66666666666667</ele><time>2026-04-08T22:27:49.771Z</time></trkpt><trkpt lat="-36.737462" lon="174.3974866"><ele>69.33333333333333</ele><time>2026-04-08T22:27:52.772Z</time></trkpt><trkpt lat="-36.7374201" lon="174.3975747"><ele>72.0</ele><time>2026-04-08T22:27:54.771Z</time></trkpt><trkpt lat="-36.7373798" lon="174.3976551"><ele>72.00000000000001</ele><time>2026-04-08T22:27:56.772Z</time></trkpt><trkpt lat="-36.7373578" lon="174.3977362"><ele>72.0</ele><time>2026-04-08T22:27:58.77Z</time></trkpt><trkpt lat="-36.7373398" lon="174.3978326"><ele>72.0</ele><time>2026-04-08T22:28:01.771Z</time></trkpt><trkpt lat="-36.7372802" lon="174.3978955"><ele>72.0</ele><time>2026-04-08T22:28:04.77Z</time></trkpt><trkpt lat="-36.7372206" lon="174.3978488"><ele>72.0</ele><time>2026-04-08T22:28:07.77Z</time></trkpt><trkpt lat="-36.7372641" lon="174.397767"><ele>72.00000000000001</ele><time>2026-04-08T22:28:11.771Z</time></trkpt><trkpt lat="-36.7372667" lon="174.3976804"><ele>72.0</ele><time>2026-04-08T22:28:19.772Z</time></trkpt><trkpt lat="-36.7372827" lon="174.3975997"><ele>72.0</ele><time>2026-04-08T22:28:22.772Z</time></trkpt><trkpt lat="-36.7372238" lon="174.3975113"><ele>72.0</ele><time>2026-04-08T22:28:25.77Z</time></trkpt><trkpt lat="-36.7371818" lon="174.3974078"><ele>72.0</ele><time>2026-04-08T22:28:28.77Z</time></trkpt><trkpt lat="-36.7371212" lon="174.3973767"><ele>72.0</ele><time>2026-04-08T22:28:31.771Z</time></trkpt><trkpt lat="-36.7370502" lon="174.3973671"><ele>72.0</ele><time>2026-04-08T22:28:33.771Z</time></trkpt><trkpt lat="-36.7369783" lon="174.3973524"><ele>72.0</ele><time>2026-04-08T22:28:36.77Z</time></trkpt><trkpt lat="-36.7368979" lon="174.3973372"><ele>72.0</ele><time>2026-04-08T22:28:39.772Z</time></trkpt><trkpt lat="-36.7369327" lon="174.3974096"><ele>72.0</ele><time>2026-04-08T22:28:43.771Z</time></trkpt><trkpt lat="-36.7368768" lon="174.3974503"><ele>72.0</ele><time>2026-04-08T22:28:49.771Z</time></trkpt><trkpt lat="-36.736808" lon="174.3974318"><ele>72.0</ele><time>2026-04-08T22:28:52.772Z</time></trkpt><trkpt lat="-36.7367459" lon="174.3973919"><ele>72.0</ele><time>2026-04-08T22:28:55.773Z</time></trkpt><trkpt lat="-36.7367756" lon="174.3974979"><ele>72.0</ele><time>2026-04-08T22:29:02.772Z</time></trkpt><trkpt lat="-36.7368276" lon="174.397585"><ele>73.33333333333333</ele><time>2026-04-08T22:29:05.772Z</time></trkpt><trkpt lat="-36.7367685" lon="174.3976335"><ele>74.66666666666667</ele><time>2026-04-08T22:29:11.771Z</time></trkpt><trkpt lat="-36.7366915" lon="174.3976"><ele>76.0</ele><time>2026-04-08T22:29:15.771Z</time></trkpt><trkpt lat="-36.7366611" lon="174.3975143"><ele>77.33333333333334</ele><time>2026-04-08T22:29:18.772Z</time></trkpt><trkpt lat="-36.7365953" lon="174.3974826"><ele>78.66666666666667</ele><time>2026-04-08T22:29:21.772Z</time></trkpt><trkpt lat="-36.7365989" lon="174.3975817"><ele>80.0</ele><time>2026-04-08T22:29:25.771Z</time></trkpt><trkpt lat="-36.7366568" lon="174.397658"><ele>80.0</ele><time>2026-04-08T22:29:28.772Z</time></trkpt><trkpt lat="-36.7367172" lon="174.3977191"><ele>80.0</ele><time>2026-04-08T22:29:31.77Z</time></trkpt><trkpt lat="-36.7367704" lon="174.3977768"><ele>80.0</ele><time>2026-04-08T22:29:34.771Z</time></trkpt><trkpt lat="-36.736834" lon="174.3978407"><ele>80.0</ele><time>2026-04-08T22:29:37.771Z</time></trkpt><trkpt lat="-36.7368728" lon="174.3979135"><ele>80.0</ele><time>2026-04-08T22:29:39.771Z</time></trkpt><trkpt lat="-36.7368823" lon="174.3980065"><ele>80.0</ele><time>2026-04-08T22:29:41.771Z</time></trkpt><trkpt lat="-36.7368901" lon="174.3980911"><ele>80.0</ele><time>2026-04-08T22:29:43.771Z</time></trkpt><trkpt lat="-36.7368794" lon="174.3981828"><ele>82.16666666666667</ele><time>2026-04-08T22:29:46.771Z</time></trkpt><trkpt lat="-36.7368518" lon="174.3982807"><ele>84.33333333333334</ele><time>2026-04-08T22:29:50.771Z</time></trkpt><trkpt lat="-36.7368503" lon="174.3983895"><ele>86.5</ele><time>2026-04-08T22:29:52.771Z</time></trkpt><trkpt lat="-36.7368565" lon="174.3985035"><ele>88.66666666666667</ele><time>2026-04-08T22:29:55.771Z</time></trkpt><trkpt lat="-36.7368497" lon="174.3985831"><ele>90.83333333333333</ele><time>2026-04-08T22:29:57.771Z</time></trkpt><trkpt lat="-36.7368094" lon="174.3986737"><ele>93.0</ele><time>2026-04-08T22:30:00.771Z</time></trkpt><trkpt lat="-36.7367644" lon="174.3987529"><ele>93.0</ele><time>2026-04-08T22:30:04.772Z</time></trkpt><trkpt lat="-36.736692" lon="174.3988062"><ele>93.0</ele><time>2026-04-08T22:30:07.771Z</time></trkpt><trkpt lat="-36.7366366" lon="174.3988981"><ele>93.0</ele><time>2026-04-08T22:30:10.772Z</time></trkpt><trkpt lat="-36.7366045" lon="174.3989933"><ele>93.0</ele><time>2026-04-08T22:30:13.771Z</time></trkpt><trkpt lat="-36.7365512" lon="174.3990462"><ele>93.0</ele><time>2026-04-08T22:30:15.772Z</time></trkpt><trkpt lat="-36.736486" lon="174.3991164"><ele>93.0</ele><time>2026-04-08T22:30:18.771Z</time></trkpt><trkpt lat="-36.7364333" lon="174.3991625"><ele>93.71428571428572</ele><time>2026-04-08T22:30:21.771Z</time></trkpt><trkpt lat="-36.7363771" lon="174.3991246"><ele>94.42857142857143</ele><time>2026-04-08T22:30:23.77Z</time></trkpt><trkpt lat="-36.7362949" lon="174.399064"><ele>95.14285714285714</ele><time>2026-04-08T22:30:26.772Z</time></trkpt><trkpt lat="-36.7362365" lon="174.3990143"><ele>95.85714285714286</ele><time>2026-04-08T22:30:28.771Z</time></trkpt><trkpt lat="-36.7361627" lon="174.3990381"><ele>96.57142857142857</ele><time>2026-04-08T22:30:31.773Z</time></trkpt><trkpt lat="-36.7361106" lon="174.3990975"><ele>97.28571428571429</ele><time>2026-04-08T22:30:33.771Z</time></trkpt><trkpt lat="-36.7360545" lon="174.3991388"><ele>98.0</ele><time>2026-04-08T22:30:35.771Z</time></trkpt><trkpt lat="-36.7359707" lon="174.3991733"><ele>98.16666666666666</ele><time>2026-04-08T22:30:38.772Z</time></trkpt><trkpt lat="-36.735896" lon="174.3992464"><ele>98.33333333333333</ele><time>2026-04-08T22:30:41.77Z</time></trkpt><trkpt lat="-36.7358475" lon="174.3993106"><ele>98.5</ele><time>2026-04-08T22:30:43.771Z</time></trkpt><trkpt lat="-36.7358231" lon="174.3993851"><ele>98.66666666666666</ele><time>2026-04-08T22:30:45.772Z</time></trkpt><trkpt lat="-36.7358146" lon="174.3994635"><ele>98.83333333333333</ele><time>2026-04-08T22:30:47.77Z</time></trkpt><trkpt lat="-36.7357726" lon="174.3995802"><ele>99.0</ele><time>2026-04-08T22:30:50.771Z</time></trkpt><trkpt lat="-36.7357204" lon="174.3996369"><ele>99.16666666666667</ele><time>2026-04-08T22:30:52.771Z</time></trkpt><trkpt lat="-36.7356687" lon="174.3996869"><ele>99.33333333333334</ele><time>2026-04-08T22:30:54.771Z</time></trkpt><trkpt lat="-36.735654" lon="174.3997706"><ele>99.5</ele><time>2026-04-08T22:30:56.771Z</time></trkpt><trkpt lat="-36.7355976" lon="174.3998438"><ele>99.66666666666667</ele><time>2026-04-08T22:30:59.771Z</time></trkpt><trkpt lat="-36.7355147" lon="174.3998858"><ele>99.83333333333334</ele><time>2026-04-08T22:31:01.77Z</time></trkpt><trkpt lat="-36.7354206" lon="174.3999397"><ele>100.0</ele><time>2026-04-08T22:31:03.771Z</time></trkpt><trkpt lat="-36.7353429" lon="174.399983"><ele>100.00000000000001</ele><time>2026-04-08T22:31:05.771Z</time></trkpt><trkpt lat="-36.7352562" lon="174.4000303"><ele>100.0</ele><time>2026-04-08T22:31:07.772Z</time></trkpt><trkpt lat="-36.7351847" lon="174.4000829"><ele>100.0</ele><time>2026-04-08T22:31:09.771Z</time></trkpt><trkpt lat="-36.7351153" lon="174.4001228"><ele>100.0</ele><time>2026-04-08T22:31:11.77Z</time></trkpt><trkpt lat="-36.7350359" lon="174.4001454"><ele>100.00000000000001</ele><time>2026-04-08T22:31:13.773Z</time></trkpt><trkpt lat="-36.7349493" lon="174.4001592"><ele>100.0</ele><time>2026-04-08T22:31:15.771Z</time></trkpt><trkpt lat="-36.7348742" lon="174.4001613"><ele>100.14285714285715</ele><time>2026-04-08T22:31:17.771Z</time></trkpt><trkpt lat="-36.7348049" lon="174.4001556"><ele>100.28571428571429</ele><time>2026-04-08T22:31:19.772Z</time></trkpt><trkpt lat="-36.7347299" lon="174.4001467"><ele>100.42857142857143</ele><time>2026-04-08T22:31:21.77Z</time></trkpt><trkpt lat="-36.7346524" lon="174.4001398"><ele>100.57142857142858</ele><time>2026-04-08T22:31:23.77Z</time></trkpt><trkpt lat="-36.7345811" lon="174.4001443"><ele>100.71428571428571</ele><time>2026-04-08T22:31:25.771Z</time></trkpt><trkpt lat="-36.7345167" lon="174.4001823"><ele>100.85714285714286</ele><time>2026-04-08T22:31:27.771Z</time></trkpt><trkpt lat="-36.7344668" lon="174.4002399"><ele>101.0</ele><time>2026-04-08T22:31:29.772Z</time></trkpt><trkpt lat="-36.7344448" lon="174.4003178"><ele>100.99999999999999</ele><time>2026-04-08T22:31:31.772Z</time></trkpt><trkpt lat="-36.7344569" lon="174.4003949"><ele>101.0</ele><time>2026-04-08T22:31:32.772Z</time></trkpt><trkpt lat="-36.7344783" lon="174.4004926"><ele>101.0</ele><time>2026-04-08T22:31:34.771Z</time></trkpt><trkpt lat="-36.7345369" lon="174.4006033"><ele>101.0</ele><time>2026-04-08T22:31:36.771Z</time></trkpt><trkpt lat="-36.7345299" lon="174.4007084"><ele>100.99999999999999</ele><time>2026-04-08T22:31:38.772Z</time></trkpt><trkpt lat="-36.7345076" lon="174.4008119"><ele>101.0</ele><time>2026-04-08T22:31:40.771Z</time></trkpt><trkpt lat="-36.7344686" lon="174.4009026"><ele>101.14285714285714</ele><time>2026-04-08T22:31:43.771Z</time></trkpt><trkpt lat="-36.7344325" lon="174.4009684"><ele>101.28571428571428</ele><time>2026-04-08T22:31:45.771Z</time></trkpt><trkpt lat="-36.7345092" lon="174.4010008"><ele>101.42857142857143</ele><time>2026-04-08T22:31:50.772Z</time></trkpt><trkpt lat="-36.734574" lon="174.4009764"><ele>101.57142857142857</ele><time>2026-04-08T22:31:53.773Z</time></trkpt><trkpt lat="-36.734654" lon="174.4009598"><ele>101.71428571428572</ele><time>2026-04-08T22:31:56.771Z</time></trkpt><trkpt lat="-36.734654" lon="174.4010514"><ele>101.85714285714286</ele><time>2026-04-08T22:32:00.773Z</time></trkpt><trkpt lat="-36.7346413" lon="174.401145"><ele>102.0</ele><time>2026-04-08T22:32:03.77Z</time></trkpt><trkpt lat="-36.7346305" lon="174.4012267"><ele>102.0</ele><time>2026-04-08T22:32:06.771Z</time></trkpt><trkpt lat="-36.7346034" lon="174.4013311"><ele>102.0</ele><time>2026-04-08T22:32:11.77Z</time></trkpt><trkpt lat="-36.7345884" lon="174.401417"><ele>102.0</ele><time>2026-04-08T22:32:13.771Z</time></trkpt><trkpt lat="-36.7345534" lon="174.401515"><ele>102.0</ele><time>2026-04-08T22:32:16.771Z</time></trkpt><trkpt lat="-36.7345511" lon="174.4016012"><ele>102.0</ele><time>2026-04-08T22:32:19.771Z</time></trkpt><trkpt lat="-36.734544" lon="174.4016796"><ele>102.0</ele><time>2026-04-08T22:32:22.772Z</time></trkpt><trkpt lat="-36.7345197" lon="174.4017732"><ele>103.8</ele><time>2026-04-08T22:32:25.77Z</time></trkpt><trkpt lat="-36.7344662" lon="174.401868"><ele>105.6</ele><time>2026-04-08T22:32:28.772Z</time></trkpt><trkpt lat="-36.7344316" lon="174.401967"><ele>107.39999999999999</ele><time>2026-04-08T22:32:30.771Z</time></trkpt><trkpt lat="-36.7343047" lon="174.4019885"><ele>109.19999999999999</ele><time>2026-04-08T22:32:32.772Z</time></trkpt><trkpt lat="-36.7342422" lon="174.4020231"><ele>111.0</ele><time>2026-04-08T22:32:33.773Z</time></trkpt><trkpt lat="-36.7341634" lon="174.4021295"><ele>112.0</ele><time>2026-04-08T22:32:35.771Z</time></trkpt><trkpt lat="-36.7341364" lon="174.4022286"><ele>113.0</ele><time>2026-04-08T22:32:37.771Z</time></trkpt><trkpt lat="-36.7341115" lon="174.4023285"><ele>114.0</ele><time>2026-04-08T22:32:39.771Z</time></trkpt><trkpt lat="-36.7341258" lon="174.4024126"><ele>115.0</ele><time>2026-04-08T22:32:41.771Z</time></trkpt><trkpt lat="-36.7341427" lon="174.4024969"><ele>116.0</ele><time>2026-04-08T22:32:43.77Z</time></trkpt><trkpt lat="-36.7341472" lon="174.4025846"><ele>117.0</ele><time>2026-04-08T22:32:45.771Z</time></trkpt><trkpt lat="-36.7341388" lon="174.40269"><ele>117.0</ele><time>2026-04-08T22:32:47.772Z</time></trkpt><trkpt lat="-36.7341191" lon="174.4027868"><ele>117.0</ele><time>2026-04-08T22:32:49.77Z</time></trkpt><trkpt lat="-36.7340791" lon="174.4028951"><ele>117.0</ele><time>2026-04-08T22:32:51.771Z</time></trkpt><trkpt lat="-36.7340917" lon="174.402979"><ele>117.0</ele><time>2026-04-08T22:32:52.771Z</time></trkpt><trkpt lat="-36.7341242" lon="174.4030869"><ele>117.0</ele><time>2026-04-08T22:32:54.771Z</time></trkpt><trkpt lat="-36.7341867" lon="174.4031868"><ele>117.0</ele><time>2026-04-08T22:32:56.77Z</time></trkpt><trkpt lat="-36.7342168" lon="174.403292"><ele>118.0</ele><time>2026-04-08T22:32:58.772Z</time></trkpt><trkpt lat="-36.7342496" lon="174.403395"><ele>119.0</ele><time>2026-04-08T22:33:00.773Z</time></trkpt><trkpt lat="-36.7342517" lon="174.4034923"><ele>120.0</ele><time>2026-04-08T22:33:02.772Z</time></trkpt><trkpt lat="-36.7342261" lon="174.4035772"><ele>121.0</ele><time>2026-04-08T22:33:04.771Z</time></trkpt><trkpt lat="-36.7341844" lon="174.4036637"><ele>122.0</ele><time>2026-04-08T22:33:06.771Z</time></trkpt><trkpt lat="-36.734144" lon="174.403749"><ele>123.0</ele><time>2026-04-08T22:33:08.771Z</time></trkpt><trkpt lat="-36.7340885" lon="174.4038465"><ele>123.5</ele><time>2026-04-08T22:33:10.771Z</time></trkpt><trkpt lat="-36.7340778" lon="174.4039578"><ele>124.0</ele><time>2026-04-08T22:33:12.77Z</time></trkpt><trkpt lat="-36.7341044" lon="174.404081"><ele>124.5</ele><time>2026-04-08T22:33:14.77Z</time></trkpt><trkpt lat="-36.734146" lon="174.40417"><ele>125.0</ele><time>2026-04-08T22:33:16.771Z</time></trkpt><trkpt lat="-36.7341913" lon="174.4042419"><ele>125.5</ele><time>2026-04-08T22:33:18.771Z</time></trkpt><trkpt lat="-36.7342491" lon="174.4043164"><ele>126.0</ele><time>2026-04-08T22:33:20.771Z</time></trkpt><trkpt lat="-36.7343008" lon="174.4043983"><ele>126.0</ele><time>2026-04-08T22:33:22.773Z</time></trkpt><trkpt lat="-36.7342919" lon="174.404508"><ele>126.0</ele><time>2026-04-08T22:33:25.771Z</time></trkpt><trkpt lat="-36.7343538" lon="174.4045832"><ele>126.0</ele><time>2026-04-08T22:33:28.772Z</time></trkpt><trkpt lat="-36.7344152" lon="174.4046182"><ele>126.0</ele><time>2026-04-08T22:33:30.771Z</time></trkpt><trkpt lat="-36.7344776" lon="174.4046481"><ele>126.0</ele><time>2026-04-08T22:33:32.771Z</time></trkpt><trkpt lat="-36.7345651" lon="174.4046844"><ele>126.0</ele><time>2026-04-08T22:33:35.771Z</time></trkpt><trkpt lat="-36.734615" lon="174.4047419"><ele>125.16666666666667</ele><time>2026-04-08T22:33:37.772Z</time></trkpt><trkpt lat="-36.7346162" lon="174.4048261"><ele>124.33333333333334</ele><time>2026-04-08T22:33:39.771Z</time></trkpt><trkpt lat="-36.7346051" lon="174.4049098"><ele>123.5</ele><time>2026-04-08T22:33:41.771Z</time></trkpt><trkpt lat="-36.7346161" lon="174.404999"><ele>122.66666666666667</ele><time>2026-04-08T22:33:43.77Z</time></trkpt><trkpt lat="-36.7346457" lon="174.4051325"><ele>121.83333333333334</ele><time>2026-04-08T22:33:45.772Z</time></trkpt><trkpt lat="-36.7346529" lon="174.4052219"><ele>121.0</ele><time>2026-04-08T22:33:47.771Z</time></trkpt><trkpt lat="-36.7346733" lon="174.4052998"><ele>121.0</ele><time>2026-04-08T22:33:51.771Z</time></trkpt><trkpt lat="-36.7346639" lon="174.4053779"><ele>120.99999999999999</ele><time>2026-04-08T22:33:57.77Z</time></trkpt><trkpt lat="-36.7346232" lon="174.40544"><ele>121.0</ele><time>2026-04-08T22:34:01.771Z</time></trkpt><trkpt lat="-36.7346319" lon="174.4055282"><ele>121.0</ele><time>2026-04-08T22:34:03.771Z</time></trkpt><trkpt lat="-36.7346519" lon="174.4056133"><ele>120.99999999999999</ele><time>2026-04-08T22:34:05.773Z</time></trkpt><trkpt lat="-36.7346757" lon="174.4057021"><ele>121.0</ele><time>2026-04-08T22:34:07.772Z</time></trkpt><trkpt lat="-36.7347159" lon="174.4058185"><ele>121.0</ele><time>2026-04-08T22:34:09.772Z</time></trkpt><trkpt lat="-36.7347498" lon="174.405892"><ele>120.85714285714285</ele><time>2026-04-08T22:34:10.772Z</time></trkpt><trkpt lat="-36.7347805" lon="174.4059648"><ele>120.7142857142857</ele><time>2026-04-08T22:34:11.77Z</time></trkpt><trkpt lat="-36.7348257" lon="174.4060384"><ele>120.57142857142857</ele><time>2026-04-08T22:34:12.771Z</time></trkpt><trkpt lat="-36.7348669" lon="174.4061069"><ele>120.42857142857142</ele><time>2026-04-08T22:34:13.771Z</time></trkpt><trkpt lat="-36.7349274" lon="174.4061404"><ele>120.28571428571428</ele><time>2026-04-08T22:34:14.772Z</time></trkpt><trkpt lat="-36.7349872" lon="174.4061887"><ele>120.14285714285714</ele><time>2026-04-08T22:34:15.771Z</time></trkpt><trkpt lat="-36.7350455" lon="174.4062195"><ele>120.0</ele><time>2026-04-08T22:34:16.771Z</time></trkpt><trkpt lat="-36.7351677" lon="174.4062542"><ele>120.0</ele><time>2026-04-08T22:34:18.771Z</time></trkpt><trkpt lat="-36.7352315" lon="174.4062619"><ele>120.0</ele><time>2026-04-08T22:34:19.77Z</time></trkpt><trkpt lat="-36.7353559" lon="174.4062611"><ele>120.0</ele><time>2026-04-08T22:34:21.771Z</time></trkpt><trkpt lat="-36.7354636" lon="174.4063149"><ele>120.0</ele><time>2026-04-08T22:34:23.772Z</time></trkpt><trkpt lat="-36.7354939" lon="174.4064311"><ele>120.0</ele><time>2026-04-08T22:34:25.771Z</time></trkpt><trkpt lat="-36.735523" lon="174.4065753"><ele>121.0</ele><time>2026-04-08T22:34:27.77Z</time></trkpt><trkpt lat="-36.7355412" lon="174.4067169"><ele>122.0</ele><time>2026-04-08T22:34:29.772Z</time></trkpt><trkpt lat="-36.7355556" lon="174.4068674"><ele>123.0</ele><time>2026-04-08T22:34:31.772Z</time></trkpt><trkpt lat="-36.7355735" lon="174.4069452"><ele>124.0</ele><time>2026-04-08T22:34:32.77Z</time></trkpt><trkpt lat="-36.7355777" lon="174.4071078"><ele>125.0</ele><time>2026-04-08T22:34:34.771Z</time></trkpt><trkpt lat="-36.7355739" lon="174.4071935"><ele>125.16666666666666</ele><time>2026-04-08T22:34:35.77Z</time></trkpt><trkpt lat="-36.7355873" lon="174.4073638"><ele>125.33333333333333</ele><time>2026-04-08T22:34:37.773Z</time></trkpt><trkpt lat="-36.7355995" lon="174.4074416"><ele>125.5</ele><time>2026-04-08T22:34:38.77Z</time></trkpt><trkpt lat="-36.7355979" lon="174.407531"><ele>125.66666666666666</ele><time>2026-04-08T22:34:39.77Z</time></trkpt><trkpt lat="-36.7355826" lon="174.4076072"><ele>125.83333333333333</ele><time>2026-04-08T22:34:40.771Z</time></trkpt><trkpt lat="-36.735581" lon="174.4077132"><ele>126.0</ele><time>2026-04-08T22:34:41.77Z</time></trkpt><trkpt lat="-36.7355778" lon="174.4078027"><ele>126.0</ele><time>2026-04-08T22:34:42.772Z</time></trkpt><trkpt lat="-36.7355757" lon="174.4079667"><ele>126.0</ele><time>2026-04-08T22:34:44.772Z</time></trkpt><trkpt lat="-36.7355761" lon="174.4080975"><ele>126.0</ele><time>2026-04-08T22:34:46.773Z</time></trkpt><trkpt lat="-36.7355854" lon="174.4082539"><ele>126.0</ele><time>2026-04-08T22:34:48.771Z</time></trkpt><trkpt lat="-36.7355998" lon="174.408339"><ele>126.0</ele><time>2026-04-08T22:34:49.77Z</time></trkpt><trkpt lat="-36.7356057" lon="174.4084291"><ele>125.4</ele><time>2026-04-08T22:34:50.772Z</time></trkpt><trkpt lat="-36.7355713" lon="174.4085765"><ele>124.8</ele><time>2026-04-08T22:34:52.772Z</time></trkpt><trkpt lat="-36.7355194" lon="174.4086329"><ele>124.20000000000002</ele><time>2026-04-08T22:34:53.771Z</time></trkpt><trkpt lat="-36.7354464" lon="174.4087668"><ele>123.60000000000001</ele><time>2026-04-08T22:34:55.771Z</time></trkpt><trkpt lat="-36.7354097" lon="174.4088396"><ele>123.0</ele><time>2026-04-08T22:34:56.77Z</time></trkpt><trkpt lat="-36.7353777" lon="174.4089759"><ele>124.0</ele><time>2026-04-08T22:34:58.771Z</time></trkpt><trkpt lat="-36.7353666" lon="174.409055"><ele>125.0</ele><time>2026-04-08T22:34:59.772Z</time></trkpt><trkpt lat="-36.7353657" lon="174.4091828"><ele>126.0</ele><time>2026-04-08T22:35:01.771Z</time></trkpt><trkpt lat="-36.7353487" lon="174.4092791"><ele>127.0</ele><time>2026-04-08T22:35:03.77Z</time></trkpt><trkpt lat="-36.7353234" lon="174.409394"><ele>128.0</ele><time>2026-04-08T22:35:05.77Z</time></trkpt><trkpt lat="-36.7353047" lon="174.409521"><ele>129.0</ele><time>2026-04-08T22:35:07.771Z</time></trkpt><trkpt lat="-36.7353135" lon="174.4096346"><ele>129.4</ele><time>2026-04-08T22:35:09.771Z</time></trkpt><trkpt lat="-36.7353016" lon="174.4097428"><ele>129.8</ele><time>2026-04-08T22:35:11.771Z</time></trkpt><trkpt lat="-36.7352858" lon="174.4098759"><ele>130.2</ele><time>2026-04-08T22:35:13.77Z</time></trkpt><trkpt lat="-36.7352795" lon="174.4100105"><ele>130.6</ele><time>2026-04-08T22:35:15.772Z</time></trkpt><trkpt lat="-36.7352682" lon="174.410124"><ele>131.0</ele><time>2026-04-08T22:35:17.771Z</time></trkpt><trkpt lat="-36.7352288" lon="174.4102216"><ele>129.83333333333331</ele><time>2026-04-08T22:35:19.772Z</time></trkpt><trkpt lat="-36.7351532" lon="174.4102731"><ele>128.66666666666666</ele><time>2026-04-08T22:35:21.772Z</time></trkpt><trkpt lat="-36.7350857" lon="174.4102966"><ele>127.5</ele><time>2026-04-08T22:35:22.772Z</time></trkpt><trkpt lat="-36.7350231" lon="174.4103199"><ele>126.33333333333334</ele><time>2026-04-08T22:35:23.773Z</time></trkpt><trkpt lat="-36.7349216" lon="174.4103691"><ele>125.16666666666667</ele><time>2026-04-08T22:35:25.77Z</time></trkpt><trkpt lat="-36.7348201" lon="174.4103632"><ele>124.0</ele><time>2026-04-08T22:35:27.771Z</time></trkpt><trkpt lat="-36.7347093" lon="174.4104067"><ele>124.0</ele><time>2026-04-08T22:35:29.772Z</time></trkpt><trkpt lat="-36.7346127" lon="174.4103986"><ele>124.0</ele><time>2026-04-08T22:35:31.771Z</time></trkpt><trkpt lat="-36.7345125" lon="174.4103898"><ele>124.0</ele><time>2026-04-08T22:35:33.771Z</time></trkpt><trkpt lat="-36.7344184" lon="174.4103565"><ele>124.0</ele><time>2026-04-08T22:35:35.77Z</time></trkpt><trkpt lat="-36.7343396" lon="174.4103832"><ele>124.0</ele><time>2026-04-08T22:35:37.772Z</time></trkpt><trkpt lat="-36.73428" lon="174.4104403"><ele>124.00000000000001</ele><time>2026-04-08T22:35:40.77Z</time></trkpt><trkpt lat="-36.7342705" lon="174.410533"><ele>124.0</ele><time>2026-04-08T22:35:43.773Z</time></trkpt><trkpt lat="-36.7342361" lon="174.4106212"><ele>124.0</ele><time>2026-04-08T22:35:45.771Z</time></trkpt><trkpt lat="-36.7342473" lon="174.4107006"><ele>124.0</ele><time>2026-04-08T22:35:47.771Z</time></trkpt><trkpt lat="-36.734181" lon="174.4107315"><ele>124.00000000000001</ele><time>2026-04-08T22:35:52.771Z</time></trkpt><trkpt lat="-36.7341076" lon="174.4106274"><ele>124.0</ele><time>2026-04-08T22:35:54.772Z</time></trkpt><trkpt lat="-36.7340368" lon="174.4105399"><ele>124.0</ele><time>2026-04-08T22:35:56.77Z</time></trkpt><trkpt lat="-36.7339402" lon="174.4105674"><ele>124.0</ele><time>2026-04-08T22:35:58.771Z</time></trkpt><trkpt lat="-36.7338506" lon="174.4106136"><ele>124.0</ele><time>2026-04-08T22:36:00.772Z</time></trkpt><trkpt lat="-36.7337829" lon="174.410578"><ele>124.0</ele><time>2026-04-08T22:36:02.772Z</time></trkpt><trkpt lat="-36.7336964" lon="174.4105202"><ele>124.0</ele><time>2026-04-08T22:36:04.771Z</time></trkpt><trkpt lat="-36.7336122" lon="174.4105152"><ele>124.00000000000001</ele><time>2026-04-08T22:36:06.771Z</time></trkpt><trkpt lat="-36.7335676" lon="174.4105776"><ele>124.0</ele><time>2026-04-08T22:36:09.771Z</time></trkpt><trkpt lat="-36.7335222" lon="174.4106789"><ele>124.0</ele><time>2026-04-08T22:36:12.772Z</time></trkpt><trkpt lat="-36.7334503" lon="174.4107347"><ele>124.0</ele><time>2026-04-08T22:36:15.77Z</time></trkpt><trkpt lat="-36.7333733" lon="174.4107518"><ele>124.00000000000001</ele><time>2026-04-08T22:36:17.77Z</time></trkpt><trkpt lat="-36.7333042" lon="174.4106926"><ele>124.0</ele><time>2026-04-08T22:36:20.771Z</time></trkpt><trkpt lat="-36.7332411" lon="174.410667"><ele>124.28571428571429</ele><time>2026-04-08T22:36:27.771Z</time></trkpt><trkpt lat="-36.7331918" lon="174.4107253"><ele>124.57142857142858</ele><time>2026-04-08T22:36:30.77Z</time></trkpt><trkpt lat="-36.7331228" lon="174.4107236"><ele>124.85714285714286</ele><time>2026-04-08T22:36:33.772Z</time></trkpt><trkpt lat="-36.7330439" lon="174.4107241"><ele>125.14285714285714</ele><time>2026-04-08T22:36:36.772Z</time></trkpt><trkpt lat="-36.7330577" lon="174.410646"><ele>125.42857142857143</ele><time>2026-04-08T22:36:41.773Z</time></trkpt><trkpt lat="-36.7331106" lon="174.4105874"><ele>125.71428571428572</ele><time>2026-04-08T22:36:44.77Z</time></trkpt><trkpt lat="-36.7331066" lon="174.4104966"><ele>126.0</ele><time>2026-04-08T22:36:47.771Z</time></trkpt><trkpt lat="-36.7331317" lon="174.4104173"><ele>126.0</ele><time>2026-04-08T22:36:50.772Z</time></trkpt><trkpt lat="-36.7331678" lon="174.4103404"><ele>126.0</ele><time>2026-04-08T22:36:53.773Z</time></trkpt><trkpt lat="-36.7330934" lon="174.410299"><ele>126.0</ele><time>2026-04-08T22:36:57.77Z</time></trkpt><trkpt lat="-36.7330213" lon="174.410289"><ele>126.0</ele><time>2026-04-08T22:37:00.772Z</time></trkpt><trkpt lat="-36.7329515" lon="174.4102856"><ele>126.0</ele><time>2026-04-08T22:37:04.771Z</time></trkpt><trkpt lat="-36.7328773" lon="174.4103103"><ele>126.0</ele><time>2026-04-08T22:37:08.771Z</time></trkpt><trkpt lat="-36.7328122" lon="174.4103177"><ele>126.0</ele><time>2026-04-08T22:37:10.772Z</time></trkpt><trkpt lat="-36.7327347" lon="174.4103134"><ele>127.14285714285714</ele><time>2026-04-08T22:37:12.77Z</time></trkpt><trkpt lat="-36.7326688" lon="174.410289"><ele>128.28571428571428</ele><time>2026-04-08T22:37:14.77Z</time></trkpt><trkpt lat="-36.7326052" lon="174.4102933"><ele>129.42857142857144</ele><time>2026-04-08T22:37:16.771Z</time></trkpt><trkpt lat="-36.7325278" lon="174.4102664"><ele>130.57142857142856</ele><time>2026-04-08T22:37:19.771Z</time></trkpt><trkpt lat="-36.7324613" lon="174.4102447"><ele>131.71428571428572</ele><time>2026-04-08T22:37:21.772Z</time></trkpt><trkpt lat="-36.7323707" lon="174.4102074"><ele>132.85714285714286</ele><time>2026-04-08T22:37:24.77Z</time></trkpt><trkpt lat="-36.7323111" lon="174.4101817"><ele>134.0</ele><time>2026-04-08T22:37:26.771Z</time></trkpt><trkpt lat="-36.7322464" lon="174.4101508"><ele>134.0</ele><time>2026-04-08T22:37:28.771Z</time></trkpt><trkpt lat="-36.7321681" lon="174.4100959"><ele>134.0</ele><time>2026-04-08T22:37:31.77Z</time></trkpt><trkpt lat="-36.7321106" lon="174.4100595"><ele>134.0</ele><time>2026-04-08T22:37:33.77Z</time></trkpt><trkpt lat="-36.7320475" lon="174.4100217"><ele>134.0</ele><time>2026-04-08T22:37:35.77Z</time></trkpt><trkpt lat="-36.7319815" lon="174.4100029"><ele>134.0</ele><time>2026-04-08T22:37:37.772Z</time></trkpt><trkpt lat="-36.7318927" lon="174.4099889"><ele>134.0</ele><time>2026-04-08T22:37:40.77Z</time></trkpt><trkpt lat="-36.7318272" lon="174.4099928"><ele>134.0</ele><time>2026-04-08T22:37:43.77Z</time></trkpt><trkpt lat="-36.7317594" lon="174.4100355"><ele>134.33333333333331</ele><time>2026-04-08T22:37:46.771Z</time></trkpt><trkpt lat="-36.7316959" lon="174.410101"><ele>134.66666666666666</ele><time>2026-04-08T22:37:49.771Z</time></trkpt><trkpt lat="-36.7315967" lon="174.4101744"><ele>135.0</ele><time>2026-04-08T22:37:51.77Z</time></trkpt><trkpt lat="-36.7315174" lon="174.4101626"><ele>135.33333333333334</ele><time>2026-04-08T22:37:53.77Z</time></trkpt><trkpt lat="-36.7314267" lon="174.4101901"><ele>135.66666666666669</ele><time>2026-04-08T22:37:56.77Z</time></trkpt><trkpt lat="-36.7313691" lon="174.4102391"><ele>136.0</ele><time>2026-04-08T22:37:58.772Z</time></trkpt><trkpt lat="-36.7313282" lon="174.4103032"><ele>136.0</ele><time>2026-04-08T22:38:00.771Z</time></trkpt><trkpt lat="-36.73127" lon="174.4103968"><ele>136.0</ele><time>2026-04-08T22:38:03.77Z</time></trkpt><trkpt lat="-36.731193" lon="174.4104404"><ele>136.0</ele><time>2026-04-08T22:38:05.77Z</time></trkpt><trkpt lat="-36.731122" lon="174.4104423"><ele>136.0</ele><time>2026-04-08T22:38:07.771Z</time></trkpt><trkpt lat="-36.7310404" lon="174.4104192"><ele>136.0</ele><time>2026-04-08T22:38:09.77Z</time></trkpt><trkpt lat="-36.7309632" lon="174.4103871"><ele>136.0</ele><time>2026-04-08T22:38:11.771Z</time></trkpt><trkpt lat="-36.7308863" lon="174.4103283"><ele>136.28571428571428</ele><time>2026-04-08T22:38:14.771Z</time></trkpt><trkpt lat="-36.7308423" lon="174.4102393"><ele>136.57142857142856</ele><time>2026-04-08T22:38:17.771Z</time></trkpt><trkpt lat="-36.7307761" lon="174.4102048"><ele>136.85714285714286</ele><time>2026-04-08T22:38:20.772Z</time></trkpt><trkpt lat="-36.7307281" lon="174.4102627"><ele>137.14285714285714</ele><time>2026-04-08T22:38:23.772Z</time></trkpt><trkpt lat="-36.7307002" lon="174.410174"><ele>137.42857142857144</ele><time>2026-04-08T22:38:30.771Z</time></trkpt><trkpt lat="-36.7306887" lon="174.410076"><ele>137.71428571428572</ele><time>2026-04-08T22:38:33.772Z</time></trkpt><trkpt lat="-36.7306669" lon="174.4099988"><ele>138.0</ele><time>2026-04-08T22:38:36.77Z</time></trkpt><trkpt lat="-36.7305999" lon="174.4100269"><ele>138.0</ele><time>2026-04-08T22:38:41.77Z</time></trkpt><trkpt lat="-36.7305742" lon="174.4101105"><ele>138.0</ele><time>2026-04-08T22:41:24.771Z</time></trkpt><trkpt lat="-36.7305418" lon="174.4102051"><ele>138.0</ele><time>2026-04-08T22:41:27.771Z</time></trkpt><trkpt lat="-36.7305113" lon="174.4102744"><ele>138.0</ele><time>2026-04-08T22:41:29.772Z</time></trkpt><trkpt lat="-36.7304577" lon="174.4103536"><ele>138.0</ele><time>2026-04-08T22:41:32.773Z</time></trkpt><trkpt lat="-36.7304032" lon="174.4104078"><ele>138.0</ele><time>2026-04-08T22:41:35.772Z</time></trkpt><trkpt lat="-36.7303726" lon="174.4105015"><ele>137.5</ele><time>2026-04-08T22:41:38.773Z</time></trkpt><trkpt lat="-36.7303906" lon="174.4105806"><ele>137.0</ele><time>2026-04-08T22:41:41.772Z</time></trkpt><trkpt lat="-36.7303961" lon="174.4106679"><ele>136.5</ele><time>2026-04-08T22:41:43.772Z</time></trkpt><trkpt lat="-36.7303955" lon="174.4107573"><ele>136.0</ele><time>2026-04-08T22:41:45.772Z</time></trkpt><trkpt lat="-36.7303759" lon="174.4108786"><ele>135.5</ele><time>2026-04-08T22:41:47.771Z</time></trkpt><trkpt lat="-36.730344" lon="174.41098"><ele>135.0</ele><time>2026-04-08T22:41:49.771Z</time></trkpt><trkpt lat="-36.7303049" lon="174.4111018"><ele>135.0</ele><time>2026-04-08T22:41:52.772Z</time></trkpt><trkpt lat="-36.7302706" lon="174.411179"><ele>135.0</ele><time>2026-04-08T22:41:54.771Z</time></trkpt><trkpt lat="-36.7302366" lon="174.4112473"><ele>135.0</ele><time>2026-04-08T22:41:56.771Z</time></trkpt><trkpt lat="-36.7302055" lon="174.4113193"><ele>135.0</ele><time>2026-04-08T22:42:00.771Z</time></trkpt><trkpt lat="-36.7302033" lon="174.4114055"><ele>135.0</ele><time>2026-04-08T22:42:21.77Z</time></trkpt><trkpt lat="-36.7301951" lon="174.4114968"><ele>135.0</ele><time>2026-04-08T22:42:50.77Z</time></trkpt><trkpt lat="-36.7301529" lon="174.4115908"><ele>135.0</ele><time>2026-04-08T22:42:54.772Z</time></trkpt><trkpt lat="-36.730079" lon="174.4117485"><ele>134.33333333333334</ele><time>2026-04-08T22:42:56.77Z</time></trkpt><trkpt lat="-36.730045" lon="174.4118305"><ele>133.66666666666666</ele><time>2026-04-08T22:42:57.77Z</time></trkpt><trkpt lat="-36.7299977" lon="174.4119773"><ele>133.0</ele><time>2026-04-08T22:42:59.77Z</time></trkpt><trkpt lat="-36.7299614" lon="174.4120624"><ele>132.33333333333331</ele><time>2026-04-08T22:43:00.772Z</time></trkpt><trkpt lat="-36.7299287" lon="174.412143"><ele>131.66666666666666</ele><time>2026-04-08T22:43:01.77Z</time></trkpt><trkpt lat="-36.7299046" lon="174.4122307"><ele>131.0</ele><time>2026-04-08T22:43:02.771Z</time></trkpt><trkpt lat="-36.7298446" lon="174.4123339"><ele>129.8</ele><time>2026-04-08T22:43:04.771Z</time></trkpt><trkpt lat="-36.7298784" lon="174.412425"><ele>128.6</ele><time>2026-04-08T22:43:06.771Z</time></trkpt><trkpt lat="-36.7299477" lon="174.4124299"><ele>127.4</ele><time>2026-04-08T22:43:07.77Z</time></trkpt><trkpt lat="-36.7300264" lon="174.4123975"><ele>126.2</ele><time>2026-04-08T22:43:09.771Z</time></trkpt><trkpt lat="-36.73013" lon="174.4123534"><ele>125.0</ele><time>2026-04-08T22:43:11.772Z</time></trkpt><trkpt lat="-36.7302567" lon="174.4124119"><ele>125.0</ele><time>2026-04-08T22:43:13.771Z</time></trkpt><trkpt lat="-36.7303112" lon="174.4124598"><ele>125.0</ele><time>2026-04-08T22:43:14.771Z</time></trkpt><trkpt lat="-36.730352" lon="174.4125409"><ele>125.0</ele><time>2026-04-08T22:43:15.771Z</time></trkpt><trkpt lat="-36.7303661" lon="174.4126343"><ele>125.0</ele><time>2026-04-08T22:43:16.771Z</time></trkpt><trkpt lat="-36.730367" lon="174.4127229"><ele>125.0</ele><time>2026-04-08T22:43:17.772Z</time></trkpt><trkpt lat="-36.7303616" lon="174.4128028"><ele>125.0</ele><time>2026-04-08T22:43:18.771Z</time></trkpt><trkpt lat="-36.7303569" lon="174.4129004"><ele>125.0</ele><time>2026-04-08T22:43:20.77Z</time></trkpt><trkpt lat="-36.7303457" lon="174.4129883"><ele>124.99999999999999</ele><time>2026-04-08T22:43:22.772Z</time></trkpt><trkpt lat="-36.7304106" lon="174.4129845"><ele>125.0</ele><time>2026-04-08T22:43:26.771Z</time></trkpt><trkpt lat="-36.7304127" lon="174.4128989"><ele>125.0</ele><time>2026-04-08T22:43:29.77Z</time></trkpt><trkpt lat="-36.7304361" lon="174.4127928"><ele>125.0</ele><time>2026-04-08T22:43:32.77Z</time></trkpt><trkpt lat="-36.7304866" lon="174.4127154"><ele>124.99999999999999</ele><time>2026-04-08T22:43:35.77Z</time></trkpt><trkpt lat="-36.7305052" lon="174.4126004"><ele>125.0</ele><time>2026-04-08T22:43:38.771Z</time></trkpt><trkpt lat="-36.7305358" lon="174.4125088"><ele>125.0</ele><time>2026-04-08T22:43:40.771Z</time></trkpt><trkpt lat="-36.7305999" lon="174.4124475"><ele>125.0</ele><time>2026-04-08T22:43:42.77Z</time></trkpt><trkpt lat="-36.7306683" lon="174.412433"><ele>125.0</ele><time>2026-04-08T22:43:44.772Z</time></trkpt><trkpt lat="-36.7307421" lon="174.4124464"><ele>125.0</ele><time>2026-04-08T22:43:46.771Z</time></trkpt><trkpt lat="-36.7308119" lon="174.412429"><ele>125.0</ele><time>2026-04-08T22:43:48.771Z</time></trkpt><trkpt lat="-36.7308844" lon="174.4123849"><ele>125.0</ele><time>2026-04-08T22:43:51.77Z</time></trkpt><trkpt lat="-36.7309448" lon="174.4123461"><ele>125.0</ele><time>2026-04-08T22:43:54.77Z</time></trkpt><trkpt lat="-36.7310282" lon="174.412388"><ele>125.2</ele><time>2026-04-08T22:43:57.771Z</time></trkpt><trkpt lat="-36.7311187" lon="174.4124309"><ele>125.4</ele><time>2026-04-08T22:44:00.771Z</time></trkpt><trkpt lat="-36.7311876" lon="174.4124202"><ele>125.6</ele><time>2026-04-08T22:44:02.772Z</time></trkpt><trkpt lat="-36.731283" lon="174.4124235"><ele>125.8</ele><time>2026-04-08T22:44:04.771Z</time></trkpt><trkpt lat="-36.7313745" lon="174.4124395"><ele>126.0</ele><time>2026-04-08T22:44:06.771Z</time></trkpt><trkpt lat="-36.731472" lon="174.4124328"><ele>126.0</ele><time>2026-04-08T22:44:08.771Z</time></trkpt><trkpt lat="-36.7315564" lon="174.4124533"><ele>126.0</ele><time>2026-04-08T22:44:10.77Z</time></trkpt><trkpt lat="-36.731614" lon="174.4125024"><ele>126.0</ele><time>2026-04-08T22:44:12.771Z</time></trkpt><trkpt lat="-36.7316789" lon="174.4124956"><ele>126.0</ele><time>2026-04-08T22:44:14.771Z</time></trkpt><trkpt lat="-36.7317645" lon="174.4124636"><ele>126.0</ele><time>2026-04-08T22:44:16.771Z</time></trkpt><trkpt lat="-36.7318288" lon="174.4124526"><ele>126.0</ele><time>2026-04-08T22:44:18.77Z</time></trkpt><trkpt lat="-36.7319037" lon="174.4124697"><ele>125.83333333333333</ele><time>2026-04-08T22:44:20.77Z</time></trkpt><trkpt lat="-36.7319796" lon="174.4125023"><ele>125.66666666666666</ele><time>2026-04-08T22:44:22.771Z</time></trkpt><trkpt lat="-36.7320562" lon="174.4125212"><ele>125.5</ele><time>2026-04-08T22:44:24.771Z</time></trkpt><trkpt lat="-36.7321214" lon="174.412492"><ele>125.33333333333333</ele><time>2026-04-08T22:44:27.77Z</time></trkpt><trkpt lat="-36.7321967" lon="174.4124374"><ele>125.16666666666666</ele><time>2026-04-08T22:44:30.771Z</time></trkpt><trkpt lat="-36.7322617" lon="174.4124446"><ele>125.0</ele><time>2026-04-08T22:44:33.77Z</time></trkpt><trkpt lat="-36.7323358" lon="174.4123785"><ele>125.0</ele><time>2026-04-08T22:44:36.77Z</time></trkpt><trkpt lat="-36.732412" lon="174.4123091"><ele>125.0</ele><time>2026-04-08T22:44:39.771Z</time></trkpt><trkpt lat="-36.7324896" lon="174.4122373"><ele>125.0</ele><time>2026-04-08T22:44:41.771Z</time></trkpt><trkpt lat="-36.7325548" lon="174.4121722"><ele>125.0</ele><time>2026-04-08T22:44:43.771Z</time></trkpt><trkpt lat="-36.7326442" lon="174.4121245"><ele>125.0</ele><time>2026-04-08T22:44:45.77Z</time></trkpt><trkpt lat="-36.7327298" lon="174.4121126"><ele>124.83333333333333</ele><time>2026-04-08T22:44:46.771Z</time></trkpt><trkpt lat="-36.7328229" lon="174.4121332"><ele>124.66666666666666</ele><time>2026-04-08T22:44:48.771Z</time></trkpt><trkpt lat="-36.7328982" lon="174.412151"><ele>124.5</ele><time>2026-04-08T22:44:50.772Z</time></trkpt><trkpt lat="-36.7329783" lon="174.4121436"><ele>124.33333333333334</ele><time>2026-04-08T22:44:53.77Z</time></trkpt><trkpt lat="-36.7330428" lon="174.4121444"><ele>124.16666666666667</ele><time>2026-04-08T22:44:56.77Z</time></trkpt><trkpt lat="-36.7331" lon="174.4121082"><ele>124.0</ele><time>2026-04-08T22:44:59.771Z</time></trkpt><trkpt lat="-36.7331612" lon="174.4120558"><ele>124.0</ele><time>2026-04-08T22:45:02.772Z</time></trkpt><trkpt lat="-36.7332484" lon="174.4120981"><ele>124.00000000000001</ele><time>2026-04-08T22:45:05.771Z</time></trkpt><trkpt lat="-36.733283" lon="174.412188"><ele>124.0</ele><time>2026-04-08T22:45:07.771Z</time></trkpt><trkpt lat="-36.7333011" lon="174.4122768"><ele>124.0</ele><time>2026-04-08T22:45:09.771Z</time></trkpt><trkpt lat="-36.7333273" lon="174.4123494"><ele>124.00000000000001</ele><time>2026-04-08T22:45:11.771Z</time></trkpt><trkpt lat="-36.7333732" lon="174.4124083"><ele>124.0</ele><time>2026-04-08T22:45:13.772Z</time></trkpt><trkpt lat="-36.733431" lon="174.4124509"><ele>124.0</ele><time>2026-04-08T22:45:15.771Z</time></trkpt><trkpt lat="-36.7335115" lon="174.4125124"><ele>124.50000000000001</ele><time>2026-04-08T22:45:18.77Z</time></trkpt><trkpt lat="-36.7335675" lon="174.4125797"><ele>125.0</ele><time>2026-04-08T22:45:20.771Z</time></trkpt><trkpt lat="-36.7335934" lon="174.412665"><ele>125.5</ele><time>2026-04-08T22:45:22.771Z</time></trkpt><trkpt lat="-36.7335845" lon="174.4127656"><ele>126.0</ele><time>2026-04-08T22:45:24.77Z</time></trkpt><trkpt lat="-36.733583" lon="174.4128673"><ele>126.50000000000001</ele><time>2026-04-08T22:45:26.77Z</time></trkpt><trkpt lat="-36.7336025" lon="174.4129702"><ele>127.0</ele><time>2026-04-08T22:45:28.77Z</time></trkpt><trkpt lat="-36.7336189" lon="174.4130794"><ele>127.00000000000001</ele><time>2026-04-08T22:45:30.77Z</time></trkpt><trkpt lat="-36.7336146" lon="174.4131716"><ele>127.0</ele><time>2026-04-08T22:45:32.77Z</time></trkpt><trkpt lat="-36.733603" lon="174.4132537"><ele>127.0</ele><time>2026-04-08T22:45:34.77Z</time></trkpt><trkpt lat="-36.7336748" lon="174.4133393"><ele>127.0</ele><time>2026-04-08T22:45:37.77Z</time></trkpt><trkpt lat="-36.7337576" lon="174.4133704"><ele>127.00000000000001</ele><time>2026-04-08T22:45:39.772Z</time></trkpt><trkpt lat="-36.7338345" lon="174.4134325"><ele>127.0</ele><time>2026-04-08T22:45:41.771Z</time></trkpt><trkpt lat="-36.733892" lon="174.4134774"><ele>127.00000000000001</ele><time>2026-04-08T22:45:43.77Z</time></trkpt><trkpt lat="-36.7339603" lon="174.4135194"><ele>127.0</ele><time>2026-04-08T22:45:45.771Z</time></trkpt><trkpt lat="-36.7340161" lon="174.4135651"><ele>127.0</ele><time>2026-04-08T22:45:47.771Z</time></trkpt><trkpt lat="-36.734078" lon="174.4136273"><ele>127.0</ele><time>2026-04-08T22:45:50.772Z</time></trkpt><trkpt lat="-36.7341344" lon="174.4137005"><ele>127.00000000000001</ele><time>2026-04-08T22:45:52.771Z</time></trkpt><trkpt lat="-36.7341803" lon="174.4137739"><ele>127.0</ele><time>2026-04-08T22:45:54.77Z</time></trkpt><trkpt lat="-36.7342631" lon="174.4138031"><ele>127.16666666666667</ele><time>2026-04-08T22:45:57.77Z</time></trkpt><trkpt lat="-36.7343368" lon="174.4138303"><ele>127.33333333333334</ele><time>2026-04-08T22:45:59.772Z</time></trkpt><trkpt lat="-36.7344289" lon="174.4138305"><ele>127.5</ele><time>2026-04-08T22:46:02.77Z</time></trkpt><trkpt lat="-36.7344773" lon="174.4138818"><ele>127.66666666666666</ele><time>2026-04-08T22:46:04.771Z</time></trkpt><trkpt lat="-36.7345167" lon="174.4139745"><ele>127.83333333333333</ele><time>2026-04-08T22:46:06.77Z</time></trkpt><trkpt lat="-36.734562" lon="174.4140583"><ele>128.0</ele><time>2026-04-08T22:46:08.77Z</time></trkpt><trkpt lat="-36.7346202" lon="174.4141201"><ele>128.66666666666666</ele><time>2026-04-08T22:46:10.771Z</time></trkpt><trkpt lat="-36.7346834" lon="174.4141617"><ele>129.33333333333331</ele><time>2026-04-08T22:46:12.771Z</time></trkpt><trkpt lat="-36.7347619" lon="174.4142013"><ele>130.0</ele><time>2026-04-08T22:46:14.772Z</time></trkpt><trkpt lat="-36.7348413" lon="174.4142184"><ele>130.66666666666666</ele><time>2026-04-08T22:46:16.77Z</time></trkpt><trkpt lat="-36.7349144" lon="174.414209"><ele>131.33333333333334</ele><time>2026-04-08T22:46:18.771Z</time></trkpt><trkpt lat="-36.7349706" lon="174.4141313"><ele>132.0</ele><time>2026-04-08T22:46:21.771Z</time></trkpt><trkpt lat="-36.7350464" lon="174.4141239"><ele>132.0</ele><time>2026-04-08T22:46:23.77Z</time></trkpt><trkpt lat="-36.7351247" lon="174.4141364"><ele>132.0</ele><time>2026-04-08T22:46:25.77Z</time></trkpt><trkpt lat="-36.7351976" lon="174.4141196"><ele>132.0</ele><time>2026-04-08T22:46:27.77Z</time></trkpt><trkpt lat="-36.7352733" lon="174.414145"><ele>132.0</ele><time>2026-04-08T22:46:29.771Z</time></trkpt><trkpt lat="-36.735353" lon="174.4141894"><ele>132.0</ele><time>2026-04-08T22:46:31.771Z</time></trkpt><trkpt lat="-36.7354184" lon="174.4141646"><ele>132.0</ele><time>2026-04-08T22:46:33.772Z</time></trkpt><trkpt lat="-36.7354814" lon="174.4141234"><ele>131.83333333333334</ele><time>2026-04-08T22:46:36.771Z</time></trkpt><trkpt lat="-36.7355275" lon="174.4142128"><ele>131.66666666666666</ele><time>2026-04-08T22:46:40.771Z</time></trkpt><trkpt lat="-36.7355328" lon="174.4143144"><ele>131.5</ele><time>2026-04-08T22:46:43.771Z</time></trkpt><trkpt lat="-36.7355375" lon="174.4143971"><ele>131.33333333333331</ele><time>2026-04-08T22:46:46.771Z</time></trkpt><trkpt lat="-36.7354946" lon="174.4144727"><ele>131.16666666666666</ele><time>2026-04-08T22:46:48.772Z</time></trkpt><trkpt lat="-36.7354476" lon="174.4145405"><ele>131.0</ele><time>2026-04-08T22:46:50.771Z</time></trkpt><trkpt lat="-36.7353874" lon="174.4146159"><ele>130.0</ele><time>2026-04-08T22:46:52.77Z</time></trkpt><trkpt lat="-36.7353349" lon="174.414685"><ele>129.0</ele><time>2026-04-08T22:46:54.77Z</time></trkpt><trkpt lat="-36.7353249" lon="174.4147636"><ele>128.0</ele><time>2026-04-08T22:46:56.771Z</time></trkpt><trkpt lat="-36.7353384" lon="174.4148508"><ele>127.0</ele><time>2026-04-08T22:46:58.771Z</time></trkpt><trkpt lat="-36.7353643" lon="174.4149378"><ele>125.99999999999999</ele><time>2026-04-08T22:46:59.77Z</time></trkpt><trkpt lat="-36.7354093" lon="174.4150738"><ele>125.0</ele><time>2026-04-08T22:47:01.771Z</time></trkpt><trkpt lat="-36.7354019" lon="174.4152025"><ele>124.99999999999999</ele><time>2026-04-08T22:47:03.772Z</time></trkpt><trkpt lat="-36.7353762" lon="174.4153363"><ele>125.0</ele><time>2026-04-08T22:47:05.771Z</time></trkpt><trkpt lat="-36.7353764" lon="174.4154191"><ele>125.0</ele><time>2026-04-08T22:47:06.771Z</time></trkpt><trkpt lat="-36.7353849" lon="174.4155407"><ele>125.0</ele><time>2026-04-08T22:47:08.771Z</time></trkpt><trkpt lat="-36.7353626" lon="174.4156283"><ele>124.99999999999999</ele><time>2026-04-08T22:47:10.77Z</time></trkpt><trkpt lat="-36.7352729" lon="174.4156742"><ele>125.0</ele><time>2026-04-08T22:47:12.771Z</time></trkpt><trkpt lat="-36.7351694" lon="174.415681"><ele>124.16666666666666</ele><time>2026-04-08T22:47:14.77Z</time></trkpt><trkpt lat="-36.7350855" lon="174.4156358"><ele>123.33333333333333</ele><time>2026-04-08T22:47:15.772Z</time></trkpt><trkpt lat="-36.7350108" lon="174.4156036"><ele>122.5</ele><time>2026-04-08T22:47:16.772Z</time></trkpt><trkpt lat="-36.7349434" lon="174.4155687"><ele>121.66666666666666</ele><time>2026-04-08T22:47:17.772Z</time></trkpt><trkpt lat="-36.7348651" lon="174.415576"><ele>120.83333333333333</ele><time>2026-04-08T22:47:20.77Z</time></trkpt><trkpt lat="-36.7348114" lon="174.415623"><ele>120.0</ele><time>2026-04-08T22:47:22.77Z</time></trkpt><trkpt lat="-36.7347177" lon="174.4156339"><ele>120.0</ele><time>2026-04-08T22:47:25.772Z</time></trkpt><trkpt lat="-36.7346444" lon="174.4155995"><ele>120.0</ele><time>2026-04-08T22:47:27.771Z</time></trkpt><trkpt lat="-36.7345757" lon="174.4155685"><ele>120.0</ele><time>2026-04-08T22:47:29.772Z</time></trkpt><trkpt lat="-36.7345006" lon="174.4155842"><ele>120.0</ele><time>2026-04-08T22:47:31.77Z</time></trkpt><trkpt lat="-36.734422" lon="174.4156038"><ele>120.0</ele><time>2026-04-08T22:47:33.771Z</time></trkpt><trkpt lat="-36.7343424" lon="174.4155818"><ele>120.0</ele><time>2026-04-08T22:47:35.77Z</time></trkpt><trkpt lat="-36.7342708" lon="174.4155751"><ele>120.16666666666667</ele><time>2026-04-08T22:47:37.771Z</time></trkpt><trkpt lat="-36.7341942" lon="174.415619"><ele>120.33333333333334</ele><time>2026-04-08T22:47:39.771Z</time></trkpt><trkpt lat="-36.7341239" lon="174.4156714"><ele>120.5</ele><time>2026-04-08T22:47:41.771Z</time></trkpt><trkpt lat="-36.7340542" lon="174.4157124"><ele>120.66666666666667</ele><time>2026-04-08T22:47:43.771Z</time></trkpt><trkpt lat="-36.7339999" lon="174.4157815"><ele>120.83333333333334</ele><time>2026-04-08T22:47:45.77Z</time></trkpt><trkpt lat="-36.7339613" lon="174.4158481"><ele>121.0</ele><time>2026-04-08T22:47:46.771Z</time></trkpt><trkpt lat="-36.7338838" lon="174.4159245"><ele>121.0</ele><time>2026-04-08T22:47:48.771Z</time></trkpt><trkpt lat="-36.7337871" lon="174.4160268"><ele>121.0</ele><time>2026-04-08T22:47:50.77Z</time></trkpt><trkpt lat="-36.7337382" lon="174.4161624"><ele>121.0</ele><time>2026-04-08T22:47:52.769Z</time></trkpt><trkpt lat="-36.7336858" lon="174.4162912"><ele>121.0</ele><time>2026-04-08T22:47:54.771Z</time></trkpt><trkpt lat="-36.733626" lon="174.4163247"><ele>121.0</ele><time>2026-04-08T22:47:55.772Z</time></trkpt><trkpt lat="-36.7335385" lon="174.4163806"><ele>120.50000000000001</ele><time>2026-04-08T22:47:57.77Z</time></trkpt><trkpt lat="-36.7334727" lon="174.4163969"><ele>120.0</ele><time>2026-04-08T22:47:58.77Z</time></trkpt><trkpt lat="-36.7334092" lon="174.4164329"><ele>119.5</ele><time>2026-04-08T22:47:59.77Z</time></trkpt><trkpt lat="-36.7333593" lon="174.416485"><ele>119.0</ele><time>2026-04-08T22:48:00.77Z</time></trkpt><trkpt lat="-36.7333307" lon="174.4165761"><ele>118.50000000000001</ele><time>2026-04-08T22:48:02.77Z</time></trkpt><trkpt lat="-36.733324" lon="174.4166738"><ele>118.0</ele><time>2026-04-08T22:48:04.771Z</time></trkpt><trkpt lat="-36.7332952" lon="174.4168018"><ele>118.00000000000001</ele><time>2026-04-08T22:48:06.771Z</time></trkpt><trkpt lat="-36.7333011" lon="174.416908"><ele>118.0</ele><time>2026-04-08T22:48:08.77Z</time></trkpt><trkpt lat="-36.7333412" lon="174.4169893"><ele>118.0</ele><time>2026-04-08T22:48:10.77Z</time></trkpt><trkpt lat="-36.7333598" lon="174.4170931"><ele>118.0</ele><time>2026-04-08T22:48:12.771Z</time></trkpt><trkpt lat="-36.7333539" lon="174.4171799"><ele>118.00000000000001</ele><time>2026-04-08T22:48:14.771Z</time></trkpt><trkpt lat="-36.7332789" lon="174.4172169"><ele>118.0</ele><time>2026-04-08T22:48:17.771Z</time></trkpt><trkpt lat="-36.7332372" lon="174.417315"><ele>117.83333333333334</ele><time>2026-04-08T22:48:20.772Z</time></trkpt><trkpt lat="-36.7332345" lon="174.4174017"><ele>117.66666666666667</ele><time>2026-04-08T22:48:22.772Z</time></trkpt><trkpt lat="-36.7332307" lon="174.4175183"><ele>117.5</ele><time>2026-04-08T22:48:25.772Z</time></trkpt><trkpt lat="-36.7331675" lon="174.417599"><ele>117.33333333333334</ele><time>2026-04-08T22:48:28.771Z</time></trkpt><trkpt lat="-36.7331071" lon="174.417637"><ele>117.16666666666667</ele><time>2026-04-08T22:48:31.77Z</time></trkpt><trkpt lat="-36.7330341" lon="174.4176978"><ele>117.0</ele><time>2026-04-08T22:48:34.771Z</time></trkpt><trkpt lat="-36.732992" lon="174.4176197"><ele>117.0</ele><time>2026-04-08T22:48:38.771Z</time></trkpt><trkpt lat="-36.7330352" lon="174.4175571"><ele>117.00000000000001</ele><time>2026-04-08T22:48:40.771Z</time></trkpt><trkpt lat="-36.7330751" lon="174.4174907"><ele>117.0</ele><time>2026-04-08T22:48:43.77Z</time></trkpt><trkpt lat="-36.7330029" lon="174.417519"><ele>117.0</ele><time>2026-04-08T22:48:47.771Z</time></trkpt><trkpt lat="-36.7329468" lon="174.4175576"><ele>117.00000000000001</ele><time>2026-04-08T22:48:50.771Z</time></trkpt><trkpt lat="-36.7328701" lon="174.4174858"><ele>117.0</ele><time>2026-04-08T22:48:53.771Z</time></trkpt><trkpt lat="-36.7327969" lon="174.4174796"><ele>117.0</ele><time>2026-04-08T22:48:55.771Z</time></trkpt><trkpt lat="-36.73272" lon="174.4175118"><ele>117.19999999999999</ele><time>2026-04-08T22:48:58.77Z</time></trkpt><trkpt lat="-36.7326145" lon="174.4175458"><ele>117.39999999999999</ele><time>2026-04-08T22:49:00.77Z</time></trkpt><trkpt lat="-36.7325204" lon="174.4175237"><ele>117.60000000000001</ele><time>2026-04-08T22:49:02.77Z</time></trkpt><trkpt lat="-36.7324214" lon="174.4175057"><ele>117.80000000000001</ele><time>2026-04-08T22:49:04.771Z</time></trkpt><trkpt lat="-36.7323393" lon="174.417471"><ele>118.0</ele><time>2026-04-08T22:49:06.771Z</time></trkpt><trkpt lat="-36.732274" lon="174.4173973"><ele>118.00000000000001</ele><time>2026-04-08T22:49:08.77Z</time></trkpt><trkpt lat="-36.7322288" lon="174.4173156"><ele>118.0</ele><time>2026-04-08T22:49:10.771Z</time></trkpt><trkpt lat="-36.7321958" lon="174.4172099"><ele>118.0</ele><time>2026-04-08T22:49:12.772Z</time></trkpt><trkpt lat="-36.7321801" lon="174.4170961"><ele>118.0</ele><time>2026-04-08T22:49:14.77Z</time></trkpt><trkpt lat="-36.7321178" lon="174.4170455"><ele>118.00000000000001</ele><time>2026-04-08T22:49:16.77Z</time></trkpt><trkpt lat="-36.7320555" lon="174.4171379"><ele>118.0</ele><time>2026-04-08T22:49:19.77Z</time></trkpt><trkpt lat="-36.7320422" lon="174.4172638"><ele>118.00000000000001</ele><time>2026-04-08T22:49:22.77Z</time></trkpt><trkpt lat="-36.732034" lon="174.4173968"><ele>118.0</ele><time>2026-04-08T22:49:24.77Z</time></trkpt><trkpt lat="-36.7320982" lon="174.4174922"><ele>118.0</ele><time>2026-04-08T22:49:26.77Z</time></trkpt><trkpt lat="-36.7321327" lon="174.417607"><ele>118.0</ele><time>2026-04-08T22:49:28.771Z</time></trkpt><trkpt lat="-36.732117" lon="174.4176975"><ele>118.00000000000001</ele><time>2026-04-08T22:49:30.771Z</time></trkpt><trkpt lat="-36.7320923" lon="174.4177716"><ele>118.0</ele><time>2026-04-08T22:49:32.771Z</time></trkpt><trkpt lat="-36.7320263" lon="174.4177768"><ele>118.0</ele><time>2026-04-08T22:49:34.77Z</time></trkpt><trkpt lat="-36.7319268" lon="174.4177034"><ele>118.00000000000001</ele><time>2026-04-08T22:49:36.769Z</time></trkpt><trkpt lat="-36.731853" lon="174.4176198"><ele>118.00000000000001</ele><time>2026-04-08T22:49:38.77Z</time></trkpt><trkpt lat="-36.7318034" lon="174.4175129"><ele>118.0</ele><time>2026-04-08T22:49:40.769Z</time></trkpt><trkpt lat="-36.7317703" lon="174.417383"><ele>118.0</ele><time>2026-04-08T22:49:42.77Z</time></trkpt><trkpt lat="-36.7317288" lon="174.4172951"><ele>117.33333333333334</ele><time>2026-04-08T22:49:44.771Z</time></trkpt><trkpt lat="-36.7316584" lon="174.4172162"><ele>116.66666666666667</ele><time>2026-04-08T22:49:46.771Z</time></trkpt><trkpt lat="-36.7316399" lon="174.4171237"><ele>116.0</ele><time>2026-04-08T22:49:48.77Z</time></trkpt><trkpt lat="-36.7316057" lon="174.417019"><ele>115.33333333333334</ele><time>2026-04-08T22:49:51.77Z</time></trkpt><trkpt lat="-36.7315853" lon="174.4169298"><ele>114.66666666666667</ele><time>2026-04-08T22:49:54.771Z</time></trkpt><trkpt lat="-36.7315992" lon="174.4168513"><ele>114.0</ele><time>2026-04-08T22:49:56.77Z</time></trkpt><trkpt lat="-36.7315678" lon="174.4167828"><ele>114.0</ele><time>2026-04-08T22:49:58.771Z</time></trkpt><trkpt lat="-36.731575" lon="174.4166872"><ele>113.99999999999999</ele><time>2026-04-08T22:50:01.771Z</time></trkpt><trkpt lat="-36.7315881" lon="174.4166089"><ele>114.0</ele><time>2026-04-08T22:50:03.771Z</time></trkpt><trkpt lat="-36.7316023" lon="174.4165223"><ele>114.0</ele><time>2026-04-08T22:50:05.77Z</time></trkpt><trkpt lat="-36.7316555" lon="174.4164375"><ele>113.99999999999999</ele><time>2026-04-08T22:50:08.772Z</time></trkpt><trkpt lat="-36.7316985" lon="174.4163757"><ele>114.0</ele><time>2026-04-08T22:50:10.772Z</time></trkpt><trkpt lat="-36.7317628" lon="174.416346"><ele>114.0</ele><time>2026-04-08T22:50:14.77Z</time></trkpt><trkpt lat="-36.7318382" lon="174.4163427"><ele>114.0</ele><time>2026-04-08T22:50:16.771Z</time></trkpt><trkpt lat="-36.7318925" lon="174.4164025"><ele>114.0</ele><time>2026-04-08T22:50:20.77Z</time></trkpt><trkpt lat="-36.7319601" lon="174.4164792"><ele>114.0</ele><time>2026-04-08T22:50:24.771Z</time></trkpt><trkpt lat="-36.7319776" lon="174.4165691"><ele>114.0</ele><time>2026-04-08T22:50:28.769Z</time></trkpt><trkpt lat="-36.7319144" lon="174.4166064"><ele>114.0</ele><time>2026-04-08T22:50:31.771Z</time></trkpt><trkpt lat="-36.7318606" lon="174.4165453"><ele>114.0</ele><time>2026-04-08T22:50:34.771Z</time></trkpt><trkpt lat="-36.7318277" lon="174.4164648"><ele>114.0</ele><time>2026-04-08T22:50:38.772Z</time></trkpt><trkpt lat="-36.7317848" lon="174.4165443"><ele>113.99999999999999</ele><time>2026-04-08T22:50:44.77Z</time></trkpt><trkpt lat="-36.7317803" lon="174.4166268"><ele>114.0</ele><time>2026-04-08T22:50:47.771Z</time></trkpt><trkpt lat="-36.7318056" lon="174.4167268"><ele>114.0</ele><time>2026-04-08T22:50:50.771Z</time></trkpt><trkpt lat="-36.7318678" lon="174.416749"><ele>113.99999999999999</ele><time>2026-04-08T22:50:53.77Z</time></trkpt><trkpt lat="-36.7319303" lon="174.4167818"><ele>114.0</ele><time>2026-04-08T22:53:25.772Z</time></trkpt><trkpt lat="-36.7319906" lon="174.4167555"><ele>114.0</ele><time>2026-04-08T22:53:27.77Z</time></trkpt><trkpt lat="-36.7320383" lon="174.4166839"><ele>115.5</ele><time>2026-04-08T22:53:29.771Z</time></trkpt><trkpt lat="-36.7320661" lon="174.4166046"><ele>117.0</ele><time>2026-04-08T22:53:32.771Z</time></trkpt><trkpt lat="-36.7320792" lon="174.4164923"><ele>118.5</ele><time>2026-04-08T22:53:36.77Z</time></trkpt><trkpt lat="-36.7320792" lon="174.4164134"><ele>120.0</ele><time>2026-04-08T22:53:38.769Z</time></trkpt><trkpt lat="-36.7320609" lon="174.4163159"><ele>121.5</ele><time>2026-04-08T22:53:40.771Z</time></trkpt><trkpt lat="-36.7320351" lon="174.4162413"><ele>123.0</ele><time>2026-04-08T22:53:42.77Z</time></trkpt><trkpt lat="-36.7320406" lon="174.4161357"><ele>123.0</ele><time>2026-04-08T22:53:45.771Z</time></trkpt><trkpt lat="-36.7320771" lon="174.4160102"><ele>123.0</ele><time>2026-04-08T22:53:47.77Z</time></trkpt><trkpt lat="-36.7321121" lon="174.415912"><ele>123.0</ele><time>2026-04-08T22:53:49.771Z</time></trkpt><trkpt lat="-36.7321671" lon="174.4158482"><ele>123.0</ele><time>2026-04-08T22:53:51.772Z</time></trkpt><trkpt lat="-36.732207" lon="174.4157865"><ele>123.0</ele><time>2026-04-08T22:53:53.771Z</time></trkpt><trkpt lat="-36.7322751" lon="174.4157314"><ele>123.0</ele><time>2026-04-08T22:53:56.77Z</time></trkpt><trkpt lat="-36.7323405" lon="174.4157367"><ele>123.0</ele><time>2026-04-08T22:53:59.77Z</time></trkpt><trkpt lat="-36.7323654" lon="174.4158218"><ele>123.0</ele><time>2026-04-08T22:54:03.769Z</time></trkpt><trkpt lat="-36.7323786" lon="174.4159076"><ele>123.0</ele><time>2026-04-08T22:54:06.771Z</time></trkpt><trkpt lat="-36.7323934" lon="174.4159849"><ele>123.0</ele><time>2026-04-08T22:54:09.77Z</time></trkpt><trkpt lat="-36.7324126" lon="174.4160983"><ele>123.0</ele><time>2026-04-08T22:54:12.771Z</time></trkpt><trkpt lat="-36.7324251" lon="174.4161915"><ele>123.0</ele><time>2026-04-08T22:54:14.771Z</time></trkpt><trkpt lat="-36.7324585" lon="174.4162834"><ele>123.0</ele><time>2026-04-08T22:54:17.771Z</time></trkpt><trkpt lat="-36.732496" lon="174.4163537"><ele>123.0</ele><time>2026-04-08T22:54:19.77Z</time></trkpt><trkpt lat="-36.7325254" lon="174.4164334"><ele>123.0</ele><time>2026-04-08T22:54:21.77Z</time></trkpt><trkpt lat="-36.7325486" lon="174.4165334"><ele>123.0</ele><time>2026-04-08T22:54:23.77Z</time></trkpt><trkpt lat="-36.7325839" lon="174.4166112"><ele>123.0</ele><time>2026-04-08T22:54:25.771Z</time></trkpt><trkpt lat="-36.7326391" lon="174.4166654"><ele>123.0</ele><time>2026-04-08T22:54:27.771Z</time></trkpt><trkpt lat="-36.7326363" lon="174.4168152"><ele>123.00000000000001</ele><time>2026-04-08T22:54:29.769Z</time></trkpt><trkpt lat="-36.7326603" lon="174.4169044"><ele>123.0</ele><time>2026-04-08T22:54:31.769Z</time></trkpt><trkpt lat="-36.7326671" lon="174.416998"><ele>123.00000000000001</ele><time>2026-04-08T22:54:34.771Z</time></trkpt><trkpt lat="-36.7326536" lon="174.4170961"><ele>123.00000000000001</ele><time>2026-04-08T22:54:36.771Z</time></trkpt><trkpt lat="-36.7326411" lon="174.4171925"><ele>123.0</ele><time>2026-04-08T22:54:38.771Z</time></trkpt><trkpt lat="-36.7326555" lon="174.4172752"><ele>123.00000000000001</ele><time>2026-04-08T22:54:40.77Z</time></trkpt><trkpt lat="-36.7327068" lon="174.4173365"><ele>123.00000000000001</ele><time>2026-04-08T22:54:42.772Z</time></trkpt><trkpt lat="-36.7327912" lon="174.4173678"><ele>122.16666666666667</ele><time>2026-04-08T22:54:45.77Z</time></trkpt><trkpt lat="-36.7328673" lon="174.4173108"><ele>121.33333333333334</ele><time>2026-04-08T22:54:48.77Z</time></trkpt><trkpt lat="-36.7329011" lon="174.4172129"><ele>120.5</ele><time>2026-04-08T22:54:51.771Z</time></trkpt><trkpt lat="-36.7328733" lon="174.4171242"><ele>119.66666666666667</ele><time>2026-04-08T22:54:53.77Z</time></trkpt><trkpt lat="-36.7328341" lon="174.4170576"><ele>118.83333333333334</ele><time>2026-04-08T22:54:55.771Z</time></trkpt><trkpt lat="-36.7328008" lon="174.4169614"><ele>118.0</ele><time>2026-04-08T22:54:57.772Z</time></trkpt><trkpt lat="-36.7328137" lon="174.4168638"><ele>118.00000000000001</ele><time>2026-04-08T22:54:59.77Z</time></trkpt><trkpt lat="-36.7328475" lon="174.4167793"><ele>118.0</ele><time>2026-04-08T22:55:01.772Z</time></trkpt><trkpt lat="-36.7328941" lon="174.4166903"><ele>118.0</ele><time>2026-04-08T22:55:03.77Z</time></trkpt><trkpt lat="-36.7329177" lon="174.4165776"><ele>118.0</ele><time>2026-04-08T22:55:05.771Z</time></trkpt><trkpt lat="-36.7329191" lon="174.4164895"><ele>118.00000000000001</ele><time>2026-04-08T22:55:07.772Z</time></trkpt><trkpt lat="-36.7328906" lon="174.4164137"><ele>118.0</ele><time>2026-04-08T22:55:09.771Z</time></trkpt><trkpt lat="-36.732888" lon="174.4163298"><ele>119.2</ele><time>2026-04-08T22:55:11.771Z</time></trkpt><trkpt lat="-36.7329587" lon="174.4162773"><ele>120.4</ele><time>2026-04-08T22:55:14.772Z</time></trkpt><trkpt lat="-36.7330401" lon="174.4161636"><ele>121.60000000000001</ele><time>2026-04-08T22:55:16.771Z</time></trkpt><trkpt lat="-36.7331017" lon="174.4160894"><ele>122.80000000000001</ele><time>2026-04-08T22:55:18.771Z</time></trkpt><trkpt lat="-36.7331902" lon="174.41612"><ele>124.0</ele><time>2026-04-08T22:55:20.771Z</time></trkpt><trkpt lat="-36.7332721" lon="174.4160921"><ele>124.0</ele><time>2026-04-08T22:55:22.771Z</time></trkpt><trkpt lat="-36.7333361" lon="174.416093"><ele>124.0</ele><time>2026-04-08T22:55:27.771Z</time></trkpt><trkpt lat="-36.7332467" lon="174.4160313"><ele>124.0</ele><time>2026-04-08T22:55:36.771Z</time></trkpt><trkpt lat="-36.7331822" lon="174.4159156"><ele>124.0</ele><time>2026-04-08T22:55:38.77Z</time></trkpt><trkpt lat="-36.7328029" lon="174.4160288"><ele>124.00000000000001</ele><time>2026-04-08T22:55:40.771Z</time></trkpt><trkpt lat="-36.7327324" lon="174.4159686"><ele>124.0</ele><time>2026-04-08T22:55:42.77Z</time></trkpt><trkpt lat="-36.7326973" lon="174.4158849"><ele>124.0</ele><time>2026-04-08T22:55:44.771Z</time></trkpt><trkpt lat="-36.7326399" lon="174.4157874"><ele>124.0</ele><time>2026-04-08T22:55:46.77Z</time></trkpt><trkpt lat="-36.7325656" lon="174.4157149"><ele>124.00000000000001</ele><time>2026-04-08T22:55:48.77Z</time></trkpt><trkpt lat="-36.7325177" lon="174.4156279"><ele>124.0</ele><time>2026-04-08T22:55:50.77Z</time></trkpt><trkpt lat="-36.7324656" lon="174.4155577"><ele>124.0</ele><time>2026-04-08T22:55:52.772Z</time></trkpt><trkpt lat="-36.7323971" lon="174.4155107"><ele>124.00000000000001</ele><time>2026-04-08T22:55:54.77Z</time></trkpt><trkpt lat="-36.7323375" lon="174.4154667"><ele>124.0</ele><time>2026-04-08T22:55:55.772Z</time></trkpt><trkpt lat="-36.7322596" lon="174.4154181"><ele>124.0</ele><time>2026-04-08T22:55:56.772Z</time></trkpt><trkpt lat="-36.7321973" lon="174.4153645"><ele>124.00000000000001</ele><time>2026-04-08T22:55:58.771Z</time></trkpt><trkpt lat="-36.7321453" lon="174.4153191"><ele>124.0</ele><time>2026-04-08T22:56:00.771Z</time></trkpt><trkpt lat="-36.7320863" lon="174.4152676"><ele>124.0</ele><time>2026-04-08T22:56:02.771Z</time></trkpt><trkpt lat="-36.7320276" lon="174.41522"><ele>124.0</ele><time>2026-04-08T22:56:04.77Z</time></trkpt><trkpt lat="-36.7319235" lon="174.4151741"><ele>124.0</ele><time>2026-04-08T22:56:06.771Z</time></trkpt><trkpt lat="-36.731854" lon="174.4150759"><ele>124.0</ele><time>2026-04-08T22:56:08.77Z</time></trkpt><trkpt lat="-36.7317563" lon="174.4149755"><ele>124.0</ele><time>2026-04-08T22:56:10.771Z</time></trkpt><trkpt lat="-36.7317123" lon="174.4149176"><ele>124.0</ele><time>2026-04-08T22:56:11.77Z</time></trkpt><trkpt lat="-36.7317036" lon="174.4147699"><ele>123.33333333333334</ele><time>2026-04-08T22:56:13.771Z</time></trkpt><trkpt lat="-36.7317011" lon="174.4146699"><ele>122.66666666666667</ele><time>2026-04-08T22:56:15.77Z</time></trkpt><trkpt lat="-36.7316692" lon="174.4145816"><ele>122.0</ele><time>2026-04-08T22:56:17.77Z</time></trkpt><trkpt lat="-36.7316088" lon="174.414505"><ele>121.33333333333334</ele><time>2026-04-08T22:56:19.771Z</time></trkpt><trkpt lat="-36.7315456" lon="174.4144995"><ele>120.66666666666667</ele><time>2026-04-08T22:56:21.771Z</time></trkpt><trkpt lat="-36.7315271" lon="174.4145978"><ele>120.0</ele><time>2026-04-08T22:56:22.771Z</time></trkpt><trkpt lat="-36.7315331" lon="174.4147333"><ele>118.66666666666667</ele><time>2026-04-08T22:56:24.771Z</time></trkpt><trkpt lat="-36.7315557" lon="174.4148694"><ele>117.33333333333334</ele><time>2026-04-08T22:56:26.771Z</time></trkpt><trkpt lat="-36.7316011" lon="174.4149619"><ele>116.0</ele><time>2026-04-08T22:56:28.771Z</time></trkpt><trkpt lat="-36.7316082" lon="174.4150452"><ele>114.66666666666667</ele><time>2026-04-08T22:56:30.77Z</time></trkpt><trkpt lat="-36.7316448" lon="174.4151354"><ele>113.33333333333334</ele><time>2026-04-08T22:56:32.77Z</time></trkpt><trkpt lat="-36.7316628" lon="174.41522"><ele>112.0</ele><time>2026-04-08T22:56:34.77Z</time></trkpt><trkpt lat="-36.7317057" lon="174.4153308"><ele>112.0</ele><time>2026-04-08T22:56:36.77Z</time></trkpt><trkpt lat="-36.73174" lon="174.4154028"><ele>112.0</ele><time>2026-04-08T22:56:38.77Z</time></trkpt><trkpt lat="-36.7317858" lon="174.4154652"><ele>112.0</ele><time>2026-04-08T22:56:39.771Z</time></trkpt><trkpt lat="-36.7318448" lon="174.4155368"><ele>112.0</ele><time>2026-04-08T22:56:41.771Z</time></trkpt><trkpt lat="-36.7318523" lon="174.4156197"><ele>112.0</ele><time>2026-04-08T22:56:43.77Z</time></trkpt><trkpt lat="-36.7318161" lon="174.4156887"><ele>112.0</ele><time>2026-04-08T22:56:45.77Z</time></trkpt><trkpt lat="-36.7317772" lon="174.4157535"><ele>112.0</ele><time>2026-04-08T22:56:47.771Z</time></trkpt><trkpt lat="-36.7317131" lon="174.4158241"><ele>111.16666666666667</ele><time>2026-04-08T22:56:49.771Z</time></trkpt><trkpt lat="-36.7316599" lon="174.4158775"><ele>110.33333333333334</ele><time>2026-04-08T22:56:51.769Z</time></trkpt><trkpt lat="-36.7315947" lon="174.4159272"><ele>109.5</ele><time>2026-04-08T22:56:53.77Z</time></trkpt><trkpt lat="-36.7315352" lon="174.4160217"><ele>108.66666666666666</ele><time>2026-04-08T22:56:55.771Z</time></trkpt><trkpt lat="-36.7314654" lon="174.4160969"><ele>107.83333333333333</ele><time>2026-04-08T22:56:57.77Z</time></trkpt><trkpt lat="-36.7314065" lon="174.4161278"><ele>107.0</ele><time>2026-04-08T22:56:58.77Z</time></trkpt><trkpt lat="-36.7313105" lon="174.4161548"><ele>107.0</ele><time>2026-04-08T22:57:00.77Z</time></trkpt><trkpt lat="-36.7312065" lon="174.4161626"><ele>106.99999999999999</ele><time>2026-04-08T22:57:01.77Z</time></trkpt><trkpt lat="-36.7311206" lon="174.4161823"><ele>106.99999999999999</ele><time>2026-04-08T22:57:02.77Z</time></trkpt><trkpt lat="-36.7310451" lon="174.4162212"><ele>107.0</ele><time>2026-04-08T22:57:03.77Z</time></trkpt><trkpt lat="-36.7309705" lon="174.4162427"><ele>107.0</ele><time>2026-04-08T22:57:04.77Z</time></trkpt><trkpt lat="-36.730876" lon="174.416324"><ele>103.49999999999999</ele><time>2026-04-08T22:57:06.769Z</time></trkpt><trkpt lat="-36.7308451" lon="174.4164362"><ele>100.0</ele><time>2026-04-08T22:57:08.771Z</time></trkpt><trkpt lat="-36.7308465" lon="174.416553"><ele>96.5</ele><time>2026-04-08T22:57:10.771Z</time></trkpt><trkpt lat="-36.7308657" lon="174.4166291"><ele>93.0</ele><time>2026-04-08T22:57:12.77Z</time></trkpt><trkpt lat="-36.7309289" lon="174.416702"><ele>89.5</ele><time>2026-04-08T22:57:15.772Z</time></trkpt><trkpt lat="-36.7309983" lon="174.4167829"><ele>86.0</ele><time>2026-04-08T22:57:18.771Z</time></trkpt><trkpt lat="-36.7310393" lon="174.4168692"><ele>86.0</ele><time>2026-04-08T22:57:20.771Z</time></trkpt><trkpt lat="-36.7310535" lon="174.4169689"><ele>86.0</ele><time>2026-04-08T22:57:22.769Z</time></trkpt><trkpt lat="-36.7310803" lon="174.4170528"><ele>86.0</ele><time>2026-04-08T22:57:24.771Z</time></trkpt><trkpt lat="-36.7311341" lon="174.4171495"><ele>86.0</ele><time>2026-04-08T22:57:26.769Z</time></trkpt><trkpt lat="-36.7311881" lon="174.4172206"><ele>86.0</ele><time>2026-04-08T22:57:28.77Z</time></trkpt><trkpt lat="-36.7312318" lon="174.4173057"><ele>86.0</ele><time>2026-04-08T22:57:30.77Z</time></trkpt><trkpt lat="-36.7312705" lon="174.417401"><ele>89.0</ele><time>2026-04-08T22:57:32.77Z</time></trkpt><trkpt lat="-36.7313126" lon="174.4174901"><ele>92.0</ele><time>2026-04-08T22:57:34.771Z</time></trkpt><trkpt lat="-36.7313481" lon="174.417576"><ele>95.0</ele><time>2026-04-08T22:57:36.771Z</time></trkpt><trkpt lat="-36.731383" lon="174.417661"><ele>98.0</ele><time>2026-04-08T22:57:38.771Z</time></trkpt><trkpt lat="-36.7314204" lon="174.4177431"><ele>100.99999999999999</ele><time>2026-04-08T22:57:40.77Z</time></trkpt><trkpt lat="-36.7314604" lon="174.4178247"><ele>104.0</ele><time>2026-04-08T22:57:42.77Z</time></trkpt><trkpt lat="-36.731516" lon="174.4178864"><ele>103.99999999999999</ele><time>2026-04-08T22:57:44.77Z</time></trkpt><trkpt lat="-36.7315719" lon="174.4179368"><ele>104.0</ele><time>2026-04-08T22:57:46.77Z</time></trkpt><trkpt lat="-36.7316465" lon="174.4179553"><ele>104.0</ele><time>2026-04-08T22:57:49.772Z</time></trkpt><trkpt lat="-36.7316551" lon="174.4178634"><ele>104.0</ele><time>2026-04-08T22:57:52.771Z</time></trkpt><trkpt lat="-36.7315939" lon="174.4177702"><ele>103.99999999999999</ele><time>2026-04-08T22:57:55.77Z</time></trkpt><trkpt lat="-36.7315386" lon="174.417705"><ele>104.0</ele><time>2026-04-08T22:57:57.771Z</time></trkpt><trkpt lat="-36.7315025" lon="174.4176271"><ele>103.99999999999999</ele><time>2026-04-08T22:57:59.77Z</time></trkpt><trkpt lat="-36.7314662" lon="174.4175533"><ele>104.0</ele><time>2026-04-08T22:58:01.77Z</time></trkpt><trkpt lat="-36.7314443" lon="174.4174738"><ele>104.0</ele><time>2026-04-08T22:58:03.771Z</time></trkpt><trkpt lat="-36.7314781" lon="174.4173797"><ele>104.0</ele><time>2026-04-08T22:58:06.769Z</time></trkpt><trkpt lat="-36.731552" lon="174.4173708"><ele>103.99999999999999</ele><time>2026-04-08T22:58:09.769Z</time></trkpt><trkpt lat="-36.7316384" lon="174.4174151"><ele>104.0</ele><time>2026-04-08T22:58:12.771Z</time></trkpt><trkpt lat="-36.7316883" lon="174.417465"><ele>103.99999999999999</ele><time>2026-04-08T22:58:14.769Z</time></trkpt><trkpt lat="-36.7317643" lon="174.417546"><ele>104.0</ele><time>2026-04-08T22:58:17.77Z</time></trkpt><trkpt lat="-36.7318128" lon="174.417611"><ele>104.0</ele><time>2026-04-08T22:58:19.769Z</time></trkpt><trkpt lat="-36.7318481" lon="174.417699"><ele>104.0</ele><time>2026-04-08T22:58:22.769Z</time></trkpt><trkpt lat="-36.7318998" lon="174.4177443"><ele>103.99999999999999</ele><time>2026-04-08T22:58:24.77Z</time></trkpt><trkpt lat="-36.731959" lon="174.4177794"><ele>104.0</ele><time>2026-04-08T22:58:26.77Z</time></trkpt><trkpt lat="-36.7320374" lon="174.417849"><ele>106.80000000000001</ele><time>2026-04-08T22:58:29.769Z</time></trkpt><trkpt lat="-36.7321028" lon="174.4178821"><ele>109.60000000000001</ele><time>2026-04-08T22:58:31.77Z</time></trkpt><trkpt lat="-36.7321829" lon="174.4178711"><ele>112.4</ele><time>2026-04-08T22:58:34.771Z</time></trkpt><trkpt lat="-36.7322825" lon="174.4178947"><ele>115.2</ele><time>2026-04-08T22:58:37.769Z</time></trkpt><trkpt lat="-36.7323798" lon="174.4179305"><ele>118.0</ele><time>2026-04-08T22:58:39.769Z</time></trkpt><trkpt lat="-36.7324813" lon="174.4179534"><ele>118.00000000000001</ele><time>2026-04-08T22:58:41.769Z</time></trkpt><trkpt lat="-36.7325618" lon="174.4179398"><ele>118.0</ele><time>2026-04-08T22:58:43.77Z</time></trkpt><trkpt lat="-36.7326157" lon="174.417897"><ele>118.0</ele><time>2026-04-08T22:58:45.77Z</time></trkpt><trkpt lat="-36.7326664" lon="174.4178153"><ele>118.0</ele><time>2026-04-08T22:58:48.77Z</time></trkpt><trkpt lat="-36.7327291" lon="174.417864"><ele>118.00000000000001</ele><time>2026-04-08T22:58:52.77Z</time></trkpt><trkpt lat="-36.7328054" lon="174.4179028"><ele>118.0</ele><time>2026-04-08T22:58:55.771Z</time></trkpt><trkpt lat="-36.7328704" lon="174.4179407"><ele>117.85714285714286</ele><time>2026-04-08T22:58:57.77Z</time></trkpt><trkpt lat="-36.7329404" lon="174.4179725"><ele>117.71428571428572</ele><time>2026-04-08T22:58:59.77Z</time></trkpt><trkpt lat="-36.7330027" lon="174.4179581"><ele>117.57142857142858</ele><time>2026-04-08T22:59:01.769Z</time></trkpt><trkpt lat="-36.7330818" lon="174.4179001"><ele>117.42857142857143</ele><time>2026-04-08T22:59:04.771Z</time></trkpt><trkpt lat="-36.7331469" lon="174.4178576"><ele>117.2857142857143</ele><time>2026-04-08T22:59:06.77Z</time></trkpt><trkpt lat="-36.7332057" lon="174.417803"><ele>117.14285714285715</ele><time>2026-04-08T22:59:08.771Z</time></trkpt><trkpt lat="-36.7332565" lon="174.4177453"><ele>117.0</ele><time>2026-04-08T22:59:10.769Z</time></trkpt><trkpt lat="-36.7333037" lon="174.4176713"><ele>117.0</ele><time>2026-04-08T22:59:12.771Z</time></trkpt><trkpt lat="-36.7333489" lon="174.4175859"><ele>117.0</ele><time>2026-04-08T22:59:14.771Z</time></trkpt><trkpt lat="-36.7334081" lon="174.4175331"><ele>117.0</ele><time>2026-04-08T22:59:17.771Z</time></trkpt><trkpt lat="-36.7334495" lon="174.4176184"><ele>117.0</ele><time>2026-04-08T22:59:22.769Z</time></trkpt><trkpt lat="-36.733433" lon="174.4177174"><ele>117.0</ele><time>2026-04-08T22:59:25.769Z</time></trkpt><trkpt lat="-36.7334018" lon="174.4177876"><ele>117.0</ele><time>2026-04-08T22:59:27.77Z</time></trkpt><trkpt lat="-36.733322" lon="174.4178615"><ele>117.0</ele><time>2026-04-08T22:59:30.769Z</time></trkpt><trkpt lat="-36.7332629" lon="174.4178908"><ele>117.0</ele><time>2026-04-08T22:59:32.77Z</time></trkpt><trkpt lat="-36.7332219" lon="174.4179551"><ele>117.0</ele><time>2026-04-08T22:59:35.77Z</time></trkpt><trkpt lat="-36.7332007" lon="174.4180298"><ele>117.0</ele><time>2026-04-08T22:59:38.77Z</time></trkpt><trkpt lat="-36.7332034" lon="174.4181147"><ele>117.0</ele><time>2026-04-08T22:59:42.769Z</time></trkpt><trkpt lat="-36.7332708" lon="174.4181067"><ele>117.0</ele><time>2026-04-08T22:59:44.769Z</time></trkpt><trkpt lat="-36.7333884" lon="174.4180286"><ele>117.0</ele><time>2026-04-08T22:59:46.769Z</time></trkpt><trkpt lat="-36.733468" lon="174.4179316"><ele>117.0</ele><time>2026-04-08T22:59:48.769Z</time></trkpt><trkpt lat="-36.7335453" lon="174.4178468"><ele>117.0</ele><time>2026-04-08T22:59:50.77Z</time></trkpt><trkpt lat="-36.7335872" lon="174.4177826"><ele>117.0</ele><time>2026-04-08T22:59:52.771Z</time></trkpt><trkpt lat="-36.7336077" lon="174.4176762"><ele>117.0</ele><time>2026-04-08T22:59:55.77Z</time></trkpt><trkpt lat="-36.733651" lon="174.4175919"><ele>117.0</ele><time>2026-04-08T22:59:59.769Z</time></trkpt><trkpt lat="-36.7337223" lon="174.4176297"><ele>116.28571428571429</ele><time>2026-04-08T23:00:02.769Z</time></trkpt><trkpt lat="-36.7337563" lon="174.4177152"><ele>115.57142857142858</ele><time>2026-04-08T23:00:05.769Z</time></trkpt><trkpt lat="-36.733751" lon="174.4178286"><ele>114.85714285714286</ele><time>2026-04-08T23:00:08.769Z</time></trkpt><trkpt lat="-36.7337645" lon="174.417915"><ele>114.14285714285714</ele><time>2026-04-08T23:00:10.771Z</time></trkpt><trkpt lat="-36.733771" lon="174.4179988"><ele>113.42857142857143</ele><time>2026-04-08T23:00:12.771Z</time></trkpt><trkpt lat="-36.7337365" lon="174.4180683"><ele>112.71428571428572</ele><time>2026-04-08T23:00:14.769Z</time></trkpt><trkpt lat="-36.7337149" lon="174.4181495"><ele>112.0</ele><time>2026-04-08T23:00:16.771Z</time></trkpt><trkpt lat="-36.7337218" lon="174.418246"><ele>112.00000000000001</ele><time>2026-04-08T23:00:18.772Z</time></trkpt><trkpt lat="-36.7337468" lon="174.4183283"><ele>112.0</ele><time>2026-04-08T23:00:20.769Z</time></trkpt><trkpt lat="-36.7337958" lon="174.4183943"><ele>112.0</ele><time>2026-04-08T23:00:22.769Z</time></trkpt><trkpt lat="-36.7338706" lon="174.4184584"><ele>112.0</ele><time>2026-04-08T23:00:25.77Z</time></trkpt><trkpt lat="-36.7339073" lon="174.4185473"><ele>112.00000000000001</ele><time>2026-04-08T23:00:27.771Z</time></trkpt><trkpt lat="-36.7339368" lon="174.4186218"><ele>112.0</ele><time>2026-04-08T23:00:29.771Z</time></trkpt><trkpt lat="-36.7340059" lon="174.4185908"><ele>112.00000000000001</ele><time>2026-04-08T23:00:32.771Z</time></trkpt><trkpt lat="-36.7340869" lon="174.4185196"><ele>112.0</ele><time>2026-04-08T23:00:34.77Z</time></trkpt><trkpt lat="-36.7341443" lon="174.418473"><ele>112.0</ele><time>2026-04-08T23:00:36.771Z</time></trkpt><trkpt lat="-36.7342344" lon="174.4184879"><ele>112.0</ele><time>2026-04-08T23:00:38.77Z</time></trkpt><trkpt lat="-36.7343154" lon="174.418551"><ele>112.00000000000001</ele><time>2026-04-08T23:00:40.77Z</time></trkpt><trkpt lat="-36.7343667" lon="174.4186446"><ele>112.0</ele><time>2026-04-08T23:00:42.771Z</time></trkpt><trkpt lat="-36.7343615" lon="174.4187379"><ele>111.16666666666667</ele><time>2026-04-08T23:00:44.769Z</time></trkpt><trkpt lat="-36.7343528" lon="174.4188298"><ele>110.33333333333334</ele><time>2026-04-08T23:00:46.769Z</time></trkpt><trkpt lat="-36.734336" lon="174.4189311"><ele>109.5</ele><time>2026-04-08T23:00:48.771Z</time></trkpt><trkpt lat="-36.7343268" lon="174.4190262"><ele>108.66666666666666</ele><time>2026-04-08T23:00:49.77Z</time></trkpt><trkpt lat="-36.7343138" lon="174.419132"><ele>107.83333333333333</ele><time>2026-04-08T23:00:51.771Z</time></trkpt><trkpt lat="-36.7342825" lon="174.4192548"><ele>107.0</ele><time>2026-04-08T23:00:53.77Z</time></trkpt><trkpt lat="-36.7342422" lon="174.4193201"><ele>106.99999999999999</ele><time>2026-04-08T23:00:54.769Z</time></trkpt><trkpt lat="-36.7341669" lon="174.4193824"><ele>107.0</ele><time>2026-04-08T23:00:56.77Z</time></trkpt><trkpt lat="-36.734092" lon="174.4194168"><ele>107.0</ele><time>2026-04-08T23:00:58.77Z</time></trkpt><trkpt lat="-36.7340086" lon="174.4194243"><ele>107.0</ele><time>2026-04-08T23:01:00.77Z</time></trkpt><trkpt lat="-36.733936" lon="174.4194434"><ele>106.99999999999999</ele><time>2026-04-08T23:01:02.769Z</time></trkpt><trkpt lat="-36.7339002" lon="174.4195102"><ele>107.0</ele><time>2026-04-08T23:01:04.77Z</time></trkpt><trkpt lat="-36.7339462" lon="174.4195798"><ele>107.0</ele><time>2026-04-08T23:01:06.769Z</time></trkpt><trkpt lat="-36.7340293" lon="174.4196498"><ele>106.99999999999999</ele><time>2026-04-08T23:01:09.77Z</time></trkpt><trkpt lat="-36.7341013" lon="174.4196486"><ele>106.99999999999999</ele><time>2026-04-08T23:01:11.77Z</time></trkpt><trkpt lat="-36.734193" lon="174.4196407"><ele>107.0</ele><time>2026-04-08T23:01:14.77Z</time></trkpt><trkpt lat="-36.7342942" lon="174.4196629"><ele>107.0</ele><time>2026-04-08T23:01:17.771Z</time></trkpt><trkpt lat="-36.7343847" lon="174.4196613"><ele>106.42857142857143</ele><time>2026-04-08T23:01:19.769Z</time></trkpt><trkpt lat="-36.7344394" lon="174.4196205"><ele>105.85714285714286</ele><time>2026-04-08T23:01:21.77Z</time></trkpt><trkpt lat="-36.7344501" lon="174.4195065"><ele>105.28571428571428</ele><time>2026-04-08T23:01:24.77Z</time></trkpt><trkpt lat="-36.7344758" lon="174.4194091"><ele>104.71428571428572</ele><time>2026-04-08T23:01:26.769Z</time></trkpt><trkpt lat="-36.7344962" lon="174.4193292"><ele>104.14285714285714</ele><time>2026-04-08T23:01:28.77Z</time></trkpt><trkpt lat="-36.7345026" lon="174.4192486"><ele>103.57142857142857</ele><time>2026-04-08T23:01:30.77Z</time></trkpt><trkpt lat="-36.7345132" lon="174.4191537"><ele>103.0</ele><time>2026-04-08T23:01:32.77Z</time></trkpt><trkpt lat="-36.7345181" lon="174.4190535"><ele>103.00000000000001</ele><time>2026-04-08T23:01:34.77Z</time></trkpt><trkpt lat="-36.7345272" lon="174.4189606"><ele>103.0</ele><time>2026-04-08T23:01:36.77Z</time></trkpt><trkpt lat="-36.7345667" lon="174.4188738"><ele>103.0</ele><time>2026-04-08T23:01:38.769Z</time></trkpt><trkpt lat="-36.734607" lon="174.4187876"><ele>103.0</ele><time>2026-04-08T23:01:40.77Z</time></trkpt><trkpt lat="-36.7346126" lon="174.4186801"><ele>103.00000000000001</ele><time>2026-04-08T23:01:42.769Z</time></trkpt><trkpt lat="-36.7345903" lon="174.4185758"><ele>103.0</ele><time>2026-04-08T23:01:44.769Z</time></trkpt><trkpt lat="-36.7345714" lon="174.4184814"><ele>103.80000000000001</ele><time>2026-04-08T23:01:46.771Z</time></trkpt><trkpt lat="-36.7345558" lon="174.4183971"><ele>104.6</ele><time>2026-04-08T23:01:48.769Z</time></trkpt><trkpt lat="-36.7345178" lon="174.4183146"><ele>105.39999999999999</ele><time>2026-04-08T23:01:50.769Z</time></trkpt><trkpt lat="-36.7344475" lon="174.4182509"><ele>106.19999999999999</ele><time>2026-04-08T23:01:52.769Z</time></trkpt><trkpt lat="-36.7343584" lon="174.418161"><ele>107.0</ele><time>2026-04-08T23:01:54.77Z</time></trkpt><trkpt lat="-36.7342766" lon="174.418084"><ele>108.0</ele><time>2026-04-08T23:01:56.769Z</time></trkpt><trkpt lat="-36.7342195" lon="174.4179717"><ele>108.99999999999999</ele><time>2026-04-08T23:01:58.769Z</time></trkpt><trkpt lat="-36.7341888" lon="174.4178444"><ele>109.99999999999999</ele><time>2026-04-08T23:02:00.77Z</time></trkpt><trkpt lat="-36.7341684" lon="174.4177398"><ele>111.0</ele><time>2026-04-08T23:02:02.77Z</time></trkpt><trkpt lat="-36.7341479" lon="174.4176354"><ele>112.0</ele><time>2026-04-08T23:02:04.769Z</time></trkpt><trkpt lat="-36.7341111" lon="174.4175648"><ele>112.0</ele><time>2026-04-08T23:02:06.769Z</time></trkpt><trkpt lat="-36.7340829" lon="174.4176473"><ele>112.0</ele><time>2026-04-08T23:02:12.77Z</time></trkpt><trkpt lat="-36.7340743" lon="174.4177498"><ele>112.0</ele><time>2026-04-08T23:02:14.769Z</time></trkpt><trkpt lat="-36.7340696" lon="174.4178324"><ele>112.0</ele><time>2026-04-08T23:02:16.77Z</time></trkpt><trkpt lat="-36.7340167" lon="174.4178837"><ele>112.0</ele><time>2026-04-08T23:02:19.771Z</time></trkpt><trkpt lat="-36.7339604" lon="174.4178255"><ele>112.0</ele><time>2026-04-08T23:02:22.77Z</time></trkpt><trkpt lat="-36.733925" lon="174.4177528"><ele>112.0</ele><time>2026-04-08T23:02:24.77Z</time></trkpt><trkpt lat="-36.733896" lon="174.4176369"><ele>112.00000000000001</ele><time>2026-04-08T23:02:27.769Z</time></trkpt><trkpt lat="-36.7338594" lon="174.417554"><ele>112.0</ele><time>2026-04-08T23:02:29.77Z</time></trkpt><trkpt lat="-36.7338282" lon="174.4174544"><ele>112.0</ele><time>2026-04-08T23:02:31.77Z</time></trkpt><trkpt lat="-36.73381" lon="174.4173562"><ele>112.0</ele><time>2026-04-08T23:02:33.769Z</time></trkpt><trkpt lat="-36.7337972" lon="174.4172478"><ele>112.00000000000001</ele><time>2026-04-08T23:02:35.771Z</time></trkpt><trkpt lat="-36.7337871" lon="174.4171355"><ele>112.0</ele><time>2026-04-08T23:02:37.771Z</time></trkpt><trkpt lat="-36.7337704" lon="174.4170388"><ele>112.16666666666667</ele><time>2026-04-08T23:02:39.771Z</time></trkpt><trkpt lat="-36.7337707" lon="174.4169538"><ele>112.33333333333334</ele><time>2026-04-08T23:02:41.771Z</time></trkpt><trkpt lat="-36.7338149" lon="174.4168835"><ele>112.5</ele><time>2026-04-08T23:02:43.771Z</time></trkpt><trkpt lat="-36.7338702" lon="174.4168337"><ele>112.66666666666666</ele><time>2026-04-08T23:02:45.77Z</time></trkpt><trkpt lat="-36.7339197" lon="174.4167388"><ele>112.83333333333333</ele><time>2026-04-08T23:02:48.769Z</time></trkpt><trkpt lat="-36.7339402" lon="174.4166505"><ele>113.0</ele><time>2026-04-08T23:02:50.769Z</time></trkpt><trkpt lat="-36.7339457" lon="174.4165375"><ele>113.0</ele><time>2026-04-08T23:02:52.77Z</time></trkpt><trkpt lat="-36.7339513" lon="174.4163983"><ele>113.00000000000001</ele><time>2026-04-08T23:02:54.769Z</time></trkpt><trkpt lat="-36.7339889" lon="174.4162948"><ele>113.00000000000001</ele><time>2026-04-08T23:02:56.77Z</time></trkpt><trkpt lat="-36.7340252" lon="174.4162095"><ele>113.0</ele><time>2026-04-08T23:02:58.77Z</time></trkpt><trkpt lat="-36.7340879" lon="174.4161235"><ele>113.0</ele><time>2026-04-08T23:03:00.769Z</time></trkpt><trkpt lat="-36.7341495" lon="174.4160421"><ele>114.4</ele><time>2026-04-08T23:03:02.771Z</time></trkpt><trkpt lat="-36.7342067" lon="174.4159565"><ele>115.80000000000001</ele><time>2026-04-08T23:03:04.769Z</time></trkpt><trkpt lat="-36.7342713" lon="174.4158944"><ele>117.2</ele><time>2026-04-08T23:03:06.77Z</time></trkpt><trkpt lat="-36.7343529" lon="174.4158456"><ele>118.6</ele><time>2026-04-08T23:03:08.771Z</time></trkpt><trkpt lat="-36.7344464" lon="174.4158042"><ele>120.0</ele><time>2026-04-08T23:03:10.769Z</time></trkpt><trkpt lat="-36.7345415" lon="174.4157899"><ele>120.0</ele><time>2026-04-08T23:03:12.77Z</time></trkpt><trkpt lat="-36.7346409" lon="174.4157851"><ele>120.0</ele><time>2026-04-08T23:03:14.771Z</time></trkpt><trkpt lat="-36.7347154" lon="174.4157868"><ele>120.0</ele><time>2026-04-08T23:03:15.769Z</time></trkpt><trkpt lat="-36.7348049" lon="174.4158153"><ele>120.0</ele><time>2026-04-08T23:03:17.77Z</time></trkpt><trkpt lat="-36.7348913" lon="174.4158378"><ele>120.0</ele><time>2026-04-08T23:03:19.769Z</time></trkpt><trkpt lat="-36.7349662" lon="174.4158664"><ele>120.0</ele><time>2026-04-08T23:03:21.769Z</time></trkpt><trkpt lat="-36.735052" lon="174.415937"><ele>120.0</ele><time>2026-04-08T23:03:23.771Z</time></trkpt><trkpt lat="-36.73513" lon="174.4159808"><ele>120.0</ele><time>2026-04-08T23:03:25.769Z</time></trkpt><trkpt lat="-36.735209" lon="174.4160254"><ele>120.0</ele><time>2026-04-08T23:03:27.77Z</time></trkpt><trkpt lat="-36.7352945" lon="174.4160318"><ele>120.0</ele><time>2026-04-08T23:03:29.771Z</time></trkpt><trkpt lat="-36.7353448" lon="174.4159804"><ele>120.0</ele><time>2026-04-08T23:03:31.77Z</time></trkpt><trkpt lat="-36.7353948" lon="174.4159127"><ele>120.0</ele><time>2026-04-08T23:03:34.769Z</time></trkpt><trkpt lat="-36.7354486" lon="174.4158486"><ele>120.16666666666667</ele><time>2026-04-08T23:03:36.769Z</time></trkpt><trkpt lat="-36.7355" lon="174.4157723"><ele>120.33333333333334</ele><time>2026-04-08T23:03:38.77Z</time></trkpt><trkpt lat="-36.7355167" lon="174.4156763"><ele>120.5</ele><time>2026-04-08T23:03:40.769Z</time></trkpt><trkpt lat="-36.7355069" lon="174.4155869"><ele>120.66666666666667</ele><time>2026-04-08T23:03:42.77Z</time></trkpt><trkpt lat="-36.7355042" lon="174.4154874"><ele>120.83333333333334</ele><time>2026-04-08T23:03:44.769Z</time></trkpt><trkpt lat="-36.7355207" lon="174.4153849"><ele>121.0</ele><time>2026-04-08T23:03:46.771Z</time></trkpt><trkpt lat="-36.7355213" lon="174.4152976"><ele>121.66666666666667</ele><time>2026-04-08T23:03:48.769Z</time></trkpt><trkpt lat="-36.7355256" lon="174.4151934"><ele>122.33333333333334</ele><time>2026-04-08T23:03:50.77Z</time></trkpt><trkpt lat="-36.7355499" lon="174.4150952"><ele>123.0</ele><time>2026-04-08T23:03:52.77Z</time></trkpt><trkpt lat="-36.7355595" lon="174.4149976"><ele>123.66666666666666</ele><time>2026-04-08T23:03:54.77Z</time></trkpt><trkpt lat="-36.7355504" lon="174.414902"><ele>124.33333333333333</ele><time>2026-04-08T23:03:56.771Z</time></trkpt><trkpt lat="-36.7355151" lon="174.4148064"><ele>125.0</ele><time>2026-04-08T23:03:58.769Z</time></trkpt><trkpt lat="-36.735505" lon="174.4147013"><ele>125.99999999999999</ele><time>2026-04-08T23:04:00.77Z</time></trkpt><trkpt lat="-36.7355083" lon="174.4145938"><ele>127.0</ele><time>2026-04-08T23:04:02.77Z</time></trkpt><trkpt lat="-36.7355167" lon="174.4144948"><ele>128.0</ele><time>2026-04-08T23:04:04.77Z</time></trkpt><trkpt lat="-36.7355275" lon="174.414402"><ele>129.0</ele><time>2026-04-08T23:04:06.769Z</time></trkpt><trkpt lat="-36.7355506" lon="174.4143041"><ele>130.0</ele><time>2026-04-08T23:04:08.77Z</time></trkpt><trkpt lat="-36.7355928" lon="174.4141947"><ele>131.0</ele><time>2026-04-08T23:04:10.769Z</time></trkpt><trkpt lat="-36.7356148" lon="174.4140836"><ele>131.0</ele><time>2026-04-08T23:04:12.769Z</time></trkpt><trkpt lat="-36.7356404" lon="174.4139699"><ele>131.0</ele><time>2026-04-08T23:04:14.769Z</time></trkpt><trkpt lat="-36.7356768" lon="174.4138556"><ele>131.0</ele><time>2026-04-08T23:04:16.769Z</time></trkpt><trkpt lat="-36.7357005" lon="174.4137257"><ele>131.0</ele><time>2026-04-08T23:04:18.771Z</time></trkpt><trkpt lat="-36.7357439" lon="174.4135902"><ele>131.0</ele><time>2026-04-08T23:04:20.77Z</time></trkpt><trkpt lat="-36.7357776" lon="174.4135229"><ele>131.0</ele><time>2026-04-08T23:04:21.77Z</time></trkpt><trkpt lat="-36.7358194" lon="174.4133798"><ele>131.0</ele><time>2026-04-08T23:04:23.771Z</time></trkpt><trkpt lat="-36.73586" lon="174.4132424"><ele>131.0</ele><time>2026-04-08T23:04:25.769Z</time></trkpt><trkpt lat="-36.7358676" lon="174.4131486"><ele>131.0</ele><time>2026-04-08T23:04:26.771Z</time></trkpt><trkpt lat="-36.735869" lon="174.4130668"><ele>131.0</ele><time>2026-04-08T23:04:27.771Z</time></trkpt><trkpt lat="-36.735885" lon="174.4129828"><ele>131.4</ele><time>2026-04-08T23:04:28.769Z</time></trkpt><trkpt lat="-36.7359166" lon="174.4128366"><ele>131.8</ele><time>2026-04-08T23:04:30.771Z</time></trkpt><trkpt lat="-36.7359338" lon="174.412753"><ele>132.20000000000002</ele><time>2026-04-08T23:04:31.771Z</time></trkpt><trkpt lat="-36.7359589" lon="174.4126802"><ele>132.6</ele><time>2026-04-08T23:04:32.77Z</time></trkpt><trkpt lat="-36.7359973" lon="174.4125327"><ele>133.0</ele><time>2026-04-08T23:04:34.771Z</time></trkpt><trkpt lat="-36.7360155" lon="174.4123823"><ele>133.0</ele><time>2026-04-08T23:04:36.77Z</time></trkpt><trkpt lat="-36.7360429" lon="174.4122463"><ele>133.0</ele><time>2026-04-08T23:04:38.769Z</time></trkpt><trkpt lat="-36.7360796" lon="174.4121111"><ele>133.0</ele><time>2026-04-08T23:04:40.769Z</time></trkpt><trkpt lat="-36.7360949" lon="174.4120272"><ele>133.0</ele><time>2026-04-08T23:04:41.77Z</time></trkpt><trkpt lat="-36.7361095" lon="174.4118857"><ele>133.0</ele><time>2026-04-08T23:04:43.771Z</time></trkpt><trkpt lat="-36.7361314" lon="174.4117626"><ele>132.33333333333334</ele><time>2026-04-08T23:04:45.769Z</time></trkpt><trkpt lat="-36.7361339" lon="174.4116614"><ele>131.66666666666669</ele><time>2026-04-08T23:04:47.77Z</time></trkpt><trkpt lat="-36.7361363" lon="174.4115527"><ele>131.0</ele><time>2026-04-08T23:04:49.77Z</time></trkpt><trkpt lat="-36.7361725" lon="174.4114476"><ele>130.33333333333334</ele><time>2026-04-08T23:04:52.77Z</time></trkpt><trkpt lat="-36.7362273" lon="174.4113937"><ele>129.66666666666666</ele><time>2026-04-08T23:04:54.771Z</time></trkpt><trkpt lat="-36.7363008" lon="174.4113675"><ele>129.0</ele><time>2026-04-08T23:04:56.77Z</time></trkpt><trkpt lat="-36.7363843" lon="174.4113911"><ele>129.0</ele><time>2026-04-08T23:04:58.771Z</time></trkpt><trkpt lat="-36.7364608" lon="174.4114282"><ele>129.0</ele><time>2026-04-08T23:05:00.77Z</time></trkpt><trkpt lat="-36.7365427" lon="174.4114516"><ele>129.0</ele><time>2026-04-08T23:05:02.769Z</time></trkpt><trkpt lat="-36.7366266" lon="174.411473"><ele>129.0</ele><time>2026-04-08T23:05:04.77Z</time></trkpt><trkpt lat="-36.7366921" lon="174.4114874"><ele>129.0</ele><time>2026-04-08T23:05:05.769Z</time></trkpt><trkpt lat="-36.7367887" lon="174.4115413"><ele>129.0</ele><time>2026-04-08T23:05:07.771Z</time></trkpt><trkpt lat="-36.7368686" lon="174.4115666"><ele>128.6</ele><time>2026-04-08T23:05:09.77Z</time></trkpt><trkpt lat="-36.7369215" lon="174.4116223"><ele>128.2</ele><time>2026-04-08T23:05:10.77Z</time></trkpt><trkpt lat="-36.7370422" lon="174.4116564"><ele>127.79999999999998</ele><time>2026-04-08T23:05:12.769Z</time></trkpt><trkpt lat="-36.7371636" lon="174.4117099"><ele>127.39999999999999</ele><time>2026-04-08T23:05:14.77Z</time></trkpt><trkpt lat="-36.7372328" lon="174.4117374"><ele>127.0</ele><time>2026-04-08T23:05:15.77Z</time></trkpt><trkpt lat="-36.7373022" lon="174.4117642"><ele>127.00000000000001</ele><time>2026-04-08T23:05:16.77Z</time></trkpt><trkpt lat="-36.7374319" lon="174.4118186"><ele>127.0</ele><time>2026-04-08T23:05:18.769Z</time></trkpt><trkpt lat="-36.737497" lon="174.4118555"><ele>127.0</ele><time>2026-04-08T23:05:19.769Z</time></trkpt><trkpt lat="-36.7375779" lon="174.4119048"><ele>127.0</ele><time>2026-04-08T23:05:20.77Z</time></trkpt><trkpt lat="-36.7376481" lon="174.4119423"><ele>127.00000000000001</ele><time>2026-04-08T23:05:21.768Z</time></trkpt><trkpt lat="-36.7377081" lon="174.4119674"><ele>127.0</ele><time>2026-04-08T23:05:22.771Z</time></trkpt><trkpt lat="-36.7377724" lon="174.412004"><ele>126.85714285714286</ele><time>2026-04-08T23:05:23.769Z</time></trkpt><trkpt lat="-36.7378308" lon="174.4120361"><ele>126.71428571428571</ele><time>2026-04-08T23:05:24.769Z</time></trkpt><trkpt lat="-36.7378912" lon="174.4120584"><ele>126.57142857142857</ele><time>2026-04-08T23:05:25.77Z</time></trkpt><trkpt lat="-36.737964" lon="174.4121242"><ele>126.42857142857143</ele><time>2026-04-08T23:05:27.769Z</time></trkpt><trkpt lat="-36.738003" lon="174.4121983"><ele>126.28571428571428</ele><time>2026-04-08T23:05:29.77Z</time></trkpt><trkpt lat="-36.7380163" lon="174.4122782"><ele>126.14285714285714</ele><time>2026-04-08T23:05:31.77Z</time></trkpt><trkpt lat="-36.738054" lon="174.4123597"><ele>126.0</ele><time>2026-04-08T23:05:33.77Z</time></trkpt><trkpt lat="-36.7381312" lon="174.4124506"><ele>126.0</ele><time>2026-04-08T23:05:35.77Z</time></trkpt><trkpt lat="-36.7381907" lon="174.4125075"><ele>126.0</ele><time>2026-04-08T23:05:37.769Z</time></trkpt><trkpt lat="-36.7382705" lon="174.4125281"><ele>126.0</ele><time>2026-04-08T23:05:39.77Z</time></trkpt><trkpt lat="-36.7382953" lon="174.4126104"><ele>126.0</ele><time>2026-04-08T23:05:42.77Z</time></trkpt><trkpt lat="-36.7382489" lon="174.4126751"><ele>126.0</ele><time>2026-04-08T23:05:44.768Z</time></trkpt><trkpt lat="-36.7381803" lon="174.4127508"><ele>126.0</ele><time>2026-04-08T23:05:46.771Z</time></trkpt><trkpt lat="-36.7381375" lon="174.4128274"><ele>126.0</ele><time>2026-04-08T23:05:48.77Z</time></trkpt><trkpt lat="-36.7381535" lon="174.4129115"><ele>126.0</ele><time>2026-04-08T23:05:51.769Z</time></trkpt><trkpt lat="-36.7382347" lon="174.4129166"><ele>126.0</ele><time>2026-04-08T23:05:53.769Z</time></trkpt><trkpt lat="-36.7383202" lon="174.4129076"><ele>126.0</ele><time>2026-04-08T23:05:55.771Z</time></trkpt><trkpt lat="-36.738391" lon="174.4129098"><ele>126.0</ele><time>2026-04-08T23:05:57.77Z</time></trkpt><trkpt lat="-36.738405" lon="174.4130023"><ele>126.0</ele><time>2026-04-08T23:06:00.769Z</time></trkpt><trkpt lat="-36.7383996" lon="174.4130998"><ele>126.0</ele><time>2026-04-08T23:06:03.77Z</time></trkpt><trkpt lat="-36.7384709" lon="174.4130483"><ele>126.0</ele><time>2026-04-08T23:06:06.771Z</time></trkpt><trkpt lat="-36.7385243" lon="174.4129742"><ele>126.0</ele><time>2026-04-08T23:06:09.77Z</time></trkpt><trkpt lat="-36.7385475" lon="174.4130839"><ele>126.0</ele><time>2026-04-08T23:06:14.77Z</time></trkpt><trkpt lat="-36.7385672" lon="174.4131881"><ele>126.0</ele><time>2026-04-08T23:06:17.769Z</time></trkpt><trkpt lat="-36.7385844" lon="174.4132931"><ele>126.0</ele><time>2026-04-08T23:06:20.771Z</time></trkpt><trkpt lat="-36.7386474" lon="174.4133027"><ele>128.0</ele><time>2026-04-08T23:06:24.77Z</time></trkpt><trkpt lat="-36.7387366" lon="174.4132654"><ele>130.0</ele><time>2026-04-08T23:06:27.77Z</time></trkpt><trkpt lat="-36.7388016" lon="174.4132396"><ele>132.0</ele><time>2026-04-08T23:06:29.77Z</time></trkpt><trkpt lat="-36.7388715" lon="174.4132702"><ele>134.0</ele><time>2026-04-08T23:06:31.769Z</time></trkpt><trkpt lat="-36.7389316" lon="174.4132963"><ele>136.0</ele><time>2026-04-08T23:06:33.769Z</time></trkpt><trkpt lat="-36.7390169" lon="174.4133335"><ele>138.0</ele><time>2026-04-08T23:06:34.769Z</time></trkpt><trkpt lat="-36.7390842" lon="174.4133773"><ele>138.0</ele><time>2026-04-08T23:06:36.769Z</time></trkpt><trkpt lat="-36.7391231" lon="174.413441"><ele>138.0</ele><time>2026-04-08T23:06:37.77Z</time></trkpt><trkpt lat="-36.73919" lon="174.4135024"><ele>138.0</ele><time>2026-04-08T23:06:40.769Z</time></trkpt><trkpt lat="-36.7392591" lon="174.4135224"><ele>138.0</ele><time>2026-04-08T23:06:44.77Z</time></trkpt><trkpt lat="-36.7392944" lon="174.4134228"><ele>138.0</ele><time>2026-04-08T23:06:47.77Z</time></trkpt><trkpt lat="-36.7392795" lon="174.4133006"><ele>138.0</ele><time>2026-04-08T23:06:49.769Z</time></trkpt><trkpt lat="-36.73922" lon="174.4132195"><ele>138.0</ele><time>2026-04-08T23:06:51.769Z</time></trkpt><trkpt lat="-36.7391614" lon="174.4131549"><ele>138.0</ele><time>2026-04-08T23:06:53.77Z</time></trkpt><trkpt lat="-36.7391278" lon="174.413059"><ele>138.0</ele><time>2026-04-08T23:06:55.771Z</time></trkpt><trkpt lat="-36.7391773" lon="174.4129765"><ele>138.0</ele><time>2026-04-08T23:06:57.77Z</time></trkpt><trkpt lat="-36.7392898" lon="174.4129598"><ele>138.0</ele><time>2026-04-08T23:06:59.77Z</time></trkpt><trkpt lat="-36.7393632" lon="174.4129841"><ele>138.0</ele><time>2026-04-08T23:07:01.77Z</time></trkpt><trkpt lat="-36.7394291" lon="174.4130564"><ele>136.33333333333334</ele><time>2026-04-08T23:07:03.769Z</time></trkpt><trkpt lat="-36.7394854" lon="174.4131472"><ele>134.66666666666666</ele><time>2026-04-08T23:07:05.769Z</time></trkpt><trkpt lat="-36.7395141" lon="174.413243"><ele>133.0</ele><time>2026-04-08T23:07:07.77Z</time></trkpt><trkpt lat="-36.7395811" lon="174.4133039"><ele>131.33333333333331</ele><time>2026-04-08T23:07:09.77Z</time></trkpt><trkpt lat="-36.7396563" lon="174.4133559"><ele>129.66666666666666</ele><time>2026-04-08T23:07:12.769Z</time></trkpt><trkpt lat="-36.7395975" lon="174.4134361"><ele>128.0</ele><time>2026-04-08T23:07:16.769Z</time></trkpt><trkpt lat="-36.7395202" lon="174.4134614"><ele>128.0</ele><time>2026-04-08T23:07:18.768Z</time></trkpt><trkpt lat="-36.739454" lon="174.4135134"><ele>127.99999999999999</ele><time>2026-04-08T23:07:21.77Z</time></trkpt><trkpt lat="-36.7394268" lon="174.4135855"><ele>128.0</ele><time>2026-04-08T23:07:23.771Z</time></trkpt><trkpt lat="-36.7394181" lon="174.4136723"><ele>128.0</ele><time>2026-04-08T23:07:25.77Z</time></trkpt><trkpt lat="-36.739426" lon="174.4137586"><ele>127.99999999999999</ele><time>2026-04-08T23:07:28.77Z</time></trkpt><trkpt lat="-36.7394811" lon="174.4138176"><ele>128.0</ele><time>2026-04-08T23:07:31.77Z</time></trkpt><trkpt lat="-36.7395602" lon="174.4137963"><ele>128.0</ele><time>2026-04-08T23:07:33.77Z</time></trkpt><trkpt lat="-36.7396974" lon="174.4137694"><ele>128.0</ele><time>2026-04-08T23:07:35.77Z</time></trkpt><trkpt lat="-36.7397973" lon="174.4136785"><ele>128.0</ele><time>2026-04-08T23:07:37.768Z</time></trkpt><trkpt lat="-36.7398483" lon="174.413579"><ele>128.0</ele><time>2026-04-08T23:07:39.769Z</time></trkpt><trkpt lat="-36.7399416" lon="174.4135589"><ele>128.0</ele><time>2026-04-08T23:07:41.771Z</time></trkpt><trkpt lat="-36.7400164" lon="174.4135856"><ele>128.0</ele><time>2026-04-08T23:07:43.77Z</time></trkpt><trkpt lat="-36.7400876" lon="174.413615"><ele>127.99999999999999</ele><time>2026-04-08T23:07:45.77Z</time></trkpt><trkpt lat="-36.7401599" lon="174.4135665"><ele>128.0</ele><time>2026-04-08T23:07:47.769Z</time></trkpt><trkpt lat="-36.7402297" lon="174.4135343"><ele>128.0</ele><time>2026-04-08T23:07:49.77Z</time></trkpt><trkpt lat="-36.7402903" lon="174.4135574"><ele>128.0</ele><time>2026-04-08T23:07:51.77Z</time></trkpt><trkpt lat="-36.7403625" lon="174.4135999"><ele>127.99999999999999</ele><time>2026-04-08T23:07:53.77Z</time></trkpt><trkpt lat="-36.7404289" lon="174.413633"><ele>128.0</ele><time>2026-04-08T23:07:55.771Z</time></trkpt><trkpt lat="-36.7404987" lon="174.4136929"><ele>127.66666666666666</ele><time>2026-04-08T23:07:57.769Z</time></trkpt><trkpt lat="-36.7405701" lon="174.4137692"><ele>127.33333333333333</ele><time>2026-04-08T23:07:59.768Z</time></trkpt><trkpt lat="-36.7406019" lon="174.4138647"><ele>127.0</ele><time>2026-04-08T23:08:01.771Z</time></trkpt><trkpt lat="-36.7405677" lon="174.4139493"><ele>126.66666666666666</ele><time>2026-04-08T23:08:04.769Z</time></trkpt><trkpt lat="-36.7405257" lon="174.4140218"><ele>126.33333333333333</ele><time>2026-04-08T23:08:06.77Z</time></trkpt><trkpt lat="-36.7404763" lon="174.4140804"><ele>126.0</ele><time>2026-04-08T23:08:08.771Z</time></trkpt><trkpt lat="-36.7404135" lon="174.4140899"><ele>127.5</ele><time>2026-04-08T23:08:10.769Z</time></trkpt><trkpt lat="-36.7403477" lon="174.4140646"><ele>129.0</ele><time>2026-04-08T23:08:12.771Z</time></trkpt><trkpt lat="-36.7402659" lon="174.4141189"><ele>130.5</ele><time>2026-04-08T23:08:15.77Z</time></trkpt><trkpt lat="-36.7402122" lon="174.4141654"><ele>132.0</ele><time>2026-04-08T23:08:17.77Z</time></trkpt><trkpt lat="-36.7401298" lon="174.4141862"><ele>133.5</ele><time>2026-04-08T23:08:19.771Z</time></trkpt><trkpt lat="-36.740054" lon="174.4141885"><ele>135.0</ele><time>2026-04-08T23:08:21.77Z</time></trkpt><trkpt lat="-36.7399678" lon="174.4141491"><ele>135.83333333333334</ele><time>2026-04-08T23:08:23.77Z</time></trkpt><trkpt lat="-36.7398997" lon="174.4141153"><ele>136.66666666666666</ele><time>2026-04-08T23:08:25.77Z</time></trkpt><trkpt lat="-36.7398323" lon="174.4140826"><ele>137.5</ele><time>2026-04-08T23:08:27.77Z</time></trkpt><trkpt lat="-36.7397521" lon="174.4140887"><ele>138.33333333333331</ele><time>2026-04-08T23:08:29.77Z</time></trkpt><trkpt lat="-36.7396831" lon="174.414125"><ele>139.16666666666666</ele><time>2026-04-08T23:08:31.77Z</time></trkpt><trkpt lat="-36.7397209" lon="174.4142011"><ele>140.0</ele><time>2026-04-08T23:08:35.77Z</time></trkpt><trkpt lat="-36.7398075" lon="174.4142135"><ele>140.0</ele><time>2026-04-08T23:08:38.769Z</time></trkpt><trkpt lat="-36.7399052" lon="174.414232"><ele>140.0</ele><time>2026-04-08T23:08:40.771Z</time></trkpt><trkpt lat="-36.7399931" lon="174.4142719"><ele>140.0</ele><time>2026-04-08T23:08:42.769Z</time></trkpt><trkpt lat="-36.740076" lon="174.4143042"><ele>140.0</ele><time>2026-04-08T23:08:45.77Z</time></trkpt><trkpt lat="-36.7401866" lon="174.4142974"><ele>140.0</ele><time>2026-04-08T23:08:48.77Z</time></trkpt><trkpt lat="-36.740249" lon="174.4143085"><ele>139.0</ele><time>2026-04-08T23:08:49.769Z</time></trkpt><trkpt lat="-36.7403586" lon="174.4143109"><ele>138.0</ele><time>2026-04-08T23:08:51.771Z</time></trkpt><trkpt lat="-36.7404622" lon="174.4142974"><ele>137.0</ele><time>2026-04-08T23:08:53.77Z</time></trkpt><trkpt lat="-36.7405531" lon="174.4142855"><ele>136.0</ele><time>2026-04-08T23:08:55.771Z</time></trkpt><trkpt lat="-36.7406654" lon="174.4142363"><ele>135.0</ele><time>2026-04-08T23:08:57.768Z</time></trkpt><trkpt lat="-36.7407473" lon="174.4141934"><ele>135.0</ele><time>2026-04-08T23:08:59.77Z</time></trkpt><trkpt lat="-36.7408255" lon="174.4141405"><ele>135.0</ele><time>2026-04-08T23:09:01.769Z</time></trkpt><trkpt lat="-36.7408771" lon="174.4140912"><ele>135.0</ele><time>2026-04-08T23:09:03.769Z</time></trkpt><trkpt lat="-36.7409412" lon="174.4140513"><ele>135.0</ele><time>2026-04-08T23:09:06.77Z</time></trkpt><trkpt lat="-36.7410147" lon="174.4141036"><ele>135.0</ele><time>2026-04-08T23:09:08.77Z</time></trkpt><trkpt lat="-36.741053" lon="174.4141887"><ele>135.0</ele><time>2026-04-08T23:09:09.769Z</time></trkpt><trkpt lat="-36.7411038" lon="174.4142585"><ele>135.0</ele><time>2026-04-08T23:09:11.77Z</time></trkpt><trkpt lat="-36.7411232" lon="174.4143631"><ele>135.0</ele><time>2026-04-08T23:09:14.77Z</time></trkpt><trkpt lat="-36.7411317" lon="174.4144589"><ele>135.0</ele><time>2026-04-08T23:09:16.769Z</time></trkpt><trkpt lat="-36.7411423" lon="174.4145548"><ele>135.0</ele><time>2026-04-08T23:09:18.771Z</time></trkpt><trkpt lat="-36.7411567" lon="174.4146645"><ele>135.0</ele><time>2026-04-08T23:09:20.769Z</time></trkpt><trkpt lat="-36.7412128" lon="174.4147652"><ele>135.0</ele><time>2026-04-08T23:09:22.77Z</time></trkpt><trkpt lat="-36.7412755" lon="174.4147936"><ele>135.33333333333334</ele><time>2026-04-08T23:09:24.77Z</time></trkpt><trkpt lat="-36.7413485" lon="174.4148267"><ele>135.66666666666666</ele><time>2026-04-08T23:09:27.769Z</time></trkpt><trkpt lat="-36.741441" lon="174.4148717"><ele>136.0</ele><time>2026-04-08T23:09:29.769Z</time></trkpt><trkpt lat="-36.7415394" lon="174.4148943"><ele>136.33333333333331</ele><time>2026-04-08T23:09:31.77Z</time></trkpt><trkpt lat="-36.7416223" lon="174.4149081"><ele>136.66666666666666</ele><time>2026-04-08T23:09:34.769Z</time></trkpt><trkpt lat="-36.7416847" lon="174.4148489"><ele>137.0</ele><time>2026-04-08T23:09:36.77Z</time></trkpt><trkpt lat="-36.7417272" lon="174.4147859"><ele>137.0</ele><time>2026-04-08T23:09:39.771Z</time></trkpt><trkpt lat="-36.7418281" lon="174.4147893"><ele>137.0</ele><time>2026-04-08T23:09:42.77Z</time></trkpt><trkpt lat="-36.7418686" lon="174.4148654"><ele>137.0</ele><time>2026-04-08T23:09:44.77Z</time></trkpt><trkpt lat="-36.7418632" lon="174.4149797"><ele>137.0</ele><time>2026-04-08T23:09:47.77Z</time></trkpt><trkpt lat="-36.7417931" lon="174.4150573"><ele>137.0</ele><time>2026-04-08T23:09:49.77Z</time></trkpt><trkpt lat="-36.7417164" lon="174.4150998"><ele>137.0</ele><time>2026-04-08T23:09:51.771Z</time></trkpt><trkpt lat="-36.7416291" lon="174.4151683"><ele>137.0</ele><time>2026-04-08T23:09:53.77Z</time></trkpt><trkpt lat="-36.7415666" lon="174.4152775"><ele>137.0</ele><time>2026-04-08T23:09:55.77Z</time></trkpt><trkpt lat="-36.7415678" lon="174.4153781"><ele>137.0</ele><time>2026-04-08T23:09:57.77Z</time></trkpt><trkpt lat="-36.7416427" lon="174.4154215"><ele>137.0</ele><time>2026-04-08T23:10:00.769Z</time></trkpt><trkpt lat="-36.7417296" lon="174.4154436"><ele>137.0</ele><time>2026-04-08T23:10:02.769Z</time></trkpt><trkpt lat="-36.7417657" lon="174.4155153"><ele>137.0</ele><time>2026-04-08T23:10:04.769Z</time></trkpt><trkpt lat="-36.7417734" lon="174.4155993"><ele>136.0</ele><time>2026-04-08T23:10:06.769Z</time></trkpt><trkpt lat="-36.7417334" lon="174.4157065"><ele>135.0</ele><time>2026-04-08T23:10:08.77Z</time></trkpt><trkpt lat="-36.7416349" lon="174.415794"><ele>134.0</ele><time>2026-04-08T23:10:10.769Z</time></trkpt><trkpt lat="-36.7415328" lon="174.4158222"><ele>133.0</ele><time>2026-04-08T23:10:11.77Z</time></trkpt><trkpt lat="-36.7414436" lon="174.4158832"><ele>132.0</ele><time>2026-04-08T23:10:13.77Z</time></trkpt><trkpt lat="-36.7413941" lon="174.4159842"><ele>132.0</ele><time>2026-04-08T23:10:15.769Z</time></trkpt><trkpt lat="-36.7414504" lon="174.4160436"><ele>132.0</ele><time>2026-04-08T23:10:17.77Z</time></trkpt><trkpt lat="-36.7415289" lon="174.4161453"><ele>132.0</ele><time>2026-04-08T23:10:19.769Z</time></trkpt><trkpt lat="-36.7416172" lon="174.4162159"><ele>132.0</ele><time>2026-04-08T23:10:21.771Z</time></trkpt><trkpt lat="-36.7416015" lon="174.4163815"><ele>132.0</ele><time>2026-04-08T23:10:23.77Z</time></trkpt><trkpt lat="-36.7415178" lon="174.4165003"><ele>131.83333333333334</ele><time>2026-04-08T23:10:25.77Z</time></trkpt><trkpt lat="-36.7414575" lon="174.4165973"><ele>131.66666666666666</ele><time>2026-04-08T23:10:27.769Z</time></trkpt><trkpt lat="-36.7414774" lon="174.4167"><ele>131.5</ele><time>2026-04-08T23:10:29.771Z</time></trkpt><trkpt lat="-36.741456" lon="174.4167931"><ele>131.33333333333331</ele><time>2026-04-08T23:10:31.77Z</time></trkpt><trkpt lat="-36.741414" lon="174.4168739"><ele>131.16666666666666</ele><time>2026-04-08T23:10:33.769Z</time></trkpt><trkpt lat="-36.7414205" lon="174.4169906"><ele>131.0</ele><time>2026-04-08T23:10:36.77Z</time></trkpt><trkpt lat="-36.7414212" lon="174.4171145"><ele>131.0</ele><time>2026-04-08T23:10:38.769Z</time></trkpt><trkpt lat="-36.7413734" lon="174.4172229"><ele>131.0</ele><time>2026-04-08T23:10:40.768Z</time></trkpt><trkpt lat="-36.7412979" lon="174.4173237"><ele>131.0</ele><time>2026-04-08T23:10:42.769Z</time></trkpt><trkpt lat="-36.7412448" lon="174.4174289"><ele>131.0</ele><time>2026-04-08T23:10:44.769Z</time></trkpt><trkpt lat="-36.7412273" lon="174.4175515"><ele>131.0</ele><time>2026-04-08T23:10:46.77Z</time></trkpt><trkpt lat="-36.7412982" lon="174.4175509"><ele>131.0</ele><time>2026-04-08T23:10:50.77Z</time></trkpt><trkpt lat="-36.7413282" lon="174.4174384"><ele>131.0</ele><time>2026-04-08T23:10:52.769Z</time></trkpt><trkpt lat="-36.7413841" lon="174.4173366"><ele>131.0</ele><time>2026-04-08T23:10:54.771Z</time></trkpt><trkpt lat="-36.7414478" lon="174.4172543"><ele>131.0</ele><time>2026-04-08T23:10:56.77Z</time></trkpt><trkpt lat="-36.7414954" lon="174.4171569"><ele>131.0</ele><time>2026-04-08T23:10:58.771Z</time></trkpt><trkpt lat="-36.741527" lon="174.4170511"><ele>131.0</ele><time>2026-04-08T23:11:00.769Z</time></trkpt><trkpt lat="-36.741541" lon="174.4169297"><ele>131.0</ele><time>2026-04-08T23:11:02.77Z</time></trkpt><trkpt lat="-36.7415596" lon="174.4168023"><ele>131.0</ele><time>2026-04-08T23:11:04.771Z</time></trkpt><trkpt lat="-36.7415803" lon="174.4167162"><ele>131.0</ele><time>2026-04-08T23:11:05.77Z</time></trkpt><trkpt lat="-36.7416176" lon="174.4165604"><ele>131.0</ele><time>2026-04-08T23:11:07.768Z</time></trkpt><trkpt lat="-36.7416418" lon="174.4164285"><ele>131.16666666666666</ele><time>2026-04-08T23:11:09.77Z</time></trkpt><trkpt lat="-36.7416657" lon="174.4162608"><ele>131.33333333333331</ele><time>2026-04-08T23:11:11.77Z</time></trkpt><trkpt lat="-36.7416969" lon="174.4161907"><ele>131.5</ele><time>2026-04-08T23:11:12.769Z</time></trkpt><trkpt lat="-36.7417501" lon="174.4160942"><ele>131.66666666666666</ele><time>2026-04-08T23:11:14.768Z</time></trkpt><trkpt lat="-36.7417497" lon="174.4159903"><ele>131.83333333333334</ele><time>2026-04-08T23:11:16.77Z</time></trkpt><trkpt lat="-36.741746" lon="174.4159056"><ele>132.0</ele><time>2026-04-08T23:11:18.77Z</time></trkpt><trkpt lat="-36.7417711" lon="174.4157996"><ele>132.0</ele><time>2026-04-08T23:11:20.771Z</time></trkpt><trkpt lat="-36.7418087" lon="174.4157018"><ele>132.0</ele><time>2026-04-08T23:11:22.77Z</time></trkpt><trkpt lat="-36.7418467" lon="174.4155916"><ele>132.0</ele><time>2026-04-08T23:11:24.77Z</time></trkpt><trkpt lat="-36.7418798" lon="174.4154475"><ele>132.0</ele><time>2026-04-08T23:11:26.77Z</time></trkpt><trkpt lat="-36.7418947" lon="174.4153584"><ele>132.0</ele><time>2026-04-08T23:11:28.77Z</time></trkpt><trkpt lat="-36.7418835" lon="174.4152775"><ele>132.0</ele><time>2026-04-08T23:11:30.77Z</time></trkpt><trkpt lat="-36.741883" lon="174.4151667"><ele>132.16666666666666</ele><time>2026-04-08T23:11:31.77Z</time></trkpt><trkpt lat="-36.7418938" lon="174.4150683"><ele>132.33333333333334</ele><time>2026-04-08T23:11:33.771Z</time></trkpt><trkpt lat="-36.7419406" lon="174.4149629"><ele>132.5</ele><time>2026-04-08T23:11:35.77Z</time></trkpt><trkpt lat="-36.7420134" lon="174.4148986"><ele>132.66666666666669</ele><time>2026-04-08T23:11:37.77Z</time></trkpt><trkpt lat="-36.7420861" lon="174.4148496"><ele>132.83333333333334</ele><time>2026-04-08T23:11:39.77Z</time></trkpt><trkpt lat="-36.7421406" lon="174.4147869"><ele>133.0</ele><time>2026-04-08T23:11:41.77Z</time></trkpt><trkpt lat="-36.7421609" lon="174.4146982"><ele>133.0</ele><time>2026-04-08T23:11:43.768Z</time></trkpt><trkpt lat="-36.7421773" lon="174.4146136"><ele>133.0</ele><time>2026-04-08T23:11:45.77Z</time></trkpt><trkpt lat="-36.7422183" lon="174.4145126"><ele>133.0</ele><time>2026-04-08T23:11:48.769Z</time></trkpt><trkpt lat="-36.7422879" lon="174.4145047"><ele>133.0</ele><time>2026-04-08T23:11:50.77Z</time></trkpt><trkpt lat="-36.7423472" lon="174.414564"><ele>133.0</ele><time>2026-04-08T23:11:52.769Z</time></trkpt><trkpt lat="-36.742397" lon="174.4146674"><ele>133.0</ele><time>2026-04-08T23:11:55.768Z</time></trkpt><trkpt lat="-36.7424283" lon="174.4147714"><ele>133.0</ele><time>2026-04-08T23:11:57.769Z</time></trkpt><trkpt lat="-36.7424137" lon="174.4148671"><ele>133.0</ele><time>2026-04-08T23:11:59.77Z</time></trkpt><trkpt lat="-36.7423639" lon="174.4149606"><ele>133.0</ele><time>2026-04-08T23:12:01.77Z</time></trkpt><trkpt lat="-36.7423717" lon="174.4150603"><ele>133.0</ele><time>2026-04-08T23:12:02.769Z</time></trkpt><trkpt lat="-36.7423801" lon="174.4151834"><ele>133.0</ele><time>2026-04-08T23:12:04.77Z</time></trkpt><trkpt lat="-36.7424472" lon="174.4152473"><ele>133.0</ele><time>2026-04-08T23:12:06.77Z</time></trkpt><trkpt lat="-36.7425189" lon="174.4152161"><ele>133.0</ele><time>2026-04-08T23:12:08.77Z</time></trkpt><trkpt lat="-36.742627" lon="174.4151905"><ele>133.0</ele><time>2026-04-08T23:12:10.77Z</time></trkpt><trkpt lat="-36.7427146" lon="174.415202"><ele>133.0</ele><time>2026-04-08T23:12:12.769Z</time></trkpt><trkpt lat="-36.7427609" lon="174.4152895"><ele>133.0</ele><time>2026-04-08T23:12:14.768Z</time></trkpt><trkpt lat="-36.7427647" lon="174.4153701"><ele>133.0</ele><time>2026-04-08T23:12:15.769Z</time></trkpt><trkpt lat="-36.7427593" lon="174.4154523"><ele>133.0</ele><time>2026-04-08T23:12:16.77Z</time></trkpt><trkpt lat="-36.7427224" lon="174.4155291"><ele>131.4</ele><time>2026-04-08T23:12:18.769Z</time></trkpt><trkpt lat="-36.7426289" lon="174.415565"><ele>129.8</ele><time>2026-04-08T23:12:20.769Z</time></trkpt><trkpt lat="-36.7424816" lon="174.4156256"><ele>128.2</ele><time>2026-04-08T23:12:22.771Z</time></trkpt><trkpt lat="-36.7424305" lon="174.4156805"><ele>126.6</ele><time>2026-04-08T23:12:23.77Z</time></trkpt><trkpt lat="-36.7424096" lon="174.4157784"><ele>125.0</ele><time>2026-04-08T23:12:25.771Z</time></trkpt><trkpt lat="-36.7424051" lon="174.4158964"><ele>124.99999999999999</ele><time>2026-04-08T23:12:27.769Z</time></trkpt><trkpt lat="-36.7424899" lon="174.4159733"><ele>125.0</ele><time>2026-04-08T23:12:29.769Z</time></trkpt><trkpt lat="-36.7425433" lon="174.4160157"><ele>125.0</ele><time>2026-04-08T23:12:30.77Z</time></trkpt><trkpt lat="-36.7426323" lon="174.4159853"><ele>125.0</ele><time>2026-04-08T23:12:33.77Z</time></trkpt><trkpt lat="-36.7426929" lon="174.4160184"><ele>124.99999999999999</ele><time>2026-04-08T23:12:36.77Z</time></trkpt><trkpt lat="-36.7427749" lon="174.4161021"><ele>125.0</ele><time>2026-04-08T23:12:39.77Z</time></trkpt><trkpt lat="-36.7428549" lon="174.4161723"><ele>125.16666666666666</ele><time>2026-04-08T23:12:41.769Z</time></trkpt><trkpt lat="-36.7429251" lon="174.4162593"><ele>125.33333333333333</ele><time>2026-04-08T23:12:43.77Z</time></trkpt><trkpt lat="-36.7429765" lon="174.416308"><ele>125.5</ele><time>2026-04-08T23:12:45.769Z</time></trkpt><trkpt lat="-36.743073" lon="174.4163336"><ele>125.66666666666666</ele><time>2026-04-08T23:12:48.769Z</time></trkpt><trkpt lat="-36.7431521" lon="174.416377"><ele>125.83333333333333</ele><time>2026-04-08T23:12:51.771Z</time></trkpt><trkpt lat="-36.7432098" lon="174.4164328"><ele>126.0</ele><time>2026-04-08T23:12:53.769Z</time></trkpt><trkpt lat="-36.7432857" lon="174.416474"><ele>126.0</ele><time>2026-04-08T23:12:56.769Z</time></trkpt><trkpt lat="-36.7433115" lon="174.4165616"><ele>126.0</ele><time>2026-04-08T23:12:59.771Z</time></trkpt><trkpt lat="-36.7432627" lon="174.4166197"><ele>126.0</ele><time>2026-04-08T23:13:02.769Z</time></trkpt><trkpt lat="-36.7432053" lon="174.4166882"><ele>126.0</ele><time>2026-04-08T23:13:05.771Z</time></trkpt><trkpt lat="-36.7431773" lon="174.4167871"><ele>126.0</ele><time>2026-04-08T23:13:08.769Z</time></trkpt><trkpt lat="-36.7431111" lon="174.4168531"><ele>126.0</ele><time>2026-04-08T23:13:11.769Z</time></trkpt><trkpt lat="-36.7430377" lon="174.4169253"><ele>126.0</ele><time>2026-04-08T23:13:14.769Z</time></trkpt><trkpt lat="-36.743069" lon="174.4170216"><ele>126.0</ele><time>2026-04-08T23:13:17.769Z</time></trkpt><trkpt lat="-36.7431405" lon="174.4170724"><ele>126.0</ele><time>2026-04-08T23:13:20.771Z</time></trkpt><trkpt lat="-36.7431709" lon="174.4171649"><ele>126.0</ele><time>2026-04-08T23:13:23.77Z</time></trkpt><trkpt lat="-36.7431771" lon="174.4172447"><ele>126.0</ele><time>2026-04-08T23:13:25.771Z</time></trkpt><trkpt lat="-36.7432054" lon="174.4173241"><ele>126.0</ele><time>2026-04-08T23:13:27.77Z</time></trkpt><trkpt lat="-36.7432436" lon="174.4173942"><ele>126.0</ele><time>2026-04-08T23:13:29.769Z</time></trkpt><trkpt lat="-36.7433133" lon="174.4174128"><ele>126.14285714285714</ele><time>2026-04-08T23:13:32.77Z</time></trkpt><trkpt lat="-36.7433632" lon="174.4173577"><ele>126.28571428571428</ele><time>2026-04-08T23:13:35.77Z</time></trkpt><trkpt lat="-36.7434304" lon="174.4173822"><ele>126.42857142857143</ele><time>2026-04-08T23:13:38.771Z</time></trkpt><trkpt lat="-36.743483" lon="174.4174421"><ele>126.57142857142857</ele><time>2026-04-08T23:13:40.768Z</time></trkpt><trkpt lat="-36.7435396" lon="174.4175231"><ele>126.71428571428571</ele><time>2026-04-08T23:13:42.77Z</time></trkpt><trkpt lat="-36.7435801" lon="174.417588"><ele>126.85714285714286</ele><time>2026-04-08T23:13:44.769Z</time></trkpt><trkpt lat="-36.7436646" lon="174.4175981"><ele>127.0</ele><time>2026-04-08T23:13:47.77Z</time></trkpt><trkpt lat="-36.7437127" lon="174.4175414"><ele>127.00000000000001</ele><time>2026-04-08T23:13:49.769Z</time></trkpt><trkpt lat="-36.7436947" lon="174.4174637"><ele>127.0</ele><time>2026-04-08T23:13:52.769Z</time></trkpt><trkpt lat="-36.7437554" lon="174.4173725"><ele>127.0</ele><time>2026-04-08T23:13:55.769Z</time></trkpt><trkpt lat="-36.7438167" lon="174.4173333"><ele>127.0</ele><time>2026-04-08T23:13:57.769Z</time></trkpt><trkpt lat="-36.7438646" lon="174.4172437"><ele>127.00000000000001</ele><time>2026-04-08T23:14:00.77Z</time></trkpt><trkpt lat="-36.7439292" lon="174.4171423"><ele>127.0</ele><time>2026-04-08T23:14:03.769Z</time></trkpt><trkpt lat="-36.7439926" lon="174.4171025"><ele>127.00000000000001</ele><time>2026-04-08T23:14:05.769Z</time></trkpt><trkpt lat="-36.7440594" lon="174.4170773"><ele>127.0</ele><time>2026-04-08T23:14:07.769Z</time></trkpt><trkpt lat="-36.7441562" lon="174.4170748"><ele>127.0</ele><time>2026-04-08T23:14:09.769Z</time></trkpt><trkpt lat="-36.7442658" lon="174.4170366"><ele>127.0</ele><time>2026-04-08T23:14:11.771Z</time></trkpt><trkpt lat="-36.7443456" lon="174.4169802"><ele>127.00000000000001</ele><time>2026-04-08T23:14:13.77Z</time></trkpt><trkpt lat="-36.744378" lon="174.4169122"><ele>127.0</ele><time>2026-04-08T23:14:15.77Z</time></trkpt><trkpt lat="-36.7443434" lon="174.4168352"><ele>127.0</ele><time>2026-04-08T23:14:17.77Z</time></trkpt><trkpt lat="-36.7442634" lon="174.4168127"><ele>126.99999999999999</ele><time>2026-04-08T23:14:19.77Z</time></trkpt><trkpt lat="-36.7441521" lon="174.4167792"><ele>126.99999999999999</ele><time>2026-04-08T23:14:21.769Z</time></trkpt><trkpt lat="-36.7440419" lon="174.4167563"><ele>127.0</ele><time>2026-04-08T23:14:23.77Z</time></trkpt><trkpt lat="-36.743966" lon="174.4166687"><ele>127.0</ele><time>2026-04-08T23:14:25.769Z</time></trkpt><trkpt lat="-36.7439812" lon="174.4165535"><ele>127.00000000000001</ele><time>2026-04-08T23:14:26.771Z</time></trkpt><trkpt lat="-36.7439702" lon="174.4164695"><ele>127.0</ele><time>2026-04-08T23:14:27.769Z</time></trkpt><trkpt lat="-36.7438821" lon="174.4163878"><ele>127.0</ele><time>2026-04-08T23:14:29.769Z</time></trkpt><trkpt lat="-36.7438178" lon="174.4162941"><ele>127.0</ele><time>2026-04-08T23:14:31.769Z</time></trkpt><trkpt lat="-36.7437761" lon="174.4161996"><ele>127.00000000000001</ele><time>2026-04-08T23:14:32.771Z</time></trkpt><trkpt lat="-36.7437175" lon="174.4161249"><ele>127.0</ele><time>2026-04-08T23:14:33.768Z</time></trkpt><trkpt lat="-36.7436716" lon="174.4160564"><ele>125.66666666666667</ele><time>2026-04-08T23:14:34.77Z</time></trkpt><trkpt lat="-36.7436491" lon="174.4159723"><ele>124.33333333333334</ele><time>2026-04-08T23:14:35.769Z</time></trkpt><trkpt lat="-36.7436652" lon="174.4158324"><ele>123.0</ele><time>2026-04-08T23:14:37.769Z</time></trkpt><trkpt lat="-36.7437189" lon="174.4157881"><ele>121.66666666666666</ele><time>2026-04-08T23:14:39.77Z</time></trkpt><trkpt lat="-36.7437766" lon="174.4158326"><ele>120.33333333333333</ele><time>2026-04-08T23:14:41.769Z</time></trkpt><trkpt lat="-36.7438224" lon="174.4159064"><ele>119.0</ele><time>2026-04-08T23:14:43.77Z</time></trkpt><trkpt lat="-36.7438625" lon="174.4159697"><ele>118.99999999999999</ele><time>2026-04-08T23:14:45.769Z</time></trkpt><trkpt lat="-36.7439253" lon="174.4159951"><ele>119.0</ele><time>2026-04-08T23:14:47.769Z</time></trkpt><trkpt lat="-36.7440192" lon="174.4160232"><ele>119.0</ele><time>2026-04-08T23:14:50.77Z</time></trkpt><trkpt lat="-36.7440626" lon="174.4160879"><ele>119.0</ele><time>2026-04-08T23:14:52.769Z</time></trkpt><trkpt lat="-36.7441106" lon="174.4161859"><ele>118.99999999999999</ele><time>2026-04-08T23:14:55.769Z</time></trkpt><trkpt lat="-36.7441284" lon="174.4162924"><ele>119.0</ele><time>2026-04-08T23:14:57.77Z</time></trkpt><trkpt lat="-36.744125" lon="174.4163719"><ele>118.99999999999999</ele><time>2026-04-08T23:14:59.769Z</time></trkpt><trkpt lat="-36.7441591" lon="174.4164939"><ele>119.0</ele><time>2026-04-08T23:15:02.769Z</time></trkpt><trkpt lat="-36.7441998" lon="174.4165707"><ele>119.0</ele><time>2026-04-08T23:15:04.77Z</time></trkpt><trkpt lat="-36.7442654" lon="174.4165476"><ele>119.0</ele><time>2026-04-08T23:15:07.769Z</time></trkpt><trkpt lat="-36.7442699" lon="174.4164353"><ele>118.99999999999999</ele><time>2026-04-08T23:15:10.771Z</time></trkpt><trkpt lat="-36.7442597" lon="174.4163391"><ele>119.0</ele><time>2026-04-08T23:15:12.769Z</time></trkpt><trkpt lat="-36.7442606" lon="174.4162521"><ele>118.99999999999999</ele><time>2026-04-08T23:15:14.771Z</time></trkpt><trkpt lat="-36.7443226" lon="174.4162139"><ele>119.0</ele><time>2026-04-08T23:15:17.769Z</time></trkpt><trkpt lat="-36.7443858" lon="174.4162599"><ele>119.0</ele><time>2026-04-08T23:15:19.769Z</time></trkpt><trkpt lat="-36.7444397" lon="174.4163095"><ele>119.0</ele><time>2026-04-08T23:15:21.769Z</time></trkpt><trkpt lat="-36.7444988" lon="174.4163942"><ele>118.99999999999999</ele><time>2026-04-08T23:15:24.769Z</time></trkpt><trkpt lat="-36.7445203" lon="174.4164822"><ele>119.0</ele><time>2026-04-08T23:15:26.769Z</time></trkpt><trkpt lat="-36.7445334" lon="174.4165805"><ele>120.85714285714286</ele><time>2026-04-08T23:15:28.769Z</time></trkpt><trkpt lat="-36.7445384" lon="174.4166736"><ele>122.71428571428572</ele><time>2026-04-08T23:15:30.769Z</time></trkpt><trkpt lat="-36.7445678" lon="174.416754"><ele>124.57142857142857</ele><time>2026-04-08T23:15:32.768Z</time></trkpt><trkpt lat="-36.7446147" lon="174.4168361"><ele>126.42857142857143</ele><time>2026-04-08T23:15:35.77Z</time></trkpt><trkpt lat="-36.7446258" lon="174.4169208"><ele>128.28571428571428</ele><time>2026-04-08T23:15:37.771Z</time></trkpt><trkpt lat="-36.7446871" lon="174.4169562"><ele>130.14285714285714</ele><time>2026-04-08T23:15:41.769Z</time></trkpt><trkpt lat="-36.7447505" lon="174.4169139"><ele>132.0</ele><time>2026-04-08T23:15:44.771Z</time></trkpt><trkpt lat="-36.7448365" lon="174.4168763"><ele>132.0</ele><time>2026-04-08T23:15:47.77Z</time></trkpt><trkpt lat="-36.7448991" lon="174.4168521"><ele>132.0</ele><time>2026-04-08T23:15:49.771Z</time></trkpt><trkpt lat="-36.7449616" lon="174.416878"><ele>132.0</ele><time>2026-04-08T23:15:51.771Z</time></trkpt><trkpt lat="-36.7450149" lon="174.416947"><ele>132.0</ele><time>2026-04-08T23:15:53.769Z</time></trkpt><trkpt lat="-36.7450653" lon="174.4170171"><ele>132.0</ele><time>2026-04-08T23:15:55.769Z</time></trkpt><trkpt lat="-36.7451189" lon="174.4170935"><ele>132.0</ele><time>2026-04-08T23:15:57.77Z</time></trkpt><trkpt lat="-36.7451917" lon="174.4171541"><ele>132.66666666666666</ele><time>2026-04-08T23:16:00.77Z</time></trkpt><trkpt lat="-36.745247" lon="174.4170938"><ele>133.33333333333334</ele><time>2026-04-08T23:16:03.768Z</time></trkpt><trkpt lat="-36.7453124" lon="174.4170474"><ele>134.0</ele><time>2026-04-08T23:16:07.768Z</time></trkpt><trkpt lat="-36.7453923" lon="174.4170832"><ele>134.66666666666669</ele><time>2026-04-08T23:16:10.771Z</time></trkpt><trkpt lat="-36.7454444" lon="174.4171345"><ele>135.33333333333334</ele><time>2026-04-08T23:16:12.768Z</time></trkpt><trkpt lat="-36.7455272" lon="174.4171536"><ele>136.0</ele><time>2026-04-08T23:16:14.77Z</time></trkpt><trkpt lat="-36.745594" lon="174.4171294"><ele>136.0</ele><time>2026-04-08T23:16:17.769Z</time></trkpt><trkpt lat="-36.7456687" lon="174.4171779"><ele>136.0</ele><time>2026-04-08T23:16:19.768Z</time></trkpt><trkpt lat="-36.7457415" lon="174.4172443"><ele>136.0</ele><time>2026-04-08T23:16:21.77Z</time></trkpt><trkpt lat="-36.7457747" lon="174.4173173"><ele>136.0</ele><time>2026-04-08T23:16:24.769Z</time></trkpt><trkpt lat="-36.7458215" lon="174.4174021"><ele>136.0</ele><time>2026-04-08T23:16:27.77Z</time></trkpt><trkpt lat="-36.7458624" lon="174.4174848"><ele>136.0</ele><time>2026-04-08T23:16:30.769Z</time></trkpt><trkpt lat="-36.7458902" lon="174.4175816"><ele>135.99999999999997</ele><time>2026-04-08T23:16:33.769Z</time></trkpt><trkpt lat="-36.7459266" lon="174.4176736"><ele>136.0</ele><time>2026-04-08T23:16:36.768Z</time></trkpt><trkpt lat="-36.7459649" lon="174.4177395"><ele>136.0</ele><time>2026-04-08T23:16:38.77Z</time></trkpt><trkpt lat="-36.746029" lon="174.4177791"><ele>136.0</ele><time>2026-04-08T23:16:41.77Z</time></trkpt><trkpt lat="-36.7460853" lon="174.4178331"><ele>136.0</ele><time>2026-04-08T23:16:46.77Z</time></trkpt><trkpt lat="-36.7460724" lon="174.4179328"><ele>135.99999999999997</ele><time>2026-04-08T23:16:50.769Z</time></trkpt><trkpt lat="-36.746013" lon="174.4179847"><ele>136.0</ele><time>2026-04-08T23:16:54.77Z</time></trkpt><trkpt lat="-36.7459354" lon="174.418037"><ele>136.0</ele><time>2026-04-08T23:17:15.769Z</time></trkpt><trkpt lat="-36.7458837" lon="174.4179812"><ele>136.0</ele><time>2026-04-08T23:17:19.768Z</time></trkpt><trkpt lat="-36.7458212" lon="174.4179015"><ele>136.0</ele><time>2026-04-08T23:17:21.769Z</time></trkpt><trkpt lat="-36.7457015" lon="174.4178427"><ele>136.0</ele><time>2026-04-08T23:17:22.769Z</time></trkpt><trkpt lat="-36.7456342" lon="174.4177929"><ele>136.0</ele><time>2026-04-08T23:17:23.769Z</time></trkpt><trkpt lat="-36.7455648" lon="174.4177655"><ele>136.0</ele><time>2026-04-08T23:17:24.77Z</time></trkpt><trkpt lat="-36.745454" lon="174.4176551"><ele>136.0</ele><time>2026-04-08T23:17:26.77Z</time></trkpt><trkpt lat="-36.745387" lon="174.4175765"><ele>136.0</ele><time>2026-04-08T23:17:27.77Z</time></trkpt><trkpt lat="-36.7453486" lon="174.4175124"><ele>136.0</ele><time>2026-04-08T23:17:28.768Z</time></trkpt><trkpt lat="-36.7453086" lon="174.4174412"><ele>136.0</ele><time>2026-04-08T23:17:29.771Z</time></trkpt><trkpt lat="-36.745218" lon="174.4173745"><ele>136.0</ele><time>2026-04-08T23:17:31.77Z</time></trkpt><trkpt lat="-36.7450934" lon="174.4173018"><ele>135.0</ele><time>2026-04-08T23:17:33.77Z</time></trkpt><trkpt lat="-36.7449755" lon="174.4172203"><ele>134.0</ele><time>2026-04-08T23:17:35.77Z</time></trkpt><trkpt lat="-36.7448844" lon="174.4171456"><ele>133.0</ele><time>2026-04-08T23:17:37.768Z</time></trkpt><trkpt lat="-36.7447822" lon="174.4171431"><ele>132.0</ele><time>2026-04-08T23:17:39.769Z</time></trkpt><trkpt lat="-36.7447482" lon="174.4172979"><ele>132.0</ele><time>2026-04-08T23:17:41.77Z</time></trkpt><trkpt lat="-36.7447796" lon="174.417415"><ele>132.0</ele><time>2026-04-08T23:17:43.769Z</time></trkpt><trkpt lat="-36.7447432" lon="174.4175172"><ele>132.0</ele><time>2026-04-08T23:17:45.769Z</time></trkpt><trkpt lat="-36.7446826" lon="174.4176351"><ele>132.0</ele><time>2026-04-08T23:17:47.77Z</time></trkpt><trkpt lat="-36.7446247" lon="174.4176809"><ele>132.0</ele><time>2026-04-08T23:17:48.77Z</time></trkpt><trkpt lat="-36.7445608" lon="174.4177433"><ele>132.0</ele><time>2026-04-08T23:17:50.769Z</time></trkpt><trkpt lat="-36.7444962" lon="174.41779"><ele>132.0</ele><time>2026-04-08T23:17:51.769Z</time></trkpt><trkpt lat="-36.7444202" lon="174.4178471"><ele>132.0</ele><time>2026-04-08T23:17:52.77Z</time></trkpt><trkpt lat="-36.7442896" lon="174.4178636"><ele>132.0</ele><time>2026-04-08T23:17:54.77Z</time></trkpt><trkpt lat="-36.74418" lon="174.4179448"><ele>132.0</ele><time>2026-04-08T23:17:56.77Z</time></trkpt><trkpt lat="-36.7441268" lon="174.417995"><ele>129.4</ele><time>2026-04-08T23:17:57.77Z</time></trkpt><trkpt lat="-36.7440577" lon="174.4180528"><ele>126.79999999999998</ele><time>2026-04-08T23:17:58.769Z</time></trkpt><trkpt lat="-36.7439708" lon="174.4180935"><ele>124.2</ele><time>2026-04-08T23:17:59.769Z</time></trkpt><trkpt lat="-36.7438963" lon="174.4181089"><ele>121.6</ele><time>2026-04-08T23:18:00.771Z</time></trkpt><trkpt lat="-36.7437952" lon="174.4181696"><ele>119.0</ele><time>2026-04-08T23:18:02.769Z</time></trkpt><trkpt lat="-36.7437149" lon="174.4182333"><ele>118.99999999999999</ele><time>2026-04-08T23:18:04.769Z</time></trkpt><trkpt lat="-36.7436357" lon="174.4182716"><ele>119.0</ele><time>2026-04-08T23:18:06.769Z</time></trkpt><trkpt lat="-36.7435747" lon="174.4183315"><ele>119.0</ele><time>2026-04-08T23:18:08.769Z</time></trkpt><trkpt lat="-36.7435202" lon="174.4183863"><ele>119.0</ele><time>2026-04-08T23:18:09.771Z</time></trkpt><trkpt lat="-36.7434574" lon="174.4184342"><ele>118.99999999999999</ele><time>2026-04-08T23:18:10.77Z</time></trkpt><trkpt lat="-36.7433595" lon="174.4185493"><ele>119.0</ele><time>2026-04-08T23:18:12.771Z</time></trkpt><trkpt lat="-36.7432984" lon="174.4186153"><ele>118.33333333333333</ele><time>2026-04-08T23:18:13.771Z</time></trkpt><trkpt lat="-36.7432498" lon="174.4186756"><ele>117.66666666666666</ele><time>2026-04-08T23:18:14.768Z</time></trkpt><trkpt lat="-36.7431796" lon="174.4187186"><ele>117.0</ele><time>2026-04-08T23:18:15.769Z</time></trkpt><trkpt lat="-36.7430641" lon="174.4187269"><ele>116.33333333333334</ele><time>2026-04-08T23:18:17.768Z</time></trkpt><trkpt lat="-36.7429973" lon="174.4187159"><ele>115.66666666666667</ele><time>2026-04-08T23:18:18.769Z</time></trkpt><trkpt lat="-36.7428787" lon="174.4187017"><ele>115.0</ele><time>2026-04-08T23:18:20.77Z</time></trkpt><trkpt lat="-36.7427734" lon="174.4186938"><ele>115.85714285714283</ele><time>2026-04-08T23:18:22.769Z</time></trkpt><trkpt lat="-36.7427063" lon="174.4186783"><ele>116.71428571428571</ele><time>2026-04-08T23:18:23.77Z</time></trkpt><trkpt lat="-36.7426373" lon="174.4186716"><ele>117.57142857142856</ele><time>2026-04-08T23:18:24.769Z</time></trkpt><trkpt lat="-36.7425746" lon="174.4186944"><ele>118.42857142857142</ele><time>2026-04-08T23:18:25.768Z</time></trkpt><trkpt lat="-36.7425002" lon="174.4187156"><ele>119.28571428571428</ele><time>2026-04-08T23:18:26.77Z</time></trkpt><trkpt lat="-36.7424359" lon="174.4187492"><ele>120.14285714285714</ele><time>2026-04-08T23:18:27.769Z</time></trkpt><trkpt lat="-36.7423701" lon="174.4187855"><ele>121.0</ele><time>2026-04-08T23:18:28.77Z</time></trkpt><trkpt lat="-36.7423079" lon="174.4188165"><ele>119.71428571428571</ele><time>2026-04-08T23:18:29.769Z</time></trkpt><trkpt lat="-36.7422454" lon="174.4188535"><ele>118.42857142857142</ele><time>2026-04-08T23:18:30.77Z</time></trkpt><trkpt lat="-36.7421817" lon="174.4188868"><ele>117.14285714285714</ele><time>2026-04-08T23:18:31.77Z</time></trkpt><trkpt lat="-36.7421218" lon="174.4189178"><ele>115.85714285714286</ele><time>2026-04-08T23:18:32.77Z</time></trkpt><trkpt lat="-36.7420503" lon="174.4189335"><ele>114.57142857142857</ele><time>2026-04-08T23:18:33.769Z</time></trkpt><trkpt lat="-36.741983" lon="174.418959"><ele>113.28571428571428</ele><time>2026-04-08T23:18:34.769Z</time></trkpt><trkpt lat="-36.7419211" lon="174.418985"><ele>112.0</ele><time>2026-04-08T23:18:35.769Z</time></trkpt><trkpt lat="-36.7418431" lon="174.4190048"><ele>111.39999999999999</ele><time>2026-04-08T23:18:36.77Z</time></trkpt><trkpt lat="-36.7417782" lon="174.4190006"><ele>110.79999999999998</ele><time>2026-04-08T23:18:37.77Z</time></trkpt><trkpt lat="-36.7416738" lon="174.4190097"><ele>110.2</ele><time>2026-04-08T23:18:39.769Z</time></trkpt><trkpt lat="-36.7415563" lon="174.4190315"><ele>109.6</ele><time>2026-04-08T23:18:41.77Z</time></trkpt><trkpt lat="-36.741433" lon="174.4189996"><ele>109.0</ele><time>2026-04-08T23:18:43.77Z</time></trkpt><trkpt lat="-36.7413346" lon="174.4190186"><ele>109.0</ele><time>2026-04-08T23:18:45.769Z</time></trkpt><trkpt lat="-36.7412926" lon="174.4190812"><ele>109.0</ele><time>2026-04-08T23:18:47.769Z</time></trkpt><trkpt lat="-36.7412043" lon="174.4191976"><ele>109.0</ele><time>2026-04-08T23:18:49.768Z</time></trkpt><trkpt lat="-36.7411222" lon="174.4193059"><ele>109.0</ele><time>2026-04-08T23:18:51.77Z</time></trkpt><trkpt lat="-36.741019" lon="174.4193696"><ele>109.0</ele><time>2026-04-08T23:18:53.771Z</time></trkpt><trkpt lat="-36.7410205" lon="174.4192717"><ele>109.00000000000001</ele><time>2026-04-08T23:18:58.771Z</time></trkpt><trkpt lat="-36.7410531" lon="174.4191904"><ele>109.0</ele><time>2026-04-08T23:19:01.77Z</time></trkpt><trkpt lat="-36.7409825" lon="174.4192319"><ele>109.0</ele><time>2026-04-08T23:19:04.77Z</time></trkpt><trkpt lat="-36.7408955" lon="174.4192795"><ele>109.0</ele><time>2026-04-08T23:19:07.769Z</time></trkpt><trkpt lat="-36.7408209" lon="174.4192988"><ele>109.00000000000001</ele><time>2026-04-08T23:19:09.771Z</time></trkpt><trkpt lat="-36.7407572" lon="174.4193393"><ele>109.0</ele><time>2026-04-08T23:19:11.769Z</time></trkpt><trkpt lat="-36.7406804" lon="174.4194056"><ele>109.6</ele><time>2026-04-08T23:19:13.77Z</time></trkpt><trkpt lat="-36.7405824" lon="174.4194766"><ele>110.2</ele><time>2026-04-08T23:19:15.768Z</time></trkpt><trkpt lat="-36.740521" lon="174.4195008"><ele>110.79999999999998</ele><time>2026-04-08T23:19:16.77Z</time></trkpt><trkpt lat="-36.7404283" lon="174.4195315"><ele>111.39999999999999</ele><time>2026-04-08T23:19:18.768Z</time></trkpt><trkpt lat="-36.7403177" lon="174.4195647"><ele>112.0</ele><time>2026-04-08T23:19:20.769Z</time></trkpt><trkpt lat="-36.7402546" lon="174.4195725"><ele>111.71428571428571</ele><time>2026-04-08T23:19:21.77Z</time></trkpt><trkpt lat="-36.7401876" lon="174.4195636"><ele>111.42857142857143</ele><time>2026-04-08T23:19:22.769Z</time></trkpt><trkpt lat="-36.7401219" lon="174.4195684"><ele>111.14285714285714</ele><time>2026-04-08T23:19:23.769Z</time></trkpt><trkpt lat="-36.740041" lon="174.4195631"><ele>110.85714285714286</ele><time>2026-04-08T23:19:24.77Z</time></trkpt><trkpt lat="-36.7399598" lon="174.4195608"><ele>110.57142857142857</ele><time>2026-04-08T23:19:25.77Z</time></trkpt><trkpt lat="-36.7398795" lon="174.4195631"><ele>110.28571428571428</ele><time>2026-04-08T23:19:26.768Z</time></trkpt><trkpt lat="-36.7398088" lon="174.4195674"><ele>110.0</ele><time>2026-04-08T23:19:27.77Z</time></trkpt><trkpt lat="-36.7397332" lon="174.4195829"><ele>109.99999999999999</ele><time>2026-04-08T23:19:28.771Z</time></trkpt><trkpt lat="-36.7396507" lon="174.4195874"><ele>110.0</ele><time>2026-04-08T23:19:29.769Z</time></trkpt><trkpt lat="-36.7395742" lon="174.4195901"><ele>110.0</ele><time>2026-04-08T23:19:30.77Z</time></trkpt><trkpt lat="-36.7395031" lon="174.4196072"><ele>110.0</ele><time>2026-04-08T23:19:31.769Z</time></trkpt><trkpt lat="-36.7394342" lon="174.4196199"><ele>109.99999999999999</ele><time>2026-04-08T23:19:32.769Z</time></trkpt><trkpt lat="-36.7393107" lon="174.4196395"><ele>110.0</ele><time>2026-04-08T23:19:34.768Z</time></trkpt><trkpt lat="-36.7392112" lon="174.4195735"><ele>107.99999999999999</ele><time>2026-04-08T23:19:36.771Z</time></trkpt><trkpt lat="-36.7391359" lon="174.4194952"><ele>106.0</ele><time>2026-04-08T23:19:38.769Z</time></trkpt><trkpt lat="-36.7390727" lon="174.4194074"><ele>104.0</ele><time>2026-04-08T23:19:40.769Z</time></trkpt><trkpt lat="-36.7390228" lon="174.4193076"><ele>102.0</ele><time>2026-04-08T23:19:42.77Z</time></trkpt><trkpt lat="-36.7390264" lon="174.4194038"><ele>99.99999999999999</ele><time>2026-04-08T23:19:48.77Z</time></trkpt><trkpt lat="-36.7390571" lon="174.4194784"><ele>98.0</ele><time>2026-04-08T23:19:49.77Z</time></trkpt><trkpt lat="-36.7390941" lon="174.4195517"><ele>95.80000000000001</ele><time>2026-04-08T23:19:50.77Z</time></trkpt><trkpt lat="-36.7391546" lon="174.4197168"><ele>93.6</ele><time>2026-04-08T23:19:52.769Z</time></trkpt><trkpt lat="-36.7391763" lon="174.4198109"><ele>91.4</ele><time>2026-04-08T23:19:53.768Z</time></trkpt><trkpt lat="-36.7391852" lon="174.419897"><ele>89.19999999999999</ele><time>2026-04-08T23:19:54.769Z</time></trkpt><trkpt lat="-36.7392239" lon="174.4200367"><ele>87.0</ele><time>2026-04-08T23:19:56.769Z</time></trkpt><trkpt lat="-36.7392502" lon="174.4201255"><ele>87.0</ele><time>2026-04-08T23:19:57.77Z</time></trkpt><trkpt lat="-36.7392891" lon="174.4202088"><ele>87.0</ele><time>2026-04-08T23:19:58.768Z</time></trkpt><trkpt lat="-36.7393134" lon="174.4202904"><ele>87.0</ele><time>2026-04-08T23:19:59.769Z</time></trkpt><trkpt lat="-36.7393547" lon="174.4204146"><ele>87.0</ele><time>2026-04-08T23:20:01.769Z</time></trkpt><trkpt lat="-36.7394163" lon="174.4204469"><ele>87.0</ele><time>2026-04-08T23:20:02.77Z</time></trkpt><trkpt lat="-36.7394457" lon="174.4205763"><ele>87.0</ele><time>2026-04-08T23:20:04.769Z</time></trkpt><trkpt lat="-36.7394788" lon="174.4206891"><ele>88.0</ele><time>2026-04-08T23:20:06.771Z</time></trkpt><trkpt lat="-36.7394724" lon="174.4208637"><ele>89.0</ele><time>2026-04-08T23:20:08.769Z</time></trkpt><trkpt lat="-36.7394136" lon="174.4209804"><ele>90.0</ele><time>2026-04-08T23:20:10.768Z</time></trkpt><trkpt lat="-36.73939" lon="174.4211245"><ele>91.0</ele><time>2026-04-08T23:20:12.77Z</time></trkpt><trkpt lat="-36.7393901" lon="174.4212528"><ele>90.0</ele><time>2026-04-08T23:20:14.769Z</time></trkpt><trkpt lat="-36.7394056" lon="174.4213591"><ele>89.0</ele><time>2026-04-08T23:20:16.768Z</time></trkpt><trkpt lat="-36.7394069" lon="174.4215264"><ele>88.0</ele><time>2026-04-08T23:20:18.769Z</time></trkpt><trkpt lat="-36.7394198" lon="174.4216035"><ele>87.0</ele><time>2026-04-08T23:20:19.77Z</time></trkpt><trkpt lat="-36.7394452" lon="174.4216859"><ele>86.0</ele><time>2026-04-08T23:20:20.768Z</time></trkpt><trkpt lat="-36.7394695" lon="174.4217782"><ele>85.0</ele><time>2026-04-08T23:20:21.77Z</time></trkpt><trkpt lat="-36.7395578" lon="174.4218848"><ele>85.0</ele><time>2026-04-08T23:20:23.768Z</time></trkpt><trkpt lat="-36.7396247" lon="174.4219744"><ele>85.0</ele><time>2026-04-08T23:20:25.77Z</time></trkpt><trkpt lat="-36.7396775" lon="174.4220682"><ele>85.0</ele><time>2026-04-08T23:20:27.769Z</time></trkpt><trkpt lat="-36.7397398" lon="174.4221218"><ele>85.0</ele><time>2026-04-08T23:20:29.769Z</time></trkpt><trkpt lat="-36.7398348" lon="174.422155"><ele>85.0</ele><time>2026-04-08T23:20:31.769Z</time></trkpt><trkpt lat="-36.7399178" lon="174.4221764"><ele>85.0</ele><time>2026-04-08T23:20:33.77Z</time></trkpt><trkpt lat="-36.7399853" lon="174.4222062"><ele>85.0</ele><time>2026-04-08T23:20:35.77Z</time></trkpt><trkpt lat="-36.7400243" lon="174.4222843"><ele>85.0</ele><time>2026-04-08T23:20:39.771Z</time></trkpt><trkpt lat="-36.7400281" lon="174.422367"><ele>85.0</ele><time>2026-04-08T23:20:42.77Z</time></trkpt><trkpt lat="-36.7400057" lon="174.4224514"><ele>85.0</ele><time>2026-04-08T23:20:45.769Z</time></trkpt><trkpt lat="-36.7399604" lon="174.4225165"><ele>85.0</ele><time>2026-04-08T23:20:51.77Z</time></trkpt><trkpt lat="-36.7399396" lon="174.4226031"><ele>85.0</ele><time>2026-04-08T23:20:54.771Z</time></trkpt><trkpt lat="-36.7399736" lon="174.4226926"><ele>85.0</ele><time>2026-04-08T23:20:57.769Z</time></trkpt><trkpt lat="-36.740062" lon="174.4227284"><ele>85.0</ele><time>2026-04-08T23:21:00.771Z</time></trkpt><trkpt lat="-36.7401447" lon="174.4227276"><ele>85.0</ele><time>2026-04-08T23:21:02.769Z</time></trkpt><trkpt lat="-36.7402101" lon="174.4227174"><ele>85.0</ele><time>2026-04-08T23:21:04.769Z</time></trkpt><trkpt lat="-36.7402875" lon="174.4227199"><ele>89.0</ele><time>2026-04-08T23:21:07.771Z</time></trkpt><trkpt lat="-36.7403456" lon="174.4227623"><ele>89.0</ele><time>2026-04-08T23:21:10.769Z</time></trkpt><trkpt lat="-36.7404009" lon="174.4228089"><ele>89.0</ele><time>2026-04-08T23:26:18.769Z</time></trkpt></trkseg></trk></gpx>